<?xml version='1.0' encoding='UTF-8'?><gpx version="1.1" creator="JPX - https://github.com/jenetics/jpx" xmlns="http://www.topografix.com/GPX/1/1"><trk><trkseg><trkpt lat="45.9488886" lon="8.4300892"><ele>204.0</ele><time>2026-04-18T09:13:21.583Z</time></trkpt><trkpt lat="45.9489551" lon="8.4301706"><ele>204.0</ele><time>2026-04-18T09:13:23.578Z</time></trkpt><trkpt lat="45.9489562" lon="8.4303023"><ele>204.0</ele><time>2026-04-18T09:13:25.576Z</time></trkpt><trkpt lat="45.9489051" lon="8.4304161"><ele>204.0</ele><time>2026-04-18T09:13:27.564Z</time></trkpt><trkpt lat="45.94883" lon="8.4305765"><ele>204.0</ele><time>2026-04-18T09:13:29.571Z</time></trkpt><trkpt lat="45.9487836" lon="8.4306618"><ele>204.0</ele><time>2026-04-18T09:13:30.564Z</time></trkpt><trkpt lat="45.9486952" lon="8.43082"><ele>204.0</ele><time>2026-04-18T09:13:33.259Z</time></trkpt><trkpt lat="45.9487388" lon="8.4309089"><ele>204.0</ele><time>2026-04-18T09:13:35.178Z</time></trkpt><trkpt lat="45.9488156" lon="8.4309507"><ele>204.0</ele><time>2026-04-18T09:13:36.15Z</time></trkpt><trkpt lat="45.9489122" lon="8.430995"><ele>204.0</ele><time>2026-04-18T09:13:37.168Z</time></trkpt><trkpt lat="45.9489991" lon="8.431047"><ele>204.0</ele><time>2026-04-18T09:13:38.155Z</time></trkpt><trkpt lat="45.949055" lon="8.4310896"><ele>204.0</ele><time>2026-04-18T09:13:39.192Z</time></trkpt><trkpt lat="45.9491837" lon="8.4311383"><ele>204.0</ele><time>2026-04-18T09:13:41.958Z</time></trkpt><trkpt lat="45.9492795" lon="8.431151"><ele>204.0</ele><time>2026-04-18T09:13:44.767Z</time></trkpt><trkpt lat="45.949313" lon="8.4312472"><ele>204.0</ele><time>2026-04-18T09:13:46.763Z</time></trkpt><trkpt lat="45.9493944" lon="8.4313599"><ele>204.0</ele><time>2026-04-18T09:13:48.775Z</time></trkpt><trkpt lat="45.9494852" lon="8.4314219"><ele>204.0</ele><time>2026-04-18T09:13:49.756Z</time></trkpt><trkpt lat="45.9495945" lon="8.4314724"><ele>204.0</ele><time>2026-04-18T09:13:50.758Z</time></trkpt><trkpt lat="45.9496925" lon="8.4315027"><ele>204.0</ele><time>2026-04-18T09:13:51.764Z</time></trkpt><trkpt lat="45.9497792" lon="8.4315419"><ele>204.0</ele><time>2026-04-18T09:13:52.754Z</time></trkpt><trkpt lat="45.9498779" lon="8.4316002"><ele>204.0</ele><time>2026-04-18T09:13:53.763Z</time></trkpt><trkpt lat="45.9499669" lon="8.4316478"><ele>204.0</ele><time>2026-04-18T09:13:54.755Z</time></trkpt><trkpt lat="45.9500533" lon="8.4316726"><ele>204.0</ele><time>2026-04-18T09:13:55.76Z</time></trkpt><trkpt lat="45.9501355" lon="8.4317061"><ele>204.0</ele><time>2026-04-18T09:13:56.752Z</time></trkpt><trkpt lat="45.9502135" lon="8.4317421"><ele>204.0</ele><time>2026-04-18T09:13:57.751Z</time></trkpt><trkpt lat="45.9502832" lon="8.4317733"><ele>204.0</ele><time>2026-04-18T09:13:58.756Z</time></trkpt><trkpt lat="45.9503801" lon="8.4317504"><ele>203.66666666666666</ele><time>2026-04-18T09:14:00.763Z</time></trkpt><trkpt lat="45.9504197" lon="8.4316656"><ele>203.33333333333331</ele><time>2026-04-18T09:14:01.759Z</time></trkpt><trkpt lat="45.9504628" lon="8.4315636"><ele>203.0</ele><time>2026-04-18T09:14:02.745Z</time></trkpt><trkpt lat="45.9505203" lon="8.4314694"><ele>202.66666666666666</ele><time>2026-04-18T09:14:03.741Z</time></trkpt><trkpt lat="45.9505849" lon="8.431378"><ele>202.33333333333331</ele><time>2026-04-18T09:14:04.751Z</time></trkpt><trkpt lat="45.9506534" lon="8.4312781"><ele>202.0</ele><time>2026-04-18T09:14:05.742Z</time></trkpt><trkpt lat="45.9507266" lon="8.4311789"><ele>202.83333333333331</ele><time>2026-04-18T09:14:06.748Z</time></trkpt><trkpt lat="45.9507908" lon="8.4310852"><ele>203.66666666666666</ele><time>2026-04-18T09:14:07.752Z</time></trkpt><trkpt lat="45.9508423" lon="8.4309998"><ele>204.5</ele><time>2026-04-18T09:14:08.751Z</time></trkpt><trkpt lat="45.9508947" lon="8.4309171"><ele>205.33333333333331</ele><time>2026-04-18T09:14:09.782Z</time></trkpt><trkpt lat="45.9509433" lon="8.430828"><ele>206.16666666666666</ele><time>2026-04-18T09:14:10.752Z</time></trkpt><trkpt lat="45.9509988" lon="8.4307284"><ele>207.0</ele><time>2026-04-18T09:14:11.752Z</time></trkpt><trkpt lat="45.9510589" lon="8.4306303"><ele>207.0</ele><time>2026-04-18T09:14:12.748Z</time></trkpt><trkpt lat="45.9511167" lon="8.4305519"><ele>207.0</ele><time>2026-04-18T09:14:13.735Z</time></trkpt><trkpt lat="45.9511865" lon="8.4304701"><ele>207.0</ele><time>2026-04-18T09:14:14.731Z</time></trkpt><trkpt lat="45.9513068" lon="8.4303127"><ele>207.0</ele><time>2026-04-18T09:14:16.637Z</time></trkpt><trkpt lat="45.9513849" lon="8.4303714"><ele>207.0</ele><time>2026-04-18T09:14:18.612Z</time></trkpt><trkpt lat="45.95144" lon="8.4304217"><ele>207.0</ele><time>2026-04-18T09:14:20.6Z</time></trkpt><trkpt lat="45.9515157" lon="8.4305201"><ele>207.0</ele><time>2026-04-18T09:14:22.602Z</time></trkpt><trkpt lat="45.9515278" lon="8.4306352"><ele>207.0</ele><time>2026-04-18T09:14:23.603Z</time></trkpt><trkpt lat="45.9515629" lon="8.430764"><ele>207.0</ele><time>2026-04-18T09:14:25.627Z</time></trkpt><trkpt lat="45.9516295" lon="8.4308618"><ele>207.0</ele><time>2026-04-18T09:14:27.611Z</time></trkpt><trkpt lat="45.9516718" lon="8.4310168"><ele>207.00000000000003</ele><time>2026-04-18T09:14:29.608Z</time></trkpt><trkpt lat="45.9517083" lon="8.431095"><ele>207.0</ele><time>2026-04-18T09:14:30.612Z</time></trkpt><trkpt lat="45.9517484" lon="8.4311772"><ele>207.0</ele><time>2026-04-18T09:14:31.616Z</time></trkpt><trkpt lat="45.9517993" lon="8.4312555"><ele>207.0</ele><time>2026-04-18T09:14:32.605Z</time></trkpt><trkpt lat="45.951844" lon="8.4313283"><ele>207.0</ele><time>2026-04-18T09:14:33.606Z</time></trkpt><trkpt lat="45.9518871" lon="8.4314079"><ele>207.00000000000003</ele><time>2026-04-18T09:14:34.608Z</time></trkpt><trkpt lat="45.9519109" lon="8.431513"><ele>207.0</ele><time>2026-04-18T09:14:35.597Z</time></trkpt><trkpt lat="45.9520278" lon="8.431616"><ele>207.0</ele><time>2026-04-18T09:14:37.625Z</time></trkpt><trkpt lat="45.9521291" lon="8.43165"><ele>207.0</ele><time>2026-04-18T09:14:38.607Z</time></trkpt><trkpt lat="45.952231" lon="8.4316674"><ele>207.0</ele><time>2026-04-18T09:14:39.612Z</time></trkpt><trkpt lat="45.9523143" lon="8.431684"><ele>207.0</ele><time>2026-04-18T09:14:40.644Z</time></trkpt><trkpt lat="45.9524014" lon="8.4316509"><ele>207.0</ele><time>2026-04-18T09:14:41.608Z</time></trkpt><trkpt lat="45.952492" lon="8.4316152"><ele>207.0</ele><time>2026-04-18T09:14:42.614Z</time></trkpt><trkpt lat="45.9525744" lon="8.431591"><ele>207.0</ele><time>2026-04-18T09:14:43.608Z</time></trkpt><trkpt lat="45.9526432" lon="8.4315911"><ele>207.0</ele><time>2026-04-18T09:14:44.607Z</time></trkpt><trkpt lat="45.9527193" lon="8.4316207"><ele>207.0</ele><time>2026-04-18T09:14:45.605Z</time></trkpt><trkpt lat="45.9528089" lon="8.4316674"><ele>207.0</ele><time>2026-04-18T09:14:46.607Z</time></trkpt><trkpt lat="45.9529069" lon="8.4317084"><ele>207.0</ele><time>2026-04-18T09:14:47.605Z</time></trkpt><trkpt lat="45.9530234" lon="8.4317358"><ele>207.0</ele><time>2026-04-18T09:14:48.608Z</time></trkpt><trkpt lat="45.9531398" lon="8.431766"><ele>207.0</ele><time>2026-04-18T09:14:49.61Z</time></trkpt><trkpt lat="45.9532588" lon="8.4317903"><ele>207.0</ele><time>2026-04-18T09:14:50.623Z</time></trkpt><trkpt lat="45.9533787" lon="8.4318118"><ele>207.0</ele><time>2026-04-18T09:14:51.622Z</time></trkpt><trkpt lat="45.953491" lon="8.4318285"><ele>206.2</ele><time>2026-04-18T09:14:52.608Z</time></trkpt><trkpt lat="45.9535777" lon="8.4318495"><ele>205.39999999999998</ele><time>2026-04-18T09:14:53.602Z</time></trkpt><trkpt lat="45.9536739" lon="8.4318605"><ele>204.60000000000002</ele><time>2026-04-18T09:14:54.617Z</time></trkpt><trkpt lat="45.9537857" lon="8.4318838"><ele>203.8</ele><time>2026-04-18T09:14:55.614Z</time></trkpt><trkpt lat="45.9538953" lon="8.4318948"><ele>203.0</ele><time>2026-04-18T09:14:56.616Z</time></trkpt><trkpt lat="45.9539782" lon="8.4318983"><ele>203.0</ele><time>2026-04-18T09:14:57.608Z</time></trkpt><trkpt lat="45.9540575" lon="8.4318931"><ele>203.0</ele><time>2026-04-18T09:15:01.623Z</time></trkpt><trkpt lat="45.9541454" lon="8.4318866"><ele>203.0</ele><time>2026-04-18T09:15:03.615Z</time></trkpt><trkpt lat="45.9542701" lon="8.4319453"><ele>203.0</ele><time>2026-04-18T09:15:05.619Z</time></trkpt><trkpt lat="45.9543554" lon="8.4319882"><ele>203.0</ele><time>2026-04-18T09:15:06.622Z</time></trkpt><trkpt lat="45.9544496" lon="8.4320345"><ele>202.8</ele><time>2026-04-18T09:15:07.618Z</time></trkpt><trkpt lat="45.9545437" lon="8.4320736"><ele>202.60000000000002</ele><time>2026-04-18T09:15:08.615Z</time></trkpt><trkpt lat="45.9546349" lon="8.432103"><ele>202.39999999999998</ele><time>2026-04-18T09:15:09.624Z</time></trkpt><trkpt lat="45.9547239" lon="8.4321306"><ele>202.2</ele><time>2026-04-18T09:15:10.623Z</time></trkpt><trkpt lat="45.9548201" lon="8.4321547"><ele>202.0</ele><time>2026-04-18T09:15:11.633Z</time></trkpt><trkpt lat="45.95492" lon="8.4321814"><ele>202.6</ele><time>2026-04-18T09:15:12.62Z</time></trkpt><trkpt lat="45.9550168" lon="8.4322235"><ele>203.2</ele><time>2026-04-18T09:15:13.619Z</time></trkpt><trkpt lat="45.9551197" lon="8.4322537"><ele>203.8</ele><time>2026-04-18T09:15:14.624Z</time></trkpt><trkpt lat="45.9552168" lon="8.432279"><ele>204.4</ele><time>2026-04-18T09:15:15.613Z</time></trkpt><trkpt lat="45.9553138" lon="8.4323205"><ele>205.0</ele><time>2026-04-18T09:15:16.617Z</time></trkpt><trkpt lat="45.9554129" lon="8.4323551"><ele>205.0</ele><time>2026-04-18T09:15:17.629Z</time></trkpt><trkpt lat="45.9555191" lon="8.4323858"><ele>205.0</ele><time>2026-04-18T09:15:18.622Z</time></trkpt><trkpt lat="45.955628" lon="8.4324136"><ele>205.0</ele><time>2026-04-18T09:15:19.624Z</time></trkpt><trkpt lat="45.9557295" lon="8.4324342"><ele>205.0</ele><time>2026-04-18T09:15:20.616Z</time></trkpt><trkpt lat="45.9558235" lon="8.4324692"><ele>205.0</ele><time>2026-04-18T09:15:21.604Z</time></trkpt><trkpt lat="45.9559124" lon="8.4325012"><ele>205.2</ele><time>2026-04-18T09:15:22.618Z</time></trkpt><trkpt lat="45.9560039" lon="8.4325167"><ele>205.4</ele><time>2026-04-18T09:15:23.625Z</time></trkpt><trkpt lat="45.9561028" lon="8.4325331"><ele>205.60000000000002</ele><time>2026-04-18T09:15:24.609Z</time></trkpt><trkpt lat="45.9562021" lon="8.4325689"><ele>205.8</ele><time>2026-04-18T09:15:25.615Z</time></trkpt><trkpt lat="45.9563047" lon="8.4326029"><ele>206.0</ele><time>2026-04-18T09:15:26.616Z</time></trkpt><trkpt lat="45.9564021" lon="8.4326478"><ele>206.0</ele><time>2026-04-18T09:15:27.616Z</time></trkpt><trkpt lat="45.9564883" lon="8.4326893"><ele>206.0</ele><time>2026-04-18T09:15:28.622Z</time></trkpt><trkpt lat="45.9565888" lon="8.4327138"><ele>206.0</ele><time>2026-04-18T09:15:29.622Z</time></trkpt><trkpt lat="45.9566877" lon="8.4327459"><ele>206.0</ele><time>2026-04-18T09:15:30.621Z</time></trkpt><trkpt lat="45.9567811" lon="8.4327878"><ele>206.0</ele><time>2026-04-18T09:15:31.617Z</time></trkpt><trkpt lat="45.9568785" lon="8.4328408"><ele>205.60000000000002</ele><time>2026-04-18T09:15:32.623Z</time></trkpt><trkpt lat="45.9569724" lon="8.4328935"><ele>205.2</ele><time>2026-04-18T09:15:33.615Z</time></trkpt><trkpt lat="45.9570689" lon="8.4329283"><ele>204.8</ele><time>2026-04-18T09:15:34.613Z</time></trkpt><trkpt lat="45.9571605" lon="8.432953"><ele>204.39999999999998</ele><time>2026-04-18T09:15:35.616Z</time></trkpt><trkpt lat="45.9572604" lon="8.432995"><ele>204.0</ele><time>2026-04-18T09:15:36.625Z</time></trkpt><trkpt lat="45.9573586" lon="8.4330585"><ele>204.0</ele><time>2026-04-18T09:15:37.624Z</time></trkpt><trkpt lat="45.9574538" lon="8.4331194"><ele>204.0</ele><time>2026-04-18T09:15:38.622Z</time></trkpt><trkpt lat="45.9575494" lon="8.433173"><ele>204.0</ele><time>2026-04-18T09:15:39.62Z</time></trkpt><trkpt lat="45.9576453" lon="8.4332283"><ele>204.0</ele><time>2026-04-18T09:15:40.639Z</time></trkpt><trkpt lat="45.957739" lon="8.4332917"><ele>204.0</ele><time>2026-04-18T09:15:41.619Z</time></trkpt><trkpt lat="45.9578248" lon="8.4333326"><ele>204.0</ele><time>2026-04-18T09:15:42.63Z</time></trkpt><trkpt lat="45.9579134" lon="8.4333643"><ele>204.0</ele><time>2026-04-18T09:15:43.612Z</time></trkpt><trkpt lat="45.9579852" lon="8.4333938"><ele>204.0</ele><time>2026-04-18T09:15:44.627Z</time></trkpt><trkpt lat="45.9580881" lon="8.4334266"><ele>204.0</ele><time>2026-04-18T09:15:46.619Z</time></trkpt><trkpt lat="45.9582107" lon="8.433445"><ele>204.0</ele><time>2026-04-18T09:15:48.631Z</time></trkpt><trkpt lat="45.9582955" lon="8.4334755"><ele>204.5</ele><time>2026-04-18T09:15:49.623Z</time></trkpt><trkpt lat="45.9583705" lon="8.4334802"><ele>205.0</ele><time>2026-04-18T09:15:50.624Z</time></trkpt><trkpt lat="45.9584437" lon="8.4334693"><ele>205.5</ele><time>2026-04-18T09:15:51.626Z</time></trkpt><trkpt lat="45.9585189" lon="8.433437"><ele>206.0</ele><time>2026-04-18T09:15:52.625Z</time></trkpt><trkpt lat="45.9586031" lon="8.4333646"><ele>206.5</ele><time>2026-04-18T09:15:53.634Z</time></trkpt><trkpt lat="45.9586851" lon="8.4332843"><ele>207.0</ele><time>2026-04-18T09:15:54.61Z</time></trkpt><trkpt lat="45.9587537" lon="8.4332056"><ele>207.00000000000003</ele><time>2026-04-18T09:15:55.613Z</time></trkpt><trkpt lat="45.9588043" lon="8.4331273"><ele>207.0</ele><time>2026-04-18T09:15:56.624Z</time></trkpt><trkpt lat="45.9588555" lon="8.433054"><ele>207.0</ele><time>2026-04-18T09:15:57.612Z</time></trkpt><trkpt lat="45.9589182" lon="8.4330068"><ele>207.0</ele><time>2026-04-18T09:15:58.627Z</time></trkpt><trkpt lat="45.9590003" lon="8.4329615"><ele>207.0</ele><time>2026-04-18T09:15:59.619Z</time></trkpt><trkpt lat="45.9590725" lon="8.4329361"><ele>207.00000000000003</ele><time>2026-04-18T09:16:00.621Z</time></trkpt><trkpt lat="45.9591405" lon="8.4329136"><ele>207.0</ele><time>2026-04-18T09:16:01.61Z</time></trkpt><trkpt lat="45.9592687" lon="8.4329568"><ele>207.5</ele><time>2026-04-18T09:16:03.619Z</time></trkpt><trkpt lat="45.9593333" lon="8.4329929"><ele>208.0</ele><time>2026-04-18T09:16:04.601Z</time></trkpt><trkpt lat="45.9593942" lon="8.4330177"><ele>208.5</ele><time>2026-04-18T09:16:05.6Z</time></trkpt><trkpt lat="45.9594717" lon="8.4330585"><ele>209.0</ele><time>2026-04-18T09:16:06.605Z</time></trkpt><trkpt lat="45.9595482" lon="8.4330996"><ele>209.5</ele><time>2026-04-18T09:16:07.602Z</time></trkpt><trkpt lat="45.9596195" lon="8.4331274"><ele>210.0</ele><time>2026-04-18T09:16:08.616Z</time></trkpt><trkpt lat="45.9596986" lon="8.4331099"><ele>210.0</ele><time>2026-04-18T09:16:09.606Z</time></trkpt><trkpt lat="45.9597873" lon="8.4330754"><ele>210.0</ele><time>2026-04-18T09:16:10.637Z</time></trkpt><trkpt lat="45.9598862" lon="8.4330547"><ele>210.0</ele><time>2026-04-18T09:16:11.605Z</time></trkpt><trkpt lat="45.9599849" lon="8.4330524"><ele>210.0</ele><time>2026-04-18T09:16:12.609Z</time></trkpt><trkpt lat="45.9600865" lon="8.4330475"><ele>210.0</ele><time>2026-04-18T09:16:13.643Z</time></trkpt><trkpt lat="45.9601827" lon="8.4330262"><ele>210.16666666666666</ele><time>2026-04-18T09:16:14.611Z</time></trkpt><trkpt lat="45.9602772" lon="8.432994"><ele>210.33333333333331</ele><time>2026-04-18T09:16:15.604Z</time></trkpt><trkpt lat="45.9603685" lon="8.432957"><ele>210.5</ele><time>2026-04-18T09:16:16.604Z</time></trkpt><trkpt lat="45.9604456" lon="8.4329313"><ele>210.66666666666666</ele><time>2026-04-18T09:16:17.605Z</time></trkpt><trkpt lat="45.960517" lon="8.432901"><ele>210.83333333333331</ele><time>2026-04-18T09:16:18.597Z</time></trkpt><trkpt lat="45.9605967" lon="8.4328712"><ele>211.0</ele><time>2026-04-18T09:16:19.603Z</time></trkpt><trkpt lat="45.9606867" lon="8.4328461"><ele>210.60000000000002</ele><time>2026-04-18T09:16:20.603Z</time></trkpt><trkpt lat="45.960795" lon="8.4328002"><ele>210.2</ele><time>2026-04-18T09:16:21.604Z</time></trkpt><trkpt lat="45.9609022" lon="8.4327504"><ele>209.8</ele><time>2026-04-18T09:16:22.596Z</time></trkpt><trkpt lat="45.961012" lon="8.4327098"><ele>209.39999999999998</ele><time>2026-04-18T09:16:23.606Z</time></trkpt><trkpt lat="45.9611099" lon="8.4326586"><ele>209.0</ele><time>2026-04-18T09:16:24.602Z</time></trkpt><trkpt lat="45.9612018" lon="8.4326173"><ele>209.0</ele><time>2026-04-18T09:16:25.599Z</time></trkpt><trkpt lat="45.961287" lon="8.4325752"><ele>209.0</ele><time>2026-04-18T09:16:26.599Z</time></trkpt><trkpt lat="45.961385" lon="8.4325186"><ele>209.0</ele><time>2026-04-18T09:16:27.61Z</time></trkpt><trkpt lat="45.9614975" lon="8.4324665"><ele>209.0</ele><time>2026-04-18T09:16:28.597Z</time></trkpt><trkpt lat="45.9616295" lon="8.4324172"><ele>209.0</ele><time>2026-04-18T09:16:29.6Z</time></trkpt><trkpt lat="45.9617498" lon="8.4323862"><ele>209.0</ele><time>2026-04-18T09:16:30.607Z</time></trkpt><trkpt lat="45.961853" lon="8.432353"><ele>209.0</ele><time>2026-04-18T09:16:31.607Z</time></trkpt><trkpt lat="45.9619463" lon="8.4323127"><ele>209.0</ele><time>2026-04-18T09:16:32.608Z</time></trkpt><trkpt lat="45.9620392" lon="8.4322714"><ele>209.0</ele><time>2026-04-18T09:16:33.591Z</time></trkpt><trkpt lat="45.9621302" lon="8.4321994"><ele>208.75</ele><time>2026-04-18T09:16:34.595Z</time></trkpt><trkpt lat="45.9622399" lon="8.4321393"><ele>208.5</ele><time>2026-04-18T09:16:35.596Z</time></trkpt><trkpt lat="45.9623617" lon="8.43205"><ele>208.25</ele><time>2026-04-18T09:16:36.599Z</time></trkpt><trkpt lat="45.9624973" lon="8.4319801"><ele>208.0</ele><time>2026-04-18T09:16:37.593Z</time></trkpt><trkpt lat="45.9626056" lon="8.4319054"><ele>208.5</ele><time>2026-04-18T09:16:38.599Z</time></trkpt><trkpt lat="45.962708" lon="8.4318261"><ele>209.0</ele><time>2026-04-18T09:16:39.597Z</time></trkpt><trkpt lat="45.9628165" lon="8.4317634"><ele>209.5</ele><time>2026-04-18T09:16:40.616Z</time></trkpt><trkpt lat="45.9629015" lon="8.4316862"><ele>210.0</ele><time>2026-04-18T09:16:41.601Z</time></trkpt><trkpt lat="45.963017" lon="8.4316147"><ele>210.0</ele><time>2026-04-18T09:16:42.602Z</time></trkpt><trkpt lat="45.9631186" lon="8.4315648"><ele>210.0</ele><time>2026-04-18T09:16:43.604Z</time></trkpt><trkpt lat="45.9632348" lon="8.4314823"><ele>210.0</ele><time>2026-04-18T09:16:44.623Z</time></trkpt><trkpt lat="45.9633391" lon="8.4314349"><ele>210.0</ele><time>2026-04-18T09:16:45.614Z</time></trkpt><trkpt lat="45.9634408" lon="8.4313792"><ele>210.16666666666666</ele><time>2026-04-18T09:16:46.603Z</time></trkpt><trkpt lat="45.9635225" lon="8.431329"><ele>210.33333333333331</ele><time>2026-04-18T09:16:47.6Z</time></trkpt><trkpt lat="45.9636119" lon="8.4312912"><ele>210.5</ele><time>2026-04-18T09:16:48.595Z</time></trkpt><trkpt lat="45.963702" lon="8.4312689"><ele>210.66666666666666</ele><time>2026-04-18T09:16:49.597Z</time></trkpt><trkpt lat="45.9637796" lon="8.4312412"><ele>210.83333333333331</ele><time>2026-04-18T09:16:50.603Z</time></trkpt><trkpt lat="45.9638527" lon="8.4312134"><ele>211.0</ele><time>2026-04-18T09:16:51.597Z</time></trkpt><trkpt lat="45.9639219" lon="8.4311623"><ele>210.99999999999997</ele><time>2026-04-18T09:16:52.602Z</time></trkpt><trkpt lat="45.9639895" lon="8.4310904"><ele>211.0</ele><time>2026-04-18T09:16:53.598Z</time></trkpt><trkpt lat="45.9640341" lon="8.431011"><ele>211.0</ele><time>2026-04-18T09:16:54.603Z</time></trkpt><trkpt lat="45.9640616" lon="8.4309278"><ele>211.0</ele><time>2026-04-18T09:16:55.596Z</time></trkpt><trkpt lat="45.9640961" lon="8.4308497"><ele>210.99999999999997</ele><time>2026-04-18T09:16:56.599Z</time></trkpt><trkpt lat="45.9641548" lon="8.4307742"><ele>211.0</ele><time>2026-04-18T09:16:57.61Z</time></trkpt><trkpt lat="45.9642439" lon="8.4307116"><ele>210.60000000000002</ele><time>2026-04-18T09:16:58.606Z</time></trkpt><trkpt lat="45.9643466" lon="8.4306855"><ele>210.2</ele><time>2026-04-18T09:16:59.61Z</time></trkpt><trkpt lat="45.9644503" lon="8.4306517"><ele>209.8</ele><time>2026-04-18T09:17:00.603Z</time></trkpt><trkpt lat="45.9645526" lon="8.4306263"><ele>209.39999999999998</ele><time>2026-04-18T09:17:01.605Z</time></trkpt><trkpt lat="45.964641" lon="8.4305977"><ele>209.0</ele><time>2026-04-18T09:17:02.604Z</time></trkpt><trkpt lat="45.9647232" lon="8.4305397"><ele>209.0</ele><time>2026-04-18T09:17:03.61Z</time></trkpt><trkpt lat="45.9648251" lon="8.4305205"><ele>209.0</ele><time>2026-04-18T09:17:04.601Z</time></trkpt><trkpt lat="45.964933" lon="8.4305324"><ele>209.0</ele><time>2026-04-18T09:17:05.592Z</time></trkpt><trkpt lat="45.9650381" lon="8.4305341"><ele>209.0</ele><time>2026-04-18T09:17:06.607Z</time></trkpt><trkpt lat="45.965138" lon="8.4305031"><ele>209.0</ele><time>2026-04-18T09:17:07.597Z</time></trkpt><trkpt lat="45.9652082" lon="8.4304578"><ele>209.16666666666669</ele><time>2026-04-18T09:17:08.59Z</time></trkpt><trkpt lat="45.9652975" lon="8.4303797"><ele>209.33333333333334</ele><time>2026-04-18T09:17:10.607Z</time></trkpt><trkpt lat="45.965335" lon="8.4303046"><ele>209.5</ele><time>2026-04-18T09:17:11.594Z</time></trkpt><trkpt lat="45.9653573" lon="8.4302031"><ele>209.66666666666669</ele><time>2026-04-18T09:17:12.613Z</time></trkpt><trkpt lat="45.9653494" lon="8.4301018"><ele>209.83333333333334</ele><time>2026-04-18T09:17:13.593Z</time></trkpt><trkpt lat="45.9653646" lon="8.4300139"><ele>210.0</ele><time>2026-04-18T09:17:14.61Z</time></trkpt><trkpt lat="45.9654568" lon="8.4299067"><ele>210.0</ele><time>2026-04-18T09:17:16.59Z</time></trkpt><trkpt lat="45.965521" lon="8.4298661"><ele>210.0</ele><time>2026-04-18T09:17:17.628Z</time></trkpt><trkpt lat="45.9655987" lon="8.4298459"><ele>210.0</ele><time>2026-04-18T09:17:18.598Z</time></trkpt><trkpt lat="45.9657008" lon="8.4298498"><ele>210.0</ele><time>2026-04-18T09:17:19.606Z</time></trkpt><trkpt lat="45.9658225" lon="8.429831"><ele>210.0</ele><time>2026-04-18T09:17:20.601Z</time></trkpt><trkpt lat="45.9659531" lon="8.4298107"><ele>210.4</ele><time>2026-04-18T09:17:21.608Z</time></trkpt><trkpt lat="45.9660715" lon="8.4297484"><ele>210.8</ele><time>2026-04-18T09:17:22.61Z</time></trkpt><trkpt lat="45.9661871" lon="8.4296906"><ele>211.2</ele><time>2026-04-18T09:17:23.613Z</time></trkpt><trkpt lat="45.966285" lon="8.4296359"><ele>211.6</ele><time>2026-04-18T09:17:24.613Z</time></trkpt><trkpt lat="45.9663717" lon="8.4295849"><ele>212.0</ele><time>2026-04-18T09:17:25.616Z</time></trkpt><trkpt lat="45.9664434" lon="8.4295309"><ele>212.0</ele><time>2026-04-18T09:17:26.608Z</time></trkpt><trkpt lat="45.9665136" lon="8.4294679"><ele>212.0</ele><time>2026-04-18T09:17:27.615Z</time></trkpt><trkpt lat="45.9666027" lon="8.4293896"><ele>212.0</ele><time>2026-04-18T09:17:28.629Z</time></trkpt><trkpt lat="45.9667043" lon="8.4293216"><ele>212.0</ele><time>2026-04-18T09:17:29.621Z</time></trkpt><trkpt lat="45.9667971" lon="8.4292578"><ele>212.0</ele><time>2026-04-18T09:17:30.617Z</time></trkpt><trkpt lat="45.966889" lon="8.4291967"><ele>211.2</ele><time>2026-04-18T09:17:31.602Z</time></trkpt><trkpt lat="45.9669806" lon="8.4291347"><ele>210.39999999999998</ele><time>2026-04-18T09:17:32.609Z</time></trkpt><trkpt lat="45.9670724" lon="8.4290472"><ele>209.60000000000002</ele><time>2026-04-18T09:17:33.618Z</time></trkpt><trkpt lat="45.9671709" lon="8.4289651"><ele>208.8</ele><time>2026-04-18T09:17:34.596Z</time></trkpt><trkpt lat="45.9672573" lon="8.4288906"><ele>208.0</ele><time>2026-04-18T09:17:35.61Z</time></trkpt><trkpt lat="45.9673519" lon="8.428821"><ele>207.8</ele><time>2026-04-18T09:17:36.616Z</time></trkpt><trkpt lat="45.9674392" lon="8.4287223"><ele>207.60000000000002</ele><time>2026-04-18T09:17:37.614Z</time></trkpt><trkpt lat="45.9675254" lon="8.4286265"><ele>207.39999999999998</ele><time>2026-04-18T09:17:38.616Z</time></trkpt><trkpt lat="45.9676042" lon="8.4285109"><ele>207.2</ele><time>2026-04-18T09:17:39.607Z</time></trkpt><trkpt lat="45.967696" lon="8.4284247"><ele>207.0</ele><time>2026-04-18T09:17:40.607Z</time></trkpt><trkpt lat="45.967795" lon="8.428343"><ele>206.66666666666666</ele><time>2026-04-18T09:17:41.611Z</time></trkpt><trkpt lat="45.9678846" lon="8.4282923"><ele>206.33333333333331</ele><time>2026-04-18T09:17:42.591Z</time></trkpt><trkpt lat="45.9679759" lon="8.4282625"><ele>206.0</ele><time>2026-04-18T09:17:43.604Z</time></trkpt><trkpt lat="45.9680587" lon="8.428234"><ele>205.66666666666666</ele><time>2026-04-18T09:17:44.602Z</time></trkpt><trkpt lat="45.9681224" lon="8.4281964"><ele>205.33333333333331</ele><time>2026-04-18T09:17:45.602Z</time></trkpt><trkpt lat="45.9681751" lon="8.4281368"><ele>205.0</ele><time>2026-04-18T09:17:46.615Z</time></trkpt><trkpt lat="45.9682208" lon="8.4280661"><ele>204.99999999999997</ele><time>2026-04-18T09:17:47.606Z</time></trkpt><trkpt lat="45.9682659" lon="8.427994"><ele>205.0</ele><time>2026-04-18T09:17:48.617Z</time></trkpt><trkpt lat="45.9683812" lon="8.4279435"><ele>205.0</ele><time>2026-04-18T09:17:50.599Z</time></trkpt><trkpt lat="45.9684566" lon="8.4279293"><ele>205.0</ele><time>2026-04-18T09:17:51.608Z</time></trkpt><trkpt lat="45.9685248" lon="8.4279101"><ele>204.99999999999997</ele><time>2026-04-18T09:17:53.61Z</time></trkpt><trkpt lat="45.9685108" lon="8.4277959"><ele>205.0</ele><time>2026-04-18T09:17:55.591Z</time></trkpt><trkpt lat="45.9684584" lon="8.4277374"><ele>204.83333333333331</ele><time>2026-04-18T09:17:56.601Z</time></trkpt><trkpt lat="45.9683963" lon="8.4277059"><ele>204.66666666666666</ele><time>2026-04-18T09:17:57.611Z</time></trkpt><trkpt lat="45.968342" lon="8.427634"><ele>204.5</ele><time>2026-04-18T09:17:58.624Z</time></trkpt><trkpt lat="45.9683022" lon="8.4275553"><ele>204.33333333333331</ele><time>2026-04-18T09:17:59.607Z</time></trkpt><trkpt lat="45.9682896" lon="8.4274007"><ele>204.16666666666666</ele><time>2026-04-18T09:18:01.628Z</time></trkpt><trkpt lat="45.968319" lon="8.4272858"><ele>204.0</ele><time>2026-04-18T09:18:02.619Z</time></trkpt><trkpt lat="45.9683355" lon="8.4271781"><ele>204.5</ele><time>2026-04-18T09:18:03.634Z</time></trkpt><trkpt lat="45.968343" lon="8.427079"><ele>205.0</ele><time>2026-04-18T09:18:04.618Z</time></trkpt><trkpt lat="45.9683426" lon="8.4269853"><ele>205.5</ele><time>2026-04-18T09:18:05.623Z</time></trkpt><trkpt lat="45.968313" lon="8.4268155"><ele>206.0</ele><time>2026-04-18T09:18:07.619Z</time></trkpt><trkpt lat="45.9682858" lon="8.4267129"><ele>206.5</ele><time>2026-04-18T09:18:08.627Z</time></trkpt><trkpt lat="45.9682517" lon="8.4266053"><ele>207.0</ele><time>2026-04-18T09:18:09.624Z</time></trkpt><trkpt lat="45.9682372" lon="8.4265066"><ele>207.0</ele><time>2026-04-18T09:18:10.648Z</time></trkpt><trkpt lat="45.9682247" lon="8.4264075"><ele>207.0</ele><time>2026-04-18T09:18:11.636Z</time></trkpt><trkpt lat="45.9682158" lon="8.4263166"><ele>207.0</ele><time>2026-04-18T09:18:12.629Z</time></trkpt><trkpt lat="45.9681985" lon="8.4261496"><ele>207.0</ele><time>2026-04-18T09:18:14.63Z</time></trkpt><trkpt lat="45.9681929" lon="8.4260079"><ele>207.0</ele><time>2026-04-18T09:18:16.64Z</time></trkpt><trkpt lat="45.9681595" lon="8.4258851"><ele>207.0</ele><time>2026-04-18T09:18:18.642Z</time></trkpt><trkpt lat="45.968145" lon="8.4257711"><ele>207.0</ele><time>2026-04-18T09:18:20.618Z</time></trkpt><trkpt lat="45.9682239" lon="8.4256446"><ele>207.0</ele><time>2026-04-18T09:18:22.627Z</time></trkpt><trkpt lat="45.9682897" lon="8.4255878"><ele>207.0</ele><time>2026-04-18T09:18:23.62Z</time></trkpt><trkpt lat="45.9683598" lon="8.4255651"><ele>207.0</ele><time>2026-04-18T09:18:24.64Z</time></trkpt><trkpt lat="45.9684291" lon="8.4255423"><ele>207.0</ele><time>2026-04-18T09:18:25.609Z</time></trkpt><trkpt lat="45.9684855" lon="8.4255012"><ele>207.0</ele><time>2026-04-18T09:18:26.622Z</time></trkpt><trkpt lat="45.9686005" lon="8.4254122"><ele>206.66666666666666</ele><time>2026-04-18T09:18:28.628Z</time></trkpt><trkpt lat="45.968673" lon="8.4253598"><ele>206.33333333333331</ele><time>2026-04-18T09:18:29.644Z</time></trkpt><trkpt lat="45.9687489" lon="8.4253002"><ele>206.0</ele><time>2026-04-18T09:18:30.63Z</time></trkpt><trkpt lat="45.9688184" lon="8.4252449"><ele>205.66666666666666</ele><time>2026-04-18T09:18:31.63Z</time></trkpt><trkpt lat="45.9688831" lon="8.4251919"><ele>205.33333333333331</ele><time>2026-04-18T09:18:32.628Z</time></trkpt><trkpt lat="45.9689483" lon="8.4251424"><ele>205.0</ele><time>2026-04-18T09:18:33.63Z</time></trkpt><trkpt lat="45.969015" lon="8.4250895"><ele>204.99999999999997</ele><time>2026-04-18T09:18:34.622Z</time></trkpt><trkpt lat="45.969091" lon="8.4250372"><ele>205.0</ele><time>2026-04-18T09:18:35.632Z</time></trkpt><trkpt lat="45.969163" lon="8.4249835"><ele>205.0</ele><time>2026-04-18T09:18:36.621Z</time></trkpt><trkpt lat="45.9692361" lon="8.424928"><ele>205.0</ele><time>2026-04-18T09:18:37.625Z</time></trkpt><trkpt lat="45.9693086" lon="8.4248712"><ele>204.99999999999997</ele><time>2026-04-18T09:18:38.625Z</time></trkpt><trkpt lat="45.9693753" lon="8.4248222"><ele>205.0</ele><time>2026-04-18T09:18:39.63Z</time></trkpt><trkpt lat="45.9694442" lon="8.4247713"><ele>205.33333333333331</ele><time>2026-04-18T09:18:40.638Z</time></trkpt><trkpt lat="45.9695152" lon="8.4247214"><ele>205.66666666666666</ele><time>2026-04-18T09:18:41.635Z</time></trkpt><trkpt lat="45.9695822" lon="8.424675"><ele>206.0</ele><time>2026-04-18T09:18:42.622Z</time></trkpt><trkpt lat="45.9696463" lon="8.4246161"><ele>206.33333333333331</ele><time>2026-04-18T09:18:43.624Z</time></trkpt><trkpt lat="45.9697071" lon="8.4245527"><ele>206.66666666666666</ele><time>2026-04-18T09:18:44.63Z</time></trkpt><trkpt lat="45.9697769" lon="8.4245008"><ele>207.0</ele><time>2026-04-18T09:18:45.629Z</time></trkpt><trkpt lat="45.969857" lon="8.4244495"><ele>207.0</ele><time>2026-04-18T09:18:46.627Z</time></trkpt><trkpt lat="45.9699346" lon="8.4244085"><ele>207.0</ele><time>2026-04-18T09:18:47.625Z</time></trkpt><trkpt lat="45.9700142" lon="8.4243551"><ele>207.0</ele><time>2026-04-18T09:18:48.645Z</time></trkpt><trkpt lat="45.9701008" lon="8.4242985"><ele>207.0</ele><time>2026-04-18T09:18:49.624Z</time></trkpt><trkpt lat="45.9701879" lon="8.4242405"><ele>207.0</ele><time>2026-04-18T09:18:50.627Z</time></trkpt><trkpt lat="45.9702775" lon="8.4241738"><ele>207.2</ele><time>2026-04-18T09:18:51.621Z</time></trkpt><trkpt lat="45.9703669" lon="8.4240899"><ele>207.39999999999998</ele><time>2026-04-18T09:18:52.613Z</time></trkpt><trkpt lat="45.9704524" lon="8.4239949"><ele>207.60000000000002</ele><time>2026-04-18T09:18:53.623Z</time></trkpt><trkpt lat="45.9705403" lon="8.4239074"><ele>207.8</ele><time>2026-04-18T09:18:54.62Z</time></trkpt><trkpt lat="45.9706353" lon="8.4238376"><ele>208.0</ele><time>2026-04-18T09:18:55.623Z</time></trkpt><trkpt lat="45.9707285" lon="8.4237692"><ele>207.8</ele><time>2026-04-18T09:18:56.615Z</time></trkpt><trkpt lat="45.9708137" lon="8.4236959"><ele>207.60000000000002</ele><time>2026-04-18T09:18:57.625Z</time></trkpt><trkpt lat="45.9709015" lon="8.4236126"><ele>207.39999999999998</ele><time>2026-04-18T09:18:58.627Z</time></trkpt><trkpt lat="45.9709912" lon="8.4235237"><ele>207.2</ele><time>2026-04-18T09:18:59.619Z</time></trkpt><trkpt lat="45.9710768" lon="8.4234311"><ele>207.0</ele><time>2026-04-18T09:19:00.624Z</time></trkpt><trkpt lat="45.9711807" lon="8.4233349"><ele>207.0</ele><time>2026-04-18T09:19:01.627Z</time></trkpt><trkpt lat="45.9712761" lon="8.4232259"><ele>207.0</ele><time>2026-04-18T09:19:02.62Z</time></trkpt><trkpt lat="45.9713682" lon="8.4231223"><ele>207.0</ele><time>2026-04-18T09:19:03.62Z</time></trkpt><trkpt lat="45.9714587" lon="8.4230117"><ele>207.0</ele><time>2026-04-18T09:19:04.62Z</time></trkpt><trkpt lat="45.9715476" lon="8.4229037"><ele>206.8</ele><time>2026-04-18T09:19:05.626Z</time></trkpt><trkpt lat="45.9716372" lon="8.4228066"><ele>206.6</ele><time>2026-04-18T09:19:06.611Z</time></trkpt><trkpt lat="45.9717236" lon="8.4227157"><ele>206.4</ele><time>2026-04-18T09:19:07.619Z</time></trkpt><trkpt lat="45.9718163" lon="8.4226299"><ele>206.20000000000002</ele><time>2026-04-18T09:19:08.626Z</time></trkpt><trkpt lat="45.9719117" lon="8.4225409"><ele>206.0</ele><time>2026-04-18T09:19:09.624Z</time></trkpt><trkpt lat="45.9719939" lon="8.4224435"><ele>205.75</ele><time>2026-04-18T09:19:10.652Z</time></trkpt><trkpt lat="45.972083" lon="8.4223106"><ele>205.5</ele><time>2026-04-18T09:19:11.619Z</time></trkpt><trkpt lat="45.9721676" lon="8.4221639"><ele>205.25</ele><time>2026-04-18T09:19:12.611Z</time></trkpt><trkpt lat="45.9722298" lon="8.4219911"><ele>205.0</ele><time>2026-04-18T09:19:13.641Z</time></trkpt><trkpt lat="45.9722976" lon="8.4218234"><ele>205.5</ele><time>2026-04-18T09:19:14.631Z</time></trkpt><trkpt lat="45.9723654" lon="8.4216779"><ele>206.0</ele><time>2026-04-18T09:19:15.635Z</time></trkpt><trkpt lat="45.9724411" lon="8.4215358"><ele>206.5</ele><time>2026-04-18T09:19:16.633Z</time></trkpt><trkpt lat="45.9725104" lon="8.4213892"><ele>207.0</ele><time>2026-04-18T09:19:17.632Z</time></trkpt><trkpt lat="45.9725786" lon="8.4212552"><ele>207.0</ele><time>2026-04-18T09:19:18.628Z</time></trkpt><trkpt lat="45.9726495" lon="8.4211156"><ele>207.0</ele><time>2026-04-18T09:19:19.648Z</time></trkpt><trkpt lat="45.9727233" lon="8.4209742"><ele>207.0</ele><time>2026-04-18T09:19:20.634Z</time></trkpt><trkpt lat="45.9727969" lon="8.4208386"><ele>207.0</ele><time>2026-04-18T09:19:21.636Z</time></trkpt><trkpt lat="45.9728592" lon="8.4207112"><ele>207.0</ele><time>2026-04-18T09:19:22.628Z</time></trkpt><trkpt lat="45.9729265" lon="8.4205777"><ele>207.0</ele><time>2026-04-18T09:19:23.628Z</time></trkpt><trkpt lat="45.9729976" lon="8.4204426"><ele>207.0</ele><time>2026-04-18T09:19:24.617Z</time></trkpt><trkpt lat="45.9730764" lon="8.4203025"><ele>207.0</ele><time>2026-04-18T09:19:25.635Z</time></trkpt><trkpt lat="45.9731392" lon="8.4201683"><ele>206.75</ele><time>2026-04-18T09:19:26.633Z</time></trkpt><trkpt lat="45.9731934" lon="8.4200301"><ele>206.5</ele><time>2026-04-18T09:19:27.626Z</time></trkpt><trkpt lat="45.973235" lon="8.419877"><ele>206.25</ele><time>2026-04-18T09:19:28.639Z</time></trkpt><trkpt lat="45.9732756" lon="8.4197211"><ele>206.0</ele><time>2026-04-18T09:19:29.617Z</time></trkpt><trkpt lat="45.9733077" lon="8.4195576"><ele>206.0</ele><time>2026-04-18T09:19:30.628Z</time></trkpt><trkpt lat="45.9733415" lon="8.4194007"><ele>206.0</ele><time>2026-04-18T09:19:31.63Z</time></trkpt><trkpt lat="45.9733753" lon="8.4192509"><ele>206.0</ele><time>2026-04-18T09:19:32.635Z</time></trkpt><trkpt lat="45.9734168" lon="8.4191264"><ele>206.0</ele><time>2026-04-18T09:19:33.637Z</time></trkpt><trkpt lat="45.9734449" lon="8.4190093"><ele>206.0</ele><time>2026-04-18T09:19:34.628Z</time></trkpt><trkpt lat="45.9734651" lon="8.4188661"><ele>206.25</ele><time>2026-04-18T09:19:35.632Z</time></trkpt><trkpt lat="45.9734539" lon="8.4187009"><ele>206.5</ele><time>2026-04-18T09:19:36.632Z</time></trkpt><trkpt lat="45.9734147" lon="8.4185321"><ele>206.75</ele><time>2026-04-18T09:19:37.634Z</time></trkpt><trkpt lat="45.9733756" lon="8.418354"><ele>207.0</ele><time>2026-04-18T09:19:38.64Z</time></trkpt><trkpt lat="45.9733413" lon="8.4181707"><ele>207.0</ele><time>2026-04-18T09:19:39.643Z</time></trkpt><trkpt lat="45.9733044" lon="8.4179957"><ele>207.0</ele><time>2026-04-18T09:19:40.649Z</time></trkpt><trkpt lat="45.9732696" lon="8.4178375"><ele>207.0</ele><time>2026-04-18T09:19:41.636Z</time></trkpt><trkpt lat="45.973245" lon="8.4176912"><ele>207.0</ele><time>2026-04-18T09:19:42.628Z</time></trkpt><trkpt lat="45.9732135" lon="8.4175546"><ele>207.0</ele><time>2026-04-18T09:19:43.636Z</time></trkpt><trkpt lat="45.9731751" lon="8.4174053"><ele>207.0</ele><time>2026-04-18T09:19:44.642Z</time></trkpt><trkpt lat="45.9731419" lon="8.4172458"><ele>207.0</ele><time>2026-04-18T09:19:45.639Z</time></trkpt><trkpt lat="45.9731153" lon="8.4170802"><ele>207.0</ele><time>2026-04-18T09:19:46.638Z</time></trkpt><trkpt lat="45.9730953" lon="8.416912"><ele>207.0</ele><time>2026-04-18T09:19:47.634Z</time></trkpt><trkpt lat="45.973066" lon="8.4167486"><ele>207.25</ele><time>2026-04-18T09:19:48.641Z</time></trkpt><trkpt lat="45.9730398" lon="8.4165798"><ele>207.5</ele><time>2026-04-18T09:19:49.639Z</time></trkpt><trkpt lat="45.9730102" lon="8.4164267"><ele>207.75</ele><time>2026-04-18T09:19:50.658Z</time></trkpt><trkpt lat="45.9729746" lon="8.4162705"><ele>208.0</ele><time>2026-04-18T09:19:51.633Z</time></trkpt><trkpt lat="45.9729385" lon="8.416115"><ele>208.5</ele><time>2026-04-18T09:19:52.628Z</time></trkpt><trkpt lat="45.9729004" lon="8.4159563"><ele>209.0</ele><time>2026-04-18T09:19:53.627Z</time></trkpt><trkpt lat="45.9728546" lon="8.4158097"><ele>209.5</ele><time>2026-04-18T09:19:54.623Z</time></trkpt><trkpt lat="45.9727958" lon="8.4156659"><ele>210.0</ele><time>2026-04-18T09:19:55.628Z</time></trkpt><trkpt lat="45.9727269" lon="8.4155316"><ele>210.0</ele><time>2026-04-18T09:19:56.627Z</time></trkpt><trkpt lat="45.9726633" lon="8.415393"><ele>210.0</ele><time>2026-04-18T09:19:57.621Z</time></trkpt><trkpt lat="45.9725986" lon="8.4152555"><ele>210.0</ele><time>2026-04-18T09:19:58.624Z</time></trkpt><trkpt lat="45.9725392" lon="8.4151275"><ele>210.0</ele><time>2026-04-18T09:19:59.63Z</time></trkpt><trkpt lat="45.9724837" lon="8.4149937"><ele>210.0</ele><time>2026-04-18T09:20:00.629Z</time></trkpt><trkpt lat="45.9724211" lon="8.4148666"><ele>210.4</ele><time>2026-04-18T09:20:01.629Z</time></trkpt><trkpt lat="45.9723537" lon="8.4147539"><ele>210.8</ele><time>2026-04-18T09:20:02.63Z</time></trkpt><trkpt lat="45.972272" lon="8.4146398"><ele>211.2</ele><time>2026-04-18T09:20:03.635Z</time></trkpt><trkpt lat="45.9721893" lon="8.4145285"><ele>211.6</ele><time>2026-04-18T09:20:04.632Z</time></trkpt><trkpt lat="45.9721145" lon="8.4144268"><ele>212.0</ele><time>2026-04-18T09:20:05.629Z</time></trkpt><trkpt lat="45.972055" lon="8.4143414"><ele>212.00000000000003</ele><time>2026-04-18T09:20:06.628Z</time></trkpt><trkpt lat="45.9720121" lon="8.4142563"><ele>212.0</ele><time>2026-04-18T09:20:07.62Z</time></trkpt><trkpt lat="45.9719648" lon="8.4141722"><ele>212.0</ele><time>2026-04-18T09:20:08.625Z</time></trkpt><trkpt lat="45.9719033" lon="8.414104"><ele>212.0</ele><time>2026-04-18T09:20:09.627Z</time></trkpt><trkpt lat="45.9718438" lon="8.4140585"><ele>212.00000000000003</ele><time>2026-04-18T09:20:10.643Z</time></trkpt><trkpt lat="45.9717625" lon="8.4139959"><ele>212.0</ele><time>2026-04-18T09:20:12.616Z</time></trkpt><trkpt lat="45.9716815" lon="8.413959"><ele>212.66666666666669</ele><time>2026-04-18T09:20:32.647Z</time></trkpt><trkpt lat="45.9716051" lon="8.4140341"><ele>213.33333333333334</ele><time>2026-04-18T09:20:34.641Z</time></trkpt><trkpt lat="45.9715424" lon="8.4141277"><ele>214.0</ele><time>2026-04-18T09:20:41.632Z</time></trkpt><trkpt lat="45.9715154" lon="8.4142125"><ele>214.66666666666669</ele><time>2026-04-18T09:26:56.65Z</time></trkpt><trkpt lat="45.9715063" lon="8.4143811"><ele>215.33333333333334</ele><time>2026-04-18T09:34:03.609Z</time></trkpt><trkpt lat="45.9715146" lon="8.414284"><ele>216.0</ele><time>2026-04-18T09:34:16.63Z</time></trkpt><trkpt lat="45.9715487" lon="8.4141709"><ele>216.0</ele><time>2026-04-18T09:34:27.648Z</time></trkpt><trkpt lat="45.9716051" lon="8.4140931"><ele>216.00000000000003</ele><time>2026-04-18T09:34:28.624Z</time></trkpt><trkpt lat="45.9716863" lon="8.4139904"><ele>216.00000000000003</ele><time>2026-04-18T09:34:29.633Z</time></trkpt><trkpt lat="45.9717641" lon="8.4138782"><ele>216.0</ele><time>2026-04-18T09:34:30.641Z</time></trkpt><trkpt lat="45.9718304" lon="8.413757"><ele>216.0</ele><time>2026-04-18T09:34:31.623Z</time></trkpt><trkpt lat="45.9718878" lon="8.4136275"><ele>215.25</ele><time>2026-04-18T09:34:32.633Z</time></trkpt><trkpt lat="45.9719555" lon="8.4134969"><ele>214.5</ele><time>2026-04-18T09:34:33.627Z</time></trkpt><trkpt lat="45.9720299" lon="8.4133699"><ele>213.75</ele><time>2026-04-18T09:34:34.63Z</time></trkpt><trkpt lat="45.9721177" lon="8.4132589"><ele>213.0</ele><time>2026-04-18T09:34:35.633Z</time></trkpt><trkpt lat="45.9722178" lon="8.4131534"><ele>213.0</ele><time>2026-04-18T09:34:36.642Z</time></trkpt><trkpt lat="45.9723064" lon="8.4130341"><ele>213.0</ele><time>2026-04-18T09:34:37.637Z</time></trkpt><trkpt lat="45.9723984" lon="8.4129316"><ele>213.0</ele><time>2026-04-18T09:34:38.638Z</time></trkpt><trkpt lat="45.9724853" lon="8.4128303"><ele>213.0</ele><time>2026-04-18T09:34:39.637Z</time></trkpt><trkpt lat="45.9725783" lon="8.4127299"><ele>212.0</ele><time>2026-04-18T09:34:40.641Z</time></trkpt><trkpt lat="45.972679" lon="8.4126388"><ele>211.0</ele><time>2026-04-18T09:34:41.726Z</time></trkpt><trkpt lat="45.9727674" lon="8.4125324"><ele>210.0</ele><time>2026-04-18T09:34:42.716Z</time></trkpt><trkpt lat="45.9728549" lon="8.4124301"><ele>209.0</ele><time>2026-04-18T09:34:43.718Z</time></trkpt><trkpt lat="45.9729427" lon="8.4123246"><ele>209.0</ele><time>2026-04-18T09:34:44.719Z</time></trkpt><trkpt lat="45.9730398" lon="8.4122188"><ele>209.0</ele><time>2026-04-18T09:34:45.725Z</time></trkpt><trkpt lat="45.9731354" lon="8.4121247"><ele>209.0</ele><time>2026-04-18T09:34:46.724Z</time></trkpt><trkpt lat="45.9732353" lon="8.4120234"><ele>209.0</ele><time>2026-04-18T09:34:47.732Z</time></trkpt><trkpt lat="45.9733325" lon="8.4119263"><ele>208.75</ele><time>2026-04-18T09:34:48.723Z</time></trkpt><trkpt lat="45.9734331" lon="8.411836"><ele>208.5</ele><time>2026-04-18T09:34:49.705Z</time></trkpt><trkpt lat="45.9735436" lon="8.411749"><ele>208.25</ele><time>2026-04-18T09:34:50.704Z</time></trkpt><trkpt lat="45.9736448" lon="8.4116784"><ele>208.0</ele><time>2026-04-18T09:34:51.713Z</time></trkpt><trkpt lat="45.9737535" lon="8.4115962"><ele>208.0</ele><time>2026-04-18T09:34:52.739Z</time></trkpt><trkpt lat="45.9738636" lon="8.4115037"><ele>208.0</ele><time>2026-04-18T09:34:53.727Z</time></trkpt><trkpt lat="45.9739749" lon="8.4114086"><ele>208.0</ele><time>2026-04-18T09:34:54.73Z</time></trkpt><trkpt lat="45.9740866" lon="8.4113129"><ele>208.0</ele><time>2026-04-18T09:34:55.736Z</time></trkpt><trkpt lat="45.9741975" lon="8.4112205"><ele>207.5</ele><time>2026-04-18T09:34:56.731Z</time></trkpt><trkpt lat="45.9743093" lon="8.4111257"><ele>207.0</ele><time>2026-04-18T09:34:57.735Z</time></trkpt><trkpt lat="45.9744166" lon="8.4110287"><ele>206.5</ele><time>2026-04-18T09:34:58.732Z</time></trkpt><trkpt lat="45.9745215" lon="8.4109326"><ele>206.0</ele><time>2026-04-18T09:34:59.732Z</time></trkpt><trkpt lat="45.9746293" lon="8.4108425"><ele>206.0</ele><time>2026-04-18T09:35:00.724Z</time></trkpt><trkpt lat="45.974733" lon="8.4107538"><ele>206.0</ele><time>2026-04-18T09:35:01.732Z</time></trkpt><trkpt lat="45.9748335" lon="8.4106658"><ele>206.0</ele><time>2026-04-18T09:35:02.733Z</time></trkpt><trkpt lat="45.9749359" lon="8.4105784"><ele>206.0</ele><time>2026-04-18T09:35:03.733Z</time></trkpt><trkpt lat="45.9750396" lon="8.4104839"><ele>206.0</ele><time>2026-04-18T09:35:04.731Z</time></trkpt><trkpt lat="45.9751412" lon="8.4103793"><ele>206.0</ele><time>2026-04-18T09:35:05.725Z</time></trkpt><trkpt lat="45.9752436" lon="8.4102726"><ele>206.0</ele><time>2026-04-18T09:35:06.727Z</time></trkpt><trkpt lat="45.9753545" lon="8.4101692"><ele>206.0</ele><time>2026-04-18T09:35:07.719Z</time></trkpt><trkpt lat="45.9754628" lon="8.4100685"><ele>206.0</ele><time>2026-04-18T09:35:08.724Z</time></trkpt><trkpt lat="45.9755714" lon="8.409974"><ele>206.0</ele><time>2026-04-18T09:35:09.73Z</time></trkpt><trkpt lat="45.9756781" lon="8.4098787"><ele>206.0</ele><time>2026-04-18T09:35:10.72Z</time></trkpt><trkpt lat="45.9757821" lon="8.4097874"><ele>206.0</ele><time>2026-04-18T09:35:11.723Z</time></trkpt><trkpt lat="45.9758889" lon="8.409689"><ele>206.25</ele><time>2026-04-18T09:35:12.727Z</time></trkpt><trkpt lat="45.975998" lon="8.4095874"><ele>206.5</ele><time>2026-04-18T09:35:13.722Z</time></trkpt><trkpt lat="45.976108" lon="8.4094873"><ele>206.75</ele><time>2026-04-18T09:35:14.728Z</time></trkpt><trkpt lat="45.9762181" lon="8.4093854"><ele>207.0</ele><time>2026-04-18T09:35:15.727Z</time></trkpt><trkpt lat="45.9763284" lon="8.409283"><ele>207.0</ele><time>2026-04-18T09:35:16.723Z</time></trkpt><trkpt lat="45.9764383" lon="8.4091791"><ele>207.0</ele><time>2026-04-18T09:35:17.728Z</time></trkpt><trkpt lat="45.9765527" lon="8.4090765"><ele>207.0</ele><time>2026-04-18T09:35:18.728Z</time></trkpt><trkpt lat="45.9766629" lon="8.4089725"><ele>207.0</ele><time>2026-04-18T09:35:19.745Z</time></trkpt><trkpt lat="45.9767816" lon="8.4088689"><ele>206.75</ele><time>2026-04-18T09:35:20.73Z</time></trkpt><trkpt lat="45.9768939" lon="8.408765"><ele>206.5</ele><time>2026-04-18T09:35:21.73Z</time></trkpt><trkpt lat="45.9770143" lon="8.4086613"><ele>206.25</ele><time>2026-04-18T09:35:22.724Z</time></trkpt><trkpt lat="45.9771356" lon="8.4085675"><ele>206.0</ele><time>2026-04-18T09:35:23.725Z</time></trkpt><trkpt lat="45.9772488" lon="8.4084764"><ele>206.0</ele><time>2026-04-18T09:35:24.727Z</time></trkpt><trkpt lat="45.9773538" lon="8.4083778"><ele>206.0</ele><time>2026-04-18T09:35:25.712Z</time></trkpt><trkpt lat="45.9774561" lon="8.4082852"><ele>206.0</ele><time>2026-04-18T09:35:26.708Z</time></trkpt><trkpt lat="45.9775594" lon="8.4081998"><ele>206.0</ele><time>2026-04-18T09:35:27.709Z</time></trkpt><trkpt lat="45.9776607" lon="8.4081225"><ele>206.0</ele><time>2026-04-18T09:35:28.709Z</time></trkpt><trkpt lat="45.9777886" lon="8.4080397"><ele>206.0</ele><time>2026-04-18T09:35:29.72Z</time></trkpt><trkpt lat="45.9779031" lon="8.4079436"><ele>206.0</ele><time>2026-04-18T09:35:30.726Z</time></trkpt><trkpt lat="45.9780243" lon="8.4078458"><ele>206.0</ele><time>2026-04-18T09:35:31.725Z</time></trkpt><trkpt lat="45.9781394" lon="8.4077422"><ele>206.0</ele><time>2026-04-18T09:35:32.725Z</time></trkpt><trkpt lat="45.9782576" lon="8.4076439"><ele>206.0</ele><time>2026-04-18T09:35:33.724Z</time></trkpt><trkpt lat="45.9783722" lon="8.4075289"><ele>206.0</ele><time>2026-04-18T09:35:34.726Z</time></trkpt><trkpt lat="45.978488" lon="8.4074229"><ele>206.0</ele><time>2026-04-18T09:35:35.706Z</time></trkpt><trkpt lat="45.9786045" lon="8.4073137"><ele>206.0</ele><time>2026-04-18T09:35:36.71Z</time></trkpt><trkpt lat="45.9787141" lon="8.4072013"><ele>206.0</ele><time>2026-04-18T09:35:37.706Z</time></trkpt><trkpt lat="45.9788311" lon="8.4070951"><ele>206.0</ele><time>2026-04-18T09:35:38.71Z</time></trkpt><trkpt lat="45.9789529" lon="8.4070034"><ele>206.0</ele><time>2026-04-18T09:35:39.726Z</time></trkpt><trkpt lat="45.9790683" lon="8.4069104"><ele>206.25</ele><time>2026-04-18T09:35:40.728Z</time></trkpt><trkpt lat="45.9791878" lon="8.406814"><ele>206.5</ele><time>2026-04-18T09:35:41.711Z</time></trkpt><trkpt lat="45.9793059" lon="8.4067178"><ele>206.75</ele><time>2026-04-18T09:35:42.707Z</time></trkpt><trkpt lat="45.9794234" lon="8.4066185"><ele>207.0</ele><time>2026-04-18T09:35:43.71Z</time></trkpt><trkpt lat="45.9795313" lon="8.4065109"><ele>207.0</ele><time>2026-04-18T09:35:44.708Z</time></trkpt><trkpt lat="45.9796363" lon="8.4064055"><ele>207.0</ele><time>2026-04-18T09:35:45.725Z</time></trkpt><trkpt lat="45.9797462" lon="8.4063085"><ele>207.0</ele><time>2026-04-18T09:35:46.726Z</time></trkpt><trkpt lat="45.9798567" lon="8.4062101"><ele>207.0</ele><time>2026-04-18T09:35:47.728Z</time></trkpt><trkpt lat="45.9799618" lon="8.4061034"><ele>207.25</ele><time>2026-04-18T09:35:48.729Z</time></trkpt><trkpt lat="45.9800693" lon="8.4060021"><ele>207.5</ele><time>2026-04-18T09:35:49.725Z</time></trkpt><trkpt lat="45.9801779" lon="8.4059008"><ele>207.75</ele><time>2026-04-18T09:35:50.75Z</time></trkpt><trkpt lat="45.9802883" lon="8.4057946"><ele>208.0</ele><time>2026-04-18T09:35:51.724Z</time></trkpt><trkpt lat="45.9803968" lon="8.4056914"><ele>208.0</ele><time>2026-04-18T09:35:52.725Z</time></trkpt><trkpt lat="45.9805107" lon="8.4055918"><ele>208.0</ele><time>2026-04-18T09:35:53.728Z</time></trkpt><trkpt lat="45.9806211" lon="8.4054911"><ele>208.0</ele><time>2026-04-18T09:35:54.733Z</time></trkpt><trkpt lat="45.9807356" lon="8.4053905"><ele>208.0</ele><time>2026-04-18T09:35:55.732Z</time></trkpt><trkpt lat="45.9808461" lon="8.4052946"><ele>208.0</ele><time>2026-04-18T09:35:56.727Z</time></trkpt><trkpt lat="45.9809626" lon="8.405192"><ele>208.0</ele><time>2026-04-18T09:35:57.732Z</time></trkpt><trkpt lat="45.9810779" lon="8.405085"><ele>208.0</ele><time>2026-04-18T09:35:58.731Z</time></trkpt><trkpt lat="45.9811937" lon="8.404975"><ele>208.0</ele><time>2026-04-18T09:35:59.725Z</time></trkpt><trkpt lat="45.9813121" lon="8.4048668"><ele>208.0</ele><time>2026-04-18T09:36:00.727Z</time></trkpt><trkpt lat="45.9814279" lon="8.4047615"><ele>208.0</ele><time>2026-04-18T09:36:01.729Z</time></trkpt><trkpt lat="45.9815406" lon="8.4046579"><ele>208.0</ele><time>2026-04-18T09:36:02.727Z</time></trkpt><trkpt lat="45.9816533" lon="8.4045576"><ele>208.0</ele><time>2026-04-18T09:36:03.725Z</time></trkpt><trkpt lat="45.9817658" lon="8.4044595"><ele>208.5</ele><time>2026-04-18T09:36:04.725Z</time></trkpt><trkpt lat="45.9818717" lon="8.4043588"><ele>209.0</ele><time>2026-04-18T09:36:05.725Z</time></trkpt><trkpt lat="45.9819873" lon="8.4042571"><ele>209.5</ele><time>2026-04-18T09:36:06.724Z</time></trkpt><trkpt lat="45.9820991" lon="8.404154"><ele>210.0</ele><time>2026-04-18T09:36:07.73Z</time></trkpt><trkpt lat="45.9822104" lon="8.4040496"><ele>210.0</ele><time>2026-04-18T09:36:08.73Z</time></trkpt><trkpt lat="45.9823194" lon="8.4039525"><ele>210.0</ele><time>2026-04-18T09:36:09.729Z</time></trkpt><trkpt lat="45.9824298" lon="8.403852"><ele>210.0</ele><time>2026-04-18T09:36:10.729Z</time></trkpt><trkpt lat="45.9825425" lon="8.4037537"><ele>210.0</ele><time>2026-04-18T09:36:11.73Z</time></trkpt><trkpt lat="45.9826544" lon="8.4036511"><ele>209.75</ele><time>2026-04-18T09:36:12.728Z</time></trkpt><trkpt lat="45.9827665" lon="8.4035466"><ele>209.5</ele><time>2026-04-18T09:36:13.725Z</time></trkpt><trkpt lat="45.9828808" lon="8.4034402"><ele>209.25</ele><time>2026-04-18T09:36:14.729Z</time></trkpt><trkpt lat="45.9829933" lon="8.4033413"><ele>209.0</ele><time>2026-04-18T09:36:15.736Z</time></trkpt><trkpt lat="45.9831054" lon="8.4032444"><ele>209.0</ele><time>2026-04-18T09:36:16.728Z</time></trkpt><trkpt lat="45.9832159" lon="8.4031547"><ele>209.0</ele><time>2026-04-18T09:36:17.727Z</time></trkpt><trkpt lat="45.983328" lon="8.4030509"><ele>209.0</ele><time>2026-04-18T09:36:18.73Z</time></trkpt><trkpt lat="45.9834391" lon="8.4029508"><ele>209.0</ele><time>2026-04-18T09:36:19.723Z</time></trkpt><trkpt lat="45.9835569" lon="8.4028489"><ele>209.0</ele><time>2026-04-18T09:36:20.722Z</time></trkpt><trkpt lat="45.9836751" lon="8.4027447"><ele>209.0</ele><time>2026-04-18T09:36:21.742Z</time></trkpt><trkpt lat="45.983794" lon="8.4026485"><ele>209.0</ele><time>2026-04-18T09:36:22.722Z</time></trkpt><trkpt lat="45.9839092" lon="8.4025561"><ele>209.0</ele><time>2026-04-18T09:36:23.708Z</time></trkpt><trkpt lat="45.9840287" lon="8.4024552"><ele>209.0</ele><time>2026-04-18T09:36:24.711Z</time></trkpt><trkpt lat="45.9841439" lon="8.4023536"><ele>209.0</ele><time>2026-04-18T09:36:25.714Z</time></trkpt><trkpt lat="45.9842577" lon="8.4022572"><ele>209.0</ele><time>2026-04-18T09:36:26.709Z</time></trkpt><trkpt lat="45.984368" lon="8.4021565"><ele>209.0</ele><time>2026-04-18T09:36:27.727Z</time></trkpt><trkpt lat="45.9844804" lon="8.4020457"><ele>209.0</ele><time>2026-04-18T09:36:28.723Z</time></trkpt><trkpt lat="45.9845937" lon="8.4019399"><ele>209.0</ele><time>2026-04-18T09:36:29.729Z</time></trkpt><trkpt lat="45.9847123" lon="8.4018549"><ele>209.0</ele><time>2026-04-18T09:36:30.715Z</time></trkpt><trkpt lat="45.9848289" lon="8.4017604"><ele>209.0</ele><time>2026-04-18T09:36:31.709Z</time></trkpt><trkpt lat="45.9849435" lon="8.4016643"><ele>209.0</ele><time>2026-04-18T09:36:32.71Z</time></trkpt><trkpt lat="45.9850538" lon="8.4015538"><ele>209.0</ele><time>2026-04-18T09:36:33.708Z</time></trkpt><trkpt lat="45.9851619" lon="8.4014436"><ele>209.0</ele><time>2026-04-18T09:36:34.722Z</time></trkpt><trkpt lat="45.9852726" lon="8.4013338"><ele>209.0</ele><time>2026-04-18T09:36:35.724Z</time></trkpt><trkpt lat="45.9853821" lon="8.4012293"><ele>209.0</ele><time>2026-04-18T09:36:36.726Z</time></trkpt><trkpt lat="45.9854919" lon="8.4011229"><ele>209.0</ele><time>2026-04-18T09:36:37.727Z</time></trkpt><trkpt lat="45.9855942" lon="8.4010167"><ele>209.0</ele><time>2026-04-18T09:36:38.732Z</time></trkpt><trkpt lat="45.9856852" lon="8.4009028"><ele>209.0</ele><time>2026-04-18T09:36:39.725Z</time></trkpt><trkpt lat="45.9857716" lon="8.4007807"><ele>209.0</ele><time>2026-04-18T09:36:40.727Z</time></trkpt><trkpt lat="45.9858433" lon="8.4006538"><ele>209.0</ele><time>2026-04-18T09:36:41.698Z</time></trkpt><trkpt lat="45.9858924" lon="8.4005249"><ele>209.0</ele><time>2026-04-18T09:36:42.705Z</time></trkpt><trkpt lat="45.9859351" lon="8.400372"><ele>209.0</ele><time>2026-04-18T09:36:43.702Z</time></trkpt><trkpt lat="45.9859652" lon="8.400181"><ele>209.33333333333334</ele><time>2026-04-18T09:36:44.693Z</time></trkpt><trkpt lat="45.9860223" lon="8.3999176"><ele>209.66666666666669</ele><time>2026-04-18T09:36:45.726Z</time></trkpt><trkpt lat="45.9860508" lon="8.3996895"><ele>210.0</ele><time>2026-04-18T09:36:46.726Z</time></trkpt><trkpt lat="45.9860686" lon="8.3994728"><ele>210.0</ele><time>2026-04-18T09:36:47.72Z</time></trkpt><trkpt lat="45.9861177" lon="8.3992759"><ele>210.0</ele><time>2026-04-18T09:36:48.709Z</time></trkpt><trkpt lat="45.9861947" lon="8.3990788"><ele>210.0</ele><time>2026-04-18T09:36:49.7Z</time></trkpt><trkpt lat="45.9862714" lon="8.3988902"><ele>210.25</ele><time>2026-04-18T09:36:50.687Z</time></trkpt><trkpt lat="45.986291" lon="8.3987131"><ele>210.5</ele><time>2026-04-18T09:36:51.688Z</time></trkpt><trkpt lat="45.9863248" lon="8.3985135"><ele>210.75</ele><time>2026-04-18T09:36:52.701Z</time></trkpt><trkpt lat="45.9864024" lon="8.3983189"><ele>211.0</ele><time>2026-04-18T09:36:53.685Z</time></trkpt><trkpt lat="45.9864606" lon="8.3981235"><ele>210.0</ele><time>2026-04-18T09:36:54.702Z</time></trkpt><trkpt lat="45.986507" lon="8.3979346"><ele>209.0</ele><time>2026-04-18T09:36:55.701Z</time></trkpt><trkpt lat="45.9863658" lon="8.3977492"><ele>208.0</ele><time>2026-04-18T09:36:56.696Z</time></trkpt><trkpt lat="45.9863993" lon="8.397564"><ele>208.0</ele><time>2026-04-18T09:36:57.643Z</time></trkpt><trkpt lat="45.986435" lon="8.3973837"><ele>208.0</ele><time>2026-04-18T09:36:58.728Z</time></trkpt><trkpt lat="45.986472" lon="8.3972021"><ele>208.0</ele><time>2026-04-18T09:36:59.722Z</time></trkpt><trkpt lat="45.9865124" lon="8.397012"><ele>208.0</ele><time>2026-04-18T09:37:00.722Z</time></trkpt><trkpt lat="45.9865566" lon="8.3968159"><ele>208.0</ele><time>2026-04-18T09:37:01.719Z</time></trkpt><trkpt lat="45.9865972" lon="8.3966075"><ele>208.0</ele><time>2026-04-18T09:37:02.699Z</time></trkpt><trkpt lat="45.9866153" lon="8.3963678"><ele>208.0</ele><time>2026-04-18T09:37:03.688Z</time></trkpt><trkpt lat="45.9866277" lon="8.3961008"><ele>208.33333333333331</ele><time>2026-04-18T09:37:04.684Z</time></trkpt><trkpt lat="45.9866307" lon="8.3958122"><ele>208.66666666666669</ele><time>2026-04-18T09:37:05.689Z</time></trkpt><trkpt lat="45.9866256" lon="8.3955007"><ele>209.0</ele><time>2026-04-18T09:37:06.702Z</time></trkpt><trkpt lat="45.9866037" lon="8.3951658"><ele>210.0</ele><time>2026-04-18T09:37:07.701Z</time></trkpt><trkpt lat="45.9865633" lon="8.3948043"><ele>211.0</ele><time>2026-04-18T09:37:08.702Z</time></trkpt><trkpt lat="45.9868269" lon="8.39532"><ele>211.0</ele><time>2026-04-18T09:37:09.702Z</time></trkpt><trkpt lat="45.9867956" lon="8.3950357"><ele>211.0</ele><time>2026-04-18T09:37:10.699Z</time></trkpt><trkpt lat="45.9867995" lon="8.3948251"><ele>211.0</ele><time>2026-04-18T09:37:11.7Z</time></trkpt><trkpt lat="45.986882" lon="8.3947166"><ele>210.75</ele><time>2026-04-18T09:37:12.7Z</time></trkpt><trkpt lat="45.9869643" lon="8.3945969"><ele>210.5</ele><time>2026-04-18T09:37:13.705Z</time></trkpt><trkpt lat="45.9870046" lon="8.3944108"><ele>210.25</ele><time>2026-04-18T09:37:14.629Z</time></trkpt><trkpt lat="45.9870386" lon="8.3942345"><ele>210.0</ele><time>2026-04-18T09:37:15.628Z</time></trkpt><trkpt lat="45.9870699" lon="8.394061"><ele>210.0</ele><time>2026-04-18T09:37:16.629Z</time></trkpt><trkpt lat="45.9870972" lon="8.3938871"><ele>210.0</ele><time>2026-04-18T09:37:17.627Z</time></trkpt><trkpt lat="45.9871311" lon="8.3937014"><ele>210.0</ele><time>2026-04-18T09:37:18.623Z</time></trkpt><trkpt lat="45.9871661" lon="8.3935426"><ele>210.0</ele><time>2026-04-18T09:37:19.618Z</time></trkpt><trkpt lat="45.9871682" lon="8.3933896"><ele>209.75</ele><time>2026-04-18T09:37:20.616Z</time></trkpt><trkpt lat="45.9871627" lon="8.3932345"><ele>209.5</ele><time>2026-04-18T09:37:21.617Z</time></trkpt><trkpt lat="45.9871342" lon="8.393075"><ele>209.25</ele><time>2026-04-18T09:37:22.62Z</time></trkpt><trkpt lat="45.9871" lon="8.3929205"><ele>209.0</ele><time>2026-04-18T09:37:23.634Z</time></trkpt><trkpt lat="45.9870529" lon="8.3927593"><ele>208.75</ele><time>2026-04-18T09:37:24.621Z</time></trkpt><trkpt lat="45.9870003" lon="8.3925895"><ele>208.5</ele><time>2026-04-18T09:37:25.624Z</time></trkpt><trkpt lat="45.9869479" lon="8.3924205"><ele>208.25</ele><time>2026-04-18T09:37:26.62Z</time></trkpt><trkpt lat="45.9869024" lon="8.3922536"><ele>208.0</ele><time>2026-04-18T09:37:27.62Z</time></trkpt><trkpt lat="45.9868566" lon="8.3920796"><ele>208.0</ele><time>2026-04-18T09:37:28.617Z</time></trkpt><trkpt lat="45.9868119" lon="8.3919024"><ele>208.0</ele><time>2026-04-18T09:37:29.619Z</time></trkpt><trkpt lat="45.9867691" lon="8.391738"><ele>208.0</ele><time>2026-04-18T09:37:30.621Z</time></trkpt><trkpt lat="45.9867292" lon="8.3915528"><ele>208.0</ele><time>2026-04-18T09:37:31.617Z</time></trkpt><trkpt lat="45.9866814" lon="8.3913772"><ele>208.5</ele><time>2026-04-18T09:37:32.621Z</time></trkpt><trkpt lat="45.9866444" lon="8.3911974"><ele>209.0</ele><time>2026-04-18T09:37:33.625Z</time></trkpt><trkpt lat="45.9866037" lon="8.3910208"><ele>209.5</ele><time>2026-04-18T09:37:34.623Z</time></trkpt><trkpt lat="45.9865635" lon="8.390843"><ele>210.0</ele><time>2026-04-18T09:37:35.624Z</time></trkpt><trkpt lat="45.9865134" lon="8.3906771"><ele>210.0</ele><time>2026-04-18T09:37:36.624Z</time></trkpt><trkpt lat="45.9864601" lon="8.3905015"><ele>210.0</ele><time>2026-04-18T09:37:37.624Z</time></trkpt><trkpt lat="45.986415" lon="8.3903204"><ele>210.0</ele><time>2026-04-18T09:37:38.622Z</time></trkpt><trkpt lat="45.9863744" lon="8.3901393"><ele>210.0</ele><time>2026-04-18T09:37:39.626Z</time></trkpt><trkpt lat="45.9863351" lon="8.3899598"><ele>210.0</ele><time>2026-04-18T09:37:40.629Z</time></trkpt><trkpt lat="45.9863088" lon="8.3897676"><ele>210.0</ele><time>2026-04-18T09:37:41.621Z</time></trkpt><trkpt lat="45.9862917" lon="8.3895763"><ele>210.0</ele><time>2026-04-18T09:37:42.618Z</time></trkpt><trkpt lat="45.9862759" lon="8.389379"><ele>210.0</ele><time>2026-04-18T09:37:43.625Z</time></trkpt><trkpt lat="45.9862544" lon="8.3891973"><ele>210.0</ele><time>2026-04-18T09:37:44.623Z</time></trkpt><trkpt lat="45.9862473" lon="8.3890114"><ele>210.0</ele><time>2026-04-18T09:37:45.624Z</time></trkpt><trkpt lat="45.9862315" lon="8.3888242"><ele>210.0</ele><time>2026-04-18T09:37:46.626Z</time></trkpt><trkpt lat="45.986217" lon="8.388635"><ele>210.0</ele><time>2026-04-18T09:37:47.625Z</time></trkpt><trkpt lat="45.9862003" lon="8.3884475"><ele>210.0</ele><time>2026-04-18T09:37:48.619Z</time></trkpt><trkpt lat="45.9861697" lon="8.3882591"><ele>210.0</ele><time>2026-04-18T09:37:49.618Z</time></trkpt><trkpt lat="45.9861342" lon="8.3880755"><ele>210.0</ele><time>2026-04-18T09:37:50.622Z</time></trkpt><trkpt lat="45.9861094" lon="8.3879001"><ele>210.0</ele><time>2026-04-18T09:37:51.631Z</time></trkpt><trkpt lat="45.9860882" lon="8.3877486"><ele>210.2</ele><time>2026-04-18T09:37:52.624Z</time></trkpt><trkpt lat="45.9860648" lon="8.3876077"><ele>210.4</ele><time>2026-04-18T09:37:53.627Z</time></trkpt><trkpt lat="45.9860365" lon="8.3874692"><ele>210.60000000000002</ele><time>2026-04-18T09:37:54.647Z</time></trkpt><trkpt lat="45.986015" lon="8.3873188"><ele>210.8</ele><time>2026-04-18T09:37:55.626Z</time></trkpt><trkpt lat="45.9859919" lon="8.3871548"><ele>211.0</ele><time>2026-04-18T09:37:56.627Z</time></trkpt><trkpt lat="45.9859737" lon="8.3870006"><ele>210.4</ele><time>2026-04-18T09:37:57.63Z</time></trkpt><trkpt lat="45.9859561" lon="8.3868483"><ele>209.8</ele><time>2026-04-18T09:37:58.625Z</time></trkpt><trkpt lat="45.9859393" lon="8.3867067"><ele>209.20000000000002</ele><time>2026-04-18T09:37:59.624Z</time></trkpt><trkpt lat="45.9859156" lon="8.3865616"><ele>208.60000000000002</ele><time>2026-04-18T09:38:00.625Z</time></trkpt><trkpt lat="45.9858933" lon="8.3864205"><ele>208.0</ele><time>2026-04-18T09:38:01.619Z</time></trkpt><trkpt lat="45.9858724" lon="8.3862675"><ele>208.0</ele><time>2026-04-18T09:38:02.62Z</time></trkpt><trkpt lat="45.9858533" lon="8.3861129"><ele>208.0</ele><time>2026-04-18T09:38:03.62Z</time></trkpt><trkpt lat="45.9858294" lon="8.385954"><ele>208.0</ele><time>2026-04-18T09:38:04.622Z</time></trkpt><trkpt lat="45.9858051" lon="8.3857858"><ele>208.0</ele><time>2026-04-18T09:38:05.618Z</time></trkpt><trkpt lat="45.9857797" lon="8.3856138"><ele>208.75</ele><time>2026-04-18T09:38:06.621Z</time></trkpt><trkpt lat="45.9857368" lon="8.3854474"><ele>209.5</ele><time>2026-04-18T09:38:07.618Z</time></trkpt><trkpt lat="45.9856941" lon="8.3852895"><ele>210.25</ele><time>2026-04-18T09:38:08.618Z</time></trkpt><trkpt lat="45.9856593" lon="8.3851243"><ele>211.0</ele><time>2026-04-18T09:38:09.621Z</time></trkpt><trkpt lat="45.9856321" lon="8.3849549"><ele>211.0</ele><time>2026-04-18T09:38:10.623Z</time></trkpt><trkpt lat="45.9856226" lon="8.38477"><ele>211.0</ele><time>2026-04-18T09:38:11.62Z</time></trkpt><trkpt lat="45.9856052" lon="8.3845911"><ele>211.0</ele><time>2026-04-18T09:38:12.62Z</time></trkpt><trkpt lat="45.9855818" lon="8.384409"><ele>211.0</ele><time>2026-04-18T09:38:13.619Z</time></trkpt><trkpt lat="45.9855524" lon="8.3842182"><ele>210.25</ele><time>2026-04-18T09:38:14.62Z</time></trkpt><trkpt lat="45.9855144" lon="8.3840112"><ele>209.5</ele><time>2026-04-18T09:38:15.617Z</time></trkpt><trkpt lat="45.9854968" lon="8.3838288"><ele>208.75</ele><time>2026-04-18T09:38:16.615Z</time></trkpt><trkpt lat="45.9854823" lon="8.3836502"><ele>208.0</ele><time>2026-04-18T09:38:17.617Z</time></trkpt><trkpt lat="45.9854886" lon="8.3834724"><ele>208.0</ele><time>2026-04-18T09:38:18.618Z</time></trkpt><trkpt lat="45.9855124" lon="8.3833062"><ele>208.0</ele><time>2026-04-18T09:38:19.619Z</time></trkpt><trkpt lat="45.9855402" lon="8.3831374"><ele>208.0</ele><time>2026-04-18T09:38:20.618Z</time></trkpt><trkpt lat="45.9856146" lon="8.3830021"><ele>208.0</ele><time>2026-04-18T09:38:21.621Z</time></trkpt><trkpt lat="45.9857282" lon="8.3828741"><ele>208.0</ele><time>2026-04-18T09:38:22.617Z</time></trkpt><trkpt lat="45.9858403" lon="8.3827685"><ele>208.0</ele><time>2026-04-18T09:38:23.622Z</time></trkpt><trkpt lat="45.9859619" lon="8.3826773"><ele>208.0</ele><time>2026-04-18T09:38:24.628Z</time></trkpt><trkpt lat="45.9860762" lon="8.3826153"><ele>208.0</ele><time>2026-04-18T09:38:25.646Z</time></trkpt><trkpt lat="45.9861931" lon="8.3825391"><ele>207.5</ele><time>2026-04-18T09:38:26.624Z</time></trkpt><trkpt lat="45.9863242" lon="8.3824577"><ele>207.0</ele><time>2026-04-18T09:38:27.618Z</time></trkpt><trkpt lat="45.9864594" lon="8.382394"><ele>206.5</ele><time>2026-04-18T09:38:28.617Z</time></trkpt><trkpt lat="45.9865972" lon="8.3823152"><ele>206.0</ele><time>2026-04-18T09:38:29.612Z</time></trkpt><trkpt lat="45.9867172" lon="8.3822443"><ele>206.5</ele><time>2026-04-18T09:38:30.622Z</time></trkpt><trkpt lat="45.9868487" lon="8.3821643"><ele>207.0</ele><time>2026-04-18T09:38:31.621Z</time></trkpt><trkpt lat="45.9869708" lon="8.3820954"><ele>207.5</ele><time>2026-04-18T09:38:32.62Z</time></trkpt><trkpt lat="45.9870904" lon="8.3820253"><ele>208.0</ele><time>2026-04-18T09:38:33.622Z</time></trkpt><trkpt lat="45.9872088" lon="8.3819488"><ele>208.0</ele><time>2026-04-18T09:38:34.618Z</time></trkpt><trkpt lat="45.9873261" lon="8.3818751"><ele>208.0</ele><time>2026-04-18T09:38:35.62Z</time></trkpt><trkpt lat="45.987441" lon="8.3818038"><ele>208.0</ele><time>2026-04-18T09:38:36.63Z</time></trkpt><trkpt lat="45.9875528" lon="8.3817113"><ele>208.0</ele><time>2026-04-18T09:38:37.626Z</time></trkpt><trkpt lat="45.9876693" lon="8.3816132"><ele>208.25</ele><time>2026-04-18T09:38:38.619Z</time></trkpt><trkpt lat="45.987774" lon="8.3814966"><ele>208.5</ele><time>2026-04-18T09:38:39.619Z</time></trkpt><trkpt lat="45.9878703" lon="8.3813646"><ele>208.75</ele><time>2026-04-18T09:38:40.625Z</time></trkpt><trkpt lat="45.9879675" lon="8.3812223"><ele>209.0</ele><time>2026-04-18T09:38:41.625Z</time></trkpt><trkpt lat="45.9880493" lon="8.3810827"><ele>209.0</ele><time>2026-04-18T09:38:42.631Z</time></trkpt><trkpt lat="45.9881119" lon="8.3809382"><ele>209.0</ele><time>2026-04-18T09:38:43.62Z</time></trkpt><trkpt lat="45.9881616" lon="8.3807912"><ele>209.0</ele><time>2026-04-18T09:38:44.624Z</time></trkpt><trkpt lat="45.988207" lon="8.3806566"><ele>209.0</ele><time>2026-04-18T09:38:45.623Z</time></trkpt><trkpt lat="45.9882399" lon="8.380515"><ele>209.0</ele><time>2026-04-18T09:38:46.624Z</time></trkpt><trkpt lat="45.9882747" lon="8.3804076"><ele>209.16666666666669</ele><time>2026-04-18T09:38:47.624Z</time></trkpt><trkpt lat="45.9883077" lon="8.380327"><ele>209.33333333333334</ele><time>2026-04-18T09:38:48.625Z</time></trkpt><trkpt lat="45.9883684" lon="8.3801822"><ele>209.5</ele><time>2026-04-18T09:38:50.626Z</time></trkpt><trkpt lat="45.9884271" lon="8.3801202"><ele>209.66666666666669</ele><time>2026-04-18T09:38:52.627Z</time></trkpt><trkpt lat="45.9884841" lon="8.380174"><ele>209.83333333333334</ele><time>2026-04-18T09:38:54.629Z</time></trkpt><trkpt lat="45.9884603" lon="8.3802767"><ele>210.0</ele><time>2026-04-18T09:38:56.644Z</time></trkpt><trkpt lat="45.9884176" lon="8.3803448"><ele>209.83333333333334</ele><time>2026-04-18T09:38:57.634Z</time></trkpt><trkpt lat="45.9883591" lon="8.3804535"><ele>209.66666666666669</ele><time>2026-04-18T09:38:59.628Z</time></trkpt><trkpt lat="45.9883211" lon="8.3805415"><ele>209.5</ele><time>2026-04-18T09:39:01.631Z</time></trkpt><trkpt lat="45.9882899" lon="8.380657"><ele>209.33333333333334</ele><time>2026-04-18T09:39:03.636Z</time></trkpt><trkpt lat="45.9882363" lon="8.3807092"><ele>209.16666666666669</ele><time>2026-04-18T09:40:28.64Z</time></trkpt><trkpt lat="45.9882101" lon="8.380802"><ele>209.0</ele><time>2026-04-18T09:43:36.651Z</time></trkpt><trkpt lat="45.9881536" lon="8.3810345"><ele>209.0</ele><time>2026-04-18T09:43:39.638Z</time></trkpt><trkpt lat="45.9880682" lon="8.3811626"><ele>209.0</ele><time>2026-04-18T09:43:41.634Z</time></trkpt><trkpt lat="45.9880039" lon="8.3813103"><ele>209.0</ele><time>2026-04-18T09:43:43.637Z</time></trkpt><trkpt lat="45.98797" lon="8.3814192"><ele>209.0</ele><time>2026-04-18T09:43:44.634Z</time></trkpt><trkpt lat="45.9879211" lon="8.3815225"><ele>209.0</ele><time>2026-04-18T09:43:45.634Z</time></trkpt><trkpt lat="45.9878619" lon="8.3816202"><ele>209.0</ele><time>2026-04-18T09:43:46.635Z</time></trkpt><trkpt lat="45.9878" lon="8.3817006"><ele>209.0</ele><time>2026-04-18T09:43:47.635Z</time></trkpt><trkpt lat="45.987741" lon="8.381782"><ele>209.0</ele><time>2026-04-18T09:43:48.631Z</time></trkpt><trkpt lat="45.9876555" lon="8.3818647"><ele>209.0</ele><time>2026-04-18T09:43:49.635Z</time></trkpt><trkpt lat="45.9875508" lon="8.3819723"><ele>209.0</ele><time>2026-04-18T09:43:50.631Z</time></trkpt><trkpt lat="45.987432" lon="8.3820743"><ele>208.79999999999998</ele><time>2026-04-18T09:43:51.639Z</time></trkpt><trkpt lat="45.9873235" lon="8.3821677"><ele>208.6</ele><time>2026-04-18T09:43:52.632Z</time></trkpt><trkpt lat="45.9872299" lon="8.3822467"><ele>208.4</ele><time>2026-04-18T09:43:53.631Z</time></trkpt><trkpt lat="45.9871485" lon="8.3823351"><ele>208.2</ele><time>2026-04-18T09:43:54.63Z</time></trkpt><trkpt lat="45.9871029" lon="8.3824378"><ele>208.0</ele><time>2026-04-18T09:43:55.631Z</time></trkpt><trkpt lat="45.9870852" lon="8.3825723"><ele>207.75</ele><time>2026-04-18T09:43:56.629Z</time></trkpt><trkpt lat="45.9871072" lon="8.3827444"><ele>207.5</ele><time>2026-04-18T09:43:57.626Z</time></trkpt><trkpt lat="45.9871275" lon="8.3829427"><ele>207.25</ele><time>2026-04-18T09:43:58.615Z</time></trkpt><trkpt lat="45.987179" lon="8.3831774"><ele>207.0</ele><time>2026-04-18T09:43:59.626Z</time></trkpt><trkpt lat="45.9872282" lon="8.3834164"><ele>207.0</ele><time>2026-04-18T09:44:00.631Z</time></trkpt><trkpt lat="45.9873215" lon="8.3836797"><ele>207.0</ele><time>2026-04-18T09:44:01.628Z</time></trkpt><trkpt lat="45.9874163" lon="8.3839447"><ele>207.0</ele><time>2026-04-18T09:44:02.632Z</time></trkpt><trkpt lat="45.9875005" lon="8.384165"><ele>207.33333333333331</ele><time>2026-04-18T09:44:03.632Z</time></trkpt><trkpt lat="45.9875466" lon="8.3844035"><ele>207.66666666666666</ele><time>2026-04-18T09:44:04.635Z</time></trkpt><trkpt lat="45.9875844" lon="8.384646"><ele>208.0</ele><time>2026-04-18T09:44:05.634Z</time></trkpt><trkpt lat="45.9876384" lon="8.3848798"><ele>208.0</ele><time>2026-04-18T09:44:06.658Z</time></trkpt><trkpt lat="45.9877102" lon="8.3851117"><ele>208.0</ele><time>2026-04-18T09:44:07.64Z</time></trkpt><trkpt lat="45.9878041" lon="8.3853219"><ele>208.0</ele><time>2026-04-18T09:44:08.649Z</time></trkpt><trkpt lat="45.9878372" lon="8.3855434"><ele>208.0</ele><time>2026-04-18T09:44:09.638Z</time></trkpt><trkpt lat="45.9879015" lon="8.3857306"><ele>208.0</ele><time>2026-04-18T09:44:10.643Z</time></trkpt><trkpt lat="45.9879515" lon="8.3859104"><ele>208.0</ele><time>2026-04-18T09:44:11.638Z</time></trkpt><trkpt lat="45.9880271" lon="8.3860581"><ele>208.0</ele><time>2026-04-18T09:44:12.635Z</time></trkpt><trkpt lat="45.9881315" lon="8.3862132"><ele>207.75</ele><time>2026-04-18T09:44:13.623Z</time></trkpt><trkpt lat="45.9882109" lon="8.3863935"><ele>207.5</ele><time>2026-04-18T09:44:14.63Z</time></trkpt><trkpt lat="45.9882637" lon="8.3865795"><ele>207.25</ele><time>2026-04-18T09:44:15.625Z</time></trkpt><trkpt lat="45.9883201" lon="8.3867176"><ele>207.0</ele><time>2026-04-18T09:44:16.626Z</time></trkpt><trkpt lat="45.988348" lon="8.3868815"><ele>207.0</ele><time>2026-04-18T09:44:17.618Z</time></trkpt><trkpt lat="45.9883941" lon="8.387015"><ele>207.0</ele><time>2026-04-18T09:44:18.625Z</time></trkpt><trkpt lat="45.9884096" lon="8.387154"><ele>207.0</ele><time>2026-04-18T09:44:19.627Z</time></trkpt><trkpt lat="45.9884862" lon="8.3873544"><ele>207.0</ele><time>2026-04-18T09:44:20.623Z</time></trkpt><trkpt lat="45.9885296" lon="8.3876015"><ele>207.25</ele><time>2026-04-18T09:44:21.614Z</time></trkpt><trkpt lat="45.9885865" lon="8.3877904"><ele>207.5</ele><time>2026-04-18T09:44:22.631Z</time></trkpt><trkpt lat="45.9886266" lon="8.3880294"><ele>207.75</ele><time>2026-04-18T09:44:23.635Z</time></trkpt><trkpt lat="45.988646" lon="8.3882082"><ele>208.0</ele><time>2026-04-18T09:44:24.635Z</time></trkpt><trkpt lat="45.9886539" lon="8.3883753"><ele>207.5</ele><time>2026-04-18T09:44:25.635Z</time></trkpt><trkpt lat="45.9887064" lon="8.3885704"><ele>207.0</ele><time>2026-04-18T09:44:26.626Z</time></trkpt><trkpt lat="45.9888199" lon="8.388696"><ele>206.5</ele><time>2026-04-18T09:44:27.639Z</time></trkpt><trkpt lat="45.9888831" lon="8.3887787"><ele>206.0</ele><time>2026-04-18T09:44:28.625Z</time></trkpt><trkpt lat="45.9889513" lon="8.388904"><ele>206.0</ele><time>2026-04-18T09:44:29.636Z</time></trkpt><trkpt lat="45.9889755" lon="8.3890414"><ele>206.0</ele><time>2026-04-18T09:44:31.62Z</time></trkpt><trkpt lat="45.9891101" lon="8.3889913"><ele>206.0</ele><time>2026-04-18T09:44:34.621Z</time></trkpt><trkpt lat="45.9891955" lon="8.3889888"><ele>206.0</ele><time>2026-04-18T09:44:35.622Z</time></trkpt><trkpt lat="45.9892915" lon="8.3889616"><ele>206.0</ele><time>2026-04-18T09:44:36.626Z</time></trkpt><trkpt lat="45.9894096" lon="8.388897"><ele>206.0</ele><time>2026-04-18T09:44:37.658Z</time></trkpt><trkpt lat="45.9895374" lon="8.3888643"><ele>206.0</ele><time>2026-04-18T09:44:38.638Z</time></trkpt><trkpt lat="45.989647" lon="8.3888225"><ele>206.0</ele><time>2026-04-18T09:44:39.644Z</time></trkpt><trkpt lat="45.9897323" lon="8.3887754"><ele>206.0</ele><time>2026-04-18T09:44:40.638Z</time></trkpt><trkpt lat="45.9898055" lon="8.3886831"><ele>206.0</ele><time>2026-04-18T09:44:41.637Z</time></trkpt><trkpt lat="45.9898432" lon="8.388569"><ele>206.60000000000002</ele><time>2026-04-18T09:44:42.647Z</time></trkpt><trkpt lat="45.9898281" lon="8.3884431"><ele>207.2</ele><time>2026-04-18T09:44:43.643Z</time></trkpt><trkpt lat="45.9898184" lon="8.3882899"><ele>207.8</ele><time>2026-04-18T09:44:44.643Z</time></trkpt><trkpt lat="45.9898109" lon="8.388149"><ele>208.39999999999998</ele><time>2026-04-18T09:44:45.64Z</time></trkpt><trkpt lat="45.9897954" lon="8.3879359"><ele>209.0</ele><time>2026-04-18T09:44:46.632Z</time></trkpt><trkpt lat="45.9897861" lon="8.3877599"><ele>209.0</ele><time>2026-04-18T09:44:47.626Z</time></trkpt><trkpt lat="45.9897714" lon="8.3875785"><ele>209.0</ele><time>2026-04-18T09:44:48.619Z</time></trkpt><trkpt lat="45.989759" lon="8.3873715"><ele>209.0</ele><time>2026-04-18T09:44:49.617Z</time></trkpt><trkpt lat="45.9897586" lon="8.3872292"><ele>209.0</ele><time>2026-04-18T09:44:50.616Z</time></trkpt><trkpt lat="45.9897653" lon="8.3870806"><ele>209.0</ele><time>2026-04-18T09:44:51.613Z</time></trkpt><trkpt lat="45.9897819" lon="8.386939"><ele>209.0</ele><time>2026-04-18T09:44:52.617Z</time></trkpt><trkpt lat="45.9897978" lon="8.3867875"><ele>209.0</ele><time>2026-04-18T09:44:53.614Z</time></trkpt><trkpt lat="45.9897713" lon="8.3865903"><ele>209.0</ele><time>2026-04-18T09:44:54.62Z</time></trkpt><trkpt lat="45.9897703" lon="8.3864242"><ele>208.75</ele><time>2026-04-18T09:44:55.617Z</time></trkpt><trkpt lat="45.9897782" lon="8.386252"><ele>208.5</ele><time>2026-04-18T09:44:56.623Z</time></trkpt><trkpt lat="45.9897876" lon="8.3860637"><ele>208.25</ele><time>2026-04-18T09:44:57.626Z</time></trkpt><trkpt lat="45.9897981" lon="8.385871"><ele>208.0</ele><time>2026-04-18T09:44:58.623Z</time></trkpt><trkpt lat="45.9898191" lon="8.3856725"><ele>208.25</ele><time>2026-04-18T09:44:59.62Z</time></trkpt><trkpt lat="45.9898314" lon="8.3854583"><ele>208.5</ele><time>2026-04-18T09:45:00.627Z</time></trkpt><trkpt lat="45.9898677" lon="8.3853166"><ele>208.75</ele><time>2026-04-18T09:45:01.628Z</time></trkpt><trkpt lat="45.9898887" lon="8.3851508"><ele>209.0</ele><time>2026-04-18T09:45:02.624Z</time></trkpt><trkpt lat="45.9899224" lon="8.3849697"><ele>209.0</ele><time>2026-04-18T09:45:03.627Z</time></trkpt><trkpt lat="45.9899967" lon="8.3848213"><ele>209.0</ele><time>2026-04-18T09:45:04.624Z</time></trkpt><trkpt lat="45.9900114" lon="8.3846713"><ele>209.0</ele><time>2026-04-18T09:45:05.637Z</time></trkpt><trkpt lat="45.9900092" lon="8.3845508"><ele>209.0</ele><time>2026-04-18T09:45:06.635Z</time></trkpt><trkpt lat="45.990023" lon="8.3844081"><ele>209.0</ele><time>2026-04-18T09:45:07.636Z</time></trkpt><trkpt lat="45.990043" lon="8.3842958"><ele>209.28571428571428</ele><time>2026-04-18T09:45:08.654Z</time></trkpt><trkpt lat="45.9900439" lon="8.3841637"><ele>209.57142857142856</ele><time>2026-04-18T09:45:09.64Z</time></trkpt><trkpt lat="45.9900597" lon="8.384035"><ele>209.85714285714286</ele><time>2026-04-18T09:45:10.644Z</time></trkpt><trkpt lat="45.9900708" lon="8.3839457"><ele>210.14285714285714</ele><time>2026-04-18T09:45:11.643Z</time></trkpt><trkpt lat="45.9900886" lon="8.3838534"><ele>210.42857142857144</ele><time>2026-04-18T09:45:12.641Z</time></trkpt><trkpt lat="45.9901073" lon="8.3837645"><ele>210.71428571428572</ele><time>2026-04-18T09:45:13.639Z</time></trkpt><trkpt lat="45.9900385" lon="8.3837582"><ele>211.0</ele><time>2026-04-18T09:48:25.635Z</time></trkpt><trkpt lat="45.9900403" lon="8.383645"><ele>211.0</ele><time>2026-04-18T09:48:35.64Z</time></trkpt><trkpt lat="45.9900436" lon="8.383452"><ele>211.0</ele><time>2026-04-18T09:48:37.624Z</time></trkpt><trkpt lat="45.9900602" lon="8.3833173"><ele>211.0</ele><time>2026-04-18T09:48:38.632Z</time></trkpt><trkpt lat="45.9900805" lon="8.38319"><ele>211.0</ele><time>2026-04-18T09:48:39.635Z</time></trkpt><trkpt lat="45.9901018" lon="8.383052"><ele>211.0</ele><time>2026-04-18T09:48:40.633Z</time></trkpt><trkpt lat="45.9901412" lon="8.3829041"><ele>210.60000000000002</ele><time>2026-04-18T09:48:41.631Z</time></trkpt><trkpt lat="45.9901953" lon="8.3827726"><ele>210.2</ele><time>2026-04-18T09:48:42.622Z</time></trkpt><trkpt lat="45.9902485" lon="8.3826628"><ele>209.8</ele><time>2026-04-18T09:48:43.627Z</time></trkpt><trkpt lat="45.9903025" lon="8.3825714"><ele>209.39999999999998</ele><time>2026-04-18T09:48:44.633Z</time></trkpt><trkpt lat="45.9903661" lon="8.3824656"><ele>209.0</ele><time>2026-04-18T09:48:45.651Z</time></trkpt><trkpt lat="45.9904279" lon="8.3823653"><ele>209.0</ele><time>2026-04-18T09:48:46.636Z</time></trkpt><trkpt lat="45.9904814" lon="8.3822436"><ele>209.0</ele><time>2026-04-18T09:48:47.628Z</time></trkpt><trkpt lat="45.9905211" lon="8.3821048"><ele>209.0</ele><time>2026-04-18T09:48:48.625Z</time></trkpt><trkpt lat="45.9905411" lon="8.3819427"><ele>209.0</ele><time>2026-04-18T09:48:49.64Z</time></trkpt><trkpt lat="45.9905709" lon="8.3817719"><ele>209.0</ele><time>2026-04-18T09:48:50.633Z</time></trkpt><trkpt lat="45.9906026" lon="8.3816193"><ele>209.0</ele><time>2026-04-18T09:48:51.626Z</time></trkpt><trkpt lat="45.9906629" lon="8.3814954"><ele>209.0</ele><time>2026-04-18T09:48:52.632Z</time></trkpt><trkpt lat="45.9907084" lon="8.3813824"><ele>209.0</ele><time>2026-04-18T09:48:53.63Z</time></trkpt><trkpt lat="45.9907454" lon="8.3812592"><ele>209.0</ele><time>2026-04-18T09:48:54.633Z</time></trkpt><trkpt lat="45.9907739" lon="8.3811106"><ele>209.0</ele><time>2026-04-18T09:48:55.632Z</time></trkpt><trkpt lat="45.9907871" lon="8.3809563"><ele>209.2</ele><time>2026-04-18T09:48:56.628Z</time></trkpt><trkpt lat="45.9908086" lon="8.3808037"><ele>209.39999999999998</ele><time>2026-04-18T09:48:57.63Z</time></trkpt><trkpt lat="45.9908354" lon="8.3806611"><ele>209.6</ele><time>2026-04-18T09:48:58.633Z</time></trkpt><trkpt lat="45.9908654" lon="8.3805176"><ele>209.8</ele><time>2026-04-18T09:48:59.631Z</time></trkpt><trkpt lat="45.9908922" lon="8.3803685"><ele>210.0</ele><time>2026-04-18T09:49:00.626Z</time></trkpt><trkpt lat="45.9909026" lon="8.3802089"><ele>210.0</ele><time>2026-04-18T09:49:01.632Z</time></trkpt><trkpt lat="45.9909227" lon="8.3800569"><ele>210.0</ele><time>2026-04-18T09:49:02.635Z</time></trkpt><trkpt lat="45.9909421" lon="8.3799039"><ele>210.0</ele><time>2026-04-18T09:49:03.629Z</time></trkpt><trkpt lat="45.9909549" lon="8.3797482"><ele>210.0</ele><time>2026-04-18T09:49:04.623Z</time></trkpt><trkpt lat="45.9909748" lon="8.3795691"><ele>210.0</ele><time>2026-04-18T09:49:05.628Z</time></trkpt><trkpt lat="45.9910102" lon="8.3793916"><ele>210.0</ele><time>2026-04-18T09:49:06.625Z</time></trkpt><trkpt lat="45.9910327" lon="8.3792127"><ele>210.0</ele><time>2026-04-18T09:49:07.631Z</time></trkpt><trkpt lat="45.9910444" lon="8.3790456"><ele>210.0</ele><time>2026-04-18T09:49:08.619Z</time></trkpt><trkpt lat="45.9910669" lon="8.3788932"><ele>210.0</ele><time>2026-04-18T09:49:09.624Z</time></trkpt><trkpt lat="45.9910697" lon="8.3787717"><ele>210.0</ele><time>2026-04-18T09:49:10.629Z</time></trkpt><trkpt lat="45.9910778" lon="8.3786511"><ele>210.0</ele><time>2026-04-18T09:49:11.634Z</time></trkpt><trkpt lat="45.9910896" lon="8.3785376"><ele>210.0</ele><time>2026-04-18T09:49:12.629Z</time></trkpt><trkpt lat="45.9911008" lon="8.3784301"><ele>210.0</ele><time>2026-04-18T09:49:13.628Z</time></trkpt><trkpt lat="45.9910975" lon="8.3783386"><ele>210.0</ele><time>2026-04-18T09:49:14.633Z</time></trkpt><trkpt lat="45.9911069" lon="8.3782086"><ele>210.0</ele><time>2026-04-18T09:49:16.655Z</time></trkpt><trkpt lat="45.9911553" lon="8.3781273"><ele>210.0</ele><time>2026-04-18T09:49:48.651Z</time></trkpt><trkpt lat="45.991291" lon="8.3780471"><ele>210.0</ele><time>2026-04-18T09:49:50.641Z</time></trkpt><trkpt lat="45.991376" lon="8.3780077"><ele>210.0</ele><time>2026-04-18T09:49:51.642Z</time></trkpt><trkpt lat="45.9914431" lon="8.3779795"><ele>210.0</ele><time>2026-04-18T09:49:52.646Z</time></trkpt><trkpt lat="45.9915227" lon="8.3779018"><ele>210.0</ele><time>2026-04-18T09:49:54.655Z</time></trkpt><trkpt lat="45.9916076" lon="8.3777846"><ele>210.0</ele><time>2026-04-18T09:49:56.634Z</time></trkpt><trkpt lat="45.991658" lon="8.3777071"><ele>210.0</ele><time>2026-04-18T09:49:57.649Z</time></trkpt><trkpt lat="45.9917115" lon="8.3776276"><ele>210.0</ele><time>2026-04-18T09:49:58.639Z</time></trkpt><trkpt lat="45.9917571" lon="8.3775279"><ele>210.0</ele><time>2026-04-18T09:49:59.636Z</time></trkpt><trkpt lat="45.9917925" lon="8.3774122"><ele>210.0</ele><time>2026-04-18T09:50:00.643Z</time></trkpt><trkpt lat="45.9918212" lon="8.377299"><ele>210.5</ele><time>2026-04-18T09:50:01.635Z</time></trkpt><trkpt lat="45.9918493" lon="8.3771752"><ele>211.0</ele><time>2026-04-18T09:50:02.627Z</time></trkpt><trkpt lat="45.9918718" lon="8.3770209"><ele>211.5</ele><time>2026-04-18T09:50:03.625Z</time></trkpt><trkpt lat="45.9919178" lon="8.3768605"><ele>212.0</ele><time>2026-04-18T09:50:04.627Z</time></trkpt><trkpt lat="45.9919685" lon="8.3766657"><ele>212.0</ele><time>2026-04-18T09:50:05.623Z</time></trkpt><trkpt lat="45.9920048" lon="8.3764475"><ele>212.0</ele><time>2026-04-18T09:50:06.639Z</time></trkpt><trkpt lat="45.9920532" lon="8.3762185"><ele>212.0</ele><time>2026-04-18T09:50:07.628Z</time></trkpt><trkpt lat="45.9920869" lon="8.376003"><ele>212.0</ele><time>2026-04-18T09:50:08.63Z</time></trkpt><trkpt lat="45.9921207" lon="8.3757894"><ele>212.0</ele><time>2026-04-18T09:50:09.628Z</time></trkpt><trkpt lat="45.9921817" lon="8.3755935"><ele>212.0</ele><time>2026-04-18T09:50:10.63Z</time></trkpt><trkpt lat="45.9922365" lon="8.3753896"><ele>212.0</ele><time>2026-04-18T09:50:11.629Z</time></trkpt><trkpt lat="45.9922775" lon="8.3752186"><ele>212.0</ele><time>2026-04-18T09:50:12.634Z</time></trkpt><trkpt lat="45.9923169" lon="8.3750268"><ele>212.0</ele><time>2026-04-18T09:50:13.631Z</time></trkpt><trkpt lat="45.9923497" lon="8.3748408"><ele>212.0</ele><time>2026-04-18T09:50:14.637Z</time></trkpt><trkpt lat="45.9923753" lon="8.3746654"><ele>211.75</ele><time>2026-04-18T09:50:15.633Z</time></trkpt><trkpt lat="45.9924014" lon="8.3744614"><ele>211.5</ele><time>2026-04-18T09:50:16.626Z</time></trkpt><trkpt lat="45.9924324" lon="8.3742852"><ele>211.25</ele><time>2026-04-18T09:50:17.637Z</time></trkpt><trkpt lat="45.9924756" lon="8.3740688"><ele>211.0</ele><time>2026-04-18T09:50:18.651Z</time></trkpt><trkpt lat="45.9925081" lon="8.3738558"><ele>211.0</ele><time>2026-04-18T09:50:19.632Z</time></trkpt><trkpt lat="45.9925623" lon="8.3736468"><ele>211.0</ele><time>2026-04-18T09:50:20.635Z</time></trkpt><trkpt lat="45.9926173" lon="8.3734479"><ele>211.0</ele><time>2026-04-18T09:50:21.633Z</time></trkpt><trkpt lat="45.9926577" lon="8.3732547"><ele>211.0</ele><time>2026-04-18T09:50:22.631Z</time></trkpt><trkpt lat="45.9926964" lon="8.3730752"><ele>210.75</ele><time>2026-04-18T09:50:23.635Z</time></trkpt><trkpt lat="45.9927227" lon="8.3729099"><ele>210.5</ele><time>2026-04-18T09:50:24.638Z</time></trkpt><trkpt lat="45.9927422" lon="8.3727457"><ele>210.25</ele><time>2026-04-18T09:50:25.638Z</time></trkpt><trkpt lat="45.9927769" lon="8.3725707"><ele>210.0</ele><time>2026-04-18T09:50:26.628Z</time></trkpt><trkpt lat="45.9928061" lon="8.3724288"><ele>210.0</ele><time>2026-04-18T09:50:27.627Z</time></trkpt><trkpt lat="45.9928129" lon="8.3723283"><ele>210.0</ele><time>2026-04-18T09:50:28.627Z</time></trkpt><trkpt lat="45.992825" lon="8.3722094"><ele>210.0</ele><time>2026-04-18T09:50:30.629Z</time></trkpt><trkpt lat="45.9927546" lon="8.3720982"><ele>210.0</ele><time>2026-04-18T09:50:32.623Z</time></trkpt><trkpt lat="45.992675" lon="8.3721069"><ele>210.0</ele><time>2026-04-18T09:50:33.617Z</time></trkpt><trkpt lat="45.9925814" lon="8.3721564"><ele>210.0</ele><time>2026-04-18T09:50:34.622Z</time></trkpt><trkpt lat="45.9924662" lon="8.3722153"><ele>210.0</ele><time>2026-04-18T09:50:35.636Z</time></trkpt><trkpt lat="45.9923448" lon="8.3722583"><ele>210.0</ele><time>2026-04-18T09:50:36.627Z</time></trkpt><trkpt lat="45.9922344" lon="8.3722854"><ele>210.0</ele><time>2026-04-18T09:50:37.635Z</time></trkpt><trkpt lat="45.9921412" lon="8.3722877"><ele>210.0</ele><time>2026-04-18T09:50:38.632Z</time></trkpt><trkpt lat="45.9920334" lon="8.3722602"><ele>210.0</ele><time>2026-04-18T09:50:39.636Z</time></trkpt><trkpt lat="45.9919114" lon="8.3722258"><ele>210.0</ele><time>2026-04-18T09:50:40.631Z</time></trkpt><trkpt lat="45.9917976" lon="8.3721983"><ele>210.0</ele><time>2026-04-18T09:50:41.63Z</time></trkpt><trkpt lat="45.9916886" lon="8.3721692"><ele>210.0</ele><time>2026-04-18T09:50:42.632Z</time></trkpt><trkpt lat="45.9915978" lon="8.3721443"><ele>210.0</ele><time>2026-04-18T09:50:43.64Z</time></trkpt><trkpt lat="45.9915094" lon="8.3721372"><ele>210.0</ele><time>2026-04-18T09:50:44.643Z</time></trkpt><trkpt lat="45.9914097" lon="8.3720888"><ele>209.75</ele><time>2026-04-18T09:50:45.638Z</time></trkpt><trkpt lat="45.9913152" lon="8.3720309"><ele>209.5</ele><time>2026-04-18T09:50:46.64Z</time></trkpt><trkpt lat="45.9912278" lon="8.3719232"><ele>209.25</ele><time>2026-04-18T09:50:47.626Z</time></trkpt><trkpt lat="45.9911323" lon="8.3717911"><ele>209.0</ele><time>2026-04-18T09:50:48.641Z</time></trkpt><trkpt lat="45.9910277" lon="8.3716067"><ele>209.0</ele><time>2026-04-18T09:50:49.653Z</time></trkpt><trkpt lat="45.990948" lon="8.3714256"><ele>209.0</ele><time>2026-04-18T09:50:50.641Z</time></trkpt><trkpt lat="45.9908378" lon="8.3712996"><ele>209.0</ele><time>2026-04-18T09:50:51.634Z</time></trkpt><trkpt lat="45.9907339" lon="8.3711469"><ele>209.0</ele><time>2026-04-18T09:50:52.633Z</time></trkpt><trkpt lat="45.9906029" lon="8.3710158"><ele>208.66666666666669</ele><time>2026-04-18T09:50:53.639Z</time></trkpt><trkpt lat="45.9904866" lon="8.3708877"><ele>208.33333333333331</ele><time>2026-04-18T09:50:54.641Z</time></trkpt><trkpt lat="45.990362" lon="8.3707427"><ele>208.0</ele><time>2026-04-18T09:50:55.642Z</time></trkpt><trkpt lat="45.990252" lon="8.3706099"><ele>208.0</ele><time>2026-04-18T09:50:56.647Z</time></trkpt><trkpt lat="45.9901264" lon="8.3705009"><ele>208.0</ele><time>2026-04-18T09:50:57.637Z</time></trkpt><trkpt lat="45.9900367" lon="8.3703806"><ele>208.0</ele><time>2026-04-18T09:50:58.62Z</time></trkpt><trkpt lat="45.9899574" lon="8.3702881"><ele>208.0</ele><time>2026-04-18T09:50:59.623Z</time></trkpt><trkpt lat="45.9899178" lon="8.370207"><ele>208.0</ele><time>2026-04-18T09:51:00.626Z</time></trkpt><trkpt lat="45.9899024" lon="8.3701057"><ele>208.0</ele><time>2026-04-18T09:51:01.622Z</time></trkpt><trkpt lat="45.9898949" lon="8.3699629"><ele>208.0</ele><time>2026-04-18T09:51:02.62Z</time></trkpt><trkpt lat="45.9899102" lon="8.3698025"><ele>208.0</ele><time>2026-04-18T09:51:03.631Z</time></trkpt><trkpt lat="45.9899725" lon="8.3695864"><ele>208.0</ele><time>2026-04-18T09:51:04.627Z</time></trkpt><trkpt lat="45.9900373" lon="8.3693719"><ele>209.0</ele><time>2026-04-18T09:51:05.634Z</time></trkpt><trkpt lat="45.9901095" lon="8.3691701"><ele>210.0</ele><time>2026-04-18T09:51:06.632Z</time></trkpt><trkpt lat="45.9901819" lon="8.368965"><ele>211.0</ele><time>2026-04-18T09:51:07.638Z</time></trkpt><trkpt lat="45.9902396" lon="8.3687762"><ele>211.5</ele><time>2026-04-18T09:51:08.642Z</time></trkpt><trkpt lat="45.9902937" lon="8.368592"><ele>212.0</ele><time>2026-04-18T09:51:09.636Z</time></trkpt><trkpt lat="45.9903455" lon="8.3684053"><ele>212.5</ele><time>2026-04-18T09:51:10.642Z</time></trkpt><trkpt lat="45.9904004" lon="8.36822"><ele>213.0</ele><time>2026-04-18T09:51:11.631Z</time></trkpt><trkpt lat="45.9904447" lon="8.3680423"><ele>213.0</ele><time>2026-04-18T09:51:12.633Z</time></trkpt><trkpt lat="45.9904846" lon="8.367865"><ele>213.0</ele><time>2026-04-18T09:51:13.63Z</time></trkpt><trkpt lat="45.9905176" lon="8.3677037"><ele>213.0</ele><time>2026-04-18T09:51:14.633Z</time></trkpt><trkpt lat="45.9905373" lon="8.3675245"><ele>213.0</ele><time>2026-04-18T09:51:15.628Z</time></trkpt><trkpt lat="45.990527" lon="8.3673497"><ele>212.75</ele><time>2026-04-18T09:51:16.639Z</time></trkpt><trkpt lat="45.9905137" lon="8.3671722"><ele>212.5</ele><time>2026-04-18T09:51:17.639Z</time></trkpt><trkpt lat="45.9904973" lon="8.3669834"><ele>212.25</ele><time>2026-04-18T09:51:18.63Z</time></trkpt><trkpt lat="45.9904741" lon="8.366783"><ele>212.0</ele><time>2026-04-18T09:51:19.64Z</time></trkpt><trkpt lat="45.9904633" lon="8.3665914"><ele>212.0</ele><time>2026-04-18T09:51:20.657Z</time></trkpt><trkpt lat="45.9904343" lon="8.3663997"><ele>212.0</ele><time>2026-04-18T09:51:21.639Z</time></trkpt><trkpt lat="45.9904291" lon="8.3662121"><ele>212.0</ele><time>2026-04-18T09:51:22.64Z</time></trkpt><trkpt lat="45.9904317" lon="8.3660382"><ele>212.0</ele><time>2026-04-18T09:51:23.638Z</time></trkpt><trkpt lat="45.9904266" lon="8.3658561"><ele>212.25</ele><time>2026-04-18T09:51:24.644Z</time></trkpt><trkpt lat="45.9904064" lon="8.3656682"><ele>212.5</ele><time>2026-04-18T09:51:25.64Z</time></trkpt><trkpt lat="45.9903946" lon="8.3654842"><ele>212.75</ele><time>2026-04-18T09:51:26.637Z</time></trkpt><trkpt lat="45.9903775" lon="8.3652808"><ele>213.0</ele><time>2026-04-18T09:51:27.648Z</time></trkpt><trkpt lat="45.9903668" lon="8.3650911"><ele>213.0</ele><time>2026-04-18T09:51:28.629Z</time></trkpt><trkpt lat="45.9903625" lon="8.3649061"><ele>213.0</ele><time>2026-04-18T09:51:29.641Z</time></trkpt><trkpt lat="45.9903611" lon="8.3647388"><ele>213.0</ele><time>2026-04-18T09:51:30.646Z</time></trkpt><trkpt lat="45.9903553" lon="8.3645788"><ele>213.0</ele><time>2026-04-18T09:51:31.647Z</time></trkpt><trkpt lat="45.9903494" lon="8.3644197"><ele>212.5</ele><time>2026-04-18T09:51:32.638Z</time></trkpt><trkpt lat="45.9903494" lon="8.364252"><ele>212.0</ele><time>2026-04-18T09:51:33.64Z</time></trkpt><trkpt lat="45.9903513" lon="8.3640847"><ele>211.5</ele><time>2026-04-18T09:51:34.641Z</time></trkpt><trkpt lat="45.9903635" lon="8.3639102"><ele>211.0</ele><time>2026-04-18T09:51:35.643Z</time></trkpt><trkpt lat="45.9903911" lon="8.3637389"><ele>210.25</ele><time>2026-04-18T09:51:36.642Z</time></trkpt><trkpt lat="45.9904363" lon="8.3635757"><ele>209.5</ele><time>2026-04-18T09:51:37.638Z</time></trkpt><trkpt lat="45.9904894" lon="8.3634221"><ele>208.75</ele><time>2026-04-18T09:51:38.636Z</time></trkpt><trkpt lat="45.9905458" lon="8.3632713"><ele>208.0</ele><time>2026-04-18T09:51:39.641Z</time></trkpt><trkpt lat="45.9905969" lon="8.3631168"><ele>208.5</ele><time>2026-04-18T09:51:40.64Z</time></trkpt><trkpt lat="45.9906532" lon="8.3629521"><ele>209.0</ele><time>2026-04-18T09:51:41.637Z</time></trkpt><trkpt lat="45.9907021" lon="8.3628012"><ele>209.5</ele><time>2026-04-18T09:51:42.627Z</time></trkpt><trkpt lat="45.9907644" lon="8.3626669"><ele>210.0</ele><time>2026-04-18T09:51:43.635Z</time></trkpt><trkpt lat="45.9908175" lon="8.3625325"><ele>209.5</ele><time>2026-04-18T09:51:44.642Z</time></trkpt><trkpt lat="45.9908648" lon="8.3623975"><ele>209.0</ele><time>2026-04-18T09:51:45.641Z</time></trkpt><trkpt lat="45.990907" lon="8.3622782"><ele>208.5</ele><time>2026-04-18T09:51:46.635Z</time></trkpt><trkpt lat="45.9909269" lon="8.3621605"><ele>208.0</ele><time>2026-04-18T09:51:47.633Z</time></trkpt><trkpt lat="45.9909352" lon="8.3620568"><ele>207.5</ele><time>2026-04-18T09:51:48.645Z</time></trkpt><trkpt lat="45.9909487" lon="8.3619574"><ele>207.0</ele><time>2026-04-18T09:51:49.641Z</time></trkpt><trkpt lat="45.9909717" lon="8.361842"><ele>207.0</ele><time>2026-04-18T09:51:50.631Z</time></trkpt><trkpt lat="45.9910074" lon="8.361717"><ele>207.0</ele><time>2026-04-18T09:51:51.66Z</time></trkpt><trkpt lat="45.9910442" lon="8.3616038"><ele>207.0</ele><time>2026-04-18T09:51:52.647Z</time></trkpt><trkpt lat="45.9910708" lon="8.361501"><ele>207.0</ele><time>2026-04-18T09:51:53.641Z</time></trkpt><trkpt lat="45.9911037" lon="8.3613999"><ele>207.0</ele><time>2026-04-18T09:51:54.644Z</time></trkpt><trkpt lat="45.991138" lon="8.3612819"><ele>207.0</ele><time>2026-04-18T09:51:55.641Z</time></trkpt><trkpt lat="45.99116" lon="8.3611712"><ele>207.14285714285717</ele><time>2026-04-18T09:51:56.643Z</time></trkpt><trkpt lat="45.9911929" lon="8.3610543"><ele>207.28571428571428</ele><time>2026-04-18T09:51:57.647Z</time></trkpt><trkpt lat="45.9912272" lon="8.3609534"><ele>207.42857142857144</ele><time>2026-04-18T09:51:58.647Z</time></trkpt><trkpt lat="45.9912611" lon="8.360866"><ele>207.57142857142858</ele><time>2026-04-18T09:51:59.645Z</time></trkpt><trkpt lat="45.9912947" lon="8.3607767"><ele>207.71428571428572</ele><time>2026-04-18T09:52:00.644Z</time></trkpt><trkpt lat="45.9913352" lon="8.3606854"><ele>207.85714285714286</ele><time>2026-04-18T09:52:01.646Z</time></trkpt><trkpt lat="45.9913624" lon="8.3605953"><ele>208.0</ele><time>2026-04-18T09:52:02.642Z</time></trkpt><trkpt lat="45.9914112" lon="8.3604335"><ele>207.99999999999997</ele><time>2026-04-18T09:52:04.642Z</time></trkpt><trkpt lat="45.9914473" lon="8.3603429"><ele>208.0</ele><time>2026-04-18T09:52:05.644Z</time></trkpt><trkpt lat="45.991492" lon="8.360247"><ele>208.0</ele><time>2026-04-18T09:52:06.642Z</time></trkpt><trkpt lat="45.9915188" lon="8.3601494"><ele>208.0</ele><time>2026-04-18T09:52:07.636Z</time></trkpt><trkpt lat="45.9915396" lon="8.3600534"><ele>207.99999999999997</ele><time>2026-04-18T09:52:08.644Z</time></trkpt><trkpt lat="45.9915704" lon="8.3599468"><ele>208.0</ele><time>2026-04-18T09:52:09.643Z</time></trkpt><trkpt lat="45.9916041" lon="8.3598382"><ele>208.0</ele><time>2026-04-18T09:52:10.637Z</time></trkpt><trkpt lat="45.9916386" lon="8.3597171"><ele>208.0</ele><time>2026-04-18T09:52:11.643Z</time></trkpt><trkpt lat="45.9916709" lon="8.3596006"><ele>208.0</ele><time>2026-04-18T09:52:12.636Z</time></trkpt><trkpt lat="45.9917097" lon="8.3594805"><ele>208.0</ele><time>2026-04-18T09:52:13.635Z</time></trkpt><trkpt lat="45.9917556" lon="8.3593673"><ele>208.0</ele><time>2026-04-18T09:52:14.642Z</time></trkpt><trkpt lat="45.9917967" lon="8.3592519"><ele>208.8</ele><time>2026-04-18T09:52:15.637Z</time></trkpt><trkpt lat="45.9918407" lon="8.3591367"><ele>209.60000000000002</ele><time>2026-04-18T09:52:16.641Z</time></trkpt><trkpt lat="45.9918788" lon="8.3590076"><ele>210.39999999999998</ele><time>2026-04-18T09:52:17.636Z</time></trkpt><trkpt lat="45.991918" lon="8.3588697"><ele>211.2</ele><time>2026-04-18T09:52:18.637Z</time></trkpt><trkpt lat="45.9919631" lon="8.3587129"><ele>212.0</ele><time>2026-04-18T09:52:19.633Z</time></trkpt><trkpt lat="45.9920269" lon="8.3585347"><ele>212.0</ele><time>2026-04-18T09:52:20.635Z</time></trkpt><trkpt lat="45.9920886" lon="8.3583496"><ele>212.0</ele><time>2026-04-18T09:52:21.642Z</time></trkpt><trkpt lat="45.9921506" lon="8.358163"><ele>212.0</ele><time>2026-04-18T09:52:22.663Z</time></trkpt><trkpt lat="45.9922115" lon="8.3579994"><ele>212.0</ele><time>2026-04-18T09:52:23.632Z</time></trkpt><trkpt lat="45.9922557" lon="8.3578576"><ele>212.0</ele><time>2026-04-18T09:52:24.639Z</time></trkpt><trkpt lat="45.9923301" lon="8.357695"><ele>212.0</ele><time>2026-04-18T09:52:25.644Z</time></trkpt><trkpt lat="45.9923842" lon="8.3575361"><ele>212.0</ele><time>2026-04-18T09:52:26.646Z</time></trkpt><trkpt lat="45.9924325" lon="8.3573727"><ele>212.0</ele><time>2026-04-18T09:52:27.645Z</time></trkpt><trkpt lat="45.9924793" lon="8.3571951"><ele>212.5</ele><time>2026-04-18T09:52:28.638Z</time></trkpt><trkpt lat="45.9925305" lon="8.3570214"><ele>213.0</ele><time>2026-04-18T09:52:29.647Z</time></trkpt><trkpt lat="45.992579" lon="8.3568547"><ele>213.5</ele><time>2026-04-18T09:52:30.637Z</time></trkpt><trkpt lat="45.992629" lon="8.3566939"><ele>214.0</ele><time>2026-04-18T09:52:31.647Z</time></trkpt><trkpt lat="45.9926836" lon="8.3565402"><ele>214.0</ele><time>2026-04-18T09:52:32.64Z</time></trkpt><trkpt lat="45.9927306" lon="8.3563801"><ele>214.0</ele><time>2026-04-18T09:52:33.641Z</time></trkpt><trkpt lat="45.9927837" lon="8.3562286"><ele>214.0</ele><time>2026-04-18T09:52:34.646Z</time></trkpt><trkpt lat="45.9928398" lon="8.3560802"><ele>214.0</ele><time>2026-04-18T09:52:35.644Z</time></trkpt><trkpt lat="45.9928977" lon="8.3559373"><ele>213.79999999999998</ele><time>2026-04-18T09:52:36.637Z</time></trkpt><trkpt lat="45.9929527" lon="8.3558117"><ele>213.59999999999997</ele><time>2026-04-18T09:52:37.635Z</time></trkpt><trkpt lat="45.9930067" lon="8.3556739"><ele>213.4</ele><time>2026-04-18T09:52:38.641Z</time></trkpt><trkpt lat="45.9930485" lon="8.3555317"><ele>213.2</ele><time>2026-04-18T09:52:39.638Z</time></trkpt><trkpt lat="45.993088" lon="8.3553668"><ele>213.0</ele><time>2026-04-18T09:52:40.645Z</time></trkpt><trkpt lat="45.9931484" lon="8.355189"><ele>213.0</ele><time>2026-04-18T09:52:41.637Z</time></trkpt><trkpt lat="45.9932104" lon="8.3550167"><ele>213.0</ele><time>2026-04-18T09:52:42.64Z</time></trkpt><trkpt lat="45.9932585" lon="8.3548557"><ele>213.0</ele><time>2026-04-18T09:52:43.629Z</time></trkpt><trkpt lat="45.9932986" lon="8.3547043"><ele>213.0</ele><time>2026-04-18T09:52:44.634Z</time></trkpt><trkpt lat="45.9933426" lon="8.3545528"><ele>213.0</ele><time>2026-04-18T09:52:45.64Z</time></trkpt><trkpt lat="45.9934064" lon="8.354406"><ele>213.0</ele><time>2026-04-18T09:52:46.64Z</time></trkpt><trkpt lat="45.9934871" lon="8.3542612"><ele>213.0</ele><time>2026-04-18T09:52:47.64Z</time></trkpt><trkpt lat="45.9935688" lon="8.3541112"><ele>213.0</ele><time>2026-04-18T09:52:48.641Z</time></trkpt><trkpt lat="45.9936373" lon="8.3539439"><ele>212.5</ele><time>2026-04-18T09:52:49.63Z</time></trkpt><trkpt lat="45.9937022" lon="8.3537673"><ele>212.0</ele><time>2026-04-18T09:52:50.637Z</time></trkpt><trkpt lat="45.9937592" lon="8.3535908"><ele>211.5</ele><time>2026-04-18T09:52:51.635Z</time></trkpt><trkpt lat="45.993844" lon="8.3534122"><ele>211.0</ele><time>2026-04-18T09:52:52.636Z</time></trkpt><trkpt lat="45.9939309" lon="8.3532233"><ele>211.0</ele><time>2026-04-18T09:52:53.658Z</time></trkpt><trkpt lat="45.9940203" lon="8.3530656"><ele>211.0</ele><time>2026-04-18T09:52:54.643Z</time></trkpt><trkpt lat="45.9941139" lon="8.3529028"><ele>211.0</ele><time>2026-04-18T09:52:55.644Z</time></trkpt><trkpt lat="45.9942122" lon="8.352778"><ele>211.0</ele><time>2026-04-18T09:52:56.642Z</time></trkpt><trkpt lat="45.9942867" lon="8.3526429"><ele>211.4</ele><time>2026-04-18T09:52:57.643Z</time></trkpt><trkpt lat="45.9943672" lon="8.3525332"><ele>211.8</ele><time>2026-04-18T09:52:58.643Z</time></trkpt><trkpt lat="45.9944521" lon="8.3524265"><ele>212.20000000000002</ele><time>2026-04-18T09:52:59.637Z</time></trkpt><trkpt lat="45.9945185" lon="8.3523348"><ele>212.60000000000002</ele><time>2026-04-18T09:53:00.64Z</time></trkpt><trkpt lat="45.9946164" lon="8.35225"><ele>213.0</ele><time>2026-04-18T09:53:01.63Z</time></trkpt><trkpt lat="45.9947047" lon="8.3521969"><ele>212.5</ele><time>2026-04-18T09:53:02.628Z</time></trkpt><trkpt lat="45.9948043" lon="8.3521535"><ele>212.0</ele><time>2026-04-18T09:53:03.636Z</time></trkpt><trkpt lat="45.9949098" lon="8.3521238"><ele>211.5</ele><time>2026-04-18T09:53:04.634Z</time></trkpt><trkpt lat="45.9950263" lon="8.3521022"><ele>211.0</ele><time>2026-04-18T09:53:05.638Z</time></trkpt><trkpt lat="45.9951574" lon="8.3520768"><ele>211.0</ele><time>2026-04-18T09:53:06.646Z</time></trkpt><trkpt lat="45.9952807" lon="8.3520562"><ele>211.0</ele><time>2026-04-18T09:53:07.641Z</time></trkpt><trkpt lat="45.9954009" lon="8.3520591"><ele>211.0</ele><time>2026-04-18T09:53:08.643Z</time></trkpt><trkpt lat="45.9955197" lon="8.3520692"><ele>211.0</ele><time>2026-04-18T09:53:09.642Z</time></trkpt><trkpt lat="45.9956277" lon="8.3520798"><ele>210.99999999999997</ele><time>2026-04-18T09:53:10.643Z</time></trkpt><trkpt lat="45.9957237" lon="8.3520684"><ele>211.0</ele><time>2026-04-18T09:53:11.638Z</time></trkpt><trkpt lat="45.9958061" lon="8.3520561"><ele>211.0</ele><time>2026-04-18T09:53:12.634Z</time></trkpt><trkpt lat="45.9958712" lon="8.3520381"><ele>211.0</ele><time>2026-04-18T09:53:13.65Z</time></trkpt><trkpt lat="45.9959498" lon="8.3520028"><ele>210.99999999999997</ele><time>2026-04-18T09:53:15.643Z</time></trkpt><trkpt lat="45.9959667" lon="8.3519094"><ele>211.0</ele><time>2026-04-18T09:53:17.643Z</time></trkpt><trkpt lat="45.995986" lon="8.3518153"><ele>211.33333333333331</ele><time>2026-04-18T09:53:19.639Z</time></trkpt><trkpt lat="45.9960648" lon="8.3517142"><ele>211.66666666666666</ele><time>2026-04-18T09:53:21.628Z</time></trkpt><trkpt lat="45.9961187" lon="8.3516368"><ele>212.0</ele><time>2026-04-18T09:53:23.639Z</time></trkpt><trkpt lat="45.99609" lon="8.3515263"><ele>212.33333333333331</ele><time>2026-04-18T09:53:26.657Z</time></trkpt><trkpt lat="45.9960371" lon="8.351472"><ele>212.66666666666666</ele><time>2026-04-18T09:53:29.654Z</time></trkpt><trkpt lat="45.9959753" lon="8.3514513"><ele>213.0</ele><time>2026-04-18T09:53:31.654Z</time></trkpt><trkpt lat="45.9959119" lon="8.3514418"><ele>212.60000000000002</ele><time>2026-04-18T09:53:33.657Z</time></trkpt><trkpt lat="45.9958144" lon="8.3514051"><ele>212.20000000000002</ele><time>2026-04-18T09:53:35.647Z</time></trkpt><trkpt lat="45.9957494" lon="8.351398"><ele>211.8</ele><time>2026-04-18T09:53:36.642Z</time></trkpt><trkpt lat="45.9956352" lon="8.351402"><ele>211.4</ele><time>2026-04-18T09:53:38.652Z</time></trkpt><trkpt lat="45.9954984" lon="8.3514153"><ele>211.0</ele><time>2026-04-18T09:53:40.652Z</time></trkpt><trkpt lat="45.9954337" lon="8.3514341"><ele>211.0</ele><time>2026-04-18T09:53:41.653Z</time></trkpt><trkpt lat="45.99537" lon="8.3514437"><ele>211.0</ele><time>2026-04-18T09:53:42.646Z</time></trkpt><trkpt lat="45.995249" lon="8.3514735"><ele>211.0</ele><time>2026-04-18T09:53:44.652Z</time></trkpt><trkpt lat="45.9951356" lon="8.3515398"><ele>211.0</ele><time>2026-04-18T09:53:46.65Z</time></trkpt><trkpt lat="45.995072" lon="8.3516402"><ele>211.0</ele><time>2026-04-18T09:53:48.647Z</time></trkpt><trkpt lat="45.9949814" lon="8.3516504"><ele>210.8</ele><time>2026-04-18T09:53:51.64Z</time></trkpt><trkpt lat="45.9949136" lon="8.3515208"><ele>210.60000000000002</ele><time>2026-04-18T09:53:53.642Z</time></trkpt><trkpt lat="45.9948759" lon="8.3513782"><ele>210.4</ele><time>2026-04-18T09:53:55.653Z</time></trkpt><trkpt lat="45.9947757" lon="8.3512895"><ele>210.2</ele><time>2026-04-18T09:53:57.637Z</time></trkpt><trkpt lat="45.9947209" lon="8.3512446"><ele>210.0</ele><time>2026-04-18T09:53:58.637Z</time></trkpt><trkpt lat="45.9946648" lon="8.3511991"><ele>210.0</ele><time>2026-04-18T09:53:59.638Z</time></trkpt><trkpt lat="45.9946108" lon="8.3511232"><ele>210.0</ele><time>2026-04-18T09:54:00.634Z</time></trkpt><trkpt lat="45.9945665" lon="8.3510309"><ele>210.0</ele><time>2026-04-18T09:54:01.642Z</time></trkpt><trkpt lat="45.9945362" lon="8.3509341"><ele>210.0</ele><time>2026-04-18T09:54:02.642Z</time></trkpt><trkpt lat="45.9945107" lon="8.3508015"><ele>210.0</ele><time>2026-04-18T09:54:04.638Z</time></trkpt><trkpt lat="45.9945263" lon="8.3507093"><ele>210.0</ele><time>2026-04-18T09:54:05.634Z</time></trkpt><trkpt lat="45.9945754" lon="8.3505844"><ele>210.33333333333331</ele><time>2026-04-18T09:54:06.634Z</time></trkpt><trkpt lat="45.9946448" lon="8.3503999"><ele>210.66666666666666</ele><time>2026-04-18T09:54:07.645Z</time></trkpt><trkpt lat="45.9947121" lon="8.3501586"><ele>211.0</ele><time>2026-04-18T09:54:08.636Z</time></trkpt><trkpt lat="45.9947834" lon="8.3498466"><ele>210.66666666666666</ele><time>2026-04-18T09:54:09.624Z</time></trkpt><trkpt lat="45.9948768" lon="8.3495282"><ele>210.33333333333331</ele><time>2026-04-18T09:54:10.635Z</time></trkpt><trkpt lat="45.99493" lon="8.3493023"><ele>210.0</ele><time>2026-04-18T09:54:11.631Z</time></trkpt><trkpt lat="45.9949719" lon="8.3490965"><ele>210.75</ele><time>2026-04-18T09:54:12.638Z</time></trkpt><trkpt lat="45.9950153" lon="8.3488984"><ele>211.5</ele><time>2026-04-18T09:54:13.639Z</time></trkpt><trkpt lat="45.9950519" lon="8.3487181"><ele>212.25</ele><time>2026-04-18T09:54:14.632Z</time></trkpt><trkpt lat="45.9951016" lon="8.3485635"><ele>213.0</ele><time>2026-04-18T09:54:15.636Z</time></trkpt><trkpt lat="45.9951428" lon="8.3483791"><ele>213.0</ele><time>2026-04-18T09:54:16.633Z</time></trkpt><trkpt lat="45.9951808" lon="8.3481952"><ele>213.0</ele><time>2026-04-18T09:54:17.632Z</time></trkpt><trkpt lat="45.9952176" lon="8.3480219"><ele>213.0</ele><time>2026-04-18T09:54:18.64Z</time></trkpt><trkpt lat="45.9952491" lon="8.3478384"><ele>213.0</ele><time>2026-04-18T09:54:19.646Z</time></trkpt><trkpt lat="45.9952885" lon="8.34769"><ele>213.0</ele><time>2026-04-18T09:54:20.633Z</time></trkpt><trkpt lat="45.9952938" lon="8.3475377"><ele>213.0</ele><time>2026-04-18T09:54:21.627Z</time></trkpt><trkpt lat="45.9952746" lon="8.3474468"><ele>213.0</ele><time>2026-04-18T09:54:22.628Z</time></trkpt><trkpt lat="45.9952722" lon="8.3473053"><ele>213.0</ele><time>2026-04-18T09:54:24.641Z</time></trkpt><trkpt lat="45.9952998" lon="8.3471791"><ele>213.0</ele><time>2026-04-18T09:54:26.653Z</time></trkpt><trkpt lat="45.995356" lon="8.3470152"><ele>212.66666666666666</ele><time>2026-04-18T09:54:28.636Z</time></trkpt><trkpt lat="45.9953943" lon="8.3469236"><ele>212.33333333333331</ele><time>2026-04-18T09:54:29.631Z</time></trkpt><trkpt lat="45.9954364" lon="8.3468366"><ele>212.0</ele><time>2026-04-18T09:54:30.633Z</time></trkpt><trkpt lat="45.9954972" lon="8.3467343"><ele>211.66666666666666</ele><time>2026-04-18T09:54:31.627Z</time></trkpt><trkpt lat="45.9955656" lon="8.3466156"><ele>211.33333333333331</ele><time>2026-04-18T09:54:32.625Z</time></trkpt><trkpt lat="45.9956088" lon="8.3465291"><ele>211.0</ele><time>2026-04-18T09:54:33.63Z</time></trkpt><trkpt lat="45.9955695" lon="8.3466675"><ele>211.0</ele><time>2026-04-18T09:54:45.645Z</time></trkpt><trkpt lat="45.9955325" lon="8.3467491"><ele>211.0</ele><time>2026-04-18T09:54:46.64Z</time></trkpt><trkpt lat="45.9954725" lon="8.3466817"><ele>211.0</ele><time>2026-04-18T09:54:49.651Z</time></trkpt><trkpt lat="45.9954426" lon="8.3465781"><ele>211.0</ele><time>2026-04-18T09:54:52.648Z</time></trkpt><trkpt lat="45.9953994" lon="8.3464857"><ele>211.0</ele><time>2026-04-18T09:54:58.644Z</time></trkpt><trkpt lat="45.9953594" lon="8.3464136"><ele>211.0</ele><time>2026-04-18T09:55:01.636Z</time></trkpt><trkpt lat="45.9953242" lon="8.3463216"><ele>211.0</ele><time>2026-04-18T09:55:03.646Z</time></trkpt><trkpt lat="45.995311" lon="8.3462114"><ele>210.99999999999997</ele><time>2026-04-18T09:55:05.636Z</time></trkpt><trkpt lat="45.9952508" lon="8.3461258"><ele>211.0</ele><time>2026-04-18T09:55:07.645Z</time></trkpt><trkpt lat="45.9952875" lon="8.3462207"><ele>211.0</ele><time>2026-04-18T09:55:17.651Z</time></trkpt><trkpt lat="45.995318" lon="8.3463009"><ele>211.0</ele><time>2026-04-18T09:55:20.652Z</time></trkpt><trkpt lat="45.9953525" lon="8.346397"><ele>210.99999999999997</ele><time>2026-04-18T09:55:24.648Z</time></trkpt><trkpt lat="45.9954129" lon="8.3464675"><ele>211.0</ele><time>2026-04-18T09:55:26.643Z</time></trkpt><trkpt lat="45.9954681" lon="8.3465798"><ele>211.0</ele><time>2026-04-18T09:55:28.659Z</time></trkpt><trkpt lat="45.9955296" lon="8.3467003"><ele>211.0</ele><time>2026-04-18T09:55:30.631Z</time></trkpt><trkpt lat="45.9955899" lon="8.3466725"><ele>211.0</ele><time>2026-04-18T09:55:33.644Z</time></trkpt><trkpt lat="45.9956274" lon="8.3465546"><ele>211.0</ele><time>2026-04-18T09:55:34.643Z</time></trkpt><trkpt lat="45.9956856" lon="8.3464094"><ele>211.0</ele><time>2026-04-18T09:55:35.638Z</time></trkpt><trkpt lat="45.9957363" lon="8.346231"><ele>211.60000000000002</ele><time>2026-04-18T09:55:36.627Z</time></trkpt><trkpt lat="45.9957818" lon="8.3460974"><ele>212.2</ele><time>2026-04-18T09:55:37.639Z</time></trkpt><trkpt lat="45.9958384" lon="8.3459664"><ele>212.79999999999998</ele><time>2026-04-18T09:55:38.643Z</time></trkpt><trkpt lat="45.9959095" lon="8.3458404"><ele>213.39999999999998</ele><time>2026-04-18T09:55:39.635Z</time></trkpt><trkpt lat="45.9959922" lon="8.3457149"><ele>214.0</ele><time>2026-04-18T09:55:40.639Z</time></trkpt><trkpt lat="45.9960826" lon="8.3455747"><ele>213.6</ele><time>2026-04-18T09:55:41.639Z</time></trkpt><trkpt lat="45.9961791" lon="8.3454399"><ele>213.2</ele><time>2026-04-18T09:55:42.644Z</time></trkpt><trkpt lat="45.9962555" lon="8.3453254"><ele>212.79999999999998</ele><time>2026-04-18T09:55:43.639Z</time></trkpt><trkpt lat="45.9963293" lon="8.3452264"><ele>212.39999999999998</ele><time>2026-04-18T09:55:44.644Z</time></trkpt><trkpt lat="45.9963941" lon="8.3451401"><ele>212.0</ele><time>2026-04-18T09:55:45.64Z</time></trkpt><trkpt lat="45.9964634" lon="8.3450517"><ele>212.0</ele><time>2026-04-18T09:55:46.647Z</time></trkpt><trkpt lat="45.9965415" lon="8.3449626"><ele>212.0</ele><time>2026-04-18T09:55:47.633Z</time></trkpt><trkpt lat="45.9966103" lon="8.3448772"><ele>212.0</ele><time>2026-04-18T09:55:48.641Z</time></trkpt><trkpt lat="45.9966849" lon="8.3447915"><ele>212.0</ele><time>2026-04-18T09:55:49.635Z</time></trkpt><trkpt lat="45.9967788" lon="8.3447282"><ele>212.0</ele><time>2026-04-18T09:55:50.635Z</time></trkpt><trkpt lat="45.9968787" lon="8.3446586"><ele>212.6</ele><time>2026-04-18T09:55:51.642Z</time></trkpt><trkpt lat="45.9969632" lon="8.3445909"><ele>213.2</ele><time>2026-04-18T09:55:52.629Z</time></trkpt><trkpt lat="45.9970307" lon="8.3445015"><ele>213.8</ele><time>2026-04-18T09:55:53.649Z</time></trkpt><trkpt lat="45.9971033" lon="8.3444277"><ele>214.4</ele><time>2026-04-18T09:55:54.649Z</time></trkpt><trkpt lat="45.9971891" lon="8.3443696"><ele>215.0</ele><time>2026-04-18T09:55:55.637Z</time></trkpt><trkpt lat="45.9972822" lon="8.3443412"><ele>215.0</ele><time>2026-04-18T09:55:56.647Z</time></trkpt><trkpt lat="45.9973687" lon="8.3442972"><ele>215.0</ele><time>2026-04-18T09:55:57.63Z</time></trkpt><trkpt lat="45.9974401" lon="8.3442159"><ele>215.0</ele><time>2026-04-18T09:55:58.646Z</time></trkpt><trkpt lat="45.9975222" lon="8.3441147"><ele>215.0</ele><time>2026-04-18T09:55:59.652Z</time></trkpt><trkpt lat="45.9976093" lon="8.3440449"><ele>215.0</ele><time>2026-04-18T09:56:00.633Z</time></trkpt><trkpt lat="45.9977021" lon="8.3439895"><ele>215.0</ele><time>2026-04-18T09:56:01.645Z</time></trkpt><trkpt lat="45.997811" lon="8.3439431"><ele>215.0</ele><time>2026-04-18T09:56:02.64Z</time></trkpt><trkpt lat="45.9979039" lon="8.3438939"><ele>215.0</ele><time>2026-04-18T09:56:03.638Z</time></trkpt><trkpt lat="45.9979928" lon="8.3438369"><ele>215.0</ele><time>2026-04-18T09:56:04.642Z</time></trkpt><trkpt lat="45.9980925" lon="8.3437749"><ele>215.0</ele><time>2026-04-18T09:56:05.646Z</time></trkpt><trkpt lat="45.9982044" lon="8.343725"><ele>215.0</ele><time>2026-04-18T09:56:06.656Z</time></trkpt><trkpt lat="45.998319" lon="8.3436904"><ele>215.0</ele><time>2026-04-18T09:56:07.651Z</time></trkpt><trkpt lat="45.9984279" lon="8.3436678"><ele>215.0</ele><time>2026-04-18T09:56:08.649Z</time></trkpt><trkpt lat="45.9985294" lon="8.343657"><ele>215.0</ele><time>2026-04-18T09:56:09.652Z</time></trkpt><trkpt lat="45.9986248" lon="8.3436396"><ele>215.0</ele><time>2026-04-18T09:56:10.649Z</time></trkpt><trkpt lat="45.9987229" lon="8.3435951"><ele>215.2</ele><time>2026-04-18T09:56:11.645Z</time></trkpt><trkpt lat="45.9988215" lon="8.343532"><ele>215.4</ele><time>2026-04-18T09:56:12.652Z</time></trkpt><trkpt lat="45.9989157" lon="8.3434673"><ele>215.60000000000002</ele><time>2026-04-18T09:56:13.656Z</time></trkpt><trkpt lat="45.9990045" lon="8.3434186"><ele>215.8</ele><time>2026-04-18T09:56:14.648Z</time></trkpt><trkpt lat="45.9990862" lon="8.3433733"><ele>216.0</ele><time>2026-04-18T09:56:15.65Z</time></trkpt><trkpt lat="45.9991607" lon="8.3433316"><ele>215.8</ele><time>2026-04-18T09:56:16.641Z</time></trkpt><trkpt lat="45.9992154" lon="8.3432647"><ele>215.60000000000002</ele><time>2026-04-18T09:56:17.638Z</time></trkpt><trkpt lat="45.9992608" lon="8.3431646"><ele>215.4</ele><time>2026-04-18T09:56:18.649Z</time></trkpt><trkpt lat="45.9992823" lon="8.343025"><ele>215.2</ele><time>2026-04-18T09:56:19.631Z</time></trkpt><trkpt lat="45.9993221" lon="8.3428716"><ele>215.0</ele><time>2026-04-18T09:56:20.655Z</time></trkpt><trkpt lat="45.9993594" lon="8.3427103"><ele>214.8</ele><time>2026-04-18T09:56:21.647Z</time></trkpt><trkpt lat="45.9993889" lon="8.3425491"><ele>214.6</ele><time>2026-04-18T09:56:22.645Z</time></trkpt><trkpt lat="45.9994101" lon="8.342402"><ele>214.39999999999998</ele><time>2026-04-18T09:56:23.652Z</time></trkpt><trkpt lat="45.9994264" lon="8.3422616"><ele>214.2</ele><time>2026-04-18T09:56:24.652Z</time></trkpt><trkpt lat="45.9994435" lon="8.3421328"><ele>214.0</ele><time>2026-04-18T09:56:25.653Z</time></trkpt><trkpt lat="45.9994651" lon="8.3420011"><ele>214.33333333333331</ele><time>2026-04-18T09:56:26.648Z</time></trkpt><trkpt lat="45.9994899" lon="8.3418749"><ele>214.66666666666666</ele><time>2026-04-18T09:56:27.645Z</time></trkpt><trkpt lat="45.999508" lon="8.3417718"><ele>215.0</ele><time>2026-04-18T09:56:28.644Z</time></trkpt><trkpt lat="45.9995181" lon="8.341669"><ele>215.33333333333331</ele><time>2026-04-18T09:56:30.644Z</time></trkpt><trkpt lat="45.9994429" lon="8.3416197"><ele>215.66666666666666</ele><time>2026-04-18T09:56:32.647Z</time></trkpt><trkpt lat="45.999358" lon="8.341593"><ele>216.0</ele><time>2026-04-18T09:56:33.637Z</time></trkpt><trkpt lat="45.9992548" lon="8.3415431"><ele>216.0</ele><time>2026-04-18T09:56:34.635Z</time></trkpt><trkpt lat="45.9991705" lon="8.3414831"><ele>216.00000000000003</ele><time>2026-04-18T09:56:35.654Z</time></trkpt><trkpt lat="45.9990984" lon="8.3414388"><ele>216.00000000000003</ele><time>2026-04-18T09:56:36.645Z</time></trkpt><trkpt lat="45.9990298" lon="8.3413845"><ele>216.0</ele><time>2026-04-18T09:56:37.642Z</time></trkpt><trkpt lat="45.9989584" lon="8.3412645"><ele>216.0</ele><time>2026-04-18T09:56:39.641Z</time></trkpt><trkpt lat="45.9989303" lon="8.341125"><ele>215.66666666666666</ele><time>2026-04-18T09:56:41.643Z</time></trkpt><trkpt lat="45.998901" lon="8.3410414"><ele>215.33333333333331</ele><time>2026-04-18T09:56:42.633Z</time></trkpt><trkpt lat="45.9988207" lon="8.3409212"><ele>215.0</ele><time>2026-04-18T09:56:44.653Z</time></trkpt><trkpt lat="45.9987749" lon="8.3408497"><ele>214.66666666666666</ele><time>2026-04-18T09:56:45.653Z</time></trkpt><trkpt lat="45.9987242" lon="8.3407899"><ele>214.33333333333331</ele><time>2026-04-18T09:56:46.646Z</time></trkpt><trkpt lat="45.998673" lon="8.3407273"><ele>214.0</ele><time>2026-04-18T09:56:47.643Z</time></trkpt><trkpt lat="45.9985844" lon="8.3406103"><ele>214.16666666666666</ele><time>2026-04-18T09:56:49.653Z</time></trkpt><trkpt lat="45.9984803" lon="8.340491"><ele>214.33333333333331</ele><time>2026-04-18T09:56:51.65Z</time></trkpt><trkpt lat="45.9984367" lon="8.3404175"><ele>214.5</ele><time>2026-04-18T09:56:52.655Z</time></trkpt><trkpt lat="45.9983911" lon="8.3403418"><ele>214.66666666666669</ele><time>2026-04-18T09:56:53.652Z</time></trkpt><trkpt lat="45.9983457" lon="8.34027"><ele>214.83333333333334</ele><time>2026-04-18T09:56:54.667Z</time></trkpt><trkpt lat="45.998299" lon="8.3401933"><ele>215.0</ele><time>2026-04-18T09:56:55.656Z</time></trkpt><trkpt lat="45.9982296" lon="8.3400695"><ele>215.00000000000003</ele><time>2026-04-18T09:56:57.652Z</time></trkpt><trkpt lat="45.9981743" lon="8.339939"><ele>215.0</ele><time>2026-04-18T09:56:59.66Z</time></trkpt><trkpt lat="45.998089" lon="8.3398208"><ele>215.0</ele><time>2026-04-18T09:57:01.661Z</time></trkpt><trkpt lat="45.9980399" lon="8.3397564"><ele>215.0</ele><time>2026-04-18T09:57:02.651Z</time></trkpt><trkpt lat="45.9979916" lon="8.3396885"><ele>215.00000000000003</ele><time>2026-04-18T09:57:03.648Z</time></trkpt><trkpt lat="45.9979405" lon="8.3396009"><ele>215.0</ele><time>2026-04-18T09:57:04.653Z</time></trkpt><trkpt lat="45.9978847" lon="8.3395293"><ele>215.14285714285714</ele><time>2026-04-18T09:57:05.649Z</time></trkpt><trkpt lat="45.9978285" lon="8.339463"><ele>215.2857142857143</ele><time>2026-04-18T09:57:06.647Z</time></trkpt><trkpt lat="45.9977687" lon="8.3393926"><ele>215.42857142857144</ele><time>2026-04-18T09:57:07.649Z</time></trkpt><trkpt lat="45.9977173" lon="8.3393295"><ele>215.57142857142856</ele><time>2026-04-18T09:57:08.653Z</time></trkpt><trkpt lat="45.9976632" lon="8.3392586"><ele>215.71428571428572</ele><time>2026-04-18T09:57:09.671Z</time></trkpt><trkpt lat="45.997601" lon="8.3391788"><ele>215.85714285714286</ele><time>2026-04-18T09:57:10.653Z</time></trkpt><trkpt lat="45.9975475" lon="8.3391089"><ele>216.0</ele><time>2026-04-18T09:57:11.66Z</time></trkpt><trkpt lat="45.9975005" lon="8.3390359"><ele>215.85714285714286</ele><time>2026-04-18T09:57:12.646Z</time></trkpt><trkpt lat="45.9974493" lon="8.3389522"><ele>215.71428571428572</ele><time>2026-04-18T09:57:13.65Z</time></trkpt><trkpt lat="45.9974004" lon="8.3388693"><ele>215.57142857142856</ele><time>2026-04-18T09:57:14.669Z</time></trkpt><trkpt lat="45.9973455" lon="8.3387999"><ele>215.42857142857144</ele><time>2026-04-18T09:57:15.654Z</time></trkpt><trkpt lat="45.9972894" lon="8.3387322"><ele>215.2857142857143</ele><time>2026-04-18T09:57:16.655Z</time></trkpt><trkpt lat="45.9972405" lon="8.3386598"><ele>215.14285714285714</ele><time>2026-04-18T09:57:17.655Z</time></trkpt><trkpt lat="45.9971903" lon="8.3385947"><ele>215.0</ele><time>2026-04-18T09:57:18.647Z</time></trkpt><trkpt lat="45.9971446" lon="8.338527"><ele>215.0</ele><time>2026-04-18T09:57:19.663Z</time></trkpt><trkpt lat="45.9971061" lon="8.3384532"><ele>215.0</ele><time>2026-04-18T09:57:20.652Z</time></trkpt><trkpt lat="45.9970604" lon="8.3383784"><ele>215.0</ele><time>2026-04-18T09:57:21.654Z</time></trkpt><trkpt lat="45.9970241" lon="8.3383016"><ele>215.0</ele><time>2026-04-18T09:57:22.649Z</time></trkpt><trkpt lat="45.9969867" lon="8.3382212"><ele>215.0</ele><time>2026-04-18T09:57:23.651Z</time></trkpt><trkpt lat="45.9969474" lon="8.3381339"><ele>215.0</ele><time>2026-04-18T09:57:24.665Z</time></trkpt><trkpt lat="45.9969114" lon="8.3380491"><ele>215.0</ele><time>2026-04-18T09:57:25.654Z</time></trkpt><trkpt lat="45.9968874" lon="8.3379507"><ele>215.2</ele><time>2026-04-18T09:57:26.649Z</time></trkpt><trkpt lat="45.9968626" lon="8.3378519"><ele>215.4</ele><time>2026-04-18T09:57:27.654Z</time></trkpt><trkpt lat="45.9968398" lon="8.3377626"><ele>215.60000000000002</ele><time>2026-04-18T09:57:28.651Z</time></trkpt><trkpt lat="45.9967866" lon="8.33761"><ele>215.8</ele><time>2026-04-18T09:57:30.651Z</time></trkpt><trkpt lat="45.9967225" lon="8.3374723"><ele>216.0</ele><time>2026-04-18T09:57:32.667Z</time></trkpt><trkpt lat="45.9966702" lon="8.3373188"><ele>215.66666666666666</ele><time>2026-04-18T09:57:34.661Z</time></trkpt><trkpt lat="45.9966388" lon="8.3372344"><ele>215.33333333333331</ele><time>2026-04-18T09:57:35.667Z</time></trkpt><trkpt lat="45.9966009" lon="8.3371531"><ele>215.0</ele><time>2026-04-18T09:57:36.657Z</time></trkpt><trkpt lat="45.9965696" lon="8.3370549"><ele>214.66666666666666</ele><time>2026-04-18T09:57:37.656Z</time></trkpt><trkpt lat="45.9965289" lon="8.3368812"><ele>214.33333333333331</ele><time>2026-04-18T09:57:39.658Z</time></trkpt><trkpt lat="45.9965023" lon="8.336793"><ele>214.0</ele><time>2026-04-18T09:57:40.668Z</time></trkpt><trkpt lat="45.996471" lon="8.3367014"><ele>213.99999999999997</ele><time>2026-04-18T09:57:41.658Z</time></trkpt><trkpt lat="45.9964462" lon="8.3366146"><ele>214.0</ele><time>2026-04-18T09:57:42.66Z</time></trkpt><trkpt lat="45.9964131" lon="8.3365159"><ele>214.0</ele><time>2026-04-18T09:57:43.654Z</time></trkpt><trkpt lat="45.9963836" lon="8.3364204"><ele>214.0</ele><time>2026-04-18T09:57:44.655Z</time></trkpt><trkpt lat="45.9963591" lon="8.3363327"><ele>213.99999999999997</ele><time>2026-04-18T09:57:45.667Z</time></trkpt><trkpt lat="45.9963346" lon="8.3362408"><ele>214.0</ele><time>2026-04-18T09:57:46.658Z</time></trkpt><trkpt lat="45.9963022" lon="8.3360742"><ele>214.16666666666666</ele><time>2026-04-18T09:57:48.656Z</time></trkpt><trkpt lat="45.9962735" lon="8.3359906"><ele>214.33333333333331</ele><time>2026-04-18T09:57:49.656Z</time></trkpt><trkpt lat="45.9962465" lon="8.3359066"><ele>214.5</ele><time>2026-04-18T09:57:50.666Z</time></trkpt><trkpt lat="45.9961854" lon="8.3357331"><ele>214.66666666666669</ele><time>2026-04-18T09:57:52.658Z</time></trkpt><trkpt lat="45.9961704" lon="8.33563"><ele>214.83333333333334</ele><time>2026-04-18T09:57:53.652Z</time></trkpt><trkpt lat="45.9961489" lon="8.3355335"><ele>215.0</ele><time>2026-04-18T09:57:54.656Z</time></trkpt><trkpt lat="45.9961178" lon="8.3354268"><ele>214.50000000000003</ele><time>2026-04-18T09:57:55.666Z</time></trkpt><trkpt lat="45.9960818" lon="8.3353254"><ele>214.0</ele><time>2026-04-18T09:57:56.652Z</time></trkpt><trkpt lat="45.9960445" lon="8.3352241"><ele>213.5</ele><time>2026-04-18T09:57:57.664Z</time></trkpt><trkpt lat="45.9960055" lon="8.335119"><ele>213.0</ele><time>2026-04-18T09:57:58.667Z</time></trkpt><trkpt lat="45.9959641" lon="8.3350137"><ele>212.50000000000003</ele><time>2026-04-18T09:57:59.66Z</time></trkpt><trkpt lat="45.9959272" lon="8.33492"><ele>212.0</ele><time>2026-04-18T09:58:00.677Z</time></trkpt><trkpt lat="45.9958952" lon="8.3348252"><ele>212.00000000000003</ele><time>2026-04-18T09:58:01.658Z</time></trkpt><trkpt lat="45.995867" lon="8.3347289"><ele>212.0</ele><time>2026-04-18T09:58:02.657Z</time></trkpt><trkpt lat="45.995838" lon="8.3346306"><ele>212.0</ele><time>2026-04-18T09:58:03.671Z</time></trkpt><trkpt lat="45.9958003" lon="8.3345243"><ele>212.0</ele><time>2026-04-18T09:58:04.646Z</time></trkpt><trkpt lat="45.9957659" lon="8.3344232"><ele>212.00000000000003</ele><time>2026-04-18T09:58:05.654Z</time></trkpt><trkpt lat="45.995728" lon="8.3343175"><ele>212.0</ele><time>2026-04-18T09:58:06.656Z</time></trkpt><trkpt lat="45.9957079" lon="8.3342084"><ele>212.00000000000003</ele><time>2026-04-18T09:58:07.644Z</time></trkpt><trkpt lat="45.9956902" lon="8.3340893"><ele>212.0</ele><time>2026-04-18T09:58:08.647Z</time></trkpt><trkpt lat="45.9956691" lon="8.3339899"><ele>212.0</ele><time>2026-04-18T09:58:09.645Z</time></trkpt><trkpt lat="45.9956308" lon="8.3338825"><ele>212.0</ele><time>2026-04-18T09:58:10.67Z</time></trkpt><trkpt lat="45.9955865" lon="8.3337814"><ele>212.00000000000003</ele><time>2026-04-18T09:58:11.647Z</time></trkpt><trkpt lat="45.995548" lon="8.3336756"><ele>212.0</ele><time>2026-04-18T09:58:12.654Z</time></trkpt><trkpt lat="45.9955053" lon="8.3335653"><ele>212.33333333333334</ele><time>2026-04-18T09:58:13.643Z</time></trkpt><trkpt lat="45.9954777" lon="8.3334448"><ele>212.66666666666669</ele><time>2026-04-18T09:58:14.651Z</time></trkpt><trkpt lat="45.9954371" lon="8.33333"><ele>213.0</ele><time>2026-04-18T09:58:15.665Z</time></trkpt><trkpt lat="45.995395" lon="8.3332187"><ele>213.33333333333331</ele><time>2026-04-18T09:58:16.655Z</time></trkpt><trkpt lat="45.9953507" lon="8.3331116"><ele>213.66666666666666</ele><time>2026-04-18T09:58:17.658Z</time></trkpt><trkpt lat="45.9953062" lon="8.3330028"><ele>214.0</ele><time>2026-04-18T09:58:18.645Z</time></trkpt><trkpt lat="45.9952622" lon="8.3328875"><ele>214.33333333333331</ele><time>2026-04-18T09:58:19.647Z</time></trkpt><trkpt lat="45.9952274" lon="8.3327953"><ele>214.66666666666666</ele><time>2026-04-18T09:58:20.643Z</time></trkpt><trkpt lat="45.9951945" lon="8.3327111"><ele>215.0</ele><time>2026-04-18T09:58:21.66Z</time></trkpt><trkpt lat="45.9951762" lon="8.3326172"><ele>215.33333333333331</ele><time>2026-04-18T09:58:22.651Z</time></trkpt><trkpt lat="45.9951238" lon="8.3325009"><ele>215.66666666666666</ele><time>2026-04-18T09:58:24.65Z</time></trkpt><trkpt lat="45.9949999" lon="8.3324833"><ele>216.0</ele><time>2026-04-18T09:58:26.654Z</time></trkpt><trkpt lat="45.9949191" lon="8.3324809"><ele>216.0</ele><time>2026-04-18T09:58:27.649Z</time></trkpt><trkpt lat="45.9948455" lon="8.3324828"><ele>216.0</ele><time>2026-04-18T09:58:28.655Z</time></trkpt><trkpt lat="45.9947668" lon="8.3324623"><ele>216.0</ele><time>2026-04-18T09:58:29.622Z</time></trkpt><trkpt lat="45.994698" lon="8.3324467"><ele>216.0</ele><time>2026-04-18T09:58:30.626Z</time></trkpt><trkpt lat="45.9946269" lon="8.3324336"><ele>216.0</ele><time>2026-04-18T09:58:31.649Z</time></trkpt><trkpt lat="45.9945487" lon="8.3323395"><ele>216.0</ele><time>2026-04-18T09:58:33.625Z</time></trkpt><trkpt lat="45.9945184" lon="8.3321682"><ele>215.83333333333334</ele><time>2026-04-18T09:58:35.629Z</time></trkpt><trkpt lat="45.994505" lon="8.3320461"><ele>215.66666666666669</ele><time>2026-04-18T09:58:36.648Z</time></trkpt><trkpt lat="45.9945006" lon="8.331932"><ele>215.5</ele><time>2026-04-18T09:58:37.646Z</time></trkpt><trkpt lat="45.9945045" lon="8.3318158"><ele>215.33333333333334</ele><time>2026-04-18T09:58:38.64Z</time></trkpt><trkpt lat="45.994522" lon="8.3316933"><ele>215.16666666666669</ele><time>2026-04-18T09:58:39.639Z</time></trkpt><trkpt lat="45.9945489" lon="8.3315609"><ele>215.0</ele><time>2026-04-18T09:58:40.632Z</time></trkpt><trkpt lat="45.9945723" lon="8.3314407"><ele>215.00000000000003</ele><time>2026-04-18T09:58:41.648Z</time></trkpt><trkpt lat="45.9946005" lon="8.3313256"><ele>215.0</ele><time>2026-04-18T09:58:42.639Z</time></trkpt><trkpt lat="45.9946257" lon="8.3311897"><ele>215.0</ele><time>2026-04-18T09:58:43.635Z</time></trkpt><trkpt lat="45.9946501" lon="8.3310764"><ele>215.0</ele><time>2026-04-18T09:58:44.644Z</time></trkpt><trkpt lat="45.9946656" lon="8.3309544"><ele>215.00000000000003</ele><time>2026-04-18T09:58:45.643Z</time></trkpt><trkpt lat="45.9946828" lon="8.3308163"><ele>215.0</ele><time>2026-04-18T09:58:46.644Z</time></trkpt><trkpt lat="45.9947013" lon="8.3306861"><ele>215.6</ele><time>2026-04-18T09:58:47.641Z</time></trkpt><trkpt lat="45.9947316" lon="8.3305495"><ele>216.2</ele><time>2026-04-18T09:58:48.654Z</time></trkpt><trkpt lat="45.994779" lon="8.3304227"><ele>216.8</ele><time>2026-04-18T09:58:49.653Z</time></trkpt><trkpt lat="45.9948232" lon="8.3303002"><ele>217.4</ele><time>2026-04-18T09:58:50.66Z</time></trkpt><trkpt lat="45.9948678" lon="8.3301891"><ele>218.0</ele><time>2026-04-18T09:58:51.669Z</time></trkpt><trkpt lat="45.9949127" lon="8.3300653"><ele>218.0</ele><time>2026-04-18T09:58:52.657Z</time></trkpt><trkpt lat="45.9949536" lon="8.3299363"><ele>218.0</ele><time>2026-04-18T09:58:53.652Z</time></trkpt><trkpt lat="45.9949926" lon="8.3298137"><ele>218.0</ele><time>2026-04-18T09:58:54.744Z</time></trkpt><trkpt lat="45.9950248" lon="8.3296899"><ele>218.0</ele><time>2026-04-18T09:58:55.742Z</time></trkpt><trkpt lat="45.9950389" lon="8.3295633"><ele>218.0</ele><time>2026-04-18T09:58:56.756Z</time></trkpt><trkpt lat="45.9950297" lon="8.3294345"><ele>218.0</ele><time>2026-04-18T09:58:57.753Z</time></trkpt><trkpt lat="45.9950015" lon="8.3291783"><ele>218.0</ele><time>2026-04-18T09:58:59.63Z</time></trkpt><trkpt lat="45.9950072" lon="8.329084"><ele>218.0</ele><time>2026-04-18T09:59:00.62Z</time></trkpt><trkpt lat="45.9950337" lon="8.3289954"><ele>218.0</ele><time>2026-04-18T09:59:01.628Z</time></trkpt><trkpt lat="45.9950967" lon="8.3288973"><ele>218.0</ele><time>2026-04-18T09:59:02.631Z</time></trkpt><trkpt lat="45.9951639" lon="8.3287976"><ele>217.0</ele><time>2026-04-18T09:59:03.645Z</time></trkpt><trkpt lat="45.9952218" lon="8.3286949"><ele>216.0</ele><time>2026-04-18T09:59:04.631Z</time></trkpt><trkpt lat="45.9952508" lon="8.3285855"><ele>215.0</ele><time>2026-04-18T09:59:05.662Z</time></trkpt><trkpt lat="45.9952752" lon="8.3284609"><ele>214.0</ele><time>2026-04-18T09:59:06.639Z</time></trkpt><trkpt lat="45.9952818" lon="8.3283159"><ele>213.0</ele><time>2026-04-18T09:59:07.633Z</time></trkpt><trkpt lat="45.9952735" lon="8.3281702"><ele>213.4</ele><time>2026-04-18T09:59:08.629Z</time></trkpt><trkpt lat="45.9952461" lon="8.3279957"><ele>213.8</ele><time>2026-04-18T09:59:09.642Z</time></trkpt><trkpt lat="45.9952138" lon="8.3278433"><ele>214.2</ele><time>2026-04-18T09:59:10.65Z</time></trkpt><trkpt lat="45.9951776" lon="8.327705"><ele>214.6</ele><time>2026-04-18T09:59:11.627Z</time></trkpt><trkpt lat="45.9951443" lon="8.3275662"><ele>215.0</ele><time>2026-04-18T09:59:12.633Z</time></trkpt><trkpt lat="45.9951393" lon="8.3274399"><ele>215.0</ele><time>2026-04-18T09:59:13.631Z</time></trkpt><trkpt lat="45.9951599" lon="8.3273414"><ele>215.0</ele><time>2026-04-18T09:59:14.63Z</time></trkpt><trkpt lat="45.9952459" lon="8.3272006"><ele>215.0</ele><time>2026-04-18T09:59:16.629Z</time></trkpt><trkpt lat="45.9953233" lon="8.3271487"><ele>215.0</ele><time>2026-04-18T09:59:17.634Z</time></trkpt><trkpt lat="45.9954091" lon="8.3270826"><ele>215.0</ele><time>2026-04-18T09:59:18.634Z</time></trkpt><trkpt lat="45.9954774" lon="8.3269885"><ele>215.0</ele><time>2026-04-18T09:59:19.625Z</time></trkpt><trkpt lat="45.9955439" lon="8.3268789"><ele>215.0</ele><time>2026-04-18T09:59:20.621Z</time></trkpt><trkpt lat="45.9955786" lon="8.3267418"><ele>215.0</ele><time>2026-04-18T09:59:21.63Z</time></trkpt><trkpt lat="45.9956144" lon="8.3266118"><ele>215.0</ele><time>2026-04-18T09:59:22.65Z</time></trkpt><trkpt lat="45.9956469" lon="8.3264701"><ele>215.0</ele><time>2026-04-18T09:59:23.648Z</time></trkpt><trkpt lat="45.9956851" lon="8.3263266"><ele>215.00000000000003</ele><time>2026-04-18T09:59:24.653Z</time></trkpt><trkpt lat="45.9957155" lon="8.3261911"><ele>215.0</ele><time>2026-04-18T09:59:25.639Z</time></trkpt><trkpt lat="45.9957257" lon="8.3260615"><ele>215.0</ele><time>2026-04-18T09:59:26.64Z</time></trkpt><trkpt lat="45.9957225" lon="8.3259409"><ele>215.0</ele><time>2026-04-18T09:59:27.643Z</time></trkpt><trkpt lat="45.9957297" lon="8.3258319"><ele>215.00000000000003</ele><time>2026-04-18T09:59:28.636Z</time></trkpt><trkpt lat="45.99567" lon="8.3257758"><ele>215.0</ele><time>2026-04-18T09:59:35.624Z</time></trkpt><trkpt lat="45.9956031" lon="8.3257733"><ele>215.00000000000003</ele><time>2026-04-18T09:59:36.64Z</time></trkpt><trkpt lat="45.9955339" lon="8.3257493"><ele>215.0</ele><time>2026-04-18T09:59:37.613Z</time></trkpt><trkpt lat="45.9954717" lon="8.3256818"><ele>215.0</ele><time>2026-04-18T09:59:38.614Z</time></trkpt><trkpt lat="45.9953952" lon="8.3255994"><ele>215.0</ele><time>2026-04-18T09:59:39.616Z</time></trkpt><trkpt lat="45.9953367" lon="8.3254999"><ele>215.00000000000003</ele><time>2026-04-18T09:59:40.628Z</time></trkpt><trkpt lat="45.9952801" lon="8.3253815"><ele>215.0</ele><time>2026-04-18T09:59:41.63Z</time></trkpt><trkpt lat="45.9952336" lon="8.3252606"><ele>215.0</ele><time>2026-04-18T09:59:42.628Z</time></trkpt><trkpt lat="45.9951877" lon="8.325139"><ele>215.0</ele><time>2026-04-18T09:59:43.643Z</time></trkpt><trkpt lat="45.9951448" lon="8.325024"><ele>215.0</ele><time>2026-04-18T09:59:44.631Z</time></trkpt><trkpt lat="45.9951198" lon="8.3249044"><ele>215.0</ele><time>2026-04-18T09:59:45.626Z</time></trkpt><trkpt lat="45.9950866" lon="8.3247713"><ele>215.0</ele><time>2026-04-18T09:59:46.624Z</time></trkpt><trkpt lat="45.9950506" lon="8.324652"><ele>215.6</ele><time>2026-04-18T09:59:47.631Z</time></trkpt><trkpt lat="45.994998" lon="8.3245188"><ele>216.2</ele><time>2026-04-18T09:59:48.626Z</time></trkpt><trkpt lat="45.9949481" lon="8.3243923"><ele>216.8</ele><time>2026-04-18T09:59:49.627Z</time></trkpt><trkpt lat="45.9948915" lon="8.3242731"><ele>217.4</ele><time>2026-04-18T09:59:50.626Z</time></trkpt><trkpt lat="45.9948321" lon="8.3241429"><ele>218.0</ele><time>2026-04-18T09:59:51.634Z</time></trkpt><trkpt lat="45.9947622" lon="8.32402"><ele>218.0</ele><time>2026-04-18T09:59:52.629Z</time></trkpt><trkpt lat="45.9946932" lon="8.3239117"><ele>218.0</ele><time>2026-04-18T09:59:53.636Z</time></trkpt><trkpt lat="45.9946153" lon="8.3238168"><ele>218.0</ele><time>2026-04-18T09:59:54.638Z</time></trkpt><trkpt lat="45.9945463" lon="8.3237205"><ele>218.0</ele><time>2026-04-18T09:59:55.639Z</time></trkpt><trkpt lat="45.9944681" lon="8.3236194"><ele>218.0</ele><time>2026-04-18T09:59:56.63Z</time></trkpt><trkpt lat="45.9943804" lon="8.3235284"><ele>218.2</ele><time>2026-04-18T09:59:57.646Z</time></trkpt><trkpt lat="45.9942919" lon="8.3234479"><ele>218.4</ele><time>2026-04-18T09:59:58.624Z</time></trkpt><trkpt lat="45.9942051" lon="8.3233802"><ele>218.59999999999997</ele><time>2026-04-18T09:59:59.634Z</time></trkpt><trkpt lat="45.9941185" lon="8.3233243"><ele>218.79999999999998</ele><time>2026-04-18T10:00:00.624Z</time></trkpt><trkpt lat="45.9940239" lon="8.3232901"><ele>219.0</ele><time>2026-04-18T10:00:01.63Z</time></trkpt><trkpt lat="45.9939384" lon="8.3232633"><ele>219.16666666666666</ele><time>2026-04-18T10:00:02.63Z</time></trkpt><trkpt lat="45.9938514" lon="8.3232647"><ele>219.33333333333331</ele><time>2026-04-18T10:00:03.629Z</time></trkpt><trkpt lat="45.9937581" lon="8.3232883"><ele>219.5</ele><time>2026-04-18T10:00:04.631Z</time></trkpt><trkpt lat="45.993675" lon="8.323337"><ele>219.66666666666666</ele><time>2026-04-18T10:00:05.629Z</time></trkpt><trkpt lat="45.9935976" lon="8.3233753"><ele>219.83333333333331</ele><time>2026-04-18T10:00:06.624Z</time></trkpt><trkpt lat="45.9935098" lon="8.3233983"><ele>220.0</ele><time>2026-04-18T10:00:07.652Z</time></trkpt><trkpt lat="45.9934228" lon="8.323414"><ele>219.8</ele><time>2026-04-18T10:00:08.623Z</time></trkpt><trkpt lat="45.9933293" lon="8.3233962"><ele>219.6</ele><time>2026-04-18T10:00:09.627Z</time></trkpt><trkpt lat="45.9932401" lon="8.3233667"><ele>219.39999999999998</ele><time>2026-04-18T10:00:10.617Z</time></trkpt><trkpt lat="45.9931468" lon="8.3233324"><ele>219.2</ele><time>2026-04-18T10:00:11.617Z</time></trkpt><trkpt lat="45.9930539" lon="8.3233112"><ele>219.0</ele><time>2026-04-18T10:00:12.61Z</time></trkpt><trkpt lat="45.9929686" lon="8.3233018"><ele>219.0</ele><time>2026-04-18T10:00:13.616Z</time></trkpt><trkpt lat="45.992869" lon="8.3233142"><ele>218.99999999999997</ele><time>2026-04-18T10:00:14.607Z</time></trkpt><trkpt lat="45.9927839" lon="8.3233245"><ele>218.99999999999997</ele><time>2026-04-18T10:00:15.612Z</time></trkpt><trkpt lat="45.992708" lon="8.3233362"><ele>219.0</ele><time>2026-04-18T10:00:16.609Z</time></trkpt><trkpt lat="45.9926144" lon="8.3233149"><ele>219.0</ele><time>2026-04-18T10:00:18.616Z</time></trkpt><trkpt lat="45.9925964" lon="8.3231767"><ele>218.6</ele><time>2026-04-18T10:00:20.618Z</time></trkpt><trkpt lat="45.9925931" lon="8.3230416"><ele>218.2</ele><time>2026-04-18T10:00:21.607Z</time></trkpt><trkpt lat="45.9926068" lon="8.3229012"><ele>217.79999999999998</ele><time>2026-04-18T10:00:22.6Z</time></trkpt><trkpt lat="45.9926108" lon="8.3227716"><ele>217.39999999999998</ele><time>2026-04-18T10:00:23.608Z</time></trkpt><trkpt lat="45.9926258" lon="8.3226744"><ele>217.0</ele><time>2026-04-18T10:00:24.61Z</time></trkpt><trkpt lat="45.9926177" lon="8.322534"><ele>217.0</ele><time>2026-04-18T10:00:26.608Z</time></trkpt><trkpt lat="45.9926097" lon="8.3224221"><ele>217.0</ele><time>2026-04-18T10:00:27.617Z</time></trkpt><trkpt lat="45.9926137" lon="8.3222874"><ele>217.0</ele><time>2026-04-18T10:00:28.614Z</time></trkpt><trkpt lat="45.9926194" lon="8.3221362"><ele>217.0</ele><time>2026-04-18T10:00:29.612Z</time></trkpt><trkpt lat="45.9926213" lon="8.3219984"><ele>217.0</ele><time>2026-04-18T10:00:30.616Z</time></trkpt><trkpt lat="45.9926319" lon="8.3218505"><ele>217.0</ele><time>2026-04-18T10:00:31.606Z</time></trkpt><trkpt lat="45.9926383" lon="8.3217154"><ele>217.0</ele><time>2026-04-18T10:00:32.607Z</time></trkpt><trkpt lat="45.9926449" lon="8.3216044"><ele>217.0</ele><time>2026-04-18T10:00:33.606Z</time></trkpt><trkpt lat="45.9926522" lon="8.3215024"><ele>217.0</ele><time>2026-04-18T10:00:34.611Z</time></trkpt><trkpt lat="45.9926423" lon="8.3213666"><ele>217.0</ele><time>2026-04-18T10:00:36.616Z</time></trkpt><trkpt lat="45.9926336" lon="8.3211907"><ele>216.83333333333331</ele><time>2026-04-18T10:00:38.637Z</time></trkpt><trkpt lat="45.9926363" lon="8.3210778"><ele>216.66666666666666</ele><time>2026-04-18T10:00:39.613Z</time></trkpt><trkpt lat="45.9926346" lon="8.3209611"><ele>216.5</ele><time>2026-04-18T10:00:40.609Z</time></trkpt><trkpt lat="45.9926412" lon="8.3208487"><ele>216.33333333333331</ele><time>2026-04-18T10:00:41.618Z</time></trkpt><trkpt lat="45.9926488" lon="8.3207313"><ele>216.16666666666666</ele><time>2026-04-18T10:00:42.617Z</time></trkpt><trkpt lat="45.9926496" lon="8.3206099"><ele>216.0</ele><time>2026-04-18T10:00:43.626Z</time></trkpt><trkpt lat="45.9926518" lon="8.3205031"><ele>216.33333333333334</ele><time>2026-04-18T10:00:44.619Z</time></trkpt><trkpt lat="45.9926607" lon="8.3203973"><ele>216.66666666666669</ele><time>2026-04-18T10:00:45.621Z</time></trkpt><trkpt lat="45.9926739" lon="8.3202929"><ele>217.0</ele><time>2026-04-18T10:00:46.631Z</time></trkpt><trkpt lat="45.9926967" lon="8.3201847"><ele>217.33333333333334</ele><time>2026-04-18T10:00:47.62Z</time></trkpt><trkpt lat="45.992706" lon="8.3200917"><ele>217.66666666666669</ele><time>2026-04-18T10:00:48.63Z</time></trkpt><trkpt lat="45.9927085" lon="8.3199057"><ele>218.0</ele><time>2026-04-18T10:00:50.643Z</time></trkpt><trkpt lat="45.992723" lon="8.3197292"><ele>218.4</ele><time>2026-04-18T10:00:52.629Z</time></trkpt><trkpt lat="45.9927257" lon="8.3195785"><ele>218.8</ele><time>2026-04-18T10:00:54.636Z</time></trkpt><trkpt lat="45.992745" lon="8.3194301"><ele>219.2</ele><time>2026-04-18T10:00:56.627Z</time></trkpt><trkpt lat="45.9928005" lon="8.319237"><ele>219.6</ele><time>2026-04-18T10:00:58.63Z</time></trkpt><trkpt lat="45.9928405" lon="8.3191353"><ele>220.0</ele><time>2026-04-18T10:00:59.634Z</time></trkpt><trkpt lat="45.9928707" lon="8.3190263"><ele>219.99999999999997</ele><time>2026-04-18T10:01:00.625Z</time></trkpt><trkpt lat="45.9929059" lon="8.3189314"><ele>220.0</ele><time>2026-04-18T10:01:01.634Z</time></trkpt><trkpt lat="45.9929205" lon="8.3188396"><ele>220.0</ele><time>2026-04-18T10:01:02.63Z</time></trkpt><trkpt lat="45.9929242" lon="8.3187262"><ele>220.0</ele><time>2026-04-18T10:01:03.62Z</time></trkpt><trkpt lat="45.9929319" lon="8.3185822"><ele>219.99999999999997</ele><time>2026-04-18T10:01:04.626Z</time></trkpt><trkpt lat="45.9929477" lon="8.3184503"><ele>220.0</ele><time>2026-04-18T10:01:05.631Z</time></trkpt><trkpt lat="45.9929657" lon="8.3183149"><ele>219.4</ele><time>2026-04-18T10:01:06.622Z</time></trkpt><trkpt lat="45.9929924" lon="8.3181625"><ele>218.8</ele><time>2026-04-18T10:01:07.615Z</time></trkpt><trkpt lat="45.9930153" lon="8.3180074"><ele>218.2</ele><time>2026-04-18T10:01:08.624Z</time></trkpt><trkpt lat="45.9930364" lon="8.3178619"><ele>217.6</ele><time>2026-04-18T10:01:09.628Z</time></trkpt><trkpt lat="45.9930525" lon="8.3177482"><ele>217.0</ele><time>2026-04-18T10:01:10.622Z</time></trkpt><trkpt lat="45.9930679" lon="8.3176357"><ele>216.83333333333331</ele><time>2026-04-18T10:01:11.607Z</time></trkpt><trkpt lat="45.9930739" lon="8.3175344"><ele>216.66666666666666</ele><time>2026-04-18T10:01:12.607Z</time></trkpt><trkpt lat="45.9930972" lon="8.3173945"><ele>216.5</ele><time>2026-04-18T10:01:14.611Z</time></trkpt><trkpt lat="45.9930482" lon="8.3173278"><ele>216.33333333333331</ele><time>2026-04-18T10:01:21.624Z</time></trkpt><trkpt lat="45.9930685" lon="8.3172119"><ele>216.16666666666666</ele><time>2026-04-18T10:01:26.62Z</time></trkpt><trkpt lat="45.9931168" lon="8.3171237"><ele>216.0</ele><time>2026-04-18T10:01:28.632Z</time></trkpt><trkpt lat="45.9931526" lon="8.3170367"><ele>216.33333333333334</ele><time>2026-04-18T10:01:30.624Z</time></trkpt><trkpt lat="45.9931365" lon="8.3169362"><ele>216.66666666666669</ele><time>2026-04-18T10:01:34.627Z</time></trkpt><trkpt lat="45.9930804" lon="8.3168557"><ele>217.0</ele><time>2026-04-18T10:01:37.648Z</time></trkpt><trkpt lat="45.9930149" lon="8.3168661"><ele>217.33333333333334</ele><time>2026-04-18T10:01:42.637Z</time></trkpt><trkpt lat="45.9930988" lon="8.3168938"><ele>217.66666666666669</ele><time>2026-04-18T10:01:54.633Z</time></trkpt><trkpt lat="45.9931758" lon="8.3169296"><ele>218.0</ele><time>2026-04-18T10:01:56.643Z</time></trkpt><trkpt lat="45.9932646" lon="8.3168545"><ele>218.0</ele><time>2026-04-18T10:01:59.639Z</time></trkpt><trkpt lat="45.9933148" lon="8.3167554"><ele>218.0</ele><time>2026-04-18T10:02:00.624Z</time></trkpt><trkpt lat="45.9933505" lon="8.3166311"><ele>218.0</ele><time>2026-04-18T10:02:01.625Z</time></trkpt><trkpt lat="45.9933915" lon="8.3164966"><ele>218.0</ele><time>2026-04-18T10:02:02.619Z</time></trkpt><trkpt lat="45.9934301" lon="8.3163861"><ele>218.0</ele><time>2026-04-18T10:02:03.629Z</time></trkpt><trkpt lat="45.9934573" lon="8.3162701"><ele>218.16666666666669</ele><time>2026-04-18T10:02:04.63Z</time></trkpt><trkpt lat="45.993491" lon="8.3161537"><ele>218.33333333333334</ele><time>2026-04-18T10:02:05.636Z</time></trkpt><trkpt lat="45.9935153" lon="8.3160426"><ele>218.5</ele><time>2026-04-18T10:02:06.631Z</time></trkpt><trkpt lat="45.9935311" lon="8.3159229"><ele>218.66666666666669</ele><time>2026-04-18T10:02:07.643Z</time></trkpt><trkpt lat="45.993552" lon="8.3158197"><ele>218.83333333333334</ele><time>2026-04-18T10:02:08.643Z</time></trkpt><trkpt lat="45.9935623" lon="8.3156826"><ele>219.0</ele><time>2026-04-18T10:02:09.651Z</time></trkpt><trkpt lat="45.9935813" lon="8.3155482"><ele>218.39999999999998</ele><time>2026-04-18T10:02:10.639Z</time></trkpt><trkpt lat="45.9935884" lon="8.3154133"><ele>217.79999999999998</ele><time>2026-04-18T10:02:11.652Z</time></trkpt><trkpt lat="45.9936115" lon="8.3152947"><ele>217.20000000000002</ele><time>2026-04-18T10:02:12.643Z</time></trkpt><trkpt lat="45.9936276" lon="8.3151929"><ele>216.60000000000002</ele><time>2026-04-18T10:02:13.628Z</time></trkpt><trkpt lat="45.9936311" lon="8.3149981"><ele>216.0</ele><time>2026-04-18T10:02:15.621Z</time></trkpt><trkpt lat="45.9936133" lon="8.3148666"><ele>216.0</ele><time>2026-04-18T10:02:16.617Z</time></trkpt><trkpt lat="45.993597" lon="8.3147393"><ele>216.0</ele><time>2026-04-18T10:02:17.638Z</time></trkpt><trkpt lat="45.9935827" lon="8.3146079"><ele>216.0</ele><time>2026-04-18T10:02:18.635Z</time></trkpt><trkpt lat="45.993579" lon="8.3144938"><ele>216.0</ele><time>2026-04-18T10:02:19.632Z</time></trkpt><trkpt lat="45.9935591" lon="8.3143961"><ele>216.0</ele><time>2026-04-18T10:02:20.633Z</time></trkpt><trkpt lat="45.9934931" lon="8.3143121"><ele>216.0</ele><time>2026-04-18T10:02:22.631Z</time></trkpt><trkpt lat="45.9934248" lon="8.3143011"><ele>216.0</ele><time>2026-04-18T10:02:23.632Z</time></trkpt><trkpt lat="45.993361" lon="8.314292"><ele>216.0</ele><time>2026-04-18T10:02:24.622Z</time></trkpt><trkpt lat="45.9932878" lon="8.3142933"><ele>216.0</ele><time>2026-04-18T10:02:25.614Z</time></trkpt><trkpt lat="45.9932121" lon="8.3142897"><ele>216.0</ele><time>2026-04-18T10:02:26.63Z</time></trkpt><trkpt lat="45.9931442" lon="8.3143349"><ele>216.0</ele><time>2026-04-18T10:02:27.619Z</time></trkpt><trkpt lat="45.9930888" lon="8.3144057"><ele>216.0</ele><time>2026-04-18T10:02:28.614Z</time></trkpt><trkpt lat="45.9930402" lon="8.3144871"><ele>216.0</ele><time>2026-04-18T10:02:29.632Z</time></trkpt><trkpt lat="45.9930074" lon="8.3145731"><ele>216.0</ele><time>2026-04-18T10:02:30.621Z</time></trkpt><trkpt lat="45.9929483" lon="8.3146847"><ele>216.0</ele><time>2026-04-18T10:02:32.643Z</time></trkpt><trkpt lat="45.9928844" lon="8.3147879"><ele>216.0</ele><time>2026-04-18T10:02:35.644Z</time></trkpt><trkpt lat="45.9928163" lon="8.3147879"><ele>216.0</ele><time>2026-04-18T10:02:36.643Z</time></trkpt><trkpt lat="45.9927183" lon="8.3147629"><ele>216.0</ele><time>2026-04-18T10:02:38.658Z</time></trkpt><trkpt lat="45.9926528" lon="8.3147322"><ele>216.0</ele><time>2026-04-18T10:02:39.638Z</time></trkpt><trkpt lat="45.9925679" lon="8.3146492"><ele>215.0</ele><time>2026-04-18T10:02:41.637Z</time></trkpt><trkpt lat="45.9924624" lon="8.3146089"><ele>214.00000000000003</ele><time>2026-04-18T10:02:43.647Z</time></trkpt><trkpt lat="45.9923752" lon="8.314594"><ele>213.0</ele><time>2026-04-18T10:02:45.658Z</time></trkpt><trkpt lat="45.9922992" lon="8.3145281"><ele>212.0</ele><time>2026-04-18T10:02:48.648Z</time></trkpt><trkpt lat="45.9923098" lon="8.3143894"><ele>211.0</ele><time>2026-04-18T10:02:51.666Z</time></trkpt><trkpt lat="45.992348" lon="8.3142653"><ele>211.0</ele><time>2026-04-18T10:02:53.658Z</time></trkpt><trkpt lat="45.992381" lon="8.314112"><ele>211.0</ele><time>2026-04-18T10:02:55.648Z</time></trkpt><trkpt lat="45.9924513" lon="8.3139922"><ele>211.0</ele><time>2026-04-18T10:02:57.638Z</time></trkpt><trkpt lat="45.9925087" lon="8.3138749"><ele>211.0</ele><time>2026-04-18T10:02:59.635Z</time></trkpt><trkpt lat="45.9925653" lon="8.3137331"><ele>211.0</ele><time>2026-04-18T10:03:01.634Z</time></trkpt><trkpt lat="45.9925884" lon="8.3136472"><ele>211.66666666666666</ele><time>2026-04-18T10:03:02.64Z</time></trkpt><trkpt lat="45.9926261" lon="8.313547"><ele>212.33333333333331</ele><time>2026-04-18T10:03:03.625Z</time></trkpt><trkpt lat="45.992647" lon="8.3134457"><ele>213.0</ele><time>2026-04-18T10:03:04.629Z</time></trkpt><trkpt lat="45.9927039" lon="8.3133164"><ele>213.66666666666669</ele><time>2026-04-18T10:03:06.632Z</time></trkpt><trkpt lat="45.9927548" lon="8.3131667"><ele>214.33333333333334</ele><time>2026-04-18T10:03:08.642Z</time></trkpt><trkpt lat="45.9927902" lon="8.3130833"><ele>215.0</ele><time>2026-04-18T10:03:09.649Z</time></trkpt><trkpt lat="45.9928557" lon="8.3129365"><ele>215.00000000000003</ele><time>2026-04-18T10:03:11.646Z</time></trkpt><trkpt lat="45.992892" lon="8.3128151"><ele>215.0</ele><time>2026-04-18T10:03:13.681Z</time></trkpt><trkpt lat="45.9929195" lon="8.3127213"><ele>215.0</ele><time>2026-04-18T10:03:15.636Z</time></trkpt><trkpt lat="45.9928996" lon="8.31262"><ele>215.0</ele><time>2026-04-18T10:03:18.648Z</time></trkpt><trkpt lat="45.992922" lon="8.3125301"><ele>215.00000000000003</ele><time>2026-04-18T10:03:20.644Z</time></trkpt><trkpt lat="45.99289" lon="8.3124238"><ele>215.0</ele><time>2026-04-18T10:03:36.655Z</time></trkpt><trkpt lat="45.9928468" lon="8.3125142"><ele>215.00000000000003</ele><time>2026-04-18T10:03:54.659Z</time></trkpt><trkpt lat="45.9929275" lon="8.3124687"><ele>215.0</ele><time>2026-04-18T10:04:04.652Z</time></trkpt><trkpt lat="45.9929986" lon="8.3125145"><ele>215.0</ele><time>2026-04-18T10:04:07.636Z</time></trkpt><trkpt lat="45.9930706" lon="8.3126296"><ele>215.0</ele><time>2026-04-18T10:04:10.653Z</time></trkpt><trkpt lat="45.9931365" lon="8.3126955"><ele>215.00000000000003</ele><time>2026-04-18T10:04:12.647Z</time></trkpt><trkpt lat="45.9932065" lon="8.3127631"><ele>215.0</ele><time>2026-04-18T10:04:14.641Z</time></trkpt><trkpt lat="45.9932788" lon="8.3128342"><ele>215.00000000000003</ele><time>2026-04-18T10:04:16.654Z</time></trkpt><trkpt lat="45.9933373" lon="8.3128895"><ele>215.0</ele><time>2026-04-18T10:04:20.652Z</time></trkpt><trkpt lat="45.9934087" lon="8.312933"><ele>215.0</ele><time>2026-04-18T10:04:23.646Z</time></trkpt><trkpt lat="45.9934727" lon="8.3129403"><ele>215.0</ele><time>2026-04-18T10:04:26.634Z</time></trkpt><trkpt lat="45.9935465" lon="8.3129619"><ele>215.00000000000003</ele><time>2026-04-18T10:04:28.645Z</time></trkpt><trkpt lat="45.993639" lon="8.3130124"><ele>215.0</ele><time>2026-04-18T10:04:30.651Z</time></trkpt><trkpt lat="45.9936959" lon="8.3130562"><ele>216.0</ele><time>2026-04-18T10:04:32.665Z</time></trkpt><trkpt lat="45.9937617" lon="8.3129469"><ele>217.0</ele><time>2026-04-18T10:04:35.647Z</time></trkpt><trkpt lat="45.9937747" lon="8.3128578"><ele>218.0</ele><time>2026-04-18T10:04:36.645Z</time></trkpt><trkpt lat="45.9938095" lon="8.3127067"><ele>219.0</ele><time>2026-04-18T10:04:38.65Z</time></trkpt><trkpt lat="45.9938777" lon="8.3125388"><ele>220.0</ele><time>2026-04-18T10:04:40.637Z</time></trkpt><trkpt lat="45.9939057" lon="8.3124225"><ele>219.99999999999997</ele><time>2026-04-18T10:04:41.628Z</time></trkpt><trkpt lat="45.9939199" lon="8.3123005"><ele>220.0</ele><time>2026-04-18T10:04:42.628Z</time></trkpt><trkpt lat="45.9939172" lon="8.3121892"><ele>220.0</ele><time>2026-04-18T10:04:43.627Z</time></trkpt><trkpt lat="45.9939139" lon="8.3120794"><ele>220.0</ele><time>2026-04-18T10:04:44.636Z</time></trkpt><trkpt lat="45.9939218" lon="8.3119785"><ele>219.99999999999997</ele><time>2026-04-18T10:04:45.631Z</time></trkpt><trkpt lat="45.9939641" lon="8.3118633"><ele>220.0</ele><time>2026-04-18T10:04:46.645Z</time></trkpt><trkpt lat="45.9940155" lon="8.3117506"><ele>219.8</ele><time>2026-04-18T10:04:47.628Z</time></trkpt><trkpt lat="45.9940775" lon="8.3116316"><ele>219.6</ele><time>2026-04-18T10:04:48.626Z</time></trkpt><trkpt lat="45.9941467" lon="8.3115224"><ele>219.39999999999998</ele><time>2026-04-18T10:04:49.622Z</time></trkpt><trkpt lat="45.9942195" lon="8.3114178"><ele>219.2</ele><time>2026-04-18T10:04:50.63Z</time></trkpt><trkpt lat="45.9942923" lon="8.311335"><ele>219.0</ele><time>2026-04-18T10:04:51.631Z</time></trkpt><trkpt lat="45.9943798" lon="8.3112626"><ele>218.5</ele><time>2026-04-18T10:04:52.639Z</time></trkpt><trkpt lat="45.9944523" lon="8.3112046"><ele>218.0</ele><time>2026-04-18T10:04:53.631Z</time></trkpt><trkpt lat="45.9945129" lon="8.311142"><ele>217.5</ele><time>2026-04-18T10:04:54.636Z</time></trkpt><trkpt lat="45.9945683" lon="8.3110664"><ele>217.0</ele><time>2026-04-18T10:04:55.634Z</time></trkpt><trkpt lat="45.9946158" lon="8.3109447"><ele>216.5</ele><time>2026-04-18T10:04:56.646Z</time></trkpt><trkpt lat="45.9946637" lon="8.3108349"><ele>216.0</ele><time>2026-04-18T10:04:57.638Z</time></trkpt><trkpt lat="45.9947125" lon="8.3107326"><ele>216.0</ele><time>2026-04-18T10:04:58.637Z</time></trkpt><trkpt lat="45.9947803" lon="8.3106428"><ele>216.00000000000003</ele><time>2026-04-18T10:04:59.636Z</time></trkpt><trkpt lat="45.9948479" lon="8.3105648"><ele>216.00000000000003</ele><time>2026-04-18T10:05:00.647Z</time></trkpt><trkpt lat="45.9949202" lon="8.3104889"><ele>216.0</ele><time>2026-04-18T10:05:01.637Z</time></trkpt><trkpt lat="45.995001" lon="8.310417"><ele>216.0</ele><time>2026-04-18T10:05:02.639Z</time></trkpt><trkpt lat="45.9950717" lon="8.3103355"><ele>215.83333333333334</ele><time>2026-04-18T10:05:03.648Z</time></trkpt><trkpt lat="45.9951498" lon="8.3102816"><ele>215.66666666666669</ele><time>2026-04-18T10:05:04.624Z</time></trkpt><trkpt lat="45.9952277" lon="8.3102444"><ele>215.5</ele><time>2026-04-18T10:05:05.634Z</time></trkpt><trkpt lat="45.9952984" lon="8.3102075"><ele>215.33333333333334</ele><time>2026-04-18T10:05:06.626Z</time></trkpt><trkpt lat="45.9953608" lon="8.3101479"><ele>215.16666666666669</ele><time>2026-04-18T10:05:07.623Z</time></trkpt><trkpt lat="45.995422" lon="8.3100854"><ele>215.0</ele><time>2026-04-18T10:05:08.631Z</time></trkpt><trkpt lat="45.9954948" lon="8.3100097"><ele>215.00000000000003</ele><time>2026-04-18T10:05:09.626Z</time></trkpt><trkpt lat="45.9955571" lon="8.3099225"><ele>215.0</ele><time>2026-04-18T10:05:10.63Z</time></trkpt><trkpt lat="45.9956112" lon="8.3098291"><ele>215.0</ele><time>2026-04-18T10:05:11.619Z</time></trkpt><trkpt lat="45.9956666" lon="8.3097392"><ele>215.0</ele><time>2026-04-18T10:05:12.627Z</time></trkpt><trkpt lat="45.9957362" lon="8.3096653"><ele>215.00000000000003</ele><time>2026-04-18T10:05:13.636Z</time></trkpt><trkpt lat="45.9958105" lon="8.3096224"><ele>215.0</ele><time>2026-04-18T10:05:14.627Z</time></trkpt><trkpt lat="45.9958862" lon="8.3095615"><ele>216.0</ele><time>2026-04-18T10:05:15.623Z</time></trkpt><trkpt lat="45.9959612" lon="8.3094673"><ele>217.0</ele><time>2026-04-18T10:05:16.623Z</time></trkpt><trkpt lat="45.996031" lon="8.3093614"><ele>218.0</ele><time>2026-04-18T10:05:17.641Z</time></trkpt><trkpt lat="45.9960954" lon="8.3092541"><ele>219.0</ele><time>2026-04-18T10:05:18.628Z</time></trkpt><trkpt lat="45.996164" lon="8.3091488"><ele>220.0</ele><time>2026-04-18T10:05:19.622Z</time></trkpt><trkpt lat="45.9962411" lon="8.3090569"><ele>219.99999999999997</ele><time>2026-04-18T10:05:20.631Z</time></trkpt><trkpt lat="45.9963171" lon="8.3089754"><ele>220.0</ele><time>2026-04-18T10:05:21.631Z</time></trkpt><trkpt lat="45.9963802" lon="8.308905"><ele>220.0</ele><time>2026-04-18T10:05:22.634Z</time></trkpt><trkpt lat="45.9964421" lon="8.3088237"><ele>220.0</ele><time>2026-04-18T10:05:23.629Z</time></trkpt><trkpt lat="45.9965192" lon="8.3087504"><ele>219.99999999999997</ele><time>2026-04-18T10:05:24.64Z</time></trkpt><trkpt lat="45.9965835" lon="8.3086719"><ele>220.0</ele><time>2026-04-18T10:05:25.637Z</time></trkpt><trkpt lat="45.9966545" lon="8.3086072"><ele>219.4</ele><time>2026-04-18T10:05:26.616Z</time></trkpt><trkpt lat="45.9967181" lon="8.3085608"><ele>218.8</ele><time>2026-04-18T10:05:27.626Z</time></trkpt><trkpt lat="45.9967691" lon="8.3084564"><ele>218.2</ele><time>2026-04-18T10:05:29.625Z</time></trkpt><trkpt lat="45.9968327" lon="8.3083208"><ele>217.6</ele><time>2026-04-18T10:05:31.625Z</time></trkpt><trkpt lat="45.9969107" lon="8.3082489"><ele>217.0</ele><time>2026-04-18T10:05:33.629Z</time></trkpt><trkpt lat="45.9970225" lon="8.3081729"><ele>216.99999999999997</ele><time>2026-04-18T10:05:35.618Z</time></trkpt><trkpt lat="45.997107" lon="8.3081351"><ele>217.0</ele><time>2026-04-18T10:05:36.614Z</time></trkpt><trkpt lat="45.9971882" lon="8.308086"><ele>217.0</ele><time>2026-04-18T10:05:37.621Z</time></trkpt><trkpt lat="45.9972442" lon="8.3080361"><ele>217.0</ele><time>2026-04-18T10:05:38.614Z</time></trkpt><trkpt lat="45.9972875" lon="8.307853"><ele>216.99999999999997</ele><time>2026-04-18T10:05:40.63Z</time></trkpt><trkpt lat="45.9973001" lon="8.3077503"><ele>217.0</ele><time>2026-04-18T10:05:41.63Z</time></trkpt><trkpt lat="45.9973662" lon="8.3076348"><ele>216.8</ele><time>2026-04-18T10:05:43.62Z</time></trkpt><trkpt lat="45.9974045" lon="8.3075619"><ele>216.6</ele><time>2026-04-18T10:05:46.631Z</time></trkpt><trkpt lat="45.9974941" lon="8.3074493"><ele>216.40000000000003</ele><time>2026-04-18T10:05:51.629Z</time></trkpt><trkpt lat="45.9975775" lon="8.3073596"><ele>216.20000000000002</ele><time>2026-04-18T10:05:53.64Z</time></trkpt><trkpt lat="45.9976388" lon="8.3072547"><ele>216.0</ele><time>2026-04-18T10:05:55.634Z</time></trkpt><trkpt lat="45.997684" lon="8.3071609"><ele>216.0</ele><time>2026-04-18T10:05:56.631Z</time></trkpt><trkpt lat="45.9977297" lon="8.3070801"><ele>216.00000000000003</ele><time>2026-04-18T10:05:57.637Z</time></trkpt><trkpt lat="45.9977811" lon="8.3068885"><ele>216.00000000000003</ele><time>2026-04-18T10:05:59.63Z</time></trkpt><trkpt lat="45.9978191" lon="8.3067848"><ele>216.0</ele><time>2026-04-18T10:06:00.625Z</time></trkpt><trkpt lat="45.997887" lon="8.3066448"><ele>216.0</ele><time>2026-04-18T10:06:02.619Z</time></trkpt><trkpt lat="45.99798" lon="8.3065146"><ele>216.0</ele><time>2026-04-18T10:06:04.621Z</time></trkpt><trkpt lat="45.9980264" lon="8.3064488"><ele>216.0</ele><time>2026-04-18T10:06:05.62Z</time></trkpt><trkpt lat="45.9981023" lon="8.3063932"><ele>216.0</ele><time>2026-04-18T10:06:06.62Z</time></trkpt><trkpt lat="45.9981918" lon="8.3063491"><ele>216.0</ele><time>2026-04-18T10:06:07.619Z</time></trkpt><trkpt lat="45.9982604" lon="8.3062963"><ele>216.0</ele><time>2026-04-18T10:06:08.634Z</time></trkpt><trkpt lat="45.9983325" lon="8.3062054"><ele>216.0</ele><time>2026-04-18T10:06:09.618Z</time></trkpt><trkpt lat="45.9984105" lon="8.3061228"><ele>216.16666666666666</ele><time>2026-04-18T10:06:10.635Z</time></trkpt><trkpt lat="45.9984806" lon="8.3060462"><ele>216.33333333333331</ele><time>2026-04-18T10:06:11.631Z</time></trkpt><trkpt lat="45.9985437" lon="8.3059584"><ele>216.5</ele><time>2026-04-18T10:06:12.622Z</time></trkpt><trkpt lat="45.9985949" lon="8.3058691"><ele>216.66666666666666</ele><time>2026-04-18T10:06:13.641Z</time></trkpt><trkpt lat="45.9986196" lon="8.3057598"><ele>216.83333333333331</ele><time>2026-04-18T10:06:15.631Z</time></trkpt><trkpt lat="45.9986832" lon="8.3057523"><ele>217.0</ele><time>2026-04-18T10:06:32.649Z</time></trkpt><trkpt lat="45.9987213" lon="8.3056529"><ele>216.66666666666666</ele><time>2026-04-18T10:06:34.643Z</time></trkpt><trkpt lat="45.9987561" lon="8.3055594"><ele>216.33333333333331</ele><time>2026-04-18T10:06:35.629Z</time></trkpt><trkpt lat="45.9988056" lon="8.3054461"><ele>216.0</ele><time>2026-04-18T10:06:36.632Z</time></trkpt><trkpt lat="45.9988394" lon="8.3053348"><ele>215.66666666666669</ele><time>2026-04-18T10:06:37.642Z</time></trkpt><trkpt lat="45.9988781" lon="8.3052331"><ele>215.33333333333334</ele><time>2026-04-18T10:06:38.649Z</time></trkpt><trkpt lat="45.9988833" lon="8.3051298"><ele>215.0</ele><time>2026-04-18T10:06:39.628Z</time></trkpt><trkpt lat="45.998886" lon="8.3050169"><ele>215.00000000000003</ele><time>2026-04-18T10:06:40.634Z</time></trkpt><trkpt lat="45.998902" lon="8.3048986"><ele>215.0</ele><time>2026-04-18T10:06:41.623Z</time></trkpt><trkpt lat="45.9988954" lon="8.3048035"><ele>215.0</ele><time>2026-04-18T10:06:42.625Z</time></trkpt><trkpt lat="45.9989107" lon="8.3046943"><ele>215.0</ele><time>2026-04-18T10:06:43.646Z</time></trkpt><trkpt lat="45.9989261" lon="8.3045879"><ele>215.00000000000003</ele><time>2026-04-18T10:06:44.642Z</time></trkpt><trkpt lat="45.9989379" lon="8.304477"><ele>215.0</ele><time>2026-04-18T10:06:45.638Z</time></trkpt><trkpt lat="45.9989213" lon="8.3043603"><ele>214.83333333333334</ele><time>2026-04-18T10:06:46.633Z</time></trkpt><trkpt lat="45.9989225" lon="8.3042389"><ele>214.66666666666669</ele><time>2026-04-18T10:06:47.643Z</time></trkpt><trkpt lat="45.9989378" lon="8.3041155"><ele>214.5</ele><time>2026-04-18T10:06:48.634Z</time></trkpt><trkpt lat="45.9989409" lon="8.3040074"><ele>214.33333333333331</ele><time>2026-04-18T10:06:49.628Z</time></trkpt><trkpt lat="45.9989523" lon="8.3038835"><ele>214.16666666666666</ele><time>2026-04-18T10:06:50.658Z</time></trkpt><trkpt lat="45.9989727" lon="8.3037514"><ele>214.0</ele><time>2026-04-18T10:06:51.636Z</time></trkpt><trkpt lat="45.9990024" lon="8.3036086"><ele>213.75</ele><time>2026-04-18T10:06:52.638Z</time></trkpt><trkpt lat="45.9990486" lon="8.3034494"><ele>213.5</ele><time>2026-04-18T10:06:53.663Z</time></trkpt><trkpt lat="45.9990896" lon="8.3032954"><ele>213.25</ele><time>2026-04-18T10:06:54.723Z</time></trkpt><trkpt lat="45.99912" lon="8.3031147"><ele>213.0</ele><time>2026-04-18T10:06:55.628Z</time></trkpt><trkpt lat="45.9991683" lon="8.3029735"><ele>213.60000000000002</ele><time>2026-04-18T10:06:56.626Z</time></trkpt><trkpt lat="45.9992156" lon="8.3028773"><ele>214.20000000000002</ele><time>2026-04-18T10:06:57.626Z</time></trkpt><trkpt lat="45.9992452" lon="8.3027354"><ele>214.8</ele><time>2026-04-18T10:06:59.631Z</time></trkpt><trkpt lat="45.9992618" lon="8.3025679"><ele>215.4</ele><time>2026-04-18T10:07:01.628Z</time></trkpt><trkpt lat="45.9992745" lon="8.3024606"><ele>216.0</ele><time>2026-04-18T10:07:02.627Z</time></trkpt><trkpt lat="45.9993045" lon="8.3023566"><ele>216.16666666666666</ele><time>2026-04-18T10:07:03.631Z</time></trkpt><trkpt lat="45.9993377" lon="8.302245"><ele>216.33333333333331</ele><time>2026-04-18T10:07:04.616Z</time></trkpt><trkpt lat="45.9993578" lon="8.302144"><ele>216.5</ele><time>2026-04-18T10:07:05.624Z</time></trkpt><trkpt lat="45.9993992" lon="8.301992"><ele>216.66666666666666</ele><time>2026-04-18T10:07:07.615Z</time></trkpt><trkpt lat="45.999416" lon="8.3018926"><ele>216.83333333333331</ele><time>2026-04-18T10:07:08.625Z</time></trkpt><trkpt lat="45.9994255" lon="8.3017908"><ele>217.0</ele><time>2026-04-18T10:07:09.625Z</time></trkpt><trkpt lat="45.9994307" lon="8.3016567"><ele>216.99999999999997</ele><time>2026-04-18T10:07:11.635Z</time></trkpt><trkpt lat="45.9994256" lon="8.3015653"><ele>217.0</ele><time>2026-04-18T10:07:13.626Z</time></trkpt><trkpt lat="45.9994296" lon="8.3014639"><ele>217.0</ele><time>2026-04-18T10:07:15.64Z</time></trkpt><trkpt lat="45.9994296" lon="8.3013705"><ele>217.0</ele><time>2026-04-18T10:07:17.631Z</time></trkpt><trkpt lat="45.9994335" lon="8.3012149"><ele>216.99999999999997</ele><time>2026-04-18T10:07:20.635Z</time></trkpt><trkpt lat="45.9994269" lon="8.3011098"><ele>217.0</ele><time>2026-04-18T10:07:22.64Z</time></trkpt><trkpt lat="45.9994033" lon="8.3010026"><ele>216.83333333333331</ele><time>2026-04-18T10:07:25.633Z</time></trkpt><trkpt lat="45.9994088" lon="8.3009122"><ele>216.66666666666666</ele><time>2026-04-18T10:07:27.642Z</time></trkpt><trkpt lat="45.9993758" lon="8.3007303"><ele>216.5</ele><time>2026-04-18T10:07:29.628Z</time></trkpt><trkpt lat="45.999343" lon="8.3006183"><ele>216.33333333333331</ele><time>2026-04-18T10:07:30.628Z</time></trkpt><trkpt lat="45.9993309" lon="8.3005213"><ele>216.16666666666666</ele><time>2026-04-18T10:07:31.64Z</time></trkpt><trkpt lat="45.9993439" lon="8.3003945"><ele>216.0</ele><time>2026-04-18T10:07:32.638Z</time></trkpt><trkpt lat="45.9993569" lon="8.3002691"><ele>216.0</ele><time>2026-04-18T10:07:33.636Z</time></trkpt><trkpt lat="45.9993635" lon="8.3001529"><ele>216.0</ele><time>2026-04-18T10:07:34.636Z</time></trkpt><trkpt lat="45.9993733" lon="8.3000459"><ele>216.0</ele><time>2026-04-18T10:07:35.633Z</time></trkpt><trkpt lat="45.9993673" lon="8.2999534"><ele>216.0</ele><time>2026-04-18T10:07:36.629Z</time></trkpt><trkpt lat="45.9993683" lon="8.2998618"><ele>216.0</ele><time>2026-04-18T10:07:37.622Z</time></trkpt><trkpt lat="45.99935" lon="8.299688"><ele>216.0</ele><time>2026-04-18T10:07:39.635Z</time></trkpt><trkpt lat="45.9993581" lon="8.2995954"><ele>216.0</ele><time>2026-04-18T10:07:40.632Z</time></trkpt><trkpt lat="45.9993997" lon="8.2995165"><ele>216.0</ele><time>2026-04-18T10:07:41.619Z</time></trkpt><trkpt lat="45.9994152" lon="8.2994246"><ele>216.0</ele><time>2026-04-18T10:07:42.638Z</time></trkpt><trkpt lat="45.9994252" lon="8.299323"><ele>216.0</ele><time>2026-04-18T10:07:43.627Z</time></trkpt><trkpt lat="45.9994449" lon="8.2992147"><ele>216.0</ele><time>2026-04-18T10:07:44.63Z</time></trkpt><trkpt lat="45.9994632" lon="8.2991131"><ele>216.0</ele><time>2026-04-18T10:07:45.641Z</time></trkpt><trkpt lat="45.9994633" lon="8.2990026"><ele>216.0</ele><time>2026-04-18T10:07:47.635Z</time></trkpt><trkpt lat="45.9994833" lon="8.2988678"><ele>216.20000000000002</ele><time>2026-04-18T10:07:49.624Z</time></trkpt><trkpt lat="45.9994748" lon="8.2987726"><ele>216.40000000000003</ele><time>2026-04-18T10:07:51.636Z</time></trkpt><trkpt lat="45.9994625" lon="8.2985952"><ele>216.6</ele><time>2026-04-18T10:07:53.622Z</time></trkpt><trkpt lat="45.9994686" lon="8.2984434"><ele>216.8</ele><time>2026-04-18T10:07:54.628Z</time></trkpt><trkpt lat="45.9994696" lon="8.2982983"><ele>217.0</ele><time>2026-04-18T10:07:55.621Z</time></trkpt><trkpt lat="45.9994795" lon="8.2981758"><ele>217.16666666666666</ele><time>2026-04-18T10:07:56.623Z</time></trkpt><trkpt lat="45.9994946" lon="8.2980599"><ele>217.33333333333331</ele><time>2026-04-18T10:07:57.619Z</time></trkpt><trkpt lat="45.9995203" lon="8.2979"><ele>217.5</ele><time>2026-04-18T10:07:59.616Z</time></trkpt><trkpt lat="45.9995541" lon="8.2978011"><ele>217.66666666666669</ele><time>2026-04-18T10:08:00.623Z</time></trkpt><trkpt lat="45.9995822" lon="8.2976946"><ele>217.83333333333334</ele><time>2026-04-18T10:08:01.642Z</time></trkpt><trkpt lat="45.9995948" lon="8.2976009"><ele>218.0</ele><time>2026-04-18T10:08:02.626Z</time></trkpt><trkpt lat="45.9996097" lon="8.2974993"><ele>218.00000000000003</ele><time>2026-04-18T10:08:03.635Z</time></trkpt><trkpt lat="45.9996304" lon="8.29739"><ele>218.0</ele><time>2026-04-18T10:08:04.622Z</time></trkpt><trkpt lat="45.9996587" lon="8.2972721"><ele>218.0</ele><time>2026-04-18T10:08:05.631Z</time></trkpt><trkpt lat="45.9997019" lon="8.2971518"><ele>218.0</ele><time>2026-04-18T10:08:06.643Z</time></trkpt><trkpt lat="45.9997313" lon="8.2970376"><ele>218.00000000000003</ele><time>2026-04-18T10:08:07.631Z</time></trkpt><trkpt lat="45.9997652" lon="8.2969022"><ele>218.0</ele><time>2026-04-18T10:08:08.627Z</time></trkpt><trkpt lat="45.9997931" lon="8.2967798"><ele>217.4</ele><time>2026-04-18T10:08:09.626Z</time></trkpt><trkpt lat="45.9998216" lon="8.296654"><ele>216.8</ele><time>2026-04-18T10:08:10.627Z</time></trkpt><trkpt lat="45.999858" lon="8.2965363"><ele>216.2</ele><time>2026-04-18T10:08:11.637Z</time></trkpt><trkpt lat="45.9998991" lon="8.2964147"><ele>215.6</ele><time>2026-04-18T10:08:12.627Z</time></trkpt><trkpt lat="45.9999249" lon="8.296291"><ele>215.0</ele><time>2026-04-18T10:08:13.629Z</time></trkpt><trkpt lat="45.9999741" lon="8.296153"><ele>215.0</ele><time>2026-04-18T10:08:14.628Z</time></trkpt><trkpt lat="46.0000147" lon="8.2960286"><ele>215.0</ele><time>2026-04-18T10:08:15.623Z</time></trkpt><trkpt lat="46.0000456" lon="8.2959105"><ele>215.0</ele><time>2026-04-18T10:08:16.626Z</time></trkpt><trkpt lat="46.0000742" lon="8.2957819"><ele>215.0</ele><time>2026-04-18T10:08:17.634Z</time></trkpt><trkpt lat="46.0001016" lon="8.2956448"><ele>215.0</ele><time>2026-04-18T10:08:18.627Z</time></trkpt><trkpt lat="46.0001335" lon="8.2955134"><ele>215.0</ele><time>2026-04-18T10:08:19.622Z</time></trkpt><trkpt lat="46.0001718" lon="8.2953842"><ele>215.0</ele><time>2026-04-18T10:08:20.633Z</time></trkpt><trkpt lat="46.0001913" lon="8.2952619"><ele>215.0</ele><time>2026-04-18T10:08:21.632Z</time></trkpt><trkpt lat="46.000212" lon="8.2951262"><ele>215.0</ele><time>2026-04-18T10:08:22.619Z</time></trkpt><trkpt lat="46.0002286" lon="8.2949985"><ele>215.0</ele><time>2026-04-18T10:08:23.648Z</time></trkpt><trkpt lat="46.0002367" lon="8.2948662"><ele>214.8</ele><time>2026-04-18T10:08:24.626Z</time></trkpt><trkpt lat="46.0002495" lon="8.2947347"><ele>214.6</ele><time>2026-04-18T10:08:25.626Z</time></trkpt><trkpt lat="46.0002667" lon="8.2946255"><ele>214.39999999999998</ele><time>2026-04-18T10:08:26.622Z</time></trkpt><trkpt lat="46.0002796" lon="8.2944961"><ele>214.2</ele><time>2026-04-18T10:08:28.63Z</time></trkpt><trkpt lat="46.0003045" lon="8.2943558"><ele>214.0</ele><time>2026-04-18T10:08:30.622Z</time></trkpt><trkpt lat="46.000362" lon="8.29424"><ele>214.0</ele><time>2026-04-18T10:08:32.624Z</time></trkpt><trkpt lat="46.0004877" lon="8.2942603"><ele>213.99999999999997</ele><time>2026-04-18T10:08:34.628Z</time></trkpt><trkpt lat="46.0006019" lon="8.2942361"><ele>213.99999999999997</ele><time>2026-04-18T10:08:36.617Z</time></trkpt><trkpt lat="46.0006784" lon="8.2941628"><ele>214.0</ele><time>2026-04-18T10:08:38.62Z</time></trkpt><trkpt lat="46.0007545" lon="8.2941253"><ele>214.0</ele><time>2026-04-18T10:08:41.617Z</time></trkpt><trkpt lat="46.0007995" lon="8.2940467"><ele>213.99999999999997</ele><time>2026-04-18T10:08:44.611Z</time></trkpt><trkpt lat="46.0008197" lon="8.2939421"><ele>214.0</ele><time>2026-04-18T10:08:46.612Z</time></trkpt><trkpt lat="46.0008685" lon="8.2938776"><ele>214.0</ele><time>2026-04-18T10:08:48.625Z</time></trkpt><trkpt lat="46.0009365" lon="8.2938315"><ele>214.0</ele><time>2026-04-18T10:08:50.625Z</time></trkpt><trkpt lat="46.0009861" lon="8.2937716"><ele>213.99999999999997</ele><time>2026-04-18T10:08:52.618Z</time></trkpt><trkpt lat="46.0010507" lon="8.2936803"><ele>214.0</ele><time>2026-04-18T10:08:54.647Z</time></trkpt><trkpt lat="46.0011401" lon="8.2935985"><ele>214.2</ele><time>2026-04-18T10:08:56.628Z</time></trkpt><trkpt lat="46.0012417" lon="8.2934859"><ele>214.39999999999998</ele><time>2026-04-18T10:08:58.624Z</time></trkpt><trkpt lat="46.0012989" lon="8.2934118"><ele>214.6</ele><time>2026-04-18T10:08:59.626Z</time></trkpt><trkpt lat="46.0013597" lon="8.2933192"><ele>214.8</ele><time>2026-04-18T10:09:00.625Z</time></trkpt><trkpt lat="46.0014189" lon="8.2932256"><ele>215.0</ele><time>2026-04-18T10:09:01.621Z</time></trkpt><trkpt lat="46.0014523" lon="8.2931376"><ele>215.16666666666669</ele><time>2026-04-18T10:09:02.613Z</time></trkpt><trkpt lat="46.0015269" lon="8.2929984"><ele>215.33333333333334</ele><time>2026-04-18T10:09:04.621Z</time></trkpt><trkpt lat="46.0015708" lon="8.2929074"><ele>215.5</ele><time>2026-04-18T10:09:05.621Z</time></trkpt><trkpt lat="46.0016194" lon="8.2928332"><ele>215.66666666666669</ele><time>2026-04-18T10:09:06.62Z</time></trkpt><trkpt lat="46.0016724" lon="8.2927592"><ele>215.83333333333334</ele><time>2026-04-18T10:09:08.628Z</time></trkpt><trkpt lat="46.0017412" lon="8.2927127"><ele>216.0</ele><time>2026-04-18T10:09:10.63Z</time></trkpt><trkpt lat="46.0018064" lon="8.292631"><ele>216.0</ele><time>2026-04-18T10:09:12.624Z</time></trkpt><trkpt lat="46.0018485" lon="8.2925308"><ele>216.0</ele><time>2026-04-18T10:09:14.62Z</time></trkpt><trkpt lat="46.0018364" lon="8.2924203"><ele>216.0</ele><time>2026-04-18T10:09:17.636Z</time></trkpt><trkpt lat="46.0018749" lon="8.2923047"><ele>216.0</ele><time>2026-04-18T10:09:20.625Z</time></trkpt><trkpt lat="46.0019402" lon="8.2922109"><ele>216.0</ele><time>2026-04-18T10:09:22.632Z</time></trkpt><trkpt lat="46.0019472" lon="8.2920864"><ele>216.0</ele><time>2026-04-18T10:09:24.636Z</time></trkpt><trkpt lat="46.0019063" lon="8.2919248"><ele>216.16666666666666</ele><time>2026-04-18T10:09:26.63Z</time></trkpt><trkpt lat="46.0019088" lon="8.2918232"><ele>216.33333333333331</ele><time>2026-04-18T10:09:28.623Z</time></trkpt><trkpt lat="46.0019846" lon="8.2917364"><ele>216.5</ele><time>2026-04-18T10:09:30.635Z</time></trkpt><trkpt lat="46.0021095" lon="8.2916882"><ele>216.66666666666666</ele><time>2026-04-18T10:09:32.623Z</time></trkpt><trkpt lat="46.0021801" lon="8.2916867"><ele>216.83333333333331</ele><time>2026-04-18T10:09:34.622Z</time></trkpt><trkpt lat="46.0021429" lon="8.2915868"><ele>217.0</ele><time>2026-04-18T10:09:38.632Z</time></trkpt><trkpt lat="46.0020753" lon="8.2914942"><ele>216.6</ele><time>2026-04-18T10:09:41.62Z</time></trkpt><trkpt lat="46.0020379" lon="8.2913937"><ele>216.2</ele><time>2026-04-18T10:09:43.61Z</time></trkpt><trkpt lat="46.0020459" lon="8.2912528"><ele>215.8</ele><time>2026-04-18T10:09:45.639Z</time></trkpt><trkpt lat="46.0020522" lon="8.2910781"><ele>215.4</ele><time>2026-04-18T10:09:47.628Z</time></trkpt><trkpt lat="46.0020469" lon="8.2909705"><ele>215.0</ele><time>2026-04-18T10:09:48.619Z</time></trkpt><trkpt lat="46.0020786" lon="8.2908449"><ele>215.0</ele><time>2026-04-18T10:09:50.621Z</time></trkpt><trkpt lat="46.0020753" lon="8.290748"><ele>215.0</ele><time>2026-04-18T10:09:52.623Z</time></trkpt><trkpt lat="46.0020864" lon="8.290626"><ele>215.0</ele><time>2026-04-18T10:09:54.624Z</time></trkpt><trkpt lat="46.0020586" lon="8.2905329"><ele>215.0</ele><time>2026-04-18T10:09:56.651Z</time></trkpt><trkpt lat="46.0020493" lon="8.2906324"><ele>215.0</ele><time>2026-04-18T10:10:17.602Z</time></trkpt><trkpt lat="46.0020126" lon="8.2905523"><ele>215.0</ele><time>2026-04-18T10:10:20.618Z</time></trkpt><trkpt lat="46.0020732" lon="8.2904669"><ele>215.0</ele><time>2026-04-18T10:10:22.62Z</time></trkpt><trkpt lat="46.0020957" lon="8.2903416"><ele>214.4</ele><time>2026-04-18T10:10:24.626Z</time></trkpt><trkpt lat="46.0020791" lon="8.2901675"><ele>213.8</ele><time>2026-04-18T10:10:26.626Z</time></trkpt><trkpt lat="46.0020747" lon="8.2900229"><ele>213.2</ele><time>2026-04-18T10:10:28.619Z</time></trkpt><trkpt lat="46.0020819" lon="8.2898864"><ele>212.6</ele><time>2026-04-18T10:10:30.622Z</time></trkpt><trkpt lat="46.0021014" lon="8.2897478"><ele>212.0</ele><time>2026-04-18T10:10:32.612Z</time></trkpt><trkpt lat="46.0021562" lon="8.2896275"><ele>212.16666666666669</ele><time>2026-04-18T10:10:34.613Z</time></trkpt><trkpt lat="46.002224" lon="8.2895194"><ele>212.33333333333334</ele><time>2026-04-18T10:10:36.629Z</time></trkpt><trkpt lat="46.0023158" lon="8.2894422"><ele>212.5</ele><time>2026-04-18T10:10:38.62Z</time></trkpt><trkpt lat="46.0023734" lon="8.2894034"><ele>212.66666666666669</ele><time>2026-04-18T10:10:39.627Z</time></trkpt><trkpt lat="46.0024254" lon="8.289348"><ele>212.83333333333334</ele><time>2026-04-18T10:10:40.627Z</time></trkpt><trkpt lat="46.0024855" lon="8.2892954"><ele>213.0</ele><time>2026-04-18T10:10:41.621Z</time></trkpt><trkpt lat="46.0025464" lon="8.2892493"><ele>213.0</ele><time>2026-04-18T10:10:42.627Z</time></trkpt><trkpt lat="46.0026409" lon="8.2891633"><ele>213.0</ele><time>2026-04-18T10:10:44.614Z</time></trkpt><trkpt lat="46.0026942" lon="8.2890693"><ele>213.0</ele><time>2026-04-18T10:10:46.618Z</time></trkpt><trkpt lat="46.0027413" lon="8.2889662"><ele>213.0</ele><time>2026-04-18T10:10:48.607Z</time></trkpt><trkpt lat="46.0027571" lon="8.2888152"><ele>213.0</ele><time>2026-04-18T10:10:50.62Z</time></trkpt><trkpt lat="46.0027549" lon="8.2887079"><ele>213.16666666666666</ele><time>2026-04-18T10:10:51.615Z</time></trkpt><trkpt lat="46.0027797" lon="8.2886208"><ele>213.33333333333331</ele><time>2026-04-18T10:10:52.616Z</time></trkpt><trkpt lat="46.0028412" lon="8.2885203"><ele>213.5</ele><time>2026-04-18T10:10:54.617Z</time></trkpt><trkpt lat="46.0029095" lon="8.2884177"><ele>213.66666666666666</ele><time>2026-04-18T10:10:56.614Z</time></trkpt><trkpt lat="46.0029534" lon="8.2882968"><ele>213.83333333333331</ele><time>2026-04-18T10:10:58.638Z</time></trkpt><trkpt lat="46.0029658" lon="8.2881662"><ele>214.0</ele><time>2026-04-18T10:11:00.608Z</time></trkpt><trkpt lat="46.0030254" lon="8.288054"><ele>213.99999999999997</ele><time>2026-04-18T10:11:02.612Z</time></trkpt><trkpt lat="46.0030714" lon="8.287944"><ele>214.0</ele><time>2026-04-18T10:11:04.622Z</time></trkpt><trkpt lat="46.0031099" lon="8.2878222"><ele>214.0</ele><time>2026-04-18T10:11:06.62Z</time></trkpt><trkpt lat="46.0031568" lon="8.2877024"><ele>214.0</ele><time>2026-04-18T10:11:08.624Z</time></trkpt><trkpt lat="46.0032076" lon="8.2876095"><ele>213.99999999999997</ele><time>2026-04-18T10:11:10.621Z</time></trkpt><trkpt lat="46.0032772" lon="8.2875763"><ele>214.0</ele><time>2026-04-18T10:11:17.615Z</time></trkpt><trkpt lat="46.003329" lon="8.287515"><ele>214.0</ele><time>2026-04-18T10:11:21.613Z</time></trkpt><trkpt lat="46.0033501" lon="8.2874036"><ele>213.99999999999997</ele><time>2026-04-18T10:11:25.619Z</time></trkpt><trkpt lat="46.0033717" lon="8.2872638"><ele>213.99999999999997</ele><time>2026-04-18T10:11:28.624Z</time></trkpt><trkpt lat="46.003392" lon="8.2871172"><ele>214.0</ele><time>2026-04-18T10:11:30.627Z</time></trkpt><trkpt lat="46.0034583" lon="8.2870166"><ele>214.0</ele><time>2026-04-18T10:11:32.615Z</time></trkpt><trkpt lat="46.0035136" lon="8.2869545"><ele>213.99999999999997</ele><time>2026-04-18T10:11:34.614Z</time></trkpt><trkpt lat="46.003565" lon="8.286843"><ele>214.0</ele><time>2026-04-18T10:11:37.609Z</time></trkpt><trkpt lat="46.0036036" lon="8.2867398"><ele>214.0</ele><time>2026-04-18T10:11:39.614Z</time></trkpt><trkpt lat="46.0036699" lon="8.2866598"><ele>214.0</ele><time>2026-04-18T10:11:42.612Z</time></trkpt><trkpt lat="46.0036958" lon="8.2865645"><ele>213.99999999999997</ele><time>2026-04-18T10:11:44.614Z</time></trkpt><trkpt lat="46.0037335" lon="8.2864653"><ele>214.0</ele><time>2026-04-18T10:11:46.613Z</time></trkpt><trkpt lat="46.0037534" lon="8.2863507"><ele>213.99999999999997</ele><time>2026-04-18T10:11:49.618Z</time></trkpt><trkpt lat="46.0038303" lon="8.2862465"><ele>214.0</ele><time>2026-04-18T10:11:52.622Z</time></trkpt><trkpt lat="46.0039035" lon="8.2862037"><ele>214.0</ele><time>2026-04-18T10:11:54.621Z</time></trkpt><trkpt lat="46.0039616" lon="8.2860878"><ele>214.0</ele><time>2026-04-18T10:11:57.62Z</time></trkpt><trkpt lat="46.0040118" lon="8.2860001"><ele>213.99999999999997</ele><time>2026-04-18T10:11:59.612Z</time></trkpt><trkpt lat="46.0040748" lon="8.2859552"><ele>214.0</ele><time>2026-04-18T10:12:03.619Z</time></trkpt><trkpt lat="46.0041016" lon="8.2858617"><ele>214.0</ele><time>2026-04-18T10:12:06.614Z</time></trkpt><trkpt lat="46.0041233" lon="8.285752"><ele>213.99999999999997</ele><time>2026-04-18T10:12:08.619Z</time></trkpt><trkpt lat="46.0041529" lon="8.2856478"><ele>213.99999999999997</ele><time>2026-04-18T10:12:10.623Z</time></trkpt><trkpt lat="46.0042117" lon="8.2854517"><ele>214.0</ele><time>2026-04-18T10:12:13.629Z</time></trkpt><trkpt lat="46.0043091" lon="8.2853423"><ele>214.0</ele><time>2026-04-18T10:12:15.618Z</time></trkpt><trkpt lat="46.0043986" lon="8.285251"><ele>214.0</ele><time>2026-04-18T10:12:17.622Z</time></trkpt><trkpt lat="46.0044876" lon="8.2851677"><ele>213.99999999999997</ele><time>2026-04-18T10:12:19.625Z</time></trkpt><trkpt lat="46.0045766" lon="8.285052"><ele>213.99999999999997</ele><time>2026-04-18T10:12:21.626Z</time></trkpt><trkpt lat="46.0046671" lon="8.2849865"><ele>214.0</ele><time>2026-04-18T10:12:23.615Z</time></trkpt><trkpt lat="46.0047478" lon="8.2849369"><ele>214.0</ele><time>2026-04-18T10:12:25.621Z</time></trkpt><trkpt lat="46.0048047" lon="8.284897"><ele>213.99999999999997</ele><time>2026-04-18T10:12:26.616Z</time></trkpt><trkpt lat="46.004849" lon="8.2848051"><ele>214.0</ele><time>2026-04-18T10:12:29.621Z</time></trkpt><trkpt lat="46.0048681" lon="8.2847041"><ele>214.0</ele><time>2026-04-18T10:12:31.633Z</time></trkpt><trkpt lat="46.0048629" lon="8.2845935"><ele>214.0</ele><time>2026-04-18T10:12:35.612Z</time></trkpt><trkpt lat="46.0049089" lon="8.2845176"><ele>213.99999999999997</ele><time>2026-04-18T10:12:37.616Z</time></trkpt><trkpt lat="46.0050212" lon="8.2844495"><ele>214.0</ele><time>2026-04-18T10:12:39.605Z</time></trkpt><trkpt lat="46.0050838" lon="8.2844231"><ele>214.33333333333331</ele><time>2026-04-18T10:12:40.608Z</time></trkpt><trkpt lat="46.0051553" lon="8.2844004"><ele>214.66666666666666</ele><time>2026-04-18T10:12:41.607Z</time></trkpt><trkpt lat="46.0052237" lon="8.2843424"><ele>215.0</ele><time>2026-04-18T10:12:42.602Z</time></trkpt><trkpt lat="46.005296" lon="8.2842944"><ele>215.33333333333331</ele><time>2026-04-18T10:12:43.599Z</time></trkpt><trkpt lat="46.0053664" lon="8.2842297"><ele>215.66666666666666</ele><time>2026-04-18T10:12:44.602Z</time></trkpt><trkpt lat="46.0054351" lon="8.2841585"><ele>216.0</ele><time>2026-04-18T10:12:45.601Z</time></trkpt><trkpt lat="46.0055281" lon="8.2840577"><ele>216.0</ele><time>2026-04-18T10:12:47.611Z</time></trkpt><trkpt lat="46.0055904" lon="8.2840249"><ele>216.0</ele><time>2026-04-18T10:12:48.607Z</time></trkpt><trkpt lat="46.0056651" lon="8.2839927"><ele>216.0</ele><time>2026-04-18T10:12:49.605Z</time></trkpt><trkpt lat="46.0057246" lon="8.2839471"><ele>216.0</ele><time>2026-04-18T10:12:50.602Z</time></trkpt><trkpt lat="46.0057922" lon="8.2838835"><ele>216.0</ele><time>2026-04-18T10:12:51.602Z</time></trkpt><trkpt lat="46.0058667" lon="8.2838429"><ele>216.0</ele><time>2026-04-18T10:12:52.608Z</time></trkpt><trkpt lat="46.0059419" lon="8.2837983"><ele>215.85714285714286</ele><time>2026-04-18T10:12:53.609Z</time></trkpt><trkpt lat="46.0060153" lon="8.2837614"><ele>215.71428571428572</ele><time>2026-04-18T10:12:54.619Z</time></trkpt><trkpt lat="46.0060818" lon="8.2837242"><ele>215.57142857142856</ele><time>2026-04-18T10:12:55.614Z</time></trkpt><trkpt lat="46.0061566" lon="8.2836969"><ele>215.42857142857144</ele><time>2026-04-18T10:12:56.608Z</time></trkpt><trkpt lat="46.0062274" lon="8.2836823"><ele>215.2857142857143</ele><time>2026-04-18T10:12:57.608Z</time></trkpt><trkpt lat="46.0063002" lon="8.2836758"><ele>215.14285714285714</ele><time>2026-04-18T10:12:58.607Z</time></trkpt><trkpt lat="46.00637" lon="8.2836639"><ele>215.0</ele><time>2026-04-18T10:12:59.607Z</time></trkpt><trkpt lat="46.0064382" lon="8.2836382"><ele>215.0</ele><time>2026-04-18T10:13:00.611Z</time></trkpt><trkpt lat="46.0065099" lon="8.283602"><ele>215.0</ele><time>2026-04-18T10:13:01.609Z</time></trkpt><trkpt lat="46.0065755" lon="8.2835638"><ele>215.0</ele><time>2026-04-18T10:13:02.65Z</time></trkpt><trkpt lat="46.0066368" lon="8.2835215"><ele>215.0</ele><time>2026-04-18T10:13:03.608Z</time></trkpt><trkpt lat="46.0066981" lon="8.2834848"><ele>215.0</ele><time>2026-04-18T10:13:04.609Z</time></trkpt><trkpt lat="46.0067662" lon="8.283438"><ele>215.0</ele><time>2026-04-18T10:13:05.607Z</time></trkpt><trkpt lat="46.0068333" lon="8.2834032"><ele>215.0</ele><time>2026-04-18T10:13:06.615Z</time></trkpt><trkpt lat="46.0069328" lon="8.2833541"><ele>215.2</ele><time>2026-04-18T10:13:08.608Z</time></trkpt><trkpt lat="46.0070482" lon="8.2833131"><ele>215.4</ele><time>2026-04-18T10:13:10.619Z</time></trkpt><trkpt lat="46.0071057" lon="8.2832746"><ele>215.60000000000002</ele><time>2026-04-18T10:13:11.609Z</time></trkpt><trkpt lat="46.0072231" lon="8.2832042"><ele>215.8</ele><time>2026-04-18T10:13:13.607Z</time></trkpt><trkpt lat="46.0073292" lon="8.283148"><ele>216.0</ele><time>2026-04-18T10:13:15.605Z</time></trkpt><trkpt lat="46.007444" lon="8.2831152"><ele>216.16666666666666</ele><time>2026-04-18T10:13:17.608Z</time></trkpt><trkpt lat="46.0075092" lon="8.2830993"><ele>216.33333333333331</ele><time>2026-04-18T10:13:18.611Z</time></trkpt><trkpt lat="46.0075751" lon="8.2830885"><ele>216.5</ele><time>2026-04-18T10:13:19.616Z</time></trkpt><trkpt lat="46.0076853" lon="8.2830531"><ele>216.66666666666666</ele><time>2026-04-18T10:13:21.626Z</time></trkpt><trkpt lat="46.0077966" lon="8.2830147"><ele>216.83333333333331</ele><time>2026-04-18T10:13:23.62Z</time></trkpt><trkpt lat="46.0078611" lon="8.2829869"><ele>217.0</ele><time>2026-04-18T10:13:24.628Z</time></trkpt><trkpt lat="46.0079278" lon="8.2829508"><ele>216.8</ele><time>2026-04-18T10:13:25.621Z</time></trkpt><trkpt lat="46.0079936" lon="8.282924"><ele>216.6</ele><time>2026-04-18T10:13:26.617Z</time></trkpt><trkpt lat="46.0080632" lon="8.2828985"><ele>216.40000000000003</ele><time>2026-04-18T10:13:27.626Z</time></trkpt><trkpt lat="46.008181" lon="8.2828682"><ele>216.20000000000002</ele><time>2026-04-18T10:13:29.612Z</time></trkpt><trkpt lat="46.0083013" lon="8.2828322"><ele>216.0</ele><time>2026-04-18T10:13:31.616Z</time></trkpt><trkpt lat="46.0083989" lon="8.2828096"><ele>216.0</ele><time>2026-04-18T10:13:33.607Z</time></trkpt><trkpt lat="46.0084551" lon="8.2827292"><ele>216.0</ele><time>2026-04-18T10:13:35.615Z</time></trkpt><trkpt lat="46.0085456" lon="8.2826719"><ele>216.0</ele><time>2026-04-18T10:13:37.611Z</time></trkpt><trkpt lat="46.008667" lon="8.2826454"><ele>216.0</ele><time>2026-04-18T10:13:39.614Z</time></trkpt><trkpt lat="46.0087335" lon="8.2826092"><ele>216.0</ele><time>2026-04-18T10:13:40.617Z</time></trkpt><trkpt lat="46.0088016" lon="8.2825637"><ele>216.0</ele><time>2026-04-18T10:13:41.614Z</time></trkpt><trkpt lat="46.0089056" lon="8.2825122"><ele>216.0</ele><time>2026-04-18T10:13:43.613Z</time></trkpt><trkpt lat="46.0090032" lon="8.2824819"><ele>216.00000000000003</ele><time>2026-04-18T10:13:45.614Z</time></trkpt><trkpt lat="46.0090765" lon="8.2824969"><ele>216.00000000000003</ele><time>2026-04-18T10:13:47.614Z</time></trkpt><trkpt lat="46.0091258" lon="8.2826239"><ele>216.0</ele><time>2026-04-18T10:13:50.624Z</time></trkpt><trkpt lat="46.009115" lon="8.2827591"><ele>216.0</ele><time>2026-04-18T10:13:52.632Z</time></trkpt><trkpt lat="46.0090604" lon="8.2828513"><ele>216.0</ele><time>2026-04-18T10:13:54.612Z</time></trkpt><trkpt lat="46.0090589" lon="8.2829748"><ele>216.00000000000003</ele><time>2026-04-18T10:13:56.62Z</time></trkpt><trkpt lat="46.0090327" lon="8.2831112"><ele>216.00000000000003</ele><time>2026-04-18T10:13:58.612Z</time></trkpt><trkpt lat="46.0090878" lon="8.2831889"><ele>216.0</ele><time>2026-04-18T10:14:01.628Z</time></trkpt><trkpt lat="46.0091881" lon="8.2831725"><ele>216.0</ele><time>2026-04-18T10:14:02.605Z</time></trkpt><trkpt lat="46.0092878" lon="8.2831554"><ele>216.8</ele><time>2026-04-18T10:14:03.63Z</time></trkpt><trkpt lat="46.0093843" lon="8.2831432"><ele>217.60000000000002</ele><time>2026-04-18T10:14:04.612Z</time></trkpt><trkpt lat="46.0094861" lon="8.2831455"><ele>218.4</ele><time>2026-04-18T10:14:05.61Z</time></trkpt><trkpt lat="46.0095853" lon="8.2831315"><ele>219.2</ele><time>2026-04-18T10:14:06.6Z</time></trkpt><trkpt lat="46.0096783" lon="8.2831164"><ele>220.0</ele><time>2026-04-18T10:14:07.605Z</time></trkpt><trkpt lat="46.0097728" lon="8.2831207"><ele>219.99999999999997</ele><time>2026-04-18T10:14:08.616Z</time></trkpt><trkpt lat="46.0098393" lon="8.2831335"><ele>220.0</ele><time>2026-04-18T10:14:09.603Z</time></trkpt><trkpt lat="46.0099131" lon="8.2831754"><ele>220.0</ele><time>2026-04-18T10:14:10.604Z</time></trkpt><trkpt lat="46.0099846" lon="8.2832469"><ele>220.0</ele><time>2026-04-18T10:14:11.612Z</time></trkpt><trkpt lat="46.0100509" lon="8.2833123"><ele>219.99999999999997</ele><time>2026-04-18T10:14:12.614Z</time></trkpt><trkpt lat="46.0100986" lon="8.283372"><ele>220.0</ele><time>2026-04-18T10:14:13.616Z</time></trkpt><trkpt lat="46.0101821" lon="8.2834803"><ele>220.0</ele><time>2026-04-18T10:14:15.612Z</time></trkpt><trkpt lat="46.0101872" lon="8.2835866"><ele>220.0</ele><time>2026-04-18T10:14:25.624Z</time></trkpt><trkpt lat="46.0101199" lon="8.2836396"><ele>220.0</ele><time>2026-04-18T10:14:27.62Z</time></trkpt><trkpt lat="46.0099705" lon="8.2836883"><ele>220.0</ele><time>2026-04-18T10:14:29.613Z</time></trkpt><trkpt lat="46.0098479" lon="8.2837391"><ele>220.0</ele><time>2026-04-18T10:14:30.604Z</time></trkpt><trkpt lat="46.009711" lon="8.2837687"><ele>219.99999999999997</ele><time>2026-04-18T10:14:31.616Z</time></trkpt><trkpt lat="46.009594" lon="8.2837609"><ele>220.0</ele><time>2026-04-18T10:14:32.615Z</time></trkpt><trkpt lat="46.0095045" lon="8.2837867"><ele>220.0</ele><time>2026-04-18T10:14:33.611Z</time></trkpt><trkpt lat="46.0094386" lon="8.2838372"><ele>220.0</ele><time>2026-04-18T10:14:34.632Z</time></trkpt><trkpt lat="46.0094033" lon="8.2839202"><ele>219.99999999999997</ele><time>2026-04-18T10:14:35.626Z</time></trkpt><trkpt lat="46.0094059" lon="8.2840178"><ele>220.0</ele><time>2026-04-18T10:14:36.615Z</time></trkpt><trkpt lat="46.0094173" lon="8.2841354"><ele>220.0</ele><time>2026-04-18T10:14:37.607Z</time></trkpt><trkpt lat="46.0094429" lon="8.2842257"><ele>220.0</ele><time>2026-04-18T10:14:38.615Z</time></trkpt><trkpt lat="46.0093985" lon="8.2843078"><ele>220.0</ele><time>2026-04-18T10:14:41.614Z</time></trkpt><trkpt lat="46.0093174" lon="8.2841625"><ele>220.0</ele><time>2026-04-18T10:14:43.62Z</time></trkpt><trkpt lat="46.0092622" lon="8.2840052"><ele>220.0</ele><time>2026-04-18T10:14:45.809Z</time></trkpt><trkpt lat="46.0092433" lon="8.2838595"><ele>220.0</ele><time>2026-04-18T10:14:47.621Z</time></trkpt><trkpt lat="46.0092505" lon="8.2837201"><ele>220.0</ele><time>2026-04-18T10:14:48.625Z</time></trkpt><trkpt lat="46.0092656" lon="8.2835439"><ele>220.0</ele><time>2026-04-18T10:14:49.622Z</time></trkpt><trkpt lat="46.0092738" lon="8.2833624"><ele>220.0</ele><time>2026-04-18T10:14:50.628Z</time></trkpt><trkpt lat="46.0092709" lon="8.283191"><ele>219.5</ele><time>2026-04-18T10:14:51.627Z</time></trkpt><trkpt lat="46.0092781" lon="8.283006"><ele>219.0</ele><time>2026-04-18T10:14:52.628Z</time></trkpt><trkpt lat="46.0092846" lon="8.2828218"><ele>218.5</ele><time>2026-04-18T10:14:53.619Z</time></trkpt><trkpt lat="46.0092982" lon="8.282642"><ele>218.0</ele><time>2026-04-18T10:14:54.622Z</time></trkpt><trkpt lat="46.0093086" lon="8.2824633"><ele>218.0</ele><time>2026-04-18T10:14:55.618Z</time></trkpt><trkpt lat="46.00931" lon="8.2822901"><ele>218.0</ele><time>2026-04-18T10:14:56.613Z</time></trkpt><trkpt lat="46.0093178" lon="8.2821319"><ele>218.0</ele><time>2026-04-18T10:14:57.633Z</time></trkpt><trkpt lat="46.0093347" lon="8.2819681"><ele>218.0</ele><time>2026-04-18T10:14:58.615Z</time></trkpt><trkpt lat="46.0093593" lon="8.281799"><ele>218.2</ele><time>2026-04-18T10:14:59.623Z</time></trkpt><trkpt lat="46.0093602" lon="8.2816316"><ele>218.4</ele><time>2026-04-18T10:15:00.626Z</time></trkpt><trkpt lat="46.0093594" lon="8.28146"><ele>218.59999999999997</ele><time>2026-04-18T10:15:01.628Z</time></trkpt><trkpt lat="46.0093563" lon="8.2813054"><ele>218.79999999999998</ele><time>2026-04-18T10:15:02.614Z</time></trkpt><trkpt lat="46.0093703" lon="8.2811559"><ele>219.0</ele><time>2026-04-18T10:15:03.62Z</time></trkpt><trkpt lat="46.009404" lon="8.2810329"><ele>219.79999999999998</ele><time>2026-04-18T10:15:04.622Z</time></trkpt><trkpt lat="46.0094263" lon="8.280884"><ele>220.59999999999997</ele><time>2026-04-18T10:15:05.643Z</time></trkpt><trkpt lat="46.0094717" lon="8.2807751"><ele>221.4</ele><time>2026-04-18T10:15:06.629Z</time></trkpt><trkpt lat="46.00951" lon="8.2806358"><ele>222.2</ele><time>2026-04-18T10:15:08.622Z</time></trkpt><trkpt lat="46.0095827" lon="8.2806719"><ele>223.0</ele><time>2026-04-18T10:15:11.614Z</time></trkpt><trkpt lat="46.0096247" lon="8.2808082"><ele>223.0</ele><time>2026-04-18T10:15:12.616Z</time></trkpt><trkpt lat="46.0096448" lon="8.2809268"><ele>223.0</ele><time>2026-04-18T10:15:13.617Z</time></trkpt><trkpt lat="46.0097101" lon="8.2810033"><ele>223.0</ele><time>2026-04-18T10:15:15.621Z</time></trkpt><trkpt lat="46.0098296" lon="8.2810436"><ele>223.0</ele><time>2026-04-18T10:15:17.611Z</time></trkpt><trkpt lat="46.0099095" lon="8.2810795"><ele>223.0</ele><time>2026-04-18T10:15:18.623Z</time></trkpt><trkpt lat="46.0100012" lon="8.2811446"><ele>222.60000000000002</ele><time>2026-04-18T10:15:19.63Z</time></trkpt><trkpt lat="46.0100806" lon="8.2811853"><ele>222.20000000000002</ele><time>2026-04-18T10:15:20.634Z</time></trkpt><trkpt lat="46.0101596" lon="8.2811868"><ele>221.8</ele><time>2026-04-18T10:15:21.633Z</time></trkpt><trkpt lat="46.0102777" lon="8.2811612"><ele>221.4</ele><time>2026-04-18T10:15:22.636Z</time></trkpt><trkpt lat="46.0104289" lon="8.281118"><ele>221.0</ele><time>2026-04-18T10:15:23.624Z</time></trkpt><trkpt lat="46.0105694" lon="8.2810556"><ele>221.0</ele><time>2026-04-18T10:15:24.637Z</time></trkpt><trkpt lat="46.0106865" lon="8.2810259"><ele>221.0</ele><time>2026-04-18T10:15:25.619Z</time></trkpt><trkpt lat="46.0108098" lon="8.2810033"><ele>221.0</ele><time>2026-04-18T10:15:26.619Z</time></trkpt><trkpt lat="46.0109222" lon="8.2809837"><ele>221.0</ele><time>2026-04-18T10:15:27.633Z</time></trkpt><trkpt lat="46.0110337" lon="8.280953"><ele>220.5</ele><time>2026-04-18T10:15:28.633Z</time></trkpt><trkpt lat="46.0111322" lon="8.2809057"><ele>220.0</ele><time>2026-04-18T10:15:29.63Z</time></trkpt><trkpt lat="46.0112645" lon="8.2808532"><ele>219.5</ele><time>2026-04-18T10:15:30.628Z</time></trkpt><trkpt lat="46.011383" lon="8.2807882"><ele>219.0</ele><time>2026-04-18T10:15:31.631Z</time></trkpt><trkpt lat="46.0114781" lon="8.2807454"><ele>219.0</ele><time>2026-04-18T10:15:32.619Z</time></trkpt><trkpt lat="46.0115787" lon="8.2807198"><ele>219.0</ele><time>2026-04-18T10:15:33.619Z</time></trkpt><trkpt lat="46.0116772" lon="8.280721"><ele>219.0</ele><time>2026-04-18T10:15:34.628Z</time></trkpt><trkpt lat="46.0118093" lon="8.280766"><ele>219.0</ele><time>2026-04-18T10:15:35.619Z</time></trkpt><trkpt lat="46.0119697" lon="8.2808355"><ele>219.5</ele><time>2026-04-18T10:15:36.639Z</time></trkpt><trkpt lat="46.0121328" lon="8.2809051"><ele>220.0</ele><time>2026-04-18T10:15:37.614Z</time></trkpt><trkpt lat="46.0122603" lon="8.2809398"><ele>220.5</ele><time>2026-04-18T10:15:38.615Z</time></trkpt><trkpt lat="46.0123812" lon="8.2809665"><ele>221.0</ele><time>2026-04-18T10:15:39.619Z</time></trkpt><trkpt lat="46.012497" lon="8.2809658"><ele>221.25</ele><time>2026-04-18T10:15:40.631Z</time></trkpt><trkpt lat="46.0126129" lon="8.2809646"><ele>221.5</ele><time>2026-04-18T10:15:41.621Z</time></trkpt><trkpt lat="46.0127205" lon="8.2809391"><ele>221.75</ele><time>2026-04-18T10:15:42.617Z</time></trkpt><trkpt lat="46.0128403" lon="8.2809469"><ele>222.0</ele><time>2026-04-18T10:15:43.618Z</time></trkpt><trkpt lat="46.0130914" lon="8.281045"><ele>222.0</ele><time>2026-04-18T10:15:45.619Z</time></trkpt><trkpt lat="46.0132459" lon="8.2811369"><ele>222.0</ele><time>2026-04-18T10:15:46.625Z</time></trkpt><trkpt lat="46.013362" lon="8.2811804"><ele>222.0</ele><time>2026-04-18T10:15:47.617Z</time></trkpt><trkpt lat="46.0134918" lon="8.2812151"><ele>222.0</ele><time>2026-04-18T10:15:48.616Z</time></trkpt><trkpt lat="46.0135883" lon="8.2812131"><ele>221.8</ele><time>2026-04-18T10:15:49.622Z</time></trkpt><trkpt lat="46.0136886" lon="8.281239"><ele>221.6</ele><time>2026-04-18T10:15:50.621Z</time></trkpt><trkpt lat="46.0137867" lon="8.2812745"><ele>221.40000000000003</ele><time>2026-04-18T10:15:51.614Z</time></trkpt><trkpt lat="46.0138763" lon="8.2813082"><ele>221.20000000000002</ele><time>2026-04-18T10:15:52.617Z</time></trkpt><trkpt lat="46.0139926" lon="8.2813579"><ele>221.0</ele><time>2026-04-18T10:15:53.625Z</time></trkpt><trkpt lat="46.0141033" lon="8.2814069"><ele>220.50000000000003</ele><time>2026-04-18T10:15:54.624Z</time></trkpt><trkpt lat="46.0141943" lon="8.2814408"><ele>220.0</ele><time>2026-04-18T10:15:55.62Z</time></trkpt><trkpt lat="46.0142706" lon="8.281486"><ele>219.5</ele><time>2026-04-18T10:15:56.618Z</time></trkpt><trkpt lat="46.0143356" lon="8.2815532"><ele>219.0</ele><time>2026-04-18T10:15:57.617Z</time></trkpt><trkpt lat="46.0143876" lon="8.2816199"><ele>218.50000000000003</ele><time>2026-04-18T10:15:58.603Z</time></trkpt><trkpt lat="46.0144817" lon="8.2816883"><ele>218.0</ele><time>2026-04-18T10:16:00.62Z</time></trkpt><trkpt lat="46.0145518" lon="8.2816314"><ele>218.0</ele><time>2026-04-18T10:16:01.624Z</time></trkpt><trkpt lat="46.0146374" lon="8.281569"><ele>218.0</ele><time>2026-04-18T10:16:02.609Z</time></trkpt><trkpt lat="46.0147287" lon="8.2815232"><ele>218.0</ele><time>2026-04-18T10:16:03.617Z</time></trkpt><trkpt lat="46.0148237" lon="8.2814694"><ele>218.0</ele><time>2026-04-18T10:16:04.62Z</time></trkpt><trkpt lat="46.0149311" lon="8.2814008"><ele>218.0</ele><time>2026-04-18T10:16:05.616Z</time></trkpt><trkpt lat="46.015044" lon="8.2813267"><ele>218.8</ele><time>2026-04-18T10:16:06.607Z</time></trkpt><trkpt lat="46.0151589" lon="8.2812801"><ele>219.60000000000002</ele><time>2026-04-18T10:16:07.623Z</time></trkpt><trkpt lat="46.0152441" lon="8.2812485"><ele>220.39999999999998</ele><time>2026-04-18T10:16:08.618Z</time></trkpt><trkpt lat="46.015328" lon="8.2812"><ele>221.2</ele><time>2026-04-18T10:16:09.611Z</time></trkpt><trkpt lat="46.0153963" lon="8.2811396"><ele>222.0</ele><time>2026-04-18T10:16:10.609Z</time></trkpt><trkpt lat="46.0154706" lon="8.2810538"><ele>222.0</ele><time>2026-04-18T10:16:11.621Z</time></trkpt><trkpt lat="46.0155465" lon="8.280979"><ele>222.0</ele><time>2026-04-18T10:16:12.624Z</time></trkpt><trkpt lat="46.0156143" lon="8.2809153"><ele>222.0</ele><time>2026-04-18T10:16:13.626Z</time></trkpt><trkpt lat="46.0156844" lon="8.2808807"><ele>222.0</ele><time>2026-04-18T10:16:14.626Z</time></trkpt><trkpt lat="46.0157648" lon="8.2808565"><ele>222.0</ele><time>2026-04-18T10:16:15.623Z</time></trkpt><trkpt lat="46.0158409" lon="8.2808194"><ele>222.0</ele><time>2026-04-18T10:16:16.621Z</time></trkpt><trkpt lat="46.0159216" lon="8.2807728"><ele>222.2</ele><time>2026-04-18T10:16:17.621Z</time></trkpt><trkpt lat="46.0159887" lon="8.2807079"><ele>222.39999999999998</ele><time>2026-04-18T10:16:18.614Z</time></trkpt><trkpt lat="46.0160759" lon="8.2806285"><ele>222.60000000000002</ele><time>2026-04-18T10:16:19.62Z</time></trkpt><trkpt lat="46.0161828" lon="8.2805282"><ele>222.8</ele><time>2026-04-18T10:16:20.625Z</time></trkpt><trkpt lat="46.0163042" lon="8.280455"><ele>223.0</ele><time>2026-04-18T10:16:21.618Z</time></trkpt><trkpt lat="46.0164275" lon="8.2803899"><ele>222.8</ele><time>2026-04-18T10:16:22.624Z</time></trkpt><trkpt lat="46.016532" lon="8.280351"><ele>222.60000000000002</ele><time>2026-04-18T10:16:23.623Z</time></trkpt><trkpt lat="46.0166163" lon="8.2802958"><ele>222.39999999999998</ele><time>2026-04-18T10:16:24.62Z</time></trkpt><trkpt lat="46.0166984" lon="8.2802341"><ele>222.2</ele><time>2026-04-18T10:16:25.619Z</time></trkpt><trkpt lat="46.0167701" lon="8.2801586"><ele>222.0</ele><time>2026-04-18T10:16:26.615Z</time></trkpt><trkpt lat="46.0168265" lon="8.2800569"><ele>222.0</ele><time>2026-04-18T10:16:27.622Z</time></trkpt><trkpt lat="46.0168938" lon="8.2799263"><ele>222.0</ele><time>2026-04-18T10:16:28.612Z</time></trkpt><trkpt lat="46.016964" lon="8.2797936"><ele>222.0</ele><time>2026-04-18T10:16:29.614Z</time></trkpt><trkpt lat="46.0170407" lon="8.2796801"><ele>222.0</ele><time>2026-04-18T10:16:30.619Z</time></trkpt><trkpt lat="46.0171157" lon="8.2795604"><ele>222.25</ele><time>2026-04-18T10:16:31.618Z</time></trkpt><trkpt lat="46.0172032" lon="8.2794481"><ele>222.5</ele><time>2026-04-18T10:16:32.615Z</time></trkpt><trkpt lat="46.017296" lon="8.2793586"><ele>222.75</ele><time>2026-04-18T10:16:33.615Z</time></trkpt><trkpt lat="46.0173835" lon="8.2792649"><ele>223.0</ele><time>2026-04-18T10:16:34.628Z</time></trkpt><trkpt lat="46.0174946" lon="8.2792156"><ele>223.4</ele><time>2026-04-18T10:16:35.621Z</time></trkpt><trkpt lat="46.017595" lon="8.2791636"><ele>223.8</ele><time>2026-04-18T10:16:36.625Z</time></trkpt><trkpt lat="46.0176962" lon="8.2791083"><ele>224.2</ele><time>2026-04-18T10:16:37.618Z</time></trkpt><trkpt lat="46.0177762" lon="8.279063"><ele>224.6</ele><time>2026-04-18T10:16:38.634Z</time></trkpt><trkpt lat="46.0178457" lon="8.2790189"><ele>225.0</ele><time>2026-04-18T10:16:39.62Z</time></trkpt><trkpt lat="46.017736" lon="8.2790458"><ele>225.00000000000003</ele><time>2026-04-18T10:16:43.623Z</time></trkpt><trkpt lat="46.0176636" lon="8.2791011"><ele>225.0</ele><time>2026-04-18T10:16:44.625Z</time></trkpt><trkpt lat="46.0175997" lon="8.2791471"><ele>225.00000000000003</ele><time>2026-04-18T10:16:45.635Z</time></trkpt><trkpt lat="46.0175977" lon="8.2792492"><ele>225.00000000000003</ele><time>2026-04-18T10:21:06.638Z</time></trkpt><trkpt lat="46.0175911" lon="8.2791484"><ele>225.0</ele><time>2026-04-18T10:21:50.627Z</time></trkpt><trkpt lat="46.017592" lon="8.2792495"><ele>225.00000000000003</ele><time>2026-04-18T10:22:01.614Z</time></trkpt><trkpt lat="46.0176218" lon="8.2793402"><ele>225.00000000000003</ele><time>2026-04-18T10:22:39.634Z</time></trkpt><trkpt lat="46.0175882" lon="8.2792625"><ele>225.0</ele><time>2026-04-18T10:23:10.639Z</time></trkpt><trkpt lat="46.0176033" lon="8.2791594"><ele>225.0</ele><time>2026-04-18T10:23:33.637Z</time></trkpt><trkpt lat="46.0176024" lon="8.2792591"><ele>225.0</ele><time>2026-04-18T10:24:18.632Z</time></trkpt><trkpt lat="46.0175928" lon="8.2791628"><ele>225.0</ele><time>2026-04-18T10:26:35.639Z</time></trkpt><trkpt lat="46.0176086" lon="8.2792522"><ele>225.0</ele><time>2026-04-18T10:26:48.639Z</time></trkpt><trkpt lat="46.01766" lon="8.2793088"><ele>225.0</ele><time>2026-04-18T10:30:17.64Z</time></trkpt><trkpt lat="46.0177708" lon="8.2792132"><ele>225.0</ele><time>2026-04-18T10:30:19.627Z</time></trkpt><trkpt lat="46.0178335" lon="8.2791497"><ele>225.0</ele><time>2026-04-18T10:30:20.631Z</time></trkpt><trkpt lat="46.0179106" lon="8.2790782"><ele>225.0</ele><time>2026-04-18T10:30:21.623Z</time></trkpt><trkpt lat="46.0179894" lon="8.2790146"><ele>225.0</ele><time>2026-04-18T10:30:22.626Z</time></trkpt><trkpt lat="46.0180641" lon="8.2789445"><ele>225.0</ele><time>2026-04-18T10:30:23.623Z</time></trkpt><trkpt lat="46.0181435" lon="8.2788551"><ele>225.0</ele><time>2026-04-18T10:30:24.627Z</time></trkpt><trkpt lat="46.0182179" lon="8.2787759"><ele>225.0</ele><time>2026-04-18T10:30:25.626Z</time></trkpt><trkpt lat="46.0182874" lon="8.2786874"><ele>225.0</ele><time>2026-04-18T10:30:26.626Z</time></trkpt><trkpt lat="46.0183509" lon="8.2786087"><ele>225.0</ele><time>2026-04-18T10:30:27.627Z</time></trkpt><trkpt lat="46.0184253" lon="8.2785336"><ele>225.0</ele><time>2026-04-18T10:30:28.626Z</time></trkpt><trkpt lat="46.0185009" lon="8.2784559"><ele>225.0</ele><time>2026-04-18T10:30:29.624Z</time></trkpt><trkpt lat="46.0185788" lon="8.2783842"><ele>225.0</ele><time>2026-04-18T10:30:30.629Z</time></trkpt><trkpt lat="46.0186584" lon="8.2783076"><ele>225.0</ele><time>2026-04-18T10:30:31.63Z</time></trkpt><trkpt lat="46.0187438" lon="8.2782375"><ele>225.0</ele><time>2026-04-18T10:30:32.617Z</time></trkpt><trkpt lat="46.0188175" lon="8.2781508"><ele>225.0</ele><time>2026-04-18T10:30:33.634Z</time></trkpt><trkpt lat="46.0188794" lon="8.2780581"><ele>225.0</ele><time>2026-04-18T10:30:34.652Z</time></trkpt><trkpt lat="46.0189471" lon="8.2779725"><ele>225.0</ele><time>2026-04-18T10:30:35.629Z</time></trkpt><trkpt lat="46.0190075" lon="8.277885"><ele>225.0</ele><time>2026-04-18T10:30:36.618Z</time></trkpt><trkpt lat="46.0190734" lon="8.2778262"><ele>225.0</ele><time>2026-04-18T10:30:37.621Z</time></trkpt><trkpt lat="46.0191582" lon="8.2777103"><ele>225.0</ele><time>2026-04-18T10:30:39.62Z</time></trkpt><trkpt lat="46.0192074" lon="8.2776449"><ele>225.0</ele><time>2026-04-18T10:30:40.622Z</time></trkpt><trkpt lat="46.0192544" lon="8.2775491"><ele>225.0</ele><time>2026-04-18T10:30:42.619Z</time></trkpt><trkpt lat="46.0193087" lon="8.2774615"><ele>225.0</ele><time>2026-04-18T10:30:44.627Z</time></trkpt><trkpt lat="46.0193824" lon="8.2773877"><ele>225.0</ele><time>2026-04-18T10:30:46.625Z</time></trkpt><trkpt lat="46.0194807" lon="8.2773166"><ele>225.0</ele><time>2026-04-18T10:30:48.624Z</time></trkpt><trkpt lat="46.0195709" lon="8.2771877"><ele>225.0</ele><time>2026-04-18T10:30:50.615Z</time></trkpt><trkpt lat="46.0196052" lon="8.2770933"><ele>225.0</ele><time>2026-04-18T10:30:51.631Z</time></trkpt><trkpt lat="46.0196365" lon="8.2769915"><ele>225.16666666666666</ele><time>2026-04-18T10:30:52.624Z</time></trkpt><trkpt lat="46.0196576" lon="8.2768765"><ele>225.33333333333331</ele><time>2026-04-18T10:30:53.613Z</time></trkpt><trkpt lat="46.0196904" lon="8.2767765"><ele>225.5</ele><time>2026-04-18T10:30:54.616Z</time></trkpt><trkpt lat="46.0197204" lon="8.2766922"><ele>225.66666666666666</ele><time>2026-04-18T10:30:55.618Z</time></trkpt><trkpt lat="46.0197469" lon="8.2766041"><ele>225.83333333333331</ele><time>2026-04-18T10:30:56.621Z</time></trkpt><trkpt lat="46.0197786" lon="8.2765141"><ele>226.0</ele><time>2026-04-18T10:30:57.631Z</time></trkpt><trkpt lat="46.0198223" lon="8.2763507"><ele>226.33333333333331</ele><time>2026-04-18T10:30:59.626Z</time></trkpt><trkpt lat="46.0198275" lon="8.276241"><ele>226.66666666666666</ele><time>2026-04-18T10:31:00.618Z</time></trkpt><trkpt lat="46.0198286" lon="8.2761325"><ele>227.0</ele><time>2026-04-18T10:31:01.618Z</time></trkpt><trkpt lat="46.0198375" lon="8.276033"><ele>227.33333333333331</ele><time>2026-04-18T10:31:02.614Z</time></trkpt><trkpt lat="46.0198311" lon="8.2758662"><ele>227.66666666666666</ele><time>2026-04-18T10:31:04.625Z</time></trkpt><trkpt lat="46.019807" lon="8.2757665"><ele>228.0</ele><time>2026-04-18T10:31:05.633Z</time></trkpt><trkpt lat="46.0197726" lon="8.2756676"><ele>228.60000000000002</ele><time>2026-04-18T10:31:06.61Z</time></trkpt><trkpt lat="46.0196975" lon="8.2755379"><ele>229.20000000000002</ele><time>2026-04-18T10:31:08.617Z</time></trkpt><trkpt lat="46.0195766" lon="8.2754909"><ele>229.8</ele><time>2026-04-18T10:31:10.622Z</time></trkpt><trkpt lat="46.0195022" lon="8.2754571"><ele>230.4</ele><time>2026-04-18T10:31:11.615Z</time></trkpt><trkpt lat="46.0193984" lon="8.2754418"><ele>231.0</ele><time>2026-04-18T10:31:12.641Z</time></trkpt><trkpt lat="46.0192814" lon="8.2754277"><ele>231.0</ele><time>2026-04-18T10:31:13.626Z</time></trkpt><trkpt lat="46.0191586" lon="8.2753838"><ele>231.0</ele><time>2026-04-18T10:31:14.632Z</time></trkpt><trkpt lat="46.0190382" lon="8.2753272"><ele>231.0</ele><time>2026-04-18T10:31:15.63Z</time></trkpt><trkpt lat="46.0189146" lon="8.2752992"><ele>231.0</ele><time>2026-04-18T10:31:16.619Z</time></trkpt><trkpt lat="46.0187795" lon="8.275304"><ele>231.0</ele><time>2026-04-18T10:31:17.632Z</time></trkpt><trkpt lat="46.0186357" lon="8.2753023"><ele>231.0</ele><time>2026-04-18T10:31:18.637Z</time></trkpt><trkpt lat="46.0185206" lon="8.2752809"><ele>231.0</ele><time>2026-04-18T10:31:19.633Z</time></trkpt><trkpt lat="46.0184109" lon="8.275267"><ele>231.0</ele><time>2026-04-18T10:31:20.632Z</time></trkpt><trkpt lat="46.0183075" lon="8.2752564"><ele>230.8</ele><time>2026-04-18T10:31:21.629Z</time></trkpt><trkpt lat="46.0182004" lon="8.2752489"><ele>230.60000000000002</ele><time>2026-04-18T10:31:22.643Z</time></trkpt><trkpt lat="46.018097" lon="8.2752531"><ele>230.4</ele><time>2026-04-18T10:31:23.631Z</time></trkpt><trkpt lat="46.0179983" lon="8.2752424"><ele>230.2</ele><time>2026-04-18T10:31:24.634Z</time></trkpt><trkpt lat="46.0179108" lon="8.275232"><ele>230.0</ele><time>2026-04-18T10:31:25.635Z</time></trkpt><trkpt lat="46.0178243" lon="8.2752212"><ele>230.0</ele><time>2026-04-18T10:31:26.638Z</time></trkpt><trkpt lat="46.0177217" lon="8.2751754"><ele>230.0</ele><time>2026-04-18T10:31:28.634Z</time></trkpt><trkpt lat="46.0176666" lon="8.2750581"><ele>230.0</ele><time>2026-04-18T10:31:30.642Z</time></trkpt><trkpt lat="46.0176608" lon="8.2749133"><ele>230.0</ele><time>2026-04-18T10:31:33.633Z</time></trkpt><trkpt lat="46.0176729" lon="8.2747851"><ele>230.0</ele><time>2026-04-18T10:31:35.644Z</time></trkpt><trkpt lat="46.0176981" lon="8.2746885"><ele>230.0</ele><time>2026-04-18T10:31:36.648Z</time></trkpt><trkpt lat="46.0177685" lon="8.2745455"><ele>230.0</ele><time>2026-04-18T10:31:38.629Z</time></trkpt><trkpt lat="46.017802" lon="8.2744475"><ele>230.0</ele><time>2026-04-18T10:31:39.631Z</time></trkpt><trkpt lat="46.0178587" lon="8.2743591"><ele>230.0</ele><time>2026-04-18T10:31:40.632Z</time></trkpt><trkpt lat="46.0179375" lon="8.2743035"><ele>230.0</ele><time>2026-04-18T10:31:41.629Z</time></trkpt><trkpt lat="46.018019" lon="8.2742697"><ele>230.0</ele><time>2026-04-18T10:31:42.631Z</time></trkpt><trkpt lat="46.0180966" lon="8.2742603"><ele>230.0</ele><time>2026-04-18T10:31:43.625Z</time></trkpt><trkpt lat="46.0181911" lon="8.2742744"><ele>230.0</ele><time>2026-04-18T10:31:44.624Z</time></trkpt><trkpt lat="46.0182956" lon="8.2742632"><ele>230.0</ele><time>2026-04-18T10:31:45.636Z</time></trkpt><trkpt lat="46.0183891" lon="8.274236"><ele>230.0</ele><time>2026-04-18T10:31:46.718Z</time></trkpt><trkpt lat="46.0184653" lon="8.2741982"><ele>230.0</ele><time>2026-04-18T10:31:47.71Z</time></trkpt><trkpt lat="46.0186043" lon="8.2740657"><ele>230.0</ele><time>2026-04-18T10:31:49.712Z</time></trkpt><trkpt lat="46.0186662" lon="8.2740013"><ele>230.0</ele><time>2026-04-18T10:31:50.691Z</time></trkpt><trkpt lat="46.018761" lon="8.2739385"><ele>230.0</ele><time>2026-04-18T10:31:51.702Z</time></trkpt><trkpt lat="46.0188814" lon="8.2738768"><ele>230.0</ele><time>2026-04-18T10:31:52.693Z</time></trkpt><trkpt lat="46.0190569" lon="8.2738109"><ele>230.0</ele><time>2026-04-18T10:31:53.702Z</time></trkpt><trkpt lat="46.0192569" lon="8.2737558"><ele>230.0</ele><time>2026-04-18T10:31:54.703Z</time></trkpt><trkpt lat="46.0194863" lon="8.2736912"><ele>230.0</ele><time>2026-04-18T10:31:55.704Z</time></trkpt><trkpt lat="46.0197293" lon="8.273631"><ele>230.0</ele><time>2026-04-18T10:31:56.7Z</time></trkpt><trkpt lat="46.0193725" lon="8.2735548"><ele>230.0</ele><time>2026-04-18T10:31:57.716Z</time></trkpt><trkpt lat="46.0195051" lon="8.2735027"><ele>230.0</ele><time>2026-04-18T10:31:58.716Z</time></trkpt><trkpt lat="46.0196451" lon="8.2733899"><ele>230.0</ele><time>2026-04-18T10:31:59.705Z</time></trkpt><trkpt lat="46.0197851" lon="8.2733183"><ele>230.0</ele><time>2026-04-18T10:32:01.721Z</time></trkpt><trkpt lat="46.0198714" lon="8.2732481"><ele>230.25</ele><time>2026-04-18T10:32:02.71Z</time></trkpt><trkpt lat="46.019964" lon="8.2729925"><ele>230.5</ele><time>2026-04-18T10:32:04.605Z</time></trkpt><trkpt lat="46.019999" lon="8.272831"><ele>230.75</ele><time>2026-04-18T10:32:05.601Z</time></trkpt><trkpt lat="46.0200494" lon="8.2726878"><ele>231.0</ele><time>2026-04-18T10:32:06.598Z</time></trkpt><trkpt lat="46.0201062" lon="8.2725622"><ele>231.20000000000002</ele><time>2026-04-18T10:32:07.639Z</time></trkpt><trkpt lat="46.020162" lon="8.2724429"><ele>231.40000000000003</ele><time>2026-04-18T10:32:08.62Z</time></trkpt><trkpt lat="46.0202193" lon="8.2723232"><ele>231.6</ele><time>2026-04-18T10:32:09.631Z</time></trkpt><trkpt lat="46.0202603" lon="8.2722005"><ele>231.8</ele><time>2026-04-18T10:32:10.619Z</time></trkpt><trkpt lat="46.0202791" lon="8.2720561"><ele>232.0</ele><time>2026-04-18T10:32:11.628Z</time></trkpt><trkpt lat="46.0202969" lon="8.271904"><ele>232.25</ele><time>2026-04-18T10:32:12.618Z</time></trkpt><trkpt lat="46.0203131" lon="8.2717328"><ele>232.5</ele><time>2026-04-18T10:32:13.634Z</time></trkpt><trkpt lat="46.0203382" lon="8.2715668"><ele>232.75</ele><time>2026-04-18T10:32:14.62Z</time></trkpt><trkpt lat="46.0203706" lon="8.2714113"><ele>233.0</ele><time>2026-04-18T10:32:15.626Z</time></trkpt><trkpt lat="46.0204036" lon="8.2712669"><ele>233.0</ele><time>2026-04-18T10:32:16.622Z</time></trkpt><trkpt lat="46.020443" lon="8.2711218"><ele>233.0</ele><time>2026-04-18T10:32:17.63Z</time></trkpt><trkpt lat="46.0204761" lon="8.2709793"><ele>233.0</ele><time>2026-04-18T10:32:18.623Z</time></trkpt><trkpt lat="46.0205075" lon="8.270839"><ele>233.0</ele><time>2026-04-18T10:32:19.621Z</time></trkpt><trkpt lat="46.0205194" lon="8.2707028"><ele>233.0</ele><time>2026-04-18T10:32:20.626Z</time></trkpt><trkpt lat="46.0205242" lon="8.2705792"><ele>233.00000000000003</ele><time>2026-04-18T10:32:21.624Z</time></trkpt><trkpt lat="46.0205418" lon="8.2704811"><ele>233.0</ele><time>2026-04-18T10:32:22.613Z</time></trkpt><trkpt lat="46.0205795" lon="8.270402"><ele>233.0</ele><time>2026-04-18T10:32:23.614Z</time></trkpt><trkpt lat="46.0206483" lon="8.2703402"><ele>233.0</ele><time>2026-04-18T10:32:24.615Z</time></trkpt><trkpt lat="46.020737" lon="8.2702888"><ele>233.00000000000003</ele><time>2026-04-18T10:32:25.63Z</time></trkpt><trkpt lat="46.0208086" lon="8.2702425"><ele>233.0</ele><time>2026-04-18T10:32:26.615Z</time></trkpt><trkpt lat="46.0208804" lon="8.2701371"><ele>233.0</ele><time>2026-04-18T10:32:28.627Z</time></trkpt><trkpt lat="46.020913" lon="8.2699248"><ele>233.0</ele><time>2026-04-18T10:32:30.625Z</time></trkpt><trkpt lat="46.0209305" lon="8.2697441"><ele>233.0</ele><time>2026-04-18T10:32:31.614Z</time></trkpt><trkpt lat="46.0209529" lon="8.2695319"><ele>233.0</ele><time>2026-04-18T10:32:32.614Z</time></trkpt><trkpt lat="46.020971" lon="8.2693212"><ele>233.0</ele><time>2026-04-18T10:32:33.623Z</time></trkpt><trkpt lat="46.0209936" lon="8.2691336"><ele>233.0</ele><time>2026-04-18T10:32:34.614Z</time></trkpt><trkpt lat="46.0210181" lon="8.2689638"><ele>233.0</ele><time>2026-04-18T10:32:35.624Z</time></trkpt><trkpt lat="46.0210365" lon="8.2688001"><ele>233.0</ele><time>2026-04-18T10:32:36.624Z</time></trkpt><trkpt lat="46.0210597" lon="8.268646"><ele>233.5</ele><time>2026-04-18T10:32:37.618Z</time></trkpt><trkpt lat="46.0210763" lon="8.2684896"><ele>234.0</ele><time>2026-04-18T10:32:38.645Z</time></trkpt><trkpt lat="46.0211035" lon="8.2683236"><ele>234.5</ele><time>2026-04-18T10:32:39.622Z</time></trkpt><trkpt lat="46.021128" lon="8.268155"><ele>235.0</ele><time>2026-04-18T10:32:40.617Z</time></trkpt><trkpt lat="46.0211464" lon="8.2679848"><ele>235.0</ele><time>2026-04-18T10:32:41.625Z</time></trkpt><trkpt lat="46.021168" lon="8.2678247"><ele>235.0</ele><time>2026-04-18T10:32:42.615Z</time></trkpt><trkpt lat="46.0211891" lon="8.2676708"><ele>235.0</ele><time>2026-04-18T10:32:43.615Z</time></trkpt><trkpt lat="46.0212165" lon="8.267522"><ele>235.0</ele><time>2026-04-18T10:32:44.624Z</time></trkpt><trkpt lat="46.0212397" lon="8.267386"><ele>235.0</ele><time>2026-04-18T10:32:45.624Z</time></trkpt><trkpt lat="46.021266" lon="8.2672636"><ele>235.66666666666666</ele><time>2026-04-18T10:32:46.622Z</time></trkpt><trkpt lat="46.0212984" lon="8.2671625"><ele>236.33333333333331</ele><time>2026-04-18T10:32:47.623Z</time></trkpt><trkpt lat="46.0213318" lon="8.2670765"><ele>237.0</ele><time>2026-04-18T10:32:48.615Z</time></trkpt><trkpt lat="46.0213697" lon="8.2669923"><ele>237.66666666666669</ele><time>2026-04-18T10:32:49.621Z</time></trkpt><trkpt lat="46.0214013" lon="8.2668923"><ele>238.33333333333334</ele><time>2026-04-18T10:32:50.632Z</time></trkpt><trkpt lat="46.0214301" lon="8.2667746"><ele>239.0</ele><time>2026-04-18T10:32:51.626Z</time></trkpt><trkpt lat="46.0214523" lon="8.2666431"><ele>239.0</ele><time>2026-04-18T10:32:52.619Z</time></trkpt><trkpt lat="46.0214556" lon="8.2664959"><ele>238.99999999999997</ele><time>2026-04-18T10:32:53.63Z</time></trkpt><trkpt lat="46.0214899" lon="8.2663519"><ele>238.99999999999997</ele><time>2026-04-18T10:32:54.621Z</time></trkpt><trkpt lat="46.0215281" lon="8.266214"><ele>239.0</ele><time>2026-04-18T10:32:55.625Z</time></trkpt><trkpt lat="46.0215611" lon="8.2660612"><ele>239.0</ele><time>2026-04-18T10:32:56.616Z</time></trkpt><trkpt lat="46.0215925" lon="8.2658974"><ele>238.75</ele><time>2026-04-18T10:32:57.628Z</time></trkpt><trkpt lat="46.0216228" lon="8.2657305"><ele>238.5</ele><time>2026-04-18T10:32:58.629Z</time></trkpt><trkpt lat="46.0216539" lon="8.2655671"><ele>238.25</ele><time>2026-04-18T10:32:59.637Z</time></trkpt><trkpt lat="46.0216794" lon="8.2654123"><ele>238.0</ele><time>2026-04-18T10:33:00.62Z</time></trkpt><trkpt lat="46.0217117" lon="8.2652612"><ele>237.99999999999997</ele><time>2026-04-18T10:33:01.625Z</time></trkpt><trkpt lat="46.0217334" lon="8.2651344"><ele>238.0</ele><time>2026-04-18T10:33:02.63Z</time></trkpt><trkpt lat="46.0217302" lon="8.2650353"><ele>238.0</ele><time>2026-04-18T10:33:03.625Z</time></trkpt><trkpt lat="46.0217322" lon="8.2649334"><ele>238.0</ele><time>2026-04-18T10:33:04.624Z</time></trkpt><trkpt lat="46.0217232" lon="8.2648079"><ele>237.99999999999997</ele><time>2026-04-18T10:33:05.629Z</time></trkpt><trkpt lat="46.0217095" lon="8.2646683"><ele>238.0</ele><time>2026-04-18T10:33:06.631Z</time></trkpt><trkpt lat="46.0216803" lon="8.2645259"><ele>238.66666666666666</ele><time>2026-04-18T10:33:07.629Z</time></trkpt><trkpt lat="46.0216403" lon="8.2643888"><ele>239.33333333333331</ele><time>2026-04-18T10:33:08.627Z</time></trkpt><trkpt lat="46.0216006" lon="8.264262"><ele>240.0</ele><time>2026-04-18T10:33:09.637Z</time></trkpt><trkpt lat="46.0215585" lon="8.264165"><ele>240.66666666666669</ele><time>2026-04-18T10:33:10.62Z</time></trkpt><trkpt lat="46.0215037" lon="8.2640886"><ele>241.33333333333334</ele><time>2026-04-18T10:33:11.638Z</time></trkpt><trkpt lat="46.0214348" lon="8.2640664"><ele>242.0</ele><time>2026-04-18T10:33:12.619Z</time></trkpt><trkpt lat="46.0213626" lon="8.2639401"><ele>242.39999999999998</ele><time>2026-04-18T10:33:14.626Z</time></trkpt><trkpt lat="46.0213509" lon="8.2638312"><ele>242.79999999999998</ele><time>2026-04-18T10:33:15.621Z</time></trkpt><trkpt lat="46.0213707" lon="8.263713"><ele>243.2</ele><time>2026-04-18T10:33:16.636Z</time></trkpt><trkpt lat="46.021421" lon="8.2635795"><ele>243.6</ele><time>2026-04-18T10:33:17.631Z</time></trkpt><trkpt lat="46.0214784" lon="8.2634498"><ele>244.0</ele><time>2026-04-18T10:33:18.619Z</time></trkpt><trkpt lat="46.0215224" lon="8.2633251"><ele>243.99999999999997</ele><time>2026-04-18T10:33:19.619Z</time></trkpt><trkpt lat="46.0215374" lon="8.2632156"><ele>244.0</ele><time>2026-04-18T10:33:20.626Z</time></trkpt><trkpt lat="46.0215414" lon="8.2630819"><ele>244.0</ele><time>2026-04-18T10:33:21.621Z</time></trkpt><trkpt lat="46.0215362" lon="8.2629605"><ele>244.0</ele><time>2026-04-18T10:33:22.63Z</time></trkpt><trkpt lat="46.0215469" lon="8.262827"><ele>243.99999999999997</ele><time>2026-04-18T10:33:23.622Z</time></trkpt><trkpt lat="46.0215628" lon="8.2626917"><ele>244.0</ele><time>2026-04-18T10:33:24.606Z</time></trkpt><trkpt lat="46.0215607" lon="8.2625548"><ele>244.16666666666666</ele><time>2026-04-18T10:33:25.631Z</time></trkpt><trkpt lat="46.0215728" lon="8.2624166"><ele>244.33333333333331</ele><time>2026-04-18T10:33:26.621Z</time></trkpt><trkpt lat="46.0215969" lon="8.2623326"><ele>244.5</ele><time>2026-04-18T10:33:27.629Z</time></trkpt><trkpt lat="46.0215979" lon="8.2622127"><ele>244.66666666666669</ele><time>2026-04-18T10:33:29.638Z</time></trkpt><trkpt lat="46.0215538" lon="8.2621357"><ele>244.83333333333334</ele><time>2026-04-18T10:33:31.641Z</time></trkpt><trkpt lat="46.0214897" lon="8.2620844"><ele>245.0</ele><time>2026-04-18T10:33:33.632Z</time></trkpt><trkpt lat="46.0214755" lon="8.2619396"><ele>245.2</ele><time>2026-04-18T10:33:35.615Z</time></trkpt><trkpt lat="46.0215046" lon="8.2618265"><ele>245.4</ele><time>2026-04-18T10:33:37.632Z</time></trkpt><trkpt lat="46.0216349" lon="8.2617649"><ele>245.60000000000002</ele><time>2026-04-18T10:33:39.633Z</time></trkpt><trkpt lat="46.0217006" lon="8.2616554"><ele>245.8</ele><time>2026-04-18T10:33:41.615Z</time></trkpt><trkpt lat="46.0217113" lon="8.2615646"><ele>246.0</ele><time>2026-04-18T10:33:42.62Z</time></trkpt><trkpt lat="46.0217158" lon="8.2614436"><ele>246.25</ele><time>2026-04-18T10:33:43.626Z</time></trkpt><trkpt lat="46.021711" lon="8.2612649"><ele>246.5</ele><time>2026-04-18T10:33:44.622Z</time></trkpt><trkpt lat="46.0217063" lon="8.2610601"><ele>246.75</ele><time>2026-04-18T10:33:45.624Z</time></trkpt><trkpt lat="46.0216831" lon="8.260842"><ele>247.0</ele><time>2026-04-18T10:33:46.632Z</time></trkpt><trkpt lat="46.0216438" lon="8.2606259"><ele>247.5</ele><time>2026-04-18T10:33:47.628Z</time></trkpt><trkpt lat="46.0216198" lon="8.2604501"><ele>248.0</ele><time>2026-04-18T10:33:48.628Z</time></trkpt><trkpt lat="46.0215868" lon="8.260294"><ele>248.5</ele><time>2026-04-18T10:33:49.635Z</time></trkpt><trkpt lat="46.0215383" lon="8.2601327"><ele>249.0</ele><time>2026-04-18T10:33:50.644Z</time></trkpt><trkpt lat="46.0214455" lon="8.2599853"><ele>249.0</ele><time>2026-04-18T10:33:51.632Z</time></trkpt><trkpt lat="46.0213659" lon="8.259843"><ele>249.0</ele><time>2026-04-18T10:33:52.635Z</time></trkpt><trkpt lat="46.0212722" lon="8.2596905"><ele>249.0</ele><time>2026-04-18T10:33:53.632Z</time></trkpt><trkpt lat="46.0211933" lon="8.259555"><ele>249.0</ele><time>2026-04-18T10:33:54.628Z</time></trkpt><trkpt lat="46.0211156" lon="8.2594102"><ele>249.0</ele><time>2026-04-18T10:33:55.632Z</time></trkpt><trkpt lat="46.0210381" lon="8.2592809"><ele>249.0</ele><time>2026-04-18T10:33:56.636Z</time></trkpt><trkpt lat="46.0209563" lon="8.2591434"><ele>249.0</ele><time>2026-04-18T10:33:57.628Z</time></trkpt><trkpt lat="46.0208783" lon="8.2589936"><ele>249.0</ele><time>2026-04-18T10:33:58.644Z</time></trkpt><trkpt lat="46.0207995" lon="8.2588547"><ele>250.0</ele><time>2026-04-18T10:33:59.633Z</time></trkpt><trkpt lat="46.0207286" lon="8.2587114"><ele>251.0</ele><time>2026-04-18T10:34:00.633Z</time></trkpt><trkpt lat="46.0206594" lon="8.2585734"><ele>252.0</ele><time>2026-04-18T10:34:01.63Z</time></trkpt><trkpt lat="46.0205954" lon="8.2584391"><ele>253.0</ele><time>2026-04-18T10:34:02.636Z</time></trkpt><trkpt lat="46.0205343" lon="8.258301"><ele>253.0</ele><time>2026-04-18T10:34:03.648Z</time></trkpt><trkpt lat="46.0204757" lon="8.2581504"><ele>253.0</ele><time>2026-04-18T10:34:04.639Z</time></trkpt><trkpt lat="46.0204198" lon="8.2580055"><ele>253.0</ele><time>2026-04-18T10:34:05.639Z</time></trkpt><trkpt lat="46.0203709" lon="8.2578718"><ele>253.0</ele><time>2026-04-18T10:34:06.639Z</time></trkpt><trkpt lat="46.0203336" lon="8.2577706"><ele>253.0</ele><time>2026-04-18T10:34:07.624Z</time></trkpt><trkpt lat="46.0202772" lon="8.2576752"><ele>253.8</ele><time>2026-04-18T10:34:09.636Z</time></trkpt><trkpt lat="46.0202982" lon="8.2575689"><ele>254.60000000000002</ele><time>2026-04-18T10:34:16.64Z</time></trkpt><trkpt lat="46.0204147" lon="8.2574427"><ele>255.39999999999998</ele><time>2026-04-18T10:34:18.647Z</time></trkpt><trkpt lat="46.020499" lon="8.2573656"><ele>256.2</ele><time>2026-04-18T10:34:19.637Z</time></trkpt><trkpt lat="46.0205821" lon="8.2572773"><ele>257.0</ele><time>2026-04-18T10:34:20.639Z</time></trkpt><trkpt lat="46.0206586" lon="8.2571833"><ele>257.0</ele><time>2026-04-18T10:34:21.639Z</time></trkpt><trkpt lat="46.0207218" lon="8.2571053"><ele>257.0</ele><time>2026-04-18T10:34:22.636Z</time></trkpt><trkpt lat="46.0207821" lon="8.2570553"><ele>257.0</ele><time>2026-04-18T10:34:23.647Z</time></trkpt><trkpt lat="46.0208576" lon="8.2569838"><ele>257.0</ele><time>2026-04-18T10:34:25.631Z</time></trkpt><trkpt lat="46.0209318" lon="8.2570079"><ele>257.0</ele><time>2026-04-18T10:34:27.64Z</time></trkpt><trkpt lat="46.021018" lon="8.2571405"><ele>257.0</ele><time>2026-04-18T10:34:29.641Z</time></trkpt><trkpt lat="46.0210981" lon="8.2572772"><ele>255.8</ele><time>2026-04-18T10:34:31.645Z</time></trkpt><trkpt lat="46.021197" lon="8.2573939"><ele>254.6</ele><time>2026-04-18T10:34:33.652Z</time></trkpt><trkpt lat="46.0212279" lon="8.2574903"><ele>253.40000000000003</ele><time>2026-04-18T10:34:35.639Z</time></trkpt><trkpt lat="46.0212283" lon="8.2576069"><ele>252.20000000000002</ele><time>2026-04-18T10:34:47.64Z</time></trkpt><trkpt lat="46.0212799" lon="8.2577055"><ele>251.0</ele><time>2026-04-18T10:34:49.633Z</time></trkpt><trkpt lat="46.0213536" lon="8.2578885"><ele>251.0</ele><time>2026-04-18T10:34:51.637Z</time></trkpt><trkpt lat="46.0214043" lon="8.258007"><ele>251.0</ele><time>2026-04-18T10:34:52.638Z</time></trkpt><trkpt lat="46.0214625" lon="8.2581447"><ele>251.0</ele><time>2026-04-18T10:34:53.737Z</time></trkpt><trkpt lat="46.0215395" lon="8.2583027"><ele>251.0</ele><time>2026-04-18T10:34:54.721Z</time></trkpt><trkpt lat="46.0215969" lon="8.2584425"><ele>250.8</ele><time>2026-04-18T10:34:55.737Z</time></trkpt><trkpt lat="46.0216541" lon="8.2585807"><ele>250.60000000000002</ele><time>2026-04-18T10:34:56.724Z</time></trkpt><trkpt lat="46.0217113" lon="8.258721"><ele>250.4</ele><time>2026-04-18T10:34:57.721Z</time></trkpt><trkpt lat="46.0217689" lon="8.2588594"><ele>250.2</ele><time>2026-04-18T10:34:58.745Z</time></trkpt><trkpt lat="46.0218232" lon="8.2589994"><ele>250.0</ele><time>2026-04-18T10:34:59.725Z</time></trkpt><trkpt lat="46.0219278" lon="8.2591488"><ele>248.75</ele><time>2026-04-18T10:35:00.717Z</time></trkpt><trkpt lat="46.0219866" lon="8.2592877"><ele>247.5</ele><time>2026-04-18T10:35:01.724Z</time></trkpt><trkpt lat="46.0220371" lon="8.2594294"><ele>246.25</ele><time>2026-04-18T10:35:02.71Z</time></trkpt><trkpt lat="46.0220906" lon="8.2595701"><ele>245.0</ele><time>2026-04-18T10:35:03.723Z</time></trkpt><trkpt lat="46.0221582" lon="8.259712"><ele>244.8</ele><time>2026-04-18T10:35:04.717Z</time></trkpt><trkpt lat="46.0222152" lon="8.2598487"><ele>244.6</ele><time>2026-04-18T10:35:05.71Z</time></trkpt><trkpt lat="46.022268" lon="8.2599868"><ele>244.39999999999998</ele><time>2026-04-18T10:35:06.738Z</time></trkpt><trkpt lat="46.0223248" lon="8.2601208"><ele>244.2</ele><time>2026-04-18T10:35:07.731Z</time></trkpt><trkpt lat="46.0223708" lon="8.2602558"><ele>244.0</ele><time>2026-04-18T10:35:08.751Z</time></trkpt><trkpt lat="46.0224265" lon="8.2603838"><ele>244.0</ele><time>2026-04-18T10:35:09.738Z</time></trkpt><trkpt lat="46.0224845" lon="8.2605096"><ele>243.99999999999997</ele><time>2026-04-18T10:35:10.743Z</time></trkpt><trkpt lat="46.0225428" lon="8.260635"><ele>243.99999999999997</ele><time>2026-04-18T10:35:11.735Z</time></trkpt><trkpt lat="46.0226023" lon="8.2607611"><ele>244.0</ele><time>2026-04-18T10:35:12.739Z</time></trkpt><trkpt lat="46.0226678" lon="8.2608827"><ele>244.0</ele><time>2026-04-18T10:35:13.77Z</time></trkpt><trkpt lat="46.0227313" lon="8.2610161"><ele>244.0</ele><time>2026-04-18T10:35:14.737Z</time></trkpt><trkpt lat="46.0227919" lon="8.2611572"><ele>244.0</ele><time>2026-04-18T10:35:15.738Z</time></trkpt><trkpt lat="46.0228537" lon="8.2612961"><ele>244.0</ele><time>2026-04-18T10:35:16.74Z</time></trkpt><trkpt lat="46.0229167" lon="8.2614356"><ele>244.0</ele><time>2026-04-18T10:35:17.736Z</time></trkpt><trkpt lat="46.0229761" lon="8.2615765"><ele>244.0</ele><time>2026-04-18T10:35:18.746Z</time></trkpt><trkpt lat="46.0230315" lon="8.2617155"><ele>243.99999999999997</ele><time>2026-04-18T10:35:19.735Z</time></trkpt><trkpt lat="46.0230836" lon="8.2618584"><ele>243.99999999999997</ele><time>2026-04-18T10:35:20.733Z</time></trkpt><trkpt lat="46.0231354" lon="8.2620006"><ele>244.0</ele><time>2026-04-18T10:35:21.732Z</time></trkpt><trkpt lat="46.0231843" lon="8.262143"><ele>244.0</ele><time>2026-04-18T10:35:22.74Z</time></trkpt><trkpt lat="46.0232305" lon="8.2622846"><ele>244.0</ele><time>2026-04-18T10:35:23.73Z</time></trkpt><trkpt lat="46.0232722" lon="8.2624312"><ele>243.99999999999997</ele><time>2026-04-18T10:35:24.746Z</time></trkpt><trkpt lat="46.0233157" lon="8.2625763"><ele>243.99999999999997</ele><time>2026-04-18T10:35:25.735Z</time></trkpt><trkpt lat="46.0233604" lon="8.2627165"><ele>244.0</ele><time>2026-04-18T10:35:26.731Z</time></trkpt><trkpt lat="46.0233953" lon="8.2628594"><ele>244.0</ele><time>2026-04-18T10:35:27.731Z</time></trkpt><trkpt lat="46.0234204" lon="8.2630105"><ele>243.6</ele><time>2026-04-18T10:35:28.736Z</time></trkpt><trkpt lat="46.0234463" lon="8.263162"><ele>243.2</ele><time>2026-04-18T10:35:29.747Z</time></trkpt><trkpt lat="46.0234689" lon="8.2633178"><ele>242.79999999999998</ele><time>2026-04-18T10:35:30.736Z</time></trkpt><trkpt lat="46.0234856" lon="8.2634784"><ele>242.39999999999998</ele><time>2026-04-18T10:35:31.734Z</time></trkpt><trkpt lat="46.0235048" lon="8.2636377"><ele>242.0</ele><time>2026-04-18T10:35:32.719Z</time></trkpt><trkpt lat="46.0235177" lon="8.2638058"><ele>241.5</ele><time>2026-04-18T10:35:33.731Z</time></trkpt><trkpt lat="46.023526" lon="8.263972"><ele>241.0</ele><time>2026-04-18T10:35:34.715Z</time></trkpt><trkpt lat="46.0235256" lon="8.2641389"><ele>240.5</ele><time>2026-04-18T10:35:35.712Z</time></trkpt><trkpt lat="46.023518" lon="8.2643029"><ele>240.0</ele><time>2026-04-18T10:35:36.713Z</time></trkpt><trkpt lat="46.0235129" lon="8.2644704"><ele>240.0</ele><time>2026-04-18T10:35:37.713Z</time></trkpt><trkpt lat="46.0235142" lon="8.2646416"><ele>240.0</ele><time>2026-04-18T10:35:38.739Z</time></trkpt><trkpt lat="46.0235081" lon="8.2648114"><ele>240.0</ele><time>2026-04-18T10:35:39.743Z</time></trkpt><trkpt lat="46.0234977" lon="8.2649809"><ele>240.0</ele><time>2026-04-18T10:35:40.732Z</time></trkpt><trkpt lat="46.0234909" lon="8.2651476"><ele>240.0</ele><time>2026-04-18T10:35:41.733Z</time></trkpt><trkpt lat="46.023482" lon="8.265312"><ele>240.0</ele><time>2026-04-18T10:35:42.737Z</time></trkpt><trkpt lat="46.0234712" lon="8.2654805"><ele>240.0</ele><time>2026-04-18T10:35:43.738Z</time></trkpt><trkpt lat="46.0234639" lon="8.2656438"><ele>240.0</ele><time>2026-04-18T10:35:44.762Z</time></trkpt><trkpt lat="46.0234571" lon="8.2658035"><ele>239.8</ele><time>2026-04-18T10:35:45.736Z</time></trkpt><trkpt lat="46.0234495" lon="8.2659669"><ele>239.6</ele><time>2026-04-18T10:35:46.734Z</time></trkpt><trkpt lat="46.0234457" lon="8.2661233"><ele>239.39999999999998</ele><time>2026-04-18T10:35:47.734Z</time></trkpt><trkpt lat="46.0234394" lon="8.2662798"><ele>239.2</ele><time>2026-04-18T10:35:48.732Z</time></trkpt><trkpt lat="46.0234353" lon="8.2664453"><ele>239.0</ele><time>2026-04-18T10:35:49.744Z</time></trkpt><trkpt lat="46.0234282" lon="8.2666197"><ele>239.0</ele><time>2026-04-18T10:35:50.735Z</time></trkpt><trkpt lat="46.0234219" lon="8.2667996"><ele>239.0</ele><time>2026-04-18T10:35:51.737Z</time></trkpt><trkpt lat="46.0234174" lon="8.2669845"><ele>239.0</ele><time>2026-04-18T10:35:52.738Z</time></trkpt><trkpt lat="46.0234129" lon="8.2671682"><ele>239.0</ele><time>2026-04-18T10:35:53.737Z</time></trkpt><trkpt lat="46.0234099" lon="8.2673526"><ele>239.0</ele><time>2026-04-18T10:35:54.737Z</time></trkpt><trkpt lat="46.0234047" lon="8.2675449"><ele>239.0</ele><time>2026-04-18T10:35:55.729Z</time></trkpt><trkpt lat="46.0233975" lon="8.2677441"><ele>239.0</ele><time>2026-04-18T10:35:56.723Z</time></trkpt><trkpt lat="46.0233904" lon="8.2679454"><ele>239.0</ele><time>2026-04-18T10:35:57.723Z</time></trkpt><trkpt lat="46.0233866" lon="8.2681461"><ele>238.75</ele><time>2026-04-18T10:35:58.729Z</time></trkpt><trkpt lat="46.0233805" lon="8.2683498"><ele>238.5</ele><time>2026-04-18T10:35:59.743Z</time></trkpt><trkpt lat="46.0233784" lon="8.268561"><ele>238.25</ele><time>2026-04-18T10:36:00.73Z</time></trkpt><trkpt lat="46.023375" lon="8.2687718"><ele>238.0</ele><time>2026-04-18T10:36:01.726Z</time></trkpt><trkpt lat="46.0233714" lon="8.2689827"><ele>237.75</ele><time>2026-04-18T10:36:02.729Z</time></trkpt><trkpt lat="46.0233642" lon="8.2691887"><ele>237.5</ele><time>2026-04-18T10:36:03.729Z</time></trkpt><trkpt lat="46.0233563" lon="8.2693961"><ele>237.25</ele><time>2026-04-18T10:36:04.732Z</time></trkpt><trkpt lat="46.023345" lon="8.2695981"><ele>237.0</ele><time>2026-04-18T10:36:05.728Z</time></trkpt><trkpt lat="46.0233385" lon="8.2697937"><ele>236.75</ele><time>2026-04-18T10:36:06.723Z</time></trkpt><trkpt lat="46.023329" lon="8.2699915"><ele>236.5</ele><time>2026-04-18T10:36:07.726Z</time></trkpt><trkpt lat="46.0233195" lon="8.270182"><ele>236.25</ele><time>2026-04-18T10:36:08.722Z</time></trkpt><trkpt lat="46.023315" lon="8.2703804"><ele>236.0</ele><time>2026-04-18T10:36:09.734Z</time></trkpt><trkpt lat="46.0233096" lon="8.2705736"><ele>235.5</ele><time>2026-04-18T10:36:10.727Z</time></trkpt><trkpt lat="46.0233076" lon="8.2707729"><ele>235.0</ele><time>2026-04-18T10:36:11.723Z</time></trkpt><trkpt lat="46.0233075" lon="8.2709698"><ele>234.5</ele><time>2026-04-18T10:36:12.727Z</time></trkpt><trkpt lat="46.0233049" lon="8.2711685"><ele>234.0</ele><time>2026-04-18T10:36:13.728Z</time></trkpt><trkpt lat="46.0233023" lon="8.2713674"><ele>234.0</ele><time>2026-04-18T10:36:14.74Z</time></trkpt><trkpt lat="46.0232993" lon="8.27155"><ele>234.0</ele><time>2026-04-18T10:36:15.74Z</time></trkpt><trkpt lat="46.0233023" lon="8.2717259"><ele>234.0</ele><time>2026-04-18T10:36:16.716Z</time></trkpt><trkpt lat="46.0233009" lon="8.271886"><ele>234.0</ele><time>2026-04-18T10:36:17.724Z</time></trkpt><trkpt lat="46.0232992" lon="8.2720275"><ele>234.0</ele><time>2026-04-18T10:36:18.721Z</time></trkpt><trkpt lat="46.023292" lon="8.2721482"><ele>234.0</ele><time>2026-04-18T10:36:19.734Z</time></trkpt><trkpt lat="46.023281" lon="8.2722444"><ele>234.0</ele><time>2026-04-18T10:36:20.725Z</time></trkpt><trkpt lat="46.0233268" lon="8.2723872"><ele>234.0</ele><time>2026-04-18T10:36:22.726Z</time></trkpt><trkpt lat="46.0233335" lon="8.2724941"><ele>234.0</ele><time>2026-04-18T10:36:23.603Z</time></trkpt><trkpt lat="46.0233715" lon="8.2725883"><ele>234.0</ele><time>2026-04-18T10:36:24.614Z</time></trkpt><trkpt lat="46.0233906" lon="8.2726823"><ele>233.83333333333334</ele><time>2026-04-18T10:36:25.606Z</time></trkpt><trkpt lat="46.023379" lon="8.2728324"><ele>233.66666666666669</ele><time>2026-04-18T10:36:27.621Z</time></trkpt><trkpt lat="46.0234501" lon="8.2728945"><ele>233.5</ele><time>2026-04-18T10:36:29.63Z</time></trkpt><trkpt lat="46.0235115" lon="8.2728493"><ele>233.33333333333334</ele><time>2026-04-18T10:36:33.615Z</time></trkpt><trkpt lat="46.0235779" lon="8.2727985"><ele>233.16666666666669</ele><time>2026-04-18T10:38:42.624Z</time></trkpt><trkpt lat="46.0235127" lon="8.272812"><ele>233.0</ele><time>2026-04-18T10:39:51.606Z</time></trkpt><trkpt lat="46.023522" lon="8.2726831"><ele>233.00000000000003</ele><time>2026-04-18T10:39:54.616Z</time></trkpt><trkpt lat="46.0234629" lon="8.2726013"><ele>233.0</ele><time>2026-04-18T10:39:56.625Z</time></trkpt><trkpt lat="46.0233769" lon="8.2727382"><ele>233.0</ele><time>2026-04-18T10:39:59.629Z</time></trkpt><trkpt lat="46.0233181" lon="8.272816"><ele>233.0</ele><time>2026-04-18T10:40:01.639Z</time></trkpt><trkpt lat="46.0232748" lon="8.2728826"><ele>233.00000000000003</ele><time>2026-04-18T10:40:02.626Z</time></trkpt><trkpt lat="46.023246" lon="8.2729703"><ele>233.0</ele><time>2026-04-18T10:40:03.62Z</time></trkpt><trkpt lat="46.0232366" lon="8.2730981"><ele>232.66666666666669</ele><time>2026-04-18T10:40:04.619Z</time></trkpt><trkpt lat="46.0232449" lon="8.2732278"><ele>232.33333333333334</ele><time>2026-04-18T10:40:05.623Z</time></trkpt><trkpt lat="46.023233" lon="8.2733429"><ele>232.0</ele><time>2026-04-18T10:40:06.616Z</time></trkpt><trkpt lat="46.0232102" lon="8.2734539"><ele>231.66666666666669</ele><time>2026-04-18T10:40:07.616Z</time></trkpt><trkpt lat="46.0231905" lon="8.2735734"><ele>231.33333333333334</ele><time>2026-04-18T10:40:08.617Z</time></trkpt><trkpt lat="46.0231815" lon="8.2736777"><ele>231.0</ele><time>2026-04-18T10:40:09.618Z</time></trkpt><trkpt lat="46.0231834" lon="8.2737948"><ele>231.0</ele><time>2026-04-18T10:40:10.62Z</time></trkpt><trkpt lat="46.0231867" lon="8.2739321"><ele>231.00000000000003</ele><time>2026-04-18T10:40:11.62Z</time></trkpt><trkpt lat="46.0231884" lon="8.274073"><ele>231.00000000000003</ele><time>2026-04-18T10:40:12.621Z</time></trkpt><trkpt lat="46.0231785" lon="8.2742131"><ele>231.0</ele><time>2026-04-18T10:40:13.623Z</time></trkpt><trkpt lat="46.0231802" lon="8.2743651"><ele>231.0</ele><time>2026-04-18T10:40:14.623Z</time></trkpt><trkpt lat="46.0231851" lon="8.2745287"><ele>230.75</ele><time>2026-04-18T10:40:15.625Z</time></trkpt><trkpt lat="46.0231875" lon="8.2746952"><ele>230.5</ele><time>2026-04-18T10:40:16.622Z</time></trkpt><trkpt lat="46.0231769" lon="8.2748473"><ele>230.25</ele><time>2026-04-18T10:40:17.624Z</time></trkpt><trkpt lat="46.0231696" lon="8.2750215"><ele>230.0</ele><time>2026-04-18T10:40:18.627Z</time></trkpt><trkpt lat="46.023164" lon="8.275193"><ele>229.8</ele><time>2026-04-18T10:40:19.629Z</time></trkpt><trkpt lat="46.0231572" lon="8.2753354"><ele>229.6</ele><time>2026-04-18T10:40:20.621Z</time></trkpt><trkpt lat="46.0231568" lon="8.27548"><ele>229.39999999999998</ele><time>2026-04-18T10:40:21.611Z</time></trkpt><trkpt lat="46.0231483" lon="8.2756248"><ele>229.2</ele><time>2026-04-18T10:40:22.628Z</time></trkpt><trkpt lat="46.0231431" lon="8.2757598"><ele>229.0</ele><time>2026-04-18T10:40:23.659Z</time></trkpt><trkpt lat="46.0231362" lon="8.2758929"><ele>229.0</ele><time>2026-04-18T10:40:24.628Z</time></trkpt><trkpt lat="46.0231368" lon="8.2760233"><ele>228.99999999999997</ele><time>2026-04-18T10:40:25.623Z</time></trkpt><trkpt lat="46.0231317" lon="8.2761708"><ele>228.99999999999997</ele><time>2026-04-18T10:40:26.624Z</time></trkpt><trkpt lat="46.0231259" lon="8.2763033"><ele>229.0</ele><time>2026-04-18T10:40:27.631Z</time></trkpt><trkpt lat="46.0231223" lon="8.2764277"><ele>229.0</ele><time>2026-04-18T10:40:28.627Z</time></trkpt><trkpt lat="46.0231147" lon="8.2765513"><ele>229.0</ele><time>2026-04-18T10:40:29.627Z</time></trkpt><trkpt lat="46.023108" lon="8.2766857"><ele>228.99999999999997</ele><time>2026-04-18T10:40:30.629Z</time></trkpt><trkpt lat="46.0231042" lon="8.2768129"><ele>228.99999999999997</ele><time>2026-04-18T10:40:31.627Z</time></trkpt><trkpt lat="46.0231023" lon="8.2769428"><ele>229.0</ele><time>2026-04-18T10:40:32.622Z</time></trkpt><trkpt lat="46.0231069" lon="8.277073"><ele>229.0</ele><time>2026-04-18T10:40:33.618Z</time></trkpt><trkpt lat="46.023114" lon="8.2772132"><ele>229.0</ele><time>2026-04-18T10:40:34.617Z</time></trkpt><trkpt lat="46.023107" lon="8.2773464"><ele>228.99999999999997</ele><time>2026-04-18T10:40:35.61Z</time></trkpt><trkpt lat="46.023106" lon="8.2774762"><ele>228.99999999999997</ele><time>2026-04-18T10:40:36.62Z</time></trkpt><trkpt lat="46.0231249" lon="8.2776119"><ele>229.0</ele><time>2026-04-18T10:40:37.618Z</time></trkpt><trkpt lat="46.0231531" lon="8.2777352"><ele>229.0</ele><time>2026-04-18T10:40:38.616Z</time></trkpt><trkpt lat="46.0231887" lon="8.2778447"><ele>229.0</ele><time>2026-04-18T10:40:39.615Z</time></trkpt><trkpt lat="46.0232169" lon="8.2779638"><ele>228.99999999999997</ele><time>2026-04-18T10:40:40.626Z</time></trkpt><trkpt lat="46.0232321" lon="8.2780739"><ele>228.99999999999997</ele><time>2026-04-18T10:40:41.615Z</time></trkpt><trkpt lat="46.0232423" lon="8.2782106"><ele>229.0</ele><time>2026-04-18T10:40:42.62Z</time></trkpt><trkpt lat="46.0232466" lon="8.278352"><ele>229.0</ele><time>2026-04-18T10:40:43.621Z</time></trkpt><trkpt lat="46.0232279" lon="8.2784912"><ele>228.6</ele><time>2026-04-18T10:40:44.615Z</time></trkpt><trkpt lat="46.0231966" lon="8.2786203"><ele>228.2</ele><time>2026-04-18T10:40:45.61Z</time></trkpt><trkpt lat="46.0231579" lon="8.2787239"><ele>227.79999999999998</ele><time>2026-04-18T10:40:46.603Z</time></trkpt><trkpt lat="46.0230931" lon="8.2788295"><ele>227.39999999999998</ele><time>2026-04-18T10:40:47.604Z</time></trkpt><trkpt lat="46.0230238" lon="8.278923"><ele>227.0</ele><time>2026-04-18T10:40:48.616Z</time></trkpt><trkpt lat="46.0229307" lon="8.2790207"><ele>227.0</ele><time>2026-04-18T10:40:49.621Z</time></trkpt><trkpt lat="46.0228344" lon="8.2791151"><ele>227.0</ele><time>2026-04-18T10:40:50.62Z</time></trkpt><trkpt lat="46.0227365" lon="8.2792179"><ele>227.0</ele><time>2026-04-18T10:40:51.618Z</time></trkpt><trkpt lat="46.0226387" lon="8.2793212"><ele>227.0</ele><time>2026-04-18T10:40:52.623Z</time></trkpt><trkpt lat="46.0225437" lon="8.279431"><ele>227.2</ele><time>2026-04-18T10:40:53.641Z</time></trkpt><trkpt lat="46.0224548" lon="8.27955"><ele>227.39999999999998</ele><time>2026-04-18T10:40:54.624Z</time></trkpt><trkpt lat="46.022376" lon="8.2796648"><ele>227.60000000000002</ele><time>2026-04-18T10:40:55.62Z</time></trkpt><trkpt lat="46.0223218" lon="8.2797987"><ele>227.8</ele><time>2026-04-18T10:40:56.613Z</time></trkpt><trkpt lat="46.0222778" lon="8.2799343"><ele>228.0</ele><time>2026-04-18T10:40:57.632Z</time></trkpt><trkpt lat="46.0222432" lon="8.2800694"><ele>228.0</ele><time>2026-04-18T10:40:58.625Z</time></trkpt><trkpt lat="46.0222247" lon="8.2802141"><ele>228.0</ele><time>2026-04-18T10:40:59.625Z</time></trkpt><trkpt lat="46.0222195" lon="8.2803693"><ele>228.0</ele><time>2026-04-18T10:41:00.622Z</time></trkpt><trkpt lat="46.0222182" lon="8.2805211"><ele>228.0</ele><time>2026-04-18T10:41:01.617Z</time></trkpt><trkpt lat="46.0222213" lon="8.2806664"><ele>228.0</ele><time>2026-04-18T10:41:02.613Z</time></trkpt><trkpt lat="46.02222" lon="8.2808035"><ele>227.8</ele><time>2026-04-18T10:41:03.627Z</time></trkpt><trkpt lat="46.0222153" lon="8.2809379"><ele>227.60000000000002</ele><time>2026-04-18T10:41:04.619Z</time></trkpt><trkpt lat="46.0222335" lon="8.2810903"><ele>227.39999999999998</ele><time>2026-04-18T10:41:05.623Z</time></trkpt><trkpt lat="46.0222423" lon="8.2812467"><ele>227.2</ele><time>2026-04-18T10:41:06.621Z</time></trkpt><trkpt lat="46.0222452" lon="8.2813948"><ele>227.0</ele><time>2026-04-18T10:41:07.615Z</time></trkpt><trkpt lat="46.022241" lon="8.281555"><ele>226.39999999999998</ele><time>2026-04-18T10:41:08.618Z</time></trkpt><trkpt lat="46.0222437" lon="8.2817099"><ele>225.79999999999998</ele><time>2026-04-18T10:41:09.623Z</time></trkpt><trkpt lat="46.0222456" lon="8.2818605"><ele>225.2</ele><time>2026-04-18T10:41:10.624Z</time></trkpt><trkpt lat="46.022248" lon="8.2819994"><ele>224.6</ele><time>2026-04-18T10:41:11.625Z</time></trkpt><trkpt lat="46.0222569" lon="8.2821454"><ele>224.0</ele><time>2026-04-18T10:41:12.621Z</time></trkpt><trkpt lat="46.0222636" lon="8.2822814"><ele>223.6</ele><time>2026-04-18T10:41:13.628Z</time></trkpt><trkpt lat="46.0222721" lon="8.2824096"><ele>223.2</ele><time>2026-04-18T10:41:14.628Z</time></trkpt><trkpt lat="46.0222795" lon="8.2825337"><ele>222.79999999999998</ele><time>2026-04-18T10:41:15.624Z</time></trkpt><trkpt lat="46.0222877" lon="8.2826641"><ele>222.39999999999998</ele><time>2026-04-18T10:41:16.619Z</time></trkpt><trkpt lat="46.0222762" lon="8.2827748"><ele>222.0</ele><time>2026-04-18T10:41:17.614Z</time></trkpt><trkpt lat="46.0222675" lon="8.2829659"><ele>223.6</ele><time>2026-04-18T10:41:19.622Z</time></trkpt><trkpt lat="46.0222548" lon="8.2831042"><ele>225.2</ele><time>2026-04-18T10:41:21.624Z</time></trkpt><trkpt lat="46.0222613" lon="8.283211"><ele>226.8</ele><time>2026-04-18T10:41:23.622Z</time></trkpt><trkpt lat="46.0223393" lon="8.2832143"><ele>228.4</ele><time>2026-04-18T10:41:25.607Z</time></trkpt><trkpt lat="46.0224384" lon="8.2831794"><ele>230.0</ele><time>2026-04-18T10:41:27.616Z</time></trkpt><trkpt lat="46.0225436" lon="8.2831483"><ele>229.0</ele><time>2026-04-18T10:41:29.602Z</time></trkpt><trkpt lat="46.02261" lon="8.2829531"><ele>228.0</ele><time>2026-04-18T10:41:30.607Z</time></trkpt><trkpt lat="46.02272" lon="8.2828899"><ele>227.0</ele><time>2026-04-18T10:41:31.625Z</time></trkpt><trkpt lat="46.0228335" lon="8.2828788"><ele>226.0</ele><time>2026-04-18T10:41:32.619Z</time></trkpt><trkpt lat="46.0229579" lon="8.2829064"><ele>226.0</ele><time>2026-04-18T10:41:33.607Z</time></trkpt><trkpt lat="46.0230807" lon="8.2829649"><ele>226.0</ele><time>2026-04-18T10:41:34.63Z</time></trkpt><trkpt lat="46.0231969" lon="8.2830535"><ele>226.0</ele><time>2026-04-18T10:41:35.62Z</time></trkpt><trkpt lat="46.0233221" lon="8.2831385"><ele>226.0</ele><time>2026-04-18T10:41:36.625Z</time></trkpt><trkpt lat="46.0234512" lon="8.2832315"><ele>234.0</ele><time>2026-04-18T10:41:37.62Z</time></trkpt><trkpt lat="46.0235983" lon="8.2833285"><ele>242.0</ele><time>2026-04-18T10:41:38.62Z</time></trkpt><trkpt lat="46.0237953" lon="8.2834211"><ele>250.0</ele><time>2026-04-18T10:41:39.621Z</time></trkpt><trkpt lat="46.0239389" lon="8.2834552"><ele>250.0</ele><time>2026-04-18T10:41:40.624Z</time></trkpt><trkpt lat="46.0240799" lon="8.2834689"><ele>250.0</ele><time>2026-04-18T10:41:41.622Z</time></trkpt><trkpt lat="46.0242149" lon="8.283478"><ele>250.0</ele><time>2026-04-18T10:41:42.621Z</time></trkpt><trkpt lat="46.0243456" lon="8.283492"><ele>250.0</ele><time>2026-04-18T10:41:43.708Z</time></trkpt><trkpt lat="46.0244812" lon="8.2835155"><ele>246.0</ele><time>2026-04-18T10:41:44.708Z</time></trkpt><trkpt lat="46.0246197" lon="8.2835399"><ele>242.0</ele><time>2026-04-18T10:41:45.72Z</time></trkpt><trkpt lat="46.0247609" lon="8.2835703"><ele>238.0</ele><time>2026-04-18T10:41:46.712Z</time></trkpt><trkpt lat="46.0248929" lon="8.2836095"><ele>234.0</ele><time>2026-04-18T10:41:47.714Z</time></trkpt><trkpt lat="46.0250279" lon="8.2836536"><ele>232.25</ele><time>2026-04-18T10:41:48.717Z</time></trkpt><trkpt lat="46.0251734" lon="8.2836989"><ele>230.5</ele><time>2026-04-18T10:41:49.724Z</time></trkpt><trkpt lat="46.0253075" lon="8.2837542"><ele>228.75</ele><time>2026-04-18T10:41:50.723Z</time></trkpt><trkpt lat="46.0254384" lon="8.2838058"><ele>227.0</ele><time>2026-04-18T10:41:51.725Z</time></trkpt><trkpt lat="46.0255672" lon="8.2838671"><ele>227.0</ele><time>2026-04-18T10:41:52.72Z</time></trkpt><trkpt lat="46.0257066" lon="8.2839273"><ele>227.0</ele><time>2026-04-18T10:41:53.722Z</time></trkpt><trkpt lat="46.0258624" lon="8.2839612"><ele>227.0</ele><time>2026-04-18T10:41:54.714Z</time></trkpt><trkpt lat="46.0260049" lon="8.2840325"><ele>231.25</ele><time>2026-04-18T10:41:55.728Z</time></trkpt><trkpt lat="46.0261395" lon="8.2840941"><ele>235.5</ele><time>2026-04-18T10:41:56.718Z</time></trkpt><trkpt lat="46.0262733" lon="8.2841536"><ele>239.75</ele><time>2026-04-18T10:41:57.724Z</time></trkpt><trkpt lat="46.0264019" lon="8.2842099"><ele>244.0</ele><time>2026-04-18T10:41:58.717Z</time></trkpt><trkpt lat="46.02653" lon="8.2842617"><ele>239.75</ele><time>2026-04-18T10:41:59.719Z</time></trkpt><trkpt lat="46.0266604" lon="8.2843125"><ele>235.5</ele><time>2026-04-18T10:42:00.719Z</time></trkpt><trkpt lat="46.0267954" lon="8.2843585"><ele>231.25</ele><time>2026-04-18T10:42:01.717Z</time></trkpt><trkpt lat="46.0269308" lon="8.2843916"><ele>227.0</ele><time>2026-04-18T10:42:02.717Z</time></trkpt><trkpt lat="46.0270615" lon="8.2844451"><ele>227.0</ele><time>2026-04-18T10:42:03.715Z</time></trkpt><trkpt lat="46.0271903" lon="8.2844999"><ele>227.0</ele><time>2026-04-18T10:42:04.712Z</time></trkpt><trkpt lat="46.0273194" lon="8.2845489"><ele>227.0</ele><time>2026-04-18T10:42:05.726Z</time></trkpt><trkpt lat="46.0274434" lon="8.2845714"><ele>227.0</ele><time>2026-04-18T10:42:06.71Z</time></trkpt><trkpt lat="46.0275817" lon="8.2846143"><ele>226.5</ele><time>2026-04-18T10:42:07.716Z</time></trkpt><trkpt lat="46.0277145" lon="8.2846546"><ele>226.0</ele><time>2026-04-18T10:42:08.715Z</time></trkpt><trkpt lat="46.0278454" lon="8.2846918"><ele>225.5</ele><time>2026-04-18T10:42:09.72Z</time></trkpt><trkpt lat="46.0279794" lon="8.2847261"><ele>225.0</ele><time>2026-04-18T10:42:10.725Z</time></trkpt><trkpt lat="46.0281186" lon="8.2847505"><ele>227.0</ele><time>2026-04-18T10:42:11.716Z</time></trkpt><trkpt lat="46.0282589" lon="8.2847821"><ele>229.0</ele><time>2026-04-18T10:42:12.718Z</time></trkpt><trkpt lat="46.0283898" lon="8.2848097"><ele>231.0</ele><time>2026-04-18T10:42:13.721Z</time></trkpt><trkpt lat="46.0285256" lon="8.2848261"><ele>233.0</ele><time>2026-04-18T10:42:14.717Z</time></trkpt><trkpt lat="46.0286601" lon="8.2848399"><ele>233.75</ele><time>2026-04-18T10:42:15.714Z</time></trkpt><trkpt lat="46.0288014" lon="8.2848507"><ele>234.5</ele><time>2026-04-18T10:42:16.719Z</time></trkpt><trkpt lat="46.0289392" lon="8.2848545"><ele>235.25</ele><time>2026-04-18T10:42:17.721Z</time></trkpt><trkpt lat="46.0290787" lon="8.2848597"><ele>236.0</ele><time>2026-04-18T10:42:18.72Z</time></trkpt><trkpt lat="46.0292215" lon="8.2848566"><ele>236.25</ele><time>2026-04-18T10:42:19.721Z</time></trkpt><trkpt lat="46.0293572" lon="8.2848449"><ele>236.5</ele><time>2026-04-18T10:42:20.72Z</time></trkpt><trkpt lat="46.0294921" lon="8.2848346"><ele>236.75</ele><time>2026-04-18T10:42:21.72Z</time></trkpt><trkpt lat="46.0296232" lon="8.2848259"><ele>237.0</ele><time>2026-04-18T10:42:22.722Z</time></trkpt><trkpt lat="46.029754" lon="8.2848161"><ele>237.0</ele><time>2026-04-18T10:42:23.717Z</time></trkpt><trkpt lat="46.0298942" lon="8.2848049"><ele>237.0</ele><time>2026-04-18T10:42:24.717Z</time></trkpt><trkpt lat="46.0300269" lon="8.2847887"><ele>237.0</ele><time>2026-04-18T10:42:25.72Z</time></trkpt><trkpt lat="46.0301617" lon="8.2847798"><ele>237.0</ele><time>2026-04-18T10:42:26.736Z</time></trkpt><trkpt lat="46.0303012" lon="8.2847632"><ele>234.75</ele><time>2026-04-18T10:42:27.72Z</time></trkpt><trkpt lat="46.0304375" lon="8.2847479"><ele>232.5</ele><time>2026-04-18T10:42:28.725Z</time></trkpt><trkpt lat="46.0305739" lon="8.2847317"><ele>230.25</ele><time>2026-04-18T10:42:29.717Z</time></trkpt><trkpt lat="46.0307139" lon="8.2847155"><ele>228.0</ele><time>2026-04-18T10:42:30.723Z</time></trkpt><trkpt lat="46.0308558" lon="8.2846931"><ele>228.0</ele><time>2026-04-18T10:42:31.725Z</time></trkpt><trkpt lat="46.0309845" lon="8.2846604"><ele>228.0</ele><time>2026-04-18T10:42:32.719Z</time></trkpt><trkpt lat="46.0311096" lon="8.2846205"><ele>228.0</ele><time>2026-04-18T10:42:33.715Z</time></trkpt><trkpt lat="46.0312319" lon="8.2845515"><ele>228.0</ele><time>2026-04-18T10:42:34.712Z</time></trkpt><trkpt lat="46.0313548" lon="8.2844474"><ele>228.0</ele><time>2026-04-18T10:42:35.711Z</time></trkpt><trkpt lat="46.0314739" lon="8.2843282"><ele>228.0</ele><time>2026-04-18T10:42:36.707Z</time></trkpt><trkpt lat="46.0315811" lon="8.2842264"><ele>228.0</ele><time>2026-04-18T10:42:37.701Z</time></trkpt><trkpt lat="46.0316816" lon="8.2841427"><ele>228.0</ele><time>2026-04-18T10:42:38.703Z</time></trkpt><trkpt lat="46.0317863" lon="8.2840831"><ele>227.25</ele><time>2026-04-18T10:42:39.695Z</time></trkpt><trkpt lat="46.0319017" lon="8.2840271"><ele>226.5</ele><time>2026-04-18T10:42:40.717Z</time></trkpt><trkpt lat="46.0320284" lon="8.2839737"><ele>225.75</ele><time>2026-04-18T10:42:41.708Z</time></trkpt><trkpt lat="46.0321541" lon="8.2839196"><ele>225.0</ele><time>2026-04-18T10:42:42.719Z</time></trkpt><trkpt lat="46.0322839" lon="8.2838773"><ele>225.0</ele><time>2026-04-18T10:42:43.713Z</time></trkpt><trkpt lat="46.032417" lon="8.2838218"><ele>225.0</ele><time>2026-04-18T10:42:44.717Z</time></trkpt><trkpt lat="46.0325492" lon="8.2837707"><ele>225.0</ele><time>2026-04-18T10:42:45.719Z</time></trkpt><trkpt lat="46.0326762" lon="8.283711"><ele>225.0</ele><time>2026-04-18T10:42:46.71Z</time></trkpt><trkpt lat="46.0327938" lon="8.2836349"><ele>225.75</ele><time>2026-04-18T10:42:47.713Z</time></trkpt><trkpt lat="46.0329117" lon="8.2835549"><ele>226.5</ele><time>2026-04-18T10:42:48.713Z</time></trkpt><trkpt lat="46.0330102" lon="8.283444"><ele>227.25</ele><time>2026-04-18T10:42:49.702Z</time></trkpt><trkpt lat="46.0331004" lon="8.2833286"><ele>228.0</ele><time>2026-04-18T10:42:50.695Z</time></trkpt><trkpt lat="46.0331726" lon="8.2832003"><ele>228.0</ele><time>2026-04-18T10:42:51.699Z</time></trkpt><trkpt lat="46.0332466" lon="8.2830654"><ele>228.0</ele><time>2026-04-18T10:42:52.703Z</time></trkpt><trkpt lat="46.0333149" lon="8.2829478"><ele>228.0</ele><time>2026-04-18T10:42:53.714Z</time></trkpt><trkpt lat="46.0333752" lon="8.2828427"><ele>228.0</ele><time>2026-04-18T10:42:54.715Z</time></trkpt><trkpt lat="46.0334331" lon="8.2827608"><ele>228.0</ele><time>2026-04-18T10:42:55.721Z</time></trkpt><trkpt lat="46.0334929" lon="8.2827023"><ele>228.0</ele><time>2026-04-18T10:42:56.708Z</time></trkpt><trkpt lat="46.0335541" lon="8.2826638"><ele>228.0</ele><time>2026-04-18T10:42:57.73Z</time></trkpt><trkpt lat="46.0336688" lon="8.2826345"><ele>228.0</ele><time>2026-04-18T10:42:59.699Z</time></trkpt><trkpt lat="46.0337433" lon="8.2825755"><ele>228.0</ele><time>2026-04-18T10:43:01.691Z</time></trkpt><trkpt lat="46.0338054" lon="8.2824723"><ele>228.0</ele><time>2026-04-18T10:43:03.714Z</time></trkpt><trkpt lat="46.0338473" lon="8.2823985"><ele>228.0</ele><time>2026-04-18T10:43:04.69Z</time></trkpt><trkpt lat="46.0338974" lon="8.282308"><ele>228.4</ele><time>2026-04-18T10:43:05.686Z</time></trkpt><trkpt lat="46.0339721" lon="8.2821807"><ele>228.8</ele><time>2026-04-18T10:43:06.703Z</time></trkpt><trkpt lat="46.0340376" lon="8.2820843"><ele>229.2</ele><time>2026-04-18T10:43:07.704Z</time></trkpt><trkpt lat="46.0341009" lon="8.2819934"><ele>229.6</ele><time>2026-04-18T10:43:08.712Z</time></trkpt><trkpt lat="46.0341547" lon="8.2819044"><ele>230.0</ele><time>2026-04-18T10:43:09.702Z</time></trkpt><trkpt lat="46.0342025" lon="8.2818157"><ele>230.0</ele><time>2026-04-18T10:43:10.705Z</time></trkpt><trkpt lat="46.034242" lon="8.2817071"><ele>230.0</ele><time>2026-04-18T10:43:11.704Z</time></trkpt><trkpt lat="46.0342695" lon="8.2815996"><ele>230.0</ele><time>2026-04-18T10:43:12.696Z</time></trkpt><trkpt lat="46.0343452" lon="8.2814739"><ele>230.0</ele><time>2026-04-18T10:43:13.603Z</time></trkpt><trkpt lat="46.0343745" lon="8.2813493"><ele>230.0</ele><time>2026-04-18T10:43:14.605Z</time></trkpt><trkpt lat="46.0343999" lon="8.2811936"><ele>229.8</ele><time>2026-04-18T10:43:15.597Z</time></trkpt><trkpt lat="46.0344233" lon="8.2810364"><ele>229.6</ele><time>2026-04-18T10:43:16.613Z</time></trkpt><trkpt lat="46.0344405" lon="8.2808902"><ele>229.39999999999998</ele><time>2026-04-18T10:43:17.611Z</time></trkpt><trkpt lat="46.0344554" lon="8.2807447"><ele>229.2</ele><time>2026-04-18T10:43:18.612Z</time></trkpt><trkpt lat="46.0344672" lon="8.2805926"><ele>229.0</ele><time>2026-04-18T10:43:19.611Z</time></trkpt><trkpt lat="46.0344972" lon="8.2804375"><ele>228.39999999999998</ele><time>2026-04-18T10:43:20.616Z</time></trkpt><trkpt lat="46.0345294" lon="8.2802734"><ele>227.79999999999998</ele><time>2026-04-18T10:43:21.607Z</time></trkpt><trkpt lat="46.0345749" lon="8.2801405"><ele>227.20000000000002</ele><time>2026-04-18T10:43:22.606Z</time></trkpt><trkpt lat="46.0345944" lon="8.2800123"><ele>226.60000000000002</ele><time>2026-04-18T10:43:23.608Z</time></trkpt><trkpt lat="46.0346043" lon="8.2798969"><ele>226.0</ele><time>2026-04-18T10:43:24.61Z</time></trkpt><trkpt lat="46.0346097" lon="8.2797783"><ele>225.66666666666666</ele><time>2026-04-18T10:43:25.614Z</time></trkpt><trkpt lat="46.0346231" lon="8.2796525"><ele>225.33333333333331</ele><time>2026-04-18T10:43:26.609Z</time></trkpt><trkpt lat="46.0346402" lon="8.2795254"><ele>225.0</ele><time>2026-04-18T10:43:27.623Z</time></trkpt><trkpt lat="46.0346644" lon="8.2794006"><ele>224.66666666666669</ele><time>2026-04-18T10:43:28.631Z</time></trkpt><trkpt lat="46.0346718" lon="8.2792641"><ele>224.33333333333334</ele><time>2026-04-18T10:43:29.602Z</time></trkpt><trkpt lat="46.0346644" lon="8.2791454"><ele>224.0</ele><time>2026-04-18T10:43:30.617Z</time></trkpt><trkpt lat="46.0346939" lon="8.2789855"><ele>223.6</ele><time>2026-04-18T10:43:32.613Z</time></trkpt><trkpt lat="46.0347649" lon="8.2788307"><ele>223.2</ele><time>2026-04-18T10:43:34.609Z</time></trkpt><trkpt lat="46.0348175" lon="8.2787577"><ele>222.79999999999998</ele><time>2026-04-18T10:43:35.605Z</time></trkpt><trkpt lat="46.0348684" lon="8.2786807"><ele>222.39999999999998</ele><time>2026-04-18T10:43:36.611Z</time></trkpt><trkpt lat="46.0349111" lon="8.278576"><ele>222.0</ele><time>2026-04-18T10:43:37.602Z</time></trkpt><trkpt lat="46.034961" lon="8.2784658"><ele>222.2</ele><time>2026-04-18T10:43:38.609Z</time></trkpt><trkpt lat="46.0350052" lon="8.2783585"><ele>222.39999999999998</ele><time>2026-04-18T10:43:39.612Z</time></trkpt><trkpt lat="46.0350339" lon="8.2782407"><ele>222.60000000000002</ele><time>2026-04-18T10:43:40.604Z</time></trkpt><trkpt lat="46.0350771" lon="8.2781241"><ele>222.8</ele><time>2026-04-18T10:43:41.608Z</time></trkpt><trkpt lat="46.0351231" lon="8.2780067"><ele>223.0</ele><time>2026-04-18T10:43:42.614Z</time></trkpt><trkpt lat="46.0351837" lon="8.2778782"><ele>223.0</ele><time>2026-04-18T10:43:43.62Z</time></trkpt><trkpt lat="46.0352545" lon="8.2777379"><ele>223.0</ele><time>2026-04-18T10:43:44.617Z</time></trkpt><trkpt lat="46.0353139" lon="8.2775923"><ele>223.0</ele><time>2026-04-18T10:43:45.615Z</time></trkpt><trkpt lat="46.0353771" lon="8.2774543"><ele>223.0</ele><time>2026-04-18T10:43:46.621Z</time></trkpt><trkpt lat="46.0354585" lon="8.2773127"><ele>223.25</ele><time>2026-04-18T10:43:47.611Z</time></trkpt><trkpt lat="46.0355236" lon="8.2771768"><ele>223.5</ele><time>2026-04-18T10:43:48.61Z</time></trkpt><trkpt lat="46.0355852" lon="8.27705"><ele>223.75</ele><time>2026-04-18T10:43:49.613Z</time></trkpt><trkpt lat="46.0356726" lon="8.2769123"><ele>224.0</ele><time>2026-04-18T10:43:50.617Z</time></trkpt><trkpt lat="46.0357561" lon="8.2767791"><ele>224.39999999999998</ele><time>2026-04-18T10:43:51.613Z</time></trkpt><trkpt lat="46.0358498" lon="8.2766701"><ele>224.79999999999998</ele><time>2026-04-18T10:43:52.617Z</time></trkpt><trkpt lat="46.0359318" lon="8.2765879"><ele>225.20000000000002</ele><time>2026-04-18T10:43:53.614Z</time></trkpt><trkpt lat="46.0360148" lon="8.2765055"><ele>225.60000000000002</ele><time>2026-04-18T10:43:54.615Z</time></trkpt><trkpt lat="46.0361078" lon="8.2764273"><ele>226.0</ele><time>2026-04-18T10:43:55.619Z</time></trkpt><trkpt lat="46.0362095" lon="8.2763311"><ele>226.0</ele><time>2026-04-18T10:43:56.621Z</time></trkpt><trkpt lat="46.0363223" lon="8.2762477"><ele>226.0</ele><time>2026-04-18T10:43:57.618Z</time></trkpt><trkpt lat="46.0364278" lon="8.2761645"><ele>226.0</ele><time>2026-04-18T10:43:58.618Z</time></trkpt><trkpt lat="46.0365313" lon="8.2760811"><ele>226.0</ele><time>2026-04-18T10:43:59.642Z</time></trkpt><trkpt lat="46.0366371" lon="8.2760042"><ele>227.5</ele><time>2026-04-18T10:44:00.625Z</time></trkpt><trkpt lat="46.0367463" lon="8.275936"><ele>229.0</ele><time>2026-04-18T10:44:01.617Z</time></trkpt><trkpt lat="46.0368544" lon="8.2758721"><ele>230.5</ele><time>2026-04-18T10:44:02.611Z</time></trkpt><trkpt lat="46.0369652" lon="8.2758184"><ele>232.0</ele><time>2026-04-18T10:44:03.626Z</time></trkpt><trkpt lat="46.0370724" lon="8.2757514"><ele>232.0</ele><time>2026-04-18T10:44:04.623Z</time></trkpt><trkpt lat="46.0371824" lon="8.275685"><ele>232.0</ele><time>2026-04-18T10:44:05.617Z</time></trkpt><trkpt lat="46.0372837" lon="8.2756379"><ele>232.0</ele><time>2026-04-18T10:44:06.619Z</time></trkpt><trkpt lat="46.0373774" lon="8.2755913"><ele>232.0</ele><time>2026-04-18T10:44:07.611Z</time></trkpt><trkpt lat="46.0374672" lon="8.2755504"><ele>232.0</ele><time>2026-04-18T10:44:08.618Z</time></trkpt><trkpt lat="46.0375541" lon="8.2755156"><ele>230.8</ele><time>2026-04-18T10:44:09.614Z</time></trkpt><trkpt lat="46.037639" lon="8.2754918"><ele>229.6</ele><time>2026-04-18T10:44:10.619Z</time></trkpt><trkpt lat="46.0377351" lon="8.2754749"><ele>228.40000000000003</ele><time>2026-04-18T10:44:11.62Z</time></trkpt><trkpt lat="46.0378399" lon="8.2754855"><ele>227.20000000000002</ele><time>2026-04-18T10:44:12.611Z</time></trkpt><trkpt lat="46.0379426" lon="8.2755088"><ele>226.0</ele><time>2026-04-18T10:44:13.618Z</time></trkpt><trkpt lat="46.0380489" lon="8.2755089"><ele>226.0</ele><time>2026-04-18T10:44:14.618Z</time></trkpt><trkpt lat="46.0381544" lon="8.2755444"><ele>226.00000000000003</ele><time>2026-04-18T10:44:15.62Z</time></trkpt><trkpt lat="46.0382588" lon="8.2755654"><ele>226.00000000000003</ele><time>2026-04-18T10:44:16.625Z</time></trkpt><trkpt lat="46.0383539" lon="8.2755699"><ele>226.0</ele><time>2026-04-18T10:44:17.608Z</time></trkpt><trkpt lat="46.0384681" lon="8.2756104"><ele>226.0</ele><time>2026-04-18T10:44:18.612Z</time></trkpt><trkpt lat="46.0385774" lon="8.2756327"><ele>227.4</ele><time>2026-04-18T10:44:19.624Z</time></trkpt><trkpt lat="46.0386853" lon="8.2756667"><ele>228.8</ele><time>2026-04-18T10:44:20.619Z</time></trkpt><trkpt lat="46.0387948" lon="8.2757005"><ele>230.20000000000002</ele><time>2026-04-18T10:44:21.624Z</time></trkpt><trkpt lat="46.0388956" lon="8.2757551"><ele>231.60000000000002</ele><time>2026-04-18T10:44:22.611Z</time></trkpt><trkpt lat="46.0389911" lon="8.2757992"><ele>233.0</ele><time>2026-04-18T10:44:23.614Z</time></trkpt><trkpt lat="46.0390578" lon="8.2758359"><ele>233.0</ele><time>2026-04-18T10:44:24.61Z</time></trkpt><trkpt lat="46.039123" lon="8.2758743"><ele>233.0</ele><time>2026-04-18T10:44:27.626Z</time></trkpt><trkpt lat="46.0392188" lon="8.2758136"><ele>233.0</ele><time>2026-04-18T10:44:34.622Z</time></trkpt><trkpt lat="46.0392866" lon="8.2757443"><ele>233.0</ele><time>2026-04-18T10:44:35.609Z</time></trkpt><trkpt lat="46.0393685" lon="8.2756798"><ele>233.0</ele><time>2026-04-18T10:44:37.616Z</time></trkpt><trkpt lat="46.0394782" lon="8.2756647"><ele>232.50000000000003</ele><time>2026-04-18T10:44:39.602Z</time></trkpt><trkpt lat="46.0395414" lon="8.2756549"><ele>232.0</ele><time>2026-04-18T10:44:40.623Z</time></trkpt><trkpt lat="46.0396624" lon="8.2756324"><ele>231.5</ele><time>2026-04-18T10:44:42.615Z</time></trkpt><trkpt lat="46.039725" lon="8.2756137"><ele>231.0</ele><time>2026-04-18T10:44:43.613Z</time></trkpt><trkpt lat="46.0397984" lon="8.2755699"><ele>230.50000000000003</ele><time>2026-04-18T10:44:44.607Z</time></trkpt><trkpt lat="46.0398833" lon="8.2755325"><ele>230.0</ele><time>2026-04-18T10:44:45.614Z</time></trkpt><trkpt lat="46.0399538" lon="8.2755063"><ele>229.6</ele><time>2026-04-18T10:44:46.61Z</time></trkpt><trkpt lat="46.040015" lon="8.2754698"><ele>229.2</ele><time>2026-04-18T10:44:47.62Z</time></trkpt><trkpt lat="46.0401254" lon="8.2754023"><ele>228.8</ele><time>2026-04-18T10:44:49.618Z</time></trkpt><trkpt lat="46.0402247" lon="8.2753363"><ele>228.4</ele><time>2026-04-18T10:44:51.621Z</time></trkpt><trkpt lat="46.0402751" lon="8.2752785"><ele>228.0</ele><time>2026-04-18T10:44:52.612Z</time></trkpt><trkpt lat="46.040345" lon="8.2751926"><ele>228.0</ele><time>2026-04-18T10:44:53.611Z</time></trkpt><trkpt lat="46.0404059" lon="8.2751218"><ele>228.0</ele><time>2026-04-18T10:44:54.615Z</time></trkpt><trkpt lat="46.0404815" lon="8.2750029"><ele>228.0</ele><time>2026-04-18T10:44:56.605Z</time></trkpt><trkpt lat="46.0405842" lon="8.2748664"><ele>228.0</ele><time>2026-04-18T10:44:58.611Z</time></trkpt><trkpt lat="46.0406394" lon="8.2747908"><ele>228.0</ele><time>2026-04-18T10:44:59.61Z</time></trkpt><trkpt lat="46.040685" lon="8.2747075"><ele>227.85714285714283</ele><time>2026-04-18T10:45:00.623Z</time></trkpt><trkpt lat="46.0407363" lon="8.2746423"><ele>227.7142857142857</ele><time>2026-04-18T10:45:01.591Z</time></trkpt><trkpt lat="46.0407983" lon="8.2745676"><ele>227.57142857142856</ele><time>2026-04-18T10:45:03.591Z</time></trkpt><trkpt lat="46.0408448" lon="8.2745031"><ele>227.42857142857144</ele><time>2026-04-18T10:45:09.598Z</time></trkpt><trkpt lat="46.0408897" lon="8.2744312"><ele>227.2857142857143</ele><time>2026-04-18T10:45:10.593Z</time></trkpt><trkpt lat="46.0409324" lon="8.2743324"><ele>227.14285714285717</ele><time>2026-04-18T10:45:11.603Z</time></trkpt><trkpt lat="46.0409873" lon="8.274234"><ele>227.0</ele><time>2026-04-18T10:45:12.586Z</time></trkpt><trkpt lat="46.0410396" lon="8.2741248"><ele>226.8</ele><time>2026-04-18T10:45:13.594Z</time></trkpt><trkpt lat="46.041097" lon="8.2740086"><ele>226.6</ele><time>2026-04-18T10:45:14.596Z</time></trkpt><trkpt lat="46.041154" lon="8.2738974"><ele>226.40000000000003</ele><time>2026-04-18T10:45:15.599Z</time></trkpt><trkpt lat="46.041203" lon="8.2737863"><ele>226.20000000000002</ele><time>2026-04-18T10:45:16.597Z</time></trkpt><trkpt lat="46.0412599" lon="8.27367"><ele>226.0</ele><time>2026-04-18T10:45:17.591Z</time></trkpt><trkpt lat="46.0413128" lon="8.2735616"><ele>226.0</ele><time>2026-04-18T10:45:18.591Z</time></trkpt><trkpt lat="46.0413449" lon="8.2734169"><ele>226.00000000000003</ele><time>2026-04-18T10:45:19.591Z</time></trkpt><trkpt lat="46.0414085" lon="8.2733288"><ele>226.00000000000003</ele><time>2026-04-18T10:45:20.588Z</time></trkpt><trkpt lat="46.0414567" lon="8.2732152"><ele>226.0</ele><time>2026-04-18T10:45:21.595Z</time></trkpt><trkpt lat="46.0415199" lon="8.2731171"><ele>226.0</ele><time>2026-04-18T10:45:22.599Z</time></trkpt><trkpt lat="46.0415748" lon="8.2730083"><ele>226.0</ele><time>2026-04-18T10:45:23.599Z</time></trkpt><trkpt lat="46.0416316" lon="8.2729083"><ele>226.00000000000003</ele><time>2026-04-18T10:45:24.597Z</time></trkpt><trkpt lat="46.0416809" lon="8.2728067"><ele>226.00000000000003</ele><time>2026-04-18T10:45:25.597Z</time></trkpt><trkpt lat="46.0417344" lon="8.2726948"><ele>226.0</ele><time>2026-04-18T10:45:26.599Z</time></trkpt><trkpt lat="46.0417893" lon="8.2725888"><ele>226.0</ele><time>2026-04-18T10:45:27.609Z</time></trkpt><trkpt lat="46.0418457" lon="8.2724782"><ele>226.0</ele><time>2026-04-18T10:45:28.6Z</time></trkpt><trkpt lat="46.0418971" lon="8.2723521"><ele>226.00000000000003</ele><time>2026-04-18T10:45:29.602Z</time></trkpt><trkpt lat="46.0419463" lon="8.2722227"><ele>226.00000000000003</ele><time>2026-04-18T10:45:30.6Z</time></trkpt><trkpt lat="46.0420081" lon="8.2721192"><ele>226.0</ele><time>2026-04-18T10:45:31.623Z</time></trkpt><trkpt lat="46.0420566" lon="8.2720151"><ele>226.0</ele><time>2026-04-18T10:45:32.603Z</time></trkpt><trkpt lat="46.042105" lon="8.2718966"><ele>225.83333333333331</ele><time>2026-04-18T10:45:33.604Z</time></trkpt><trkpt lat="46.0421683" lon="8.2717969"><ele>225.66666666666666</ele><time>2026-04-18T10:45:34.596Z</time></trkpt><trkpt lat="46.0422328" lon="8.2717108"><ele>225.5</ele><time>2026-04-18T10:45:35.599Z</time></trkpt><trkpt lat="46.042283" lon="8.2716059"><ele>225.33333333333331</ele><time>2026-04-18T10:45:36.607Z</time></trkpt><trkpt lat="46.0423463" lon="8.2715228"><ele>225.16666666666666</ele><time>2026-04-18T10:45:37.614Z</time></trkpt><trkpt lat="46.0424014" lon="8.2714394"><ele>225.0</ele><time>2026-04-18T10:45:38.611Z</time></trkpt><trkpt lat="46.0424639" lon="8.2713744"><ele>225.0</ele><time>2026-04-18T10:45:39.604Z</time></trkpt><trkpt lat="46.0425343" lon="8.2713134"><ele>225.0</ele><time>2026-04-18T10:45:40.607Z</time></trkpt><trkpt lat="46.0426003" lon="8.2712471"><ele>225.0</ele><time>2026-04-18T10:45:41.609Z</time></trkpt><trkpt lat="46.0426778" lon="8.2711813"><ele>225.0</ele><time>2026-04-18T10:45:42.61Z</time></trkpt><trkpt lat="46.0427663" lon="8.2711222"><ele>225.0</ele><time>2026-04-18T10:45:43.605Z</time></trkpt><trkpt lat="46.0428497" lon="8.2710654"><ele>225.0</ele><time>2026-04-18T10:45:44.606Z</time></trkpt><trkpt lat="46.0429148" lon="8.2710217"><ele>225.0</ele><time>2026-04-18T10:45:45.607Z</time></trkpt><trkpt lat="46.0429853" lon="8.270976"><ele>225.0</ele><time>2026-04-18T10:45:46.602Z</time></trkpt><trkpt lat="46.0430946" lon="8.2709047"><ele>225.0</ele><time>2026-04-18T10:45:48.612Z</time></trkpt><trkpt lat="46.0431913" lon="8.270819"><ele>225.0</ele><time>2026-04-18T10:45:50.611Z</time></trkpt><trkpt lat="46.0432464" lon="8.2706936"><ele>225.0</ele><time>2026-04-18T10:45:52.611Z</time></trkpt><trkpt lat="46.0432731" lon="8.2705522"><ele>225.16666666666666</ele><time>2026-04-18T10:45:54.608Z</time></trkpt><trkpt lat="46.0432997" lon="8.2704026"><ele>225.33333333333331</ele><time>2026-04-18T10:45:56.612Z</time></trkpt><trkpt lat="46.0433734" lon="8.2702797"><ele>225.5</ele><time>2026-04-18T10:45:58.618Z</time></trkpt><trkpt lat="46.0434368" lon="8.2702344"><ele>225.66666666666666</ele><time>2026-04-18T10:45:59.607Z</time></trkpt><trkpt lat="46.0435061" lon="8.2702167"><ele>225.83333333333331</ele><time>2026-04-18T10:46:00.611Z</time></trkpt><trkpt lat="46.0435734" lon="8.2701854"><ele>226.0</ele><time>2026-04-18T10:46:01.608Z</time></trkpt><trkpt lat="46.043643" lon="8.2701501"><ele>225.99999999999997</ele><time>2026-04-18T10:46:02.62Z</time></trkpt><trkpt lat="46.0437184" lon="8.2701102"><ele>226.0</ele><time>2026-04-18T10:46:03.599Z</time></trkpt><trkpt lat="46.0438032" lon="8.2700633"><ele>226.0</ele><time>2026-04-18T10:46:04.62Z</time></trkpt><trkpt lat="46.0438748" lon="8.2700169"><ele>226.0</ele><time>2026-04-18T10:46:05.598Z</time></trkpt><trkpt lat="46.0439408" lon="8.2699748"><ele>225.99999999999997</ele><time>2026-04-18T10:46:06.601Z</time></trkpt><trkpt lat="46.0440536" lon="8.2699445"><ele>226.0</ele><time>2026-04-18T10:46:08.593Z</time></trkpt><trkpt lat="46.0441438" lon="8.2699521"><ele>226.60000000000002</ele><time>2026-04-18T10:46:09.603Z</time></trkpt><trkpt lat="46.0442476" lon="8.2699433"><ele>227.20000000000002</ele><time>2026-04-18T10:46:10.598Z</time></trkpt><trkpt lat="46.0443494" lon="8.2699244"><ele>227.79999999999998</ele><time>2026-04-18T10:46:11.601Z</time></trkpt><trkpt lat="46.0444489" lon="8.269886"><ele>228.39999999999998</ele><time>2026-04-18T10:46:12.6Z</time></trkpt><trkpt lat="46.0445394" lon="8.2698411"><ele>229.0</ele><time>2026-04-18T10:46:13.609Z</time></trkpt><trkpt lat="46.0446248" lon="8.2698052"><ele>229.0</ele><time>2026-04-18T10:46:14.605Z</time></trkpt><trkpt lat="46.0447099" lon="8.2697799"><ele>228.99999999999997</ele><time>2026-04-18T10:46:15.604Z</time></trkpt><trkpt lat="46.0447851" lon="8.2697546"><ele>228.99999999999997</ele><time>2026-04-18T10:46:16.604Z</time></trkpt><trkpt lat="46.0448773" lon="8.2697442"><ele>229.0</ele><time>2026-04-18T10:46:17.605Z</time></trkpt><trkpt lat="46.0449798" lon="8.26978"><ele>229.0</ele><time>2026-04-18T10:46:18.595Z</time></trkpt><trkpt lat="46.0450841" lon="8.2698557"><ele>229.25</ele><time>2026-04-18T10:46:19.6Z</time></trkpt><trkpt lat="46.045191" lon="8.2699545"><ele>229.5</ele><time>2026-04-18T10:46:20.605Z</time></trkpt><trkpt lat="46.045305" lon="8.2700374"><ele>229.75</ele><time>2026-04-18T10:46:21.608Z</time></trkpt><trkpt lat="46.0454202" lon="8.2701004"><ele>230.0</ele><time>2026-04-18T10:46:22.607Z</time></trkpt><trkpt lat="46.045523" lon="8.2701423"><ele>230.00000000000003</ele><time>2026-04-18T10:46:23.592Z</time></trkpt><trkpt lat="46.0456196" lon="8.2701626"><ele>230.0</ele><time>2026-04-18T10:46:24.599Z</time></trkpt><trkpt lat="46.0456969" lon="8.2701904"><ele>230.0</ele><time>2026-04-18T10:46:25.607Z</time></trkpt><trkpt lat="46.0457595" lon="8.2702293"><ele>230.0</ele><time>2026-04-18T10:46:26.601Z</time></trkpt><trkpt lat="46.0458278" lon="8.2703022"><ele>230.00000000000003</ele><time>2026-04-18T10:46:27.604Z</time></trkpt><trkpt lat="46.0459098" lon="8.2703955"><ele>230.0</ele><time>2026-04-18T10:46:28.607Z</time></trkpt><trkpt lat="46.0460106" lon="8.2704841"><ele>230.0</ele><time>2026-04-18T10:46:29.607Z</time></trkpt><trkpt lat="46.0461227" lon="8.270561"><ele>230.0</ele><time>2026-04-18T10:46:30.606Z</time></trkpt><trkpt lat="46.0462407" lon="8.2706241"><ele>230.0</ele><time>2026-04-18T10:46:31.607Z</time></trkpt><trkpt lat="46.046357" lon="8.270677"><ele>230.0</ele><time>2026-04-18T10:46:32.61Z</time></trkpt><trkpt lat="46.0464723" lon="8.2707289"><ele>230.25</ele><time>2026-04-18T10:46:33.627Z</time></trkpt><trkpt lat="46.0465872" lon="8.2707819"><ele>230.5</ele><time>2026-04-18T10:46:34.607Z</time></trkpt><trkpt lat="46.04669" lon="8.2708454"><ele>230.75</ele><time>2026-04-18T10:46:35.61Z</time></trkpt><trkpt lat="46.0467872" lon="8.2709269"><ele>231.0</ele><time>2026-04-18T10:46:36.603Z</time></trkpt><trkpt lat="46.0468839" lon="8.271017"><ele>230.5</ele><time>2026-04-18T10:46:37.608Z</time></trkpt><trkpt lat="46.0469744" lon="8.2711111"><ele>230.0</ele><time>2026-04-18T10:46:38.61Z</time></trkpt><trkpt lat="46.047074" lon="8.271206"><ele>229.5</ele><time>2026-04-18T10:46:39.616Z</time></trkpt><trkpt lat="46.0471728" lon="8.2713002"><ele>229.0</ele><time>2026-04-18T10:46:40.618Z</time></trkpt><trkpt lat="46.0472753" lon="8.2713861"><ele>229.0</ele><time>2026-04-18T10:46:41.617Z</time></trkpt><trkpt lat="46.047377" lon="8.2714671"><ele>229.0</ele><time>2026-04-18T10:46:42.6Z</time></trkpt><trkpt lat="46.0474839" lon="8.2715457"><ele>229.0</ele><time>2026-04-18T10:46:43.604Z</time></trkpt><trkpt lat="46.0475935" lon="8.2716178"><ele>229.0</ele><time>2026-04-18T10:46:44.613Z</time></trkpt><trkpt lat="46.0477033" lon="8.271682"><ele>229.0</ele><time>2026-04-18T10:46:45.61Z</time></trkpt><trkpt lat="46.0478046" lon="8.2717374"><ele>228.99999999999997</ele><time>2026-04-18T10:46:46.612Z</time></trkpt><trkpt lat="46.0478795" lon="8.2717832"><ele>228.99999999999997</ele><time>2026-04-18T10:46:47.592Z</time></trkpt><trkpt lat="46.0479349" lon="8.2718865"><ele>229.0</ele><time>2026-04-18T10:46:49.603Z</time></trkpt><trkpt lat="46.0478624" lon="8.2719105"><ele>229.0</ele><time>2026-04-18T10:47:02.611Z</time></trkpt><trkpt lat="46.0477658" lon="8.2718988"><ele>228.99999999999997</ele><time>2026-04-18T10:47:04.617Z</time></trkpt><trkpt lat="46.0476422" lon="8.2718278"><ele>229.0</ele><time>2026-04-18T10:47:06.615Z</time></trkpt><trkpt lat="46.0475725" lon="8.2718226"><ele>229.0</ele><time>2026-04-18T10:47:07.604Z</time></trkpt><trkpt lat="46.04749" lon="8.2718594"><ele>229.0</ele><time>2026-04-18T10:47:09.609Z</time></trkpt><trkpt lat="46.0475425" lon="8.2719214"><ele>228.99999999999997</ele><time>2026-04-18T10:47:11.604Z</time></trkpt><trkpt lat="46.0476109" lon="8.2719485"><ele>229.0</ele><time>2026-04-18T10:47:12.609Z</time></trkpt><trkpt lat="46.0477029" lon="8.2719812"><ele>229.0</ele><time>2026-04-18T10:47:13.603Z</time></trkpt><trkpt lat="46.0478003" lon="8.2720181"><ele>228.99999999999997</ele><time>2026-04-18T10:47:14.602Z</time></trkpt><trkpt lat="46.0479117" lon="8.2720663"><ele>228.99999999999997</ele><time>2026-04-18T10:47:15.622Z</time></trkpt><trkpt lat="46.0480059" lon="8.2721196"><ele>229.0</ele><time>2026-04-18T10:47:16.614Z</time></trkpt><trkpt lat="46.0480814" lon="8.2721758"><ele>229.0</ele><time>2026-04-18T10:47:17.614Z</time></trkpt><trkpt lat="46.048158" lon="8.2722327"><ele>229.0</ele><time>2026-04-18T10:47:18.614Z</time></trkpt><trkpt lat="46.0482364" lon="8.2722997"><ele>228.99999999999997</ele><time>2026-04-18T10:47:19.615Z</time></trkpt><trkpt lat="46.048307" lon="8.2723769"><ele>228.99999999999997</ele><time>2026-04-18T10:47:20.616Z</time></trkpt><trkpt lat="46.0483647" lon="8.2724527"><ele>229.0</ele><time>2026-04-18T10:47:21.62Z</time></trkpt><trkpt lat="46.0484999" lon="8.2725811"><ele>229.0</ele><time>2026-04-18T10:47:23.618Z</time></trkpt><trkpt lat="46.0485779" lon="8.2726391"><ele>229.16666666666666</ele><time>2026-04-18T10:47:24.611Z</time></trkpt><trkpt lat="46.0486474" lon="8.2726923"><ele>229.33333333333331</ele><time>2026-04-18T10:47:25.616Z</time></trkpt><trkpt lat="46.0487048" lon="8.2727588"><ele>229.5</ele><time>2026-04-18T10:47:26.614Z</time></trkpt><trkpt lat="46.0487611" lon="8.2728342"><ele>229.66666666666669</ele><time>2026-04-18T10:47:27.616Z</time></trkpt><trkpt lat="46.0488137" lon="8.2729096"><ele>229.83333333333334</ele><time>2026-04-18T10:47:28.616Z</time></trkpt><trkpt lat="46.0488633" lon="8.2729789"><ele>230.0</ele><time>2026-04-18T10:47:29.607Z</time></trkpt><trkpt lat="46.0489044" lon="8.2731419"><ele>230.33333333333334</ele><time>2026-04-18T10:47:31.616Z</time></trkpt><trkpt lat="46.0489083" lon="8.2732451"><ele>230.66666666666669</ele><time>2026-04-18T10:47:32.613Z</time></trkpt><trkpt lat="46.0489002" lon="8.2733437"><ele>231.0</ele><time>2026-04-18T10:47:33.609Z</time></trkpt><trkpt lat="46.0488661" lon="8.2734283"><ele>231.33333333333331</ele><time>2026-04-18T10:47:34.615Z</time></trkpt><trkpt lat="46.0488116" lon="8.2735227"><ele>231.66666666666666</ele><time>2026-04-18T10:47:35.636Z</time></trkpt><trkpt lat="46.0487515" lon="8.2736155"><ele>232.0</ele><time>2026-04-18T10:47:36.617Z</time></trkpt><trkpt lat="46.0486974" lon="8.2737237"><ele>232.0</ele><time>2026-04-18T10:47:37.621Z</time></trkpt><trkpt lat="46.0486427" lon="8.2738351"><ele>232.0</ele><time>2026-04-18T10:47:38.623Z</time></trkpt><trkpt lat="46.0485852" lon="8.2739459"><ele>232.0</ele><time>2026-04-18T10:47:39.616Z</time></trkpt><trkpt lat="46.0485334" lon="8.2740444"><ele>232.0</ele><time>2026-04-18T10:47:40.608Z</time></trkpt><trkpt lat="46.0485014" lon="8.2741803"><ele>232.0</ele><time>2026-04-18T10:47:42.608Z</time></trkpt><trkpt lat="46.0485878" lon="8.2743207"><ele>232.16666666666666</ele><time>2026-04-18T10:47:44.629Z</time></trkpt><trkpt lat="46.0486597" lon="8.274389"><ele>232.33333333333331</ele><time>2026-04-18T10:47:45.629Z</time></trkpt><trkpt lat="46.0487404" lon="8.2744517"><ele>232.5</ele><time>2026-04-18T10:47:46.649Z</time></trkpt><trkpt lat="46.0488096" lon="8.2745089"><ele>232.66666666666669</ele><time>2026-04-18T10:47:47.635Z</time></trkpt><trkpt lat="46.0488699" lon="8.2745637"><ele>232.83333333333334</ele><time>2026-04-18T10:47:48.632Z</time></trkpt><trkpt lat="46.0489218" lon="8.2746162"><ele>233.0</ele><time>2026-04-18T10:47:49.632Z</time></trkpt><trkpt lat="46.0489816" lon="8.2747306"><ele>232.60000000000002</ele><time>2026-04-18T10:47:51.631Z</time></trkpt><trkpt lat="46.0489594" lon="8.2748364"><ele>232.20000000000002</ele><time>2026-04-18T10:47:53.637Z</time></trkpt><trkpt lat="46.0488815" lon="8.274978"><ele>231.8</ele><time>2026-04-18T10:47:55.63Z</time></trkpt><trkpt lat="46.0488536" lon="8.2750685"><ele>231.4</ele><time>2026-04-18T10:47:56.623Z</time></trkpt><trkpt lat="46.04894" lon="8.2752137"><ele>231.0</ele><time>2026-04-18T10:47:58.615Z</time></trkpt><trkpt lat="46.0490357" lon="8.2752624"><ele>230.5</ele><time>2026-04-18T10:47:59.626Z</time></trkpt><trkpt lat="46.049139" lon="8.275317"><ele>230.0</ele><time>2026-04-18T10:48:00.703Z</time></trkpt><trkpt lat="46.0492449" lon="8.2753781"><ele>229.5</ele><time>2026-04-18T10:48:01.71Z</time></trkpt><trkpt lat="46.0493603" lon="8.2754434"><ele>229.0</ele><time>2026-04-18T10:48:02.701Z</time></trkpt><trkpt lat="46.0495042" lon="8.2754883"><ele>229.0</ele><time>2026-04-18T10:48:03.608Z</time></trkpt><trkpt lat="46.0496552" lon="8.2755527"><ele>229.0</ele><time>2026-04-18T10:48:04.611Z</time></trkpt><trkpt lat="46.0498045" lon="8.2756213"><ele>229.0</ele><time>2026-04-18T10:48:05.613Z</time></trkpt><trkpt lat="46.0499566" lon="8.2756995"><ele>228.75</ele><time>2026-04-18T10:48:06.628Z</time></trkpt><trkpt lat="46.0501007" lon="8.2757737"><ele>228.5</ele><time>2026-04-18T10:48:07.612Z</time></trkpt><trkpt lat="46.0502479" lon="8.275848"><ele>228.25</ele><time>2026-04-18T10:48:08.63Z</time></trkpt><trkpt lat="46.0503798" lon="8.2759069"><ele>228.0</ele><time>2026-04-18T10:48:09.624Z</time></trkpt><trkpt lat="46.0505127" lon="8.2759828"><ele>228.0</ele><time>2026-04-18T10:48:10.629Z</time></trkpt><trkpt lat="46.0506383" lon="8.2760583"><ele>228.0</ele><time>2026-04-18T10:48:11.628Z</time></trkpt><trkpt lat="46.0507448" lon="8.2761237"><ele>228.0</ele><time>2026-04-18T10:48:12.624Z</time></trkpt><trkpt lat="46.0508479" lon="8.2761783"><ele>228.0</ele><time>2026-04-18T10:48:13.627Z</time></trkpt><trkpt lat="46.0509523" lon="8.2762443"><ele>228.33333333333334</ele><time>2026-04-18T10:48:14.629Z</time></trkpt><trkpt lat="46.0510508" lon="8.2763114"><ele>228.66666666666669</ele><time>2026-04-18T10:48:15.629Z</time></trkpt><trkpt lat="46.0511243" lon="8.2763857"><ele>229.0</ele><time>2026-04-18T10:48:16.631Z</time></trkpt><trkpt lat="46.051164" lon="8.2764696"><ele>229.33333333333334</ele><time>2026-04-18T10:48:17.621Z</time></trkpt><trkpt lat="46.0511954" lon="8.2765642"><ele>229.66666666666669</ele><time>2026-04-18T10:48:18.617Z</time></trkpt><trkpt lat="46.0512194" lon="8.2766727"><ele>230.0</ele><time>2026-04-18T10:48:19.611Z</time></trkpt><trkpt lat="46.0512275" lon="8.2767854"><ele>230.2</ele><time>2026-04-18T10:48:20.622Z</time></trkpt><trkpt lat="46.0512472" lon="8.276922"><ele>230.4</ele><time>2026-04-18T10:48:22.618Z</time></trkpt><trkpt lat="46.0513624" lon="8.2769863"><ele>230.60000000000002</ele><time>2026-04-18T10:48:24.607Z</time></trkpt><trkpt lat="46.0514521" lon="8.2770032"><ele>230.8</ele><time>2026-04-18T10:48:25.611Z</time></trkpt><trkpt lat="46.051563" lon="8.2770201"><ele>231.0</ele><time>2026-04-18T10:48:26.608Z</time></trkpt><trkpt lat="46.0517143" lon="8.2770255"><ele>231.66666666666669</ele><time>2026-04-18T10:48:27.606Z</time></trkpt><trkpt lat="46.0518996" lon="8.2770602"><ele>232.33333333333334</ele><time>2026-04-18T10:48:28.613Z</time></trkpt><trkpt lat="46.0520907" lon="8.2771022"><ele>233.0</ele><time>2026-04-18T10:48:29.617Z</time></trkpt><trkpt lat="46.0522428" lon="8.2771339"><ele>233.0</ele><time>2026-04-18T10:48:30.617Z</time></trkpt><trkpt lat="46.0523878" lon="8.2772051"><ele>233.0</ele><time>2026-04-18T10:48:31.615Z</time></trkpt><trkpt lat="46.0525302" lon="8.2772623"><ele>233.0</ele><time>2026-04-18T10:48:32.62Z</time></trkpt><trkpt lat="46.052671" lon="8.2773193"><ele>233.0</ele><time>2026-04-18T10:48:33.617Z</time></trkpt><trkpt lat="46.0528056" lon="8.2773867"><ele>233.0</ele><time>2026-04-18T10:48:34.616Z</time></trkpt><trkpt lat="46.0529554" lon="8.2774775"><ele>233.0</ele><time>2026-04-18T10:48:35.62Z</time></trkpt><trkpt lat="46.0531047" lon="8.2775945"><ele>233.0</ele><time>2026-04-18T10:48:36.622Z</time></trkpt><trkpt lat="46.0532421" lon="8.2776801"><ele>233.0</ele><time>2026-04-18T10:48:37.638Z</time></trkpt><trkpt lat="46.0534026" lon="8.2777851"><ele>233.0</ele><time>2026-04-18T10:48:38.624Z</time></trkpt><trkpt lat="46.0535414" lon="8.2778949"><ele>233.0</ele><time>2026-04-18T10:48:39.618Z</time></trkpt><trkpt lat="46.0536759" lon="8.2779797"><ele>233.0</ele><time>2026-04-18T10:48:40.615Z</time></trkpt><trkpt lat="46.0537942" lon="8.2780596"><ele>233.0</ele><time>2026-04-18T10:48:41.616Z</time></trkpt><trkpt lat="46.0538992" lon="8.2781376"><ele>233.0</ele><time>2026-04-18T10:48:42.615Z</time></trkpt><trkpt lat="46.0539871" lon="8.2782028"><ele>233.0</ele><time>2026-04-18T10:48:43.616Z</time></trkpt><trkpt lat="46.054065" lon="8.2782485"><ele>233.0</ele><time>2026-04-18T10:48:44.622Z</time></trkpt><trkpt lat="46.0541449" lon="8.2782756"><ele>233.16666666666669</ele><time>2026-04-18T10:48:45.617Z</time></trkpt><trkpt lat="46.0542282" lon="8.278314"><ele>233.33333333333334</ele><time>2026-04-18T10:48:46.622Z</time></trkpt><trkpt lat="46.0543124" lon="8.2783652"><ele>233.5</ele><time>2026-04-18T10:48:47.621Z</time></trkpt><trkpt lat="46.0543941" lon="8.2784079"><ele>233.66666666666669</ele><time>2026-04-18T10:48:48.613Z</time></trkpt><trkpt lat="46.0544773" lon="8.2784491"><ele>233.83333333333334</ele><time>2026-04-18T10:48:49.622Z</time></trkpt><trkpt lat="46.0545602" lon="8.2784854"><ele>234.0</ele><time>2026-04-18T10:48:50.616Z</time></trkpt><trkpt lat="46.054658" lon="8.2785251"><ele>234.0</ele><time>2026-04-18T10:48:51.613Z</time></trkpt><trkpt lat="46.0547523" lon="8.2785684"><ele>233.99999999999997</ele><time>2026-04-18T10:48:52.617Z</time></trkpt><trkpt lat="46.054851" lon="8.2786129"><ele>233.99999999999997</ele><time>2026-04-18T10:48:53.62Z</time></trkpt><trkpt lat="46.0549469" lon="8.2786581"><ele>234.0</ele><time>2026-04-18T10:48:54.621Z</time></trkpt><trkpt lat="46.0550456" lon="8.2787095"><ele>234.0</ele><time>2026-04-18T10:48:55.628Z</time></trkpt><trkpt lat="46.05514" lon="8.2787632"><ele>234.0</ele><time>2026-04-18T10:48:56.624Z</time></trkpt><trkpt lat="46.0552206" lon="8.2788053"><ele>234.0</ele><time>2026-04-18T10:48:57.633Z</time></trkpt><trkpt lat="46.0552924" lon="8.2788378"><ele>234.0</ele><time>2026-04-18T10:48:58.625Z</time></trkpt><trkpt lat="46.055366" lon="8.278883"><ele>234.0</ele><time>2026-04-18T10:48:59.623Z</time></trkpt><trkpt lat="46.0554314" lon="8.278913"><ele>234.0</ele><time>2026-04-18T10:49:00.626Z</time></trkpt><trkpt lat="46.0554919" lon="8.2789443"><ele>234.0</ele><time>2026-04-18T10:49:01.628Z</time></trkpt><trkpt lat="46.0555943" lon="8.2789992"><ele>234.0</ele><time>2026-04-18T10:49:03.62Z</time></trkpt><trkpt lat="46.0556578" lon="8.2790594"><ele>234.0</ele><time>2026-04-18T10:49:05.63Z</time></trkpt><trkpt lat="46.0556958" lon="8.279143"><ele>234.0</ele><time>2026-04-18T10:49:07.635Z</time></trkpt><trkpt lat="46.0557115" lon="8.2792728"><ele>234.0</ele><time>2026-04-18T10:49:10.635Z</time></trkpt><trkpt lat="46.0556333" lon="8.2793972"><ele>234.0</ele><time>2026-04-18T10:49:16.63Z</time></trkpt><trkpt lat="46.0555611" lon="8.2794573"><ele>234.0</ele><time>2026-04-18T10:49:17.611Z</time></trkpt><trkpt lat="46.0554681" lon="8.2795115"><ele>234.0</ele><time>2026-04-18T10:49:18.619Z</time></trkpt><trkpt lat="46.0552431" lon="8.2796585"><ele>234.0</ele><time>2026-04-18T10:49:20.625Z</time></trkpt><trkpt lat="46.055122" lon="8.2797232"><ele>234.0</ele><time>2026-04-18T10:49:21.625Z</time></trkpt><trkpt lat="46.0550119" lon="8.2797843"><ele>235.0</ele><time>2026-04-18T10:49:22.626Z</time></trkpt><trkpt lat="46.0549136" lon="8.2798455"><ele>235.99999999999997</ele><time>2026-04-18T10:49:23.625Z</time></trkpt><trkpt lat="46.0548213" lon="8.2798929"><ele>236.99999999999997</ele><time>2026-04-18T10:49:24.62Z</time></trkpt><trkpt lat="46.0547375" lon="8.2799352"><ele>238.0</ele><time>2026-04-18T10:49:25.63Z</time></trkpt><trkpt lat="46.0546566" lon="8.279968"><ele>239.0</ele><time>2026-04-18T10:49:26.623Z</time></trkpt><trkpt lat="46.0545903" lon="8.2800098"><ele>239.00000000000003</ele><time>2026-04-18T10:49:27.624Z</time></trkpt><trkpt lat="46.0545236" lon="8.2800404"><ele>239.0</ele><time>2026-04-18T10:49:28.622Z</time></trkpt><trkpt lat="46.054464" lon="8.2800719"><ele>239.0</ele><time>2026-04-18T10:49:29.623Z</time></trkpt><trkpt lat="46.0543846" lon="8.2801213"><ele>239.0</ele><time>2026-04-18T10:49:31.621Z</time></trkpt><trkpt lat="46.054319" lon="8.280144"><ele>239.00000000000003</ele><time>2026-04-18T10:49:33.62Z</time></trkpt><trkpt lat="46.0543307" lon="8.2800467"><ele>239.0</ele><time>2026-04-18T10:49:56.629Z</time></trkpt><trkpt lat="46.0544251" lon="8.2799931"><ele>239.00000000000003</ele><time>2026-04-18T10:49:58.617Z</time></trkpt><trkpt lat="46.0545028" lon="8.2798966"><ele>239.0</ele><time>2026-04-18T10:50:00.625Z</time></trkpt><trkpt lat="46.0545671" lon="8.2798245"><ele>239.0</ele><time>2026-04-18T10:50:02.638Z</time></trkpt><trkpt lat="46.0546401" lon="8.2797767"><ele>239.0</ele><time>2026-04-18T10:50:04.637Z</time></trkpt><trkpt lat="46.0547216" lon="8.2797251"><ele>239.00000000000003</ele><time>2026-04-18T10:50:06.635Z</time></trkpt><trkpt lat="46.0548131" lon="8.2797066"><ele>239.0</ele><time>2026-04-18T10:50:08.642Z</time></trkpt><trkpt lat="46.0549075" lon="8.2797092"><ele>239.00000000000003</ele><time>2026-04-18T10:50:10.639Z</time></trkpt><trkpt lat="46.0549718" lon="8.2796841"><ele>239.0</ele><time>2026-04-18T10:50:12.642Z</time></trkpt><trkpt lat="46.0548923" lon="8.279759"><ele>239.0</ele><time>2026-04-18T10:51:18.618Z</time></trkpt><trkpt lat="46.0548251" lon="8.27978"><ele>239.0</ele><time>2026-04-18T10:51:19.609Z</time></trkpt><trkpt lat="46.0547323" lon="8.2797877"><ele>239.00000000000003</ele><time>2026-04-18T10:51:20.621Z</time></trkpt><trkpt lat="46.0546461" lon="8.2798025"><ele>239.0</ele><time>2026-04-18T10:51:21.619Z</time></trkpt><trkpt lat="46.0545677" lon="8.2798233"><ele>239.00000000000003</ele><time>2026-04-18T10:51:22.633Z</time></trkpt><trkpt lat="46.0544988" lon="8.2798542"><ele>239.0</ele><time>2026-04-18T10:51:23.621Z</time></trkpt><trkpt lat="46.0544279" lon="8.2799044"><ele>239.0</ele><time>2026-04-18T10:51:24.625Z</time></trkpt><trkpt lat="46.0543634" lon="8.2799717"><ele>239.0</ele><time>2026-04-18T10:51:25.627Z</time></trkpt><trkpt lat="46.0543015" lon="8.2800428"><ele>239.00000000000003</ele><time>2026-04-18T10:51:26.618Z</time></trkpt><trkpt lat="46.0542301" lon="8.2801195"><ele>239.0</ele><time>2026-04-18T10:51:28.611Z</time></trkpt><trkpt lat="46.0541394" lon="8.2800699"><ele>239.39999999999998</ele><time>2026-04-18T10:51:39.637Z</time></trkpt><trkpt lat="46.0540706" lon="8.2799877"><ele>239.79999999999998</ele><time>2026-04-18T10:51:40.611Z</time></trkpt><trkpt lat="46.0539855" lon="8.2798791"><ele>240.20000000000002</ele><time>2026-04-18T10:51:41.629Z</time></trkpt><trkpt lat="46.0538951" lon="8.2797712"><ele>240.60000000000002</ele><time>2026-04-18T10:51:42.642Z</time></trkpt><trkpt lat="46.053819" lon="8.2796645"><ele>241.0</ele><time>2026-04-18T10:51:43.626Z</time></trkpt><trkpt lat="46.0537519" lon="8.2795796"><ele>240.16666666666666</ele><time>2026-04-18T10:51:44.626Z</time></trkpt><trkpt lat="46.0536848" lon="8.2795056"><ele>239.33333333333331</ele><time>2026-04-18T10:51:45.625Z</time></trkpt><trkpt lat="46.0536252" lon="8.2794226"><ele>238.5</ele><time>2026-04-18T10:51:46.63Z</time></trkpt><trkpt lat="46.0535675" lon="8.2793498"><ele>237.66666666666669</ele><time>2026-04-18T10:51:47.628Z</time></trkpt><trkpt lat="46.053505" lon="8.2792759"><ele>236.83333333333334</ele><time>2026-04-18T10:51:48.632Z</time></trkpt><trkpt lat="46.0534484" lon="8.2791972"><ele>236.0</ele><time>2026-04-18T10:51:49.628Z</time></trkpt><trkpt lat="46.0533876" lon="8.2791243"><ele>236.00000000000003</ele><time>2026-04-18T10:51:50.622Z</time></trkpt><trkpt lat="46.0533284" lon="8.2790621"><ele>236.0</ele><time>2026-04-18T10:51:51.616Z</time></trkpt><trkpt lat="46.0532814" lon="8.2789987"><ele>236.0</ele><time>2026-04-18T10:51:52.619Z</time></trkpt><trkpt lat="46.0532105" lon="8.27895"><ele>236.0</ele><time>2026-04-18T10:51:54.627Z</time></trkpt><trkpt lat="46.0531451" lon="8.2790415"><ele>236.00000000000003</ele><time>2026-04-18T10:51:56.627Z</time></trkpt><trkpt lat="46.0530484" lon="8.2791439"><ele>236.0</ele><time>2026-04-18T10:51:58.618Z</time></trkpt><trkpt lat="46.0529838" lon="8.2791669"><ele>236.8</ele><time>2026-04-18T10:51:59.62Z</time></trkpt><trkpt lat="46.052876" lon="8.2791902"><ele>237.60000000000002</ele><time>2026-04-18T10:52:01.622Z</time></trkpt><trkpt lat="46.0527631" lon="8.2791818"><ele>238.4</ele><time>2026-04-18T10:52:03.627Z</time></trkpt><trkpt lat="46.0526778" lon="8.2791154"><ele>239.2</ele><time>2026-04-18T10:52:05.618Z</time></trkpt><trkpt lat="46.0526283" lon="8.2792073"><ele>240.0</ele><time>2026-04-18T10:52:09.621Z</time></trkpt><trkpt lat="46.0526041" lon="8.279389"><ele>240.0</ele><time>2026-04-18T10:52:11.621Z</time></trkpt><trkpt lat="46.0526088" lon="8.2794942"><ele>240.0</ele><time>2026-04-18T10:52:12.623Z</time></trkpt><trkpt lat="46.0526095" lon="8.2796067"><ele>240.0</ele><time>2026-04-18T10:52:13.634Z</time></trkpt><trkpt lat="46.0526113" lon="8.2797157"><ele>240.0</ele><time>2026-04-18T10:52:14.623Z</time></trkpt><trkpt lat="46.0526171" lon="8.2798283"><ele>240.0</ele><time>2026-04-18T10:52:15.618Z</time></trkpt><trkpt lat="46.0526206" lon="8.2799452"><ele>240.0</ele><time>2026-04-18T10:52:16.626Z</time></trkpt><trkpt lat="46.0526205" lon="8.2800558"><ele>241.0</ele><time>2026-04-18T10:52:17.627Z</time></trkpt><trkpt lat="46.0526072" lon="8.2801736"><ele>242.0</ele><time>2026-04-18T10:52:18.629Z</time></trkpt><trkpt lat="46.0526027" lon="8.2802852"><ele>243.0</ele><time>2026-04-18T10:52:19.626Z</time></trkpt><trkpt lat="46.0526092" lon="8.2803976"><ele>244.0</ele><time>2026-04-18T10:52:20.627Z</time></trkpt><trkpt lat="46.0526104" lon="8.2805006"><ele>245.0</ele><time>2026-04-18T10:52:21.622Z</time></trkpt><trkpt lat="46.0526208" lon="8.2806019"><ele>246.0</ele><time>2026-04-18T10:52:22.629Z</time></trkpt><trkpt lat="46.0526352" lon="8.2807184"><ele>247.5</ele><time>2026-04-18T10:52:23.631Z</time></trkpt><trkpt lat="46.0526454" lon="8.2808431"><ele>249.0</ele><time>2026-04-18T10:52:24.633Z</time></trkpt><trkpt lat="46.052658" lon="8.2809536"><ele>250.5</ele><time>2026-04-18T10:52:25.633Z</time></trkpt><trkpt lat="46.0526768" lon="8.2810583"><ele>252.0</ele><time>2026-04-18T10:52:26.626Z</time></trkpt><trkpt lat="46.0526952" lon="8.2811735"><ele>253.5</ele><time>2026-04-18T10:52:27.63Z</time></trkpt><trkpt lat="46.0527088" lon="8.2812874"><ele>255.0</ele><time>2026-04-18T10:52:28.628Z</time></trkpt><trkpt lat="46.0527201" lon="8.2813943"><ele>256.5</ele><time>2026-04-18T10:52:29.631Z</time></trkpt><trkpt lat="46.0527259" lon="8.2814938"><ele>258.0</ele><time>2026-04-18T10:52:30.628Z</time></trkpt><trkpt lat="46.0527293" lon="8.2816533"><ele>259.5</ele><time>2026-04-18T10:52:32.63Z</time></trkpt><trkpt lat="46.052726" lon="8.2817557"><ele>261.0</ele><time>2026-04-18T10:52:34.62Z</time></trkpt><trkpt lat="46.0527286" lon="8.2818637"><ele>262.5</ele><time>2026-04-18T10:52:44.643Z</time></trkpt><trkpt lat="46.0527944" lon="8.2819372"><ele>264.0</ele><time>2026-04-18T10:52:47.628Z</time></trkpt><trkpt lat="46.0527744" lon="8.2818399"><ele>264.0</ele><time>2026-04-18T10:53:01.62Z</time></trkpt><trkpt lat="46.0527284" lon="8.2817453"><ele>264.0</ele><time>2026-04-18T10:53:03.613Z</time></trkpt><trkpt lat="46.0527093" lon="8.2816508"><ele>264.0</ele><time>2026-04-18T10:53:04.606Z</time></trkpt><trkpt lat="46.0527028" lon="8.2815345"><ele>264.0</ele><time>2026-04-18T10:53:05.607Z</time></trkpt><trkpt lat="46.0527029" lon="8.2814247"><ele>264.0</ele><time>2026-04-18T10:53:06.623Z</time></trkpt><trkpt lat="46.0527022" lon="8.2813122"><ele>264.0</ele><time>2026-04-18T10:53:07.62Z</time></trkpt><trkpt lat="46.0526892" lon="8.2811965"><ele>262.5</ele><time>2026-04-18T10:53:08.625Z</time></trkpt><trkpt lat="46.0526772" lon="8.2810876"><ele>261.0</ele><time>2026-04-18T10:53:09.628Z</time></trkpt><trkpt lat="46.0526601" lon="8.2809745"><ele>259.5</ele><time>2026-04-18T10:53:10.628Z</time></trkpt><trkpt lat="46.052648" lon="8.2808525"><ele>258.0</ele><time>2026-04-18T10:53:11.623Z</time></trkpt><trkpt lat="46.0526392" lon="8.2807287"><ele>256.5</ele><time>2026-04-18T10:53:12.628Z</time></trkpt><trkpt lat="46.05262" lon="8.2806038"><ele>255.0</ele><time>2026-04-18T10:53:13.631Z</time></trkpt><trkpt lat="46.0526098" lon="8.2804824"><ele>253.5</ele><time>2026-04-18T10:53:14.628Z</time></trkpt><trkpt lat="46.0526012" lon="8.2803603"><ele>252.0</ele><time>2026-04-18T10:53:15.647Z</time></trkpt><trkpt lat="46.0525941" lon="8.2802459"><ele>250.5</ele><time>2026-04-18T10:53:16.621Z</time></trkpt><trkpt lat="46.0525954" lon="8.2801286"><ele>249.0</ele><time>2026-04-18T10:53:17.637Z</time></trkpt><trkpt lat="46.0525973" lon="8.2800056"><ele>247.5</ele><time>2026-04-18T10:53:18.635Z</time></trkpt><trkpt lat="46.0526048" lon="8.279877"><ele>246.0</ele><time>2026-04-18T10:53:19.627Z</time></trkpt><trkpt lat="46.0526135" lon="8.2797464"><ele>245.0</ele><time>2026-04-18T10:53:20.628Z</time></trkpt><trkpt lat="46.0526174" lon="8.2796252"><ele>244.0</ele><time>2026-04-18T10:53:21.628Z</time></trkpt><trkpt lat="46.0526195" lon="8.2795159"><ele>243.0</ele><time>2026-04-18T10:53:22.638Z</time></trkpt><trkpt lat="46.0526247" lon="8.2794114"><ele>242.0</ele><time>2026-04-18T10:53:23.623Z</time></trkpt><trkpt lat="46.0526272" lon="8.2793166"><ele>241.0</ele><time>2026-04-18T10:53:24.621Z</time></trkpt><trkpt lat="46.0526372" lon="8.2792192"><ele>240.0</ele><time>2026-04-18T10:53:25.616Z</time></trkpt><trkpt lat="46.0526433" lon="8.2790878"><ele>240.0</ele><time>2026-04-18T10:53:27.613Z</time></trkpt><trkpt lat="46.0527007" lon="8.2790279"><ele>240.0</ele><time>2026-04-18T10:53:30.631Z</time></trkpt><trkpt lat="46.0527637" lon="8.2790643"><ele>240.0</ele><time>2026-04-18T10:53:31.619Z</time></trkpt><trkpt lat="46.0528428" lon="8.2790927"><ele>240.0</ele><time>2026-04-18T10:53:32.62Z</time></trkpt><trkpt lat="46.0529356" lon="8.279105"><ele>240.0</ele><time>2026-04-18T10:53:33.64Z</time></trkpt><trkpt lat="46.0530267" lon="8.2791184"><ele>240.0</ele><time>2026-04-18T10:53:34.644Z</time></trkpt><trkpt lat="46.0531024" lon="8.2790981"><ele>240.0</ele><time>2026-04-18T10:53:35.641Z</time></trkpt><trkpt lat="46.0531791" lon="8.2790639"><ele>240.0</ele><time>2026-04-18T10:53:36.627Z</time></trkpt><trkpt lat="46.0532778" lon="8.2790481"><ele>240.0</ele><time>2026-04-18T10:53:38.629Z</time></trkpt><trkpt lat="46.0534045" lon="8.2791406"><ele>240.0</ele><time>2026-04-18T10:53:40.628Z</time></trkpt><trkpt lat="46.0534807" lon="8.279214"><ele>240.0</ele><time>2026-04-18T10:53:41.632Z</time></trkpt><trkpt lat="46.0535607" lon="8.2793065"><ele>240.25</ele><time>2026-04-18T10:53:42.727Z</time></trkpt><trkpt lat="46.0536465" lon="8.27944"><ele>240.5</ele><time>2026-04-18T10:53:43.724Z</time></trkpt><trkpt lat="46.0537359" lon="8.279544"><ele>240.75</ele><time>2026-04-18T10:53:44.727Z</time></trkpt><trkpt lat="46.0538296" lon="8.2796586"><ele>241.0</ele><time>2026-04-18T10:53:45.727Z</time></trkpt><trkpt lat="46.0539212" lon="8.2797785"><ele>241.0</ele><time>2026-04-18T10:53:46.752Z</time></trkpt><trkpt lat="46.0540175" lon="8.2798974"><ele>241.0</ele><time>2026-04-18T10:53:47.727Z</time></trkpt><trkpt lat="46.0541335" lon="8.2800375"><ele>241.0</ele><time>2026-04-18T10:53:48.732Z</time></trkpt><trkpt lat="46.0542363" lon="8.280165"><ele>241.0</ele><time>2026-04-18T10:53:49.734Z</time></trkpt><trkpt lat="46.0543371" lon="8.2803047"><ele>241.0</ele><time>2026-04-18T10:53:50.711Z</time></trkpt><trkpt lat="46.0544354" lon="8.2804425"><ele>241.0</ele><time>2026-04-18T10:53:51.717Z</time></trkpt><trkpt lat="46.0545345" lon="8.2805812"><ele>241.0</ele><time>2026-04-18T10:53:52.716Z</time></trkpt><trkpt lat="46.0546445" lon="8.2807051"><ele>241.0</ele><time>2026-04-18T10:53:53.711Z</time></trkpt><trkpt lat="46.0547566" lon="8.2808238"><ele>241.0</ele><time>2026-04-18T10:53:54.731Z</time></trkpt><trkpt lat="46.0548717" lon="8.2809297"><ele>241.0</ele><time>2026-04-18T10:53:55.725Z</time></trkpt><trkpt lat="46.0549917" lon="8.2810063"><ele>241.0</ele><time>2026-04-18T10:53:56.723Z</time></trkpt><trkpt lat="46.0551169" lon="8.2810745"><ele>241.0</ele><time>2026-04-18T10:53:57.732Z</time></trkpt><trkpt lat="46.0552434" lon="8.2811236"><ele>240.0</ele><time>2026-04-18T10:53:58.703Z</time></trkpt><trkpt lat="46.0553699" lon="8.2811617"><ele>239.0</ele><time>2026-04-18T10:53:59.709Z</time></trkpt><trkpt lat="46.0554956" lon="8.2811975"><ele>238.0</ele><time>2026-04-18T10:54:00.705Z</time></trkpt><trkpt lat="46.0556217" lon="8.2812365"><ele>237.0</ele><time>2026-04-18T10:54:01.704Z</time></trkpt><trkpt lat="46.0557466" lon="8.2812765"><ele>236.75</ele><time>2026-04-18T10:54:02.721Z</time></trkpt><trkpt lat="46.0558649" lon="8.2813109"><ele>236.5</ele><time>2026-04-18T10:54:03.724Z</time></trkpt><trkpt lat="46.0559794" lon="8.2813327"><ele>236.25</ele><time>2026-04-18T10:54:04.721Z</time></trkpt><trkpt lat="46.0560921" lon="8.2813375"><ele>236.0</ele><time>2026-04-18T10:54:05.713Z</time></trkpt><trkpt lat="46.0562044" lon="8.2813277"><ele>236.0</ele><time>2026-04-18T10:54:06.722Z</time></trkpt><trkpt lat="46.0564006" lon="8.2812927"><ele>236.0</ele><time>2026-04-18T10:54:08.594Z</time></trkpt><trkpt lat="46.0565159" lon="8.2813562"><ele>236.0</ele><time>2026-04-18T10:54:09.597Z</time></trkpt><trkpt lat="46.0566429" lon="8.2814499"><ele>239.75</ele><time>2026-04-18T10:54:10.598Z</time></trkpt><trkpt lat="46.0567574" lon="8.2815536"><ele>243.5</ele><time>2026-04-18T10:54:11.616Z</time></trkpt><trkpt lat="46.0568646" lon="8.2816605"><ele>247.25</ele><time>2026-04-18T10:54:12.617Z</time></trkpt><trkpt lat="46.0569664" lon="8.2817715"><ele>251.0</ele><time>2026-04-18T10:54:13.624Z</time></trkpt><trkpt lat="46.0570666" lon="8.2818703"><ele>251.0</ele><time>2026-04-18T10:54:14.614Z</time></trkpt><trkpt lat="46.0571762" lon="8.2819424"><ele>251.0</ele><time>2026-04-18T10:54:15.614Z</time></trkpt><trkpt lat="46.057297" lon="8.2819986"><ele>251.0</ele><time>2026-04-18T10:54:16.621Z</time></trkpt><trkpt lat="46.0574123" lon="8.2820461"><ele>251.0</ele><time>2026-04-18T10:54:17.634Z</time></trkpt><trkpt lat="46.0575296" lon="8.2820748"><ele>249.25</ele><time>2026-04-18T10:54:18.616Z</time></trkpt><trkpt lat="46.057647" lon="8.2820864"><ele>247.5</ele><time>2026-04-18T10:54:19.617Z</time></trkpt><trkpt lat="46.0577658" lon="8.2820968"><ele>245.75</ele><time>2026-04-18T10:54:20.616Z</time></trkpt><trkpt lat="46.0578837" lon="8.2821056"><ele>244.0</ele><time>2026-04-18T10:54:21.609Z</time></trkpt><trkpt lat="46.0580059" lon="8.2820955"><ele>244.0</ele><time>2026-04-18T10:54:22.609Z</time></trkpt><trkpt lat="46.0581301" lon="8.2820676"><ele>243.99999999999997</ele><time>2026-04-18T10:54:23.606Z</time></trkpt><trkpt lat="46.058243" lon="8.2820208"><ele>243.99999999999997</ele><time>2026-04-18T10:54:24.598Z</time></trkpt><trkpt lat="46.058335" lon="8.2819497"><ele>244.0</ele><time>2026-04-18T10:54:25.609Z</time></trkpt><trkpt lat="46.058394" lon="8.2818504"><ele>244.0</ele><time>2026-04-18T10:54:26.596Z</time></trkpt><trkpt lat="46.0584543" lon="8.281784"><ele>242.79999999999998</ele><time>2026-04-18T10:54:27.607Z</time></trkpt><trkpt lat="46.05856" lon="8.2817251"><ele>241.59999999999997</ele><time>2026-04-18T10:54:29.609Z</time></trkpt><trkpt lat="46.0586274" lon="8.2817424"><ele>240.4</ele><time>2026-04-18T10:54:30.618Z</time></trkpt><trkpt lat="46.0587024" lon="8.2817836"><ele>239.2</ele><time>2026-04-18T10:54:31.608Z</time></trkpt><trkpt lat="46.0587879" lon="8.2818547"><ele>238.0</ele><time>2026-04-18T10:54:32.628Z</time></trkpt><trkpt lat="46.05888" lon="8.281933"><ele>238.0</ele><time>2026-04-18T10:54:33.627Z</time></trkpt><trkpt lat="46.0589712" lon="8.2820121"><ele>238.0</ele><time>2026-04-18T10:54:34.623Z</time></trkpt><trkpt lat="46.0590615" lon="8.2820929"><ele>238.0</ele><time>2026-04-18T10:54:35.62Z</time></trkpt><trkpt lat="46.0591503" lon="8.2821824"><ele>238.0</ele><time>2026-04-18T10:54:36.625Z</time></trkpt><trkpt lat="46.0592293" lon="8.2822679"><ele>238.0</ele><time>2026-04-18T10:54:37.621Z</time></trkpt><trkpt lat="46.059277" lon="8.2823308"><ele>237.99999999999997</ele><time>2026-04-18T10:54:38.611Z</time></trkpt><trkpt lat="46.0593337" lon="8.282415"><ele>238.0</ele><time>2026-04-18T10:54:40.61Z</time></trkpt><trkpt lat="46.0593891" lon="8.2823548"><ele>238.0</ele><time>2026-04-18T10:54:49.643Z</time></trkpt><trkpt lat="46.0593238" lon="8.282305"><ele>238.0</ele><time>2026-04-18T10:54:51.62Z</time></trkpt><trkpt lat="46.0592663" lon="8.2822657"><ele>237.99999999999997</ele><time>2026-04-18T10:54:52.612Z</time></trkpt><trkpt lat="46.0591723" lon="8.2822098"><ele>238.0</ele><time>2026-04-18T10:54:53.612Z</time></trkpt><trkpt lat="46.0590466" lon="8.2821222"><ele>238.0</ele><time>2026-04-18T10:54:54.632Z</time></trkpt><trkpt lat="46.0589098" lon="8.2820242"><ele>238.0</ele><time>2026-04-18T10:54:55.622Z</time></trkpt><trkpt lat="46.058783" lon="8.2819355"><ele>238.0</ele><time>2026-04-18T10:54:56.631Z</time></trkpt><trkpt lat="46.0586722" lon="8.2818524"><ele>238.0</ele><time>2026-04-18T10:54:57.626Z</time></trkpt><trkpt lat="46.0585818" lon="8.2817924"><ele>237.99999999999997</ele><time>2026-04-18T10:54:58.626Z</time></trkpt><trkpt lat="46.058511" lon="8.2817578"><ele>238.0</ele><time>2026-04-18T10:54:59.632Z</time></trkpt><trkpt lat="46.0584445" lon="8.2817279"><ele>238.0</ele><time>2026-04-18T10:55:01.636Z</time></trkpt><trkpt lat="46.0584596" lon="8.2815849"><ele>238.0</ele><time>2026-04-18T10:55:03.631Z</time></trkpt><trkpt lat="46.058465" lon="8.2814518"><ele>237.99999999999997</ele><time>2026-04-18T10:55:04.612Z</time></trkpt><trkpt lat="46.058455" lon="8.281331"><ele>238.0</ele><time>2026-04-18T10:55:05.615Z</time></trkpt><trkpt lat="46.0584502" lon="8.2812271"><ele>237.60000000000002</ele><time>2026-04-18T10:55:06.624Z</time></trkpt><trkpt lat="46.0584242" lon="8.2810942"><ele>237.20000000000002</ele><time>2026-04-18T10:55:08.616Z</time></trkpt><trkpt lat="46.0583648" lon="8.2810126"><ele>236.8</ele><time>2026-04-18T10:55:10.623Z</time></trkpt><trkpt lat="46.0582579" lon="8.2809824"><ele>236.4</ele><time>2026-04-18T10:55:12.618Z</time></trkpt><trkpt lat="46.0581518" lon="8.2809442"><ele>236.0</ele><time>2026-04-18T10:55:14.62Z</time></trkpt><trkpt lat="46.0580474" lon="8.2808521"><ele>235.60000000000002</ele><time>2026-04-18T10:55:16.634Z</time></trkpt><trkpt lat="46.0579726" lon="8.2808111"><ele>235.20000000000002</ele><time>2026-04-18T10:55:17.619Z</time></trkpt><trkpt lat="46.0578857" lon="8.2807683"><ele>234.79999999999998</ele><time>2026-04-18T10:55:18.644Z</time></trkpt><trkpt lat="46.0577884" lon="8.2807073"><ele>234.39999999999998</ele><time>2026-04-18T10:55:19.645Z</time></trkpt><trkpt lat="46.0576882" lon="8.2806441"><ele>234.0</ele><time>2026-04-18T10:55:20.627Z</time></trkpt><trkpt lat="46.0575971" lon="8.2805974"><ele>234.0</ele><time>2026-04-18T10:55:21.624Z</time></trkpt><trkpt lat="46.0575156" lon="8.2805671"><ele>234.0</ele><time>2026-04-18T10:55:22.63Z</time></trkpt><trkpt lat="46.0574271" lon="8.2805329"><ele>234.0</ele><time>2026-04-18T10:55:23.629Z</time></trkpt><trkpt lat="46.0573536" lon="8.2804971"><ele>234.0</ele><time>2026-04-18T10:55:24.628Z</time></trkpt><trkpt lat="46.057278" lon="8.280457"><ele>234.0</ele><time>2026-04-18T10:55:26.613Z</time></trkpt><trkpt lat="46.057361" lon="8.2804718"><ele>234.0</ele><time>2026-04-18T10:55:29.628Z</time></trkpt><trkpt lat="46.0574286" lon="8.2805185"><ele>234.0</ele><time>2026-04-18T10:55:30.639Z</time></trkpt><trkpt lat="46.0575241" lon="8.2805609"><ele>233.99999999999997</ele><time>2026-04-18T10:55:31.615Z</time></trkpt><trkpt lat="46.057632" lon="8.2805971"><ele>233.99999999999997</ele><time>2026-04-18T10:55:32.633Z</time></trkpt><trkpt lat="46.0577259" lon="8.280639"><ele>234.0</ele><time>2026-04-18T10:55:33.627Z</time></trkpt><trkpt lat="46.0578181" lon="8.2806732"><ele>234.0</ele><time>2026-04-18T10:55:35.633Z</time></trkpt><trkpt lat="46.0578892" lon="8.2807164"><ele>234.0</ele><time>2026-04-18T10:55:37.635Z</time></trkpt><trkpt lat="46.0579576" lon="8.2807521"><ele>234.0</ele><time>2026-04-18T10:55:38.621Z</time></trkpt><trkpt lat="46.0580333" lon="8.2808121"><ele>234.0</ele><time>2026-04-18T10:55:39.623Z</time></trkpt><trkpt lat="46.0581294" lon="8.2808718"><ele>234.0</ele><time>2026-04-18T10:55:40.628Z</time></trkpt><trkpt lat="46.0582115" lon="8.2809268"><ele>234.0</ele><time>2026-04-18T10:55:41.634Z</time></trkpt><trkpt lat="46.0582815" lon="8.2809915"><ele>234.0</ele><time>2026-04-18T10:55:42.645Z</time></trkpt><trkpt lat="46.0583503" lon="8.2810595"><ele>234.33333333333334</ele><time>2026-04-18T10:55:43.645Z</time></trkpt><trkpt lat="46.0584097" lon="8.2811278"><ele>234.66666666666669</ele><time>2026-04-18T10:55:44.635Z</time></trkpt><trkpt lat="46.0584775" lon="8.2812606"><ele>235.0</ele><time>2026-04-18T10:55:46.622Z</time></trkpt><trkpt lat="46.0584762" lon="8.2813687"><ele>235.33333333333334</ele><time>2026-04-18T10:55:47.641Z</time></trkpt><trkpt lat="46.0584673" lon="8.2815194"><ele>235.66666666666669</ele><time>2026-04-18T10:55:48.627Z</time></trkpt><trkpt lat="46.0584615" lon="8.281627"><ele>236.0</ele><time>2026-04-18T10:55:49.635Z</time></trkpt><trkpt lat="46.0584581" lon="8.2817208"><ele>236.4</ele><time>2026-04-18T10:55:51.641Z</time></trkpt><trkpt lat="46.0585265" lon="8.2817945"><ele>236.8</ele><time>2026-04-18T10:55:53.636Z</time></trkpt><trkpt lat="46.0585939" lon="8.2818267"><ele>237.20000000000002</ele><time>2026-04-18T10:55:54.635Z</time></trkpt><trkpt lat="46.0586947" lon="8.2818801"><ele>237.60000000000002</ele><time>2026-04-18T10:55:55.639Z</time></trkpt><trkpt lat="46.0588288" lon="8.2819751"><ele>238.0</ele><time>2026-04-18T10:55:56.617Z</time></trkpt><trkpt lat="46.0589727" lon="8.2820923"><ele>237.0</ele><time>2026-04-18T10:55:57.624Z</time></trkpt><trkpt lat="46.0591354" lon="8.282221"><ele>236.0</ele><time>2026-04-18T10:55:58.633Z</time></trkpt><trkpt lat="46.0593213" lon="8.2823688"><ele>235.0</ele><time>2026-04-18T10:55:59.644Z</time></trkpt><trkpt lat="46.0594874" lon="8.2825"><ele>238.66666666666666</ele><time>2026-04-18T10:56:00.647Z</time></trkpt><trkpt lat="46.0596324" lon="8.2826105"><ele>242.33333333333331</ele><time>2026-04-18T10:56:01.652Z</time></trkpt><trkpt lat="46.0597706" lon="8.2827293"><ele>246.0</ele><time>2026-04-18T10:56:02.636Z</time></trkpt><trkpt lat="46.0599032" lon="8.2828343"><ele>243.75</ele><time>2026-04-18T10:56:03.639Z</time></trkpt><trkpt lat="46.0600259" lon="8.2829225"><ele>241.5</ele><time>2026-04-18T10:56:04.645Z</time></trkpt><trkpt lat="46.0601472" lon="8.2830024"><ele>239.25</ele><time>2026-04-18T10:56:05.631Z</time></trkpt><trkpt lat="46.0602475" lon="8.2830502"><ele>237.0</ele><time>2026-04-18T10:56:06.626Z</time></trkpt><trkpt lat="46.0603434" lon="8.2830891"><ele>238.2</ele><time>2026-04-18T10:56:07.634Z</time></trkpt><trkpt lat="46.0604432" lon="8.2831402"><ele>239.39999999999998</ele><time>2026-04-18T10:56:08.631Z</time></trkpt><trkpt lat="46.060543" lon="8.2831985"><ele>240.60000000000002</ele><time>2026-04-18T10:56:09.63Z</time></trkpt><trkpt lat="46.0606508" lon="8.2832562"><ele>241.8</ele><time>2026-04-18T10:56:10.631Z</time></trkpt><trkpt lat="46.0607604" lon="8.2833294"><ele>243.0</ele><time>2026-04-18T10:56:11.628Z</time></trkpt><trkpt lat="46.0608711" lon="8.2834032"><ele>243.0</ele><time>2026-04-18T10:56:12.627Z</time></trkpt><trkpt lat="46.0609874" lon="8.2834721"><ele>243.0</ele><time>2026-04-18T10:56:13.633Z</time></trkpt><trkpt lat="46.0611165" lon="8.2835206"><ele>243.0</ele><time>2026-04-18T10:56:14.629Z</time></trkpt><trkpt lat="46.0612532" lon="8.2835552"><ele>243.0</ele><time>2026-04-18T10:56:15.632Z</time></trkpt><trkpt lat="46.061393" lon="8.2835483"><ele>243.0</ele><time>2026-04-18T10:56:16.628Z</time></trkpt><trkpt lat="46.0615345" lon="8.2835272"><ele>243.0</ele><time>2026-04-18T10:56:17.633Z</time></trkpt><trkpt lat="46.0616707" lon="8.2834985"><ele>243.0</ele><time>2026-04-18T10:56:18.632Z</time></trkpt><trkpt lat="46.0618002" lon="8.2834816"><ele>243.0</ele><time>2026-04-18T10:56:19.624Z</time></trkpt><trkpt lat="46.0619354" lon="8.2835068"><ele>243.0</ele><time>2026-04-18T10:56:20.622Z</time></trkpt><trkpt lat="46.0620684" lon="8.2835349"><ele>243.0</ele><time>2026-04-18T10:56:21.646Z</time></trkpt><trkpt lat="46.0621977" lon="8.283595"><ele>243.0</ele><time>2026-04-18T10:56:22.623Z</time></trkpt><trkpt lat="46.0623313" lon="8.2836529"><ele>243.0</ele><time>2026-04-18T10:56:23.625Z</time></trkpt><trkpt lat="46.0624407" lon="8.2836994"><ele>241.5</ele><time>2026-04-18T10:56:24.629Z</time></trkpt><trkpt lat="46.0625608" lon="8.2837827"><ele>240.0</ele><time>2026-04-18T10:56:25.633Z</time></trkpt><trkpt lat="46.0626755" lon="8.2838778"><ele>238.5</ele><time>2026-04-18T10:56:26.623Z</time></trkpt><trkpt lat="46.062765" lon="8.2839835"><ele>237.0</ele><time>2026-04-18T10:56:27.633Z</time></trkpt><trkpt lat="46.0628568" lon="8.2840892"><ele>243.25</ele><time>2026-04-18T10:56:28.635Z</time></trkpt><trkpt lat="46.062948" lon="8.2842062"><ele>249.5</ele><time>2026-04-18T10:56:29.625Z</time></trkpt><trkpt lat="46.0630405" lon="8.2843459"><ele>255.75</ele><time>2026-04-18T10:56:30.625Z</time></trkpt><trkpt lat="46.0631216" lon="8.2845094"><ele>262.0</ele><time>2026-04-18T10:56:31.623Z</time></trkpt><trkpt lat="46.06321" lon="8.2846706"><ele>261.0</ele><time>2026-04-18T10:56:32.629Z</time></trkpt><trkpt lat="46.0633014" lon="8.2848087"><ele>260.0</ele><time>2026-04-18T10:56:33.615Z</time></trkpt><trkpt lat="46.0633938" lon="8.2849269"><ele>259.0</ele><time>2026-04-18T10:56:34.63Z</time></trkpt><trkpt lat="46.0634849" lon="8.2850257"><ele>258.0</ele><time>2026-04-18T10:56:35.635Z</time></trkpt><trkpt lat="46.0635699" lon="8.2851023"><ele>258.0</ele><time>2026-04-18T10:56:36.635Z</time></trkpt><trkpt lat="46.0636597" lon="8.2851768"><ele>258.0</ele><time>2026-04-18T10:56:37.624Z</time></trkpt><trkpt lat="46.0637592" lon="8.2852552"><ele>258.0</ele><time>2026-04-18T10:56:38.623Z</time></trkpt><trkpt lat="46.063866" lon="8.2853358"><ele>258.0</ele><time>2026-04-18T10:56:39.629Z</time></trkpt><trkpt lat="46.0639658" lon="8.2854355"><ele>258.0</ele><time>2026-04-18T10:56:40.626Z</time></trkpt><trkpt lat="46.0640619" lon="8.2855558"><ele>258.0</ele><time>2026-04-18T10:56:41.624Z</time></trkpt><trkpt lat="46.0641481" lon="8.2857003"><ele>258.0</ele><time>2026-04-18T10:56:42.624Z</time></trkpt><trkpt lat="46.0642401" lon="8.2858444"><ele>258.0</ele><time>2026-04-18T10:56:43.624Z</time></trkpt><trkpt lat="46.0643211" lon="8.2859948"><ele>255.25</ele><time>2026-04-18T10:56:44.627Z</time></trkpt><trkpt lat="46.06441" lon="8.2861447"><ele>252.5</ele><time>2026-04-18T10:56:45.622Z</time></trkpt><trkpt lat="46.0644957" lon="8.2862918"><ele>249.75</ele><time>2026-04-18T10:56:46.626Z</time></trkpt><trkpt lat="46.0645842" lon="8.2864191"><ele>247.0</ele><time>2026-04-18T10:56:47.628Z</time></trkpt><trkpt lat="46.0646817" lon="8.2865304"><ele>247.0</ele><time>2026-04-18T10:56:48.629Z</time></trkpt><trkpt lat="46.0647868" lon="8.2866296"><ele>247.0</ele><time>2026-04-18T10:56:49.631Z</time></trkpt><trkpt lat="46.0648977" lon="8.2867248"><ele>247.0</ele><time>2026-04-18T10:56:50.631Z</time></trkpt><trkpt lat="46.0650134" lon="8.2868182"><ele>247.0</ele><time>2026-04-18T10:56:51.635Z</time></trkpt><trkpt lat="46.065132" lon="8.2869076"><ele>247.0</ele><time>2026-04-18T10:56:52.651Z</time></trkpt><trkpt lat="46.0652417" lon="8.2870074"><ele>247.0</ele><time>2026-04-18T10:56:53.636Z</time></trkpt><trkpt lat="46.0653526" lon="8.2871042"><ele>247.0</ele><time>2026-04-18T10:56:54.637Z</time></trkpt><trkpt lat="46.0654666" lon="8.2871835"><ele>247.0</ele><time>2026-04-18T10:56:55.64Z</time></trkpt><trkpt lat="46.0655774" lon="8.287257"><ele>246.75</ele><time>2026-04-18T10:56:56.633Z</time></trkpt><trkpt lat="46.0656939" lon="8.2873251"><ele>246.5</ele><time>2026-04-18T10:56:57.64Z</time></trkpt><trkpt lat="46.0658087" lon="8.2873856"><ele>246.25</ele><time>2026-04-18T10:56:58.643Z</time></trkpt><trkpt lat="46.0659209" lon="8.2874422"><ele>246.0</ele><time>2026-04-18T10:56:59.643Z</time></trkpt><trkpt lat="46.0660254" lon="8.2875126"><ele>246.0</ele><time>2026-04-18T10:57:00.648Z</time></trkpt><trkpt lat="46.0661373" lon="8.2876015"><ele>246.0</ele><time>2026-04-18T10:57:01.638Z</time></trkpt><trkpt lat="46.0662464" lon="8.2877111"><ele>246.0</ele><time>2026-04-18T10:57:02.644Z</time></trkpt><trkpt lat="46.0663522" lon="8.2878372"><ele>246.0</ele><time>2026-04-18T10:57:03.656Z</time></trkpt><trkpt lat="46.0664649" lon="8.2879509"><ele>246.0</ele><time>2026-04-18T10:57:04.651Z</time></trkpt><trkpt lat="46.06658" lon="8.2880568"><ele>246.0</ele><time>2026-04-18T10:57:05.647Z</time></trkpt><trkpt lat="46.0666982" lon="8.2881469"><ele>246.0</ele><time>2026-04-18T10:57:06.652Z</time></trkpt><trkpt lat="46.0668133" lon="8.2882377"><ele>246.0</ele><time>2026-04-18T10:57:07.657Z</time></trkpt><trkpt lat="46.0669134" lon="8.2883382"><ele>245.5</ele><time>2026-04-18T10:57:08.653Z</time></trkpt><trkpt lat="46.0670092" lon="8.2884467"><ele>245.0</ele><time>2026-04-18T10:57:09.656Z</time></trkpt><trkpt lat="46.0671141" lon="8.2885378"><ele>244.5</ele><time>2026-04-18T10:57:10.649Z</time></trkpt><trkpt lat="46.067211" lon="8.2886341"><ele>244.0</ele><time>2026-04-18T10:57:11.64Z</time></trkpt><trkpt lat="46.0672868" lon="8.2887042"><ele>243.99999999999997</ele><time>2026-04-18T10:57:12.635Z</time></trkpt><trkpt lat="46.0673593" lon="8.28876"><ele>244.0</ele><time>2026-04-18T10:57:13.635Z</time></trkpt><trkpt lat="46.0674162" lon="8.2888048"><ele>244.0</ele><time>2026-04-18T10:57:14.633Z</time></trkpt><trkpt lat="46.0674422" lon="8.2888962"><ele>244.0</ele><time>2026-04-18T10:57:33.633Z</time></trkpt><trkpt lat="46.0674221" lon="8.2890041"><ele>243.99999999999997</ele><time>2026-04-18T10:57:35.618Z</time></trkpt><trkpt lat="46.0673303" lon="8.2891536"><ele>244.0</ele><time>2026-04-18T10:57:38.613Z</time></trkpt><trkpt lat="46.0673934" lon="8.2892628"><ele>243.6</ele><time>2026-04-18T10:57:42.625Z</time></trkpt><trkpt lat="46.067462" lon="8.2893153"><ele>243.2</ele><time>2026-04-18T10:57:43.615Z</time></trkpt><trkpt lat="46.067545" lon="8.2893809"><ele>242.79999999999998</ele><time>2026-04-18T10:57:44.643Z</time></trkpt><trkpt lat="46.0676364" lon="8.2894603"><ele>242.39999999999998</ele><time>2026-04-18T10:57:45.721Z</time></trkpt><trkpt lat="46.0677496" lon="8.2895615"><ele>242.0</ele><time>2026-04-18T10:57:46.726Z</time></trkpt><trkpt lat="46.0678487" lon="8.2896597"><ele>242.0</ele><time>2026-04-18T10:57:47.72Z</time></trkpt><trkpt lat="46.0679577" lon="8.2897528"><ele>242.0</ele><time>2026-04-18T10:57:48.734Z</time></trkpt><trkpt lat="46.0680731" lon="8.289847"><ele>242.0</ele><time>2026-04-18T10:57:49.727Z</time></trkpt><trkpt lat="46.0681882" lon="8.289949"><ele>242.0</ele><time>2026-04-18T10:57:50.73Z</time></trkpt><trkpt lat="46.0683077" lon="8.2900478"><ele>242.5</ele><time>2026-04-18T10:57:51.729Z</time></trkpt><trkpt lat="46.0684244" lon="8.2901463"><ele>243.0</ele><time>2026-04-18T10:57:52.728Z</time></trkpt><trkpt lat="46.0685381" lon="8.2902435"><ele>243.5</ele><time>2026-04-18T10:57:53.729Z</time></trkpt><trkpt lat="46.06865" lon="8.290335"><ele>244.0</ele><time>2026-04-18T10:57:54.746Z</time></trkpt><trkpt lat="46.0687603" lon="8.2904242"><ele>244.0</ele><time>2026-04-18T10:57:55.739Z</time></trkpt><trkpt lat="46.0688877" lon="8.2904972"><ele>244.0</ele><time>2026-04-18T10:57:56.739Z</time></trkpt><trkpt lat="46.0690057" lon="8.2905795"><ele>244.0</ele><time>2026-04-18T10:57:57.735Z</time></trkpt><trkpt lat="46.0691247" lon="8.2906629"><ele>244.0</ele><time>2026-04-18T10:57:58.726Z</time></trkpt><trkpt lat="46.069247" lon="8.2907431"><ele>246.0</ele><time>2026-04-18T10:57:59.737Z</time></trkpt><trkpt lat="46.0693724" lon="8.2908202"><ele>248.0</ele><time>2026-04-18T10:58:00.721Z</time></trkpt><trkpt lat="46.0694895" lon="8.290894"><ele>250.0</ele><time>2026-04-18T10:58:01.73Z</time></trkpt><trkpt lat="46.0695968" lon="8.2909552"><ele>252.0</ele><time>2026-04-18T10:58:02.717Z</time></trkpt><trkpt lat="46.0696821" lon="8.2910052"><ele>252.0</ele><time>2026-04-18T10:58:03.712Z</time></trkpt><trkpt lat="46.0697415" lon="8.2910495"><ele>252.0</ele><time>2026-04-18T10:58:04.714Z</time></trkpt><trkpt lat="46.06979" lon="8.2911188"><ele>252.0</ele><time>2026-04-18T10:58:08.746Z</time></trkpt><trkpt lat="46.0698522" lon="8.2911335"><ele>252.0</ele><time>2026-04-18T10:58:11.741Z</time></trkpt><trkpt lat="46.0699277" lon="8.2910992"><ele>252.0</ele><time>2026-04-18T10:58:17.736Z</time></trkpt><trkpt lat="46.0699946" lon="8.2910232"><ele>252.0</ele><time>2026-04-18T10:58:19.724Z</time></trkpt><trkpt lat="46.0699733" lon="8.2909216"><ele>252.0</ele><time>2026-04-18T10:58:22.734Z</time></trkpt><trkpt lat="46.0699004" lon="8.2909436"><ele>252.0</ele><time>2026-04-18T10:58:25.655Z</time></trkpt><trkpt lat="46.0699382" lon="8.2910249"><ele>252.0</ele><time>2026-04-18T10:58:27.628Z</time></trkpt><trkpt lat="46.070002" lon="8.2910465"><ele>252.0</ele><time>2026-04-18T10:58:28.63Z</time></trkpt><trkpt lat="46.0700832" lon="8.291085"><ele>252.0</ele><time>2026-04-18T10:58:29.634Z</time></trkpt><trkpt lat="46.0701718" lon="8.2911241"><ele>252.0</ele><time>2026-04-18T10:58:30.633Z</time></trkpt><trkpt lat="46.070264" lon="8.2911547"><ele>252.0</ele><time>2026-04-18T10:58:31.622Z</time></trkpt><trkpt lat="46.0703669" lon="8.2911685"><ele>249.25</ele><time>2026-04-18T10:58:32.623Z</time></trkpt><trkpt lat="46.0704888" lon="8.2911791"><ele>246.5</ele><time>2026-04-18T10:58:33.636Z</time></trkpt><trkpt lat="46.0706084" lon="8.2912278"><ele>243.75</ele><time>2026-04-18T10:58:34.626Z</time></trkpt><trkpt lat="46.070724" lon="8.2913163"><ele>241.0</ele><time>2026-04-18T10:58:35.638Z</time></trkpt><trkpt lat="46.0708352" lon="8.2914102"><ele>240.5</ele><time>2026-04-18T10:58:36.639Z</time></trkpt><trkpt lat="46.0709433" lon="8.2915129"><ele>240.0</ele><time>2026-04-18T10:58:37.638Z</time></trkpt><trkpt lat="46.0710456" lon="8.2916413"><ele>239.5</ele><time>2026-04-18T10:58:38.632Z</time></trkpt><trkpt lat="46.0711437" lon="8.2917708"><ele>239.0</ele><time>2026-04-18T10:58:39.639Z</time></trkpt><trkpt lat="46.0712412" lon="8.2918992"><ele>239.0</ele><time>2026-04-18T10:58:40.642Z</time></trkpt><trkpt lat="46.0713424" lon="8.2920282"><ele>239.0</ele><time>2026-04-18T10:58:41.639Z</time></trkpt><trkpt lat="46.0714462" lon="8.2921446"><ele>239.0</ele><time>2026-04-18T10:58:42.645Z</time></trkpt><trkpt lat="46.0715474" lon="8.2922579"><ele>239.0</ele><time>2026-04-18T10:58:43.634Z</time></trkpt><trkpt lat="46.0716455" lon="8.2923679"><ele>238.75</ele><time>2026-04-18T10:58:44.637Z</time></trkpt><trkpt lat="46.0717372" lon="8.2924865"><ele>238.5</ele><time>2026-04-18T10:58:45.626Z</time></trkpt><trkpt lat="46.0718361" lon="8.2925833"><ele>238.25</ele><time>2026-04-18T10:58:46.634Z</time></trkpt><trkpt lat="46.071934" lon="8.2926725"><ele>238.0</ele><time>2026-04-18T10:58:47.647Z</time></trkpt><trkpt lat="46.072042" lon="8.2927481"><ele>238.0</ele><time>2026-04-18T10:58:48.641Z</time></trkpt><trkpt lat="46.0721483" lon="8.2928224"><ele>238.0</ele><time>2026-04-18T10:58:49.639Z</time></trkpt><trkpt lat="46.0722614" lon="8.2928938"><ele>238.0</ele><time>2026-04-18T10:58:50.634Z</time></trkpt><trkpt lat="46.0723693" lon="8.2929621"><ele>238.0</ele><time>2026-04-18T10:58:51.645Z</time></trkpt><trkpt lat="46.0724726" lon="8.2930306"><ele>237.83333333333331</ele><time>2026-04-18T10:58:52.636Z</time></trkpt><trkpt lat="46.0725618" lon="8.2930885"><ele>237.66666666666666</ele><time>2026-04-18T10:58:53.641Z</time></trkpt><trkpt lat="46.0726466" lon="8.2931437"><ele>237.5</ele><time>2026-04-18T10:58:54.627Z</time></trkpt><trkpt lat="46.0727115" lon="8.2931904"><ele>237.33333333333331</ele><time>2026-04-18T10:58:55.632Z</time></trkpt><trkpt lat="46.0727886" lon="8.2932305"><ele>237.16666666666666</ele><time>2026-04-18T10:58:57.646Z</time></trkpt><trkpt lat="46.0728114" lon="8.2931376"><ele>237.0</ele><time>2026-04-18T10:59:04.633Z</time></trkpt><trkpt lat="46.0728008" lon="8.2930052"><ele>236.99999999999997</ele><time>2026-04-18T10:59:06.644Z</time></trkpt><trkpt lat="46.0728021" lon="8.2929055"><ele>237.0</ele><time>2026-04-18T10:59:07.63Z</time></trkpt><trkpt lat="46.0728005" lon="8.2928027"><ele>236.99999999999997</ele><time>2026-04-18T10:59:08.639Z</time></trkpt><trkpt lat="46.0728059" lon="8.2927028"><ele>236.99999999999997</ele><time>2026-04-18T10:59:09.631Z</time></trkpt><trkpt lat="46.0728246" lon="8.2925992"><ele>237.0</ele><time>2026-04-18T10:59:10.639Z</time></trkpt><trkpt lat="46.0728459" lon="8.2925025"><ele>236.99999999999997</ele><time>2026-04-18T10:59:11.63Z</time></trkpt><trkpt lat="46.0728578" lon="8.2924104"><ele>236.99999999999997</ele><time>2026-04-18T10:59:12.625Z</time></trkpt><trkpt lat="46.0728945" lon="8.2922828"><ele>237.0</ele><time>2026-04-18T10:59:14.622Z</time></trkpt><trkpt lat="46.0729588" lon="8.2921656"><ele>237.0</ele><time>2026-04-18T10:59:16.608Z</time></trkpt><trkpt lat="46.0729857" lon="8.2920765"><ele>237.0</ele><time>2026-04-18T10:59:18.616Z</time></trkpt><trkpt lat="46.0730737" lon="8.2920701"><ele>237.0</ele><time>2026-04-18T10:59:20.612Z</time></trkpt><trkpt lat="46.0731363" lon="8.2921002"><ele>237.0</ele><time>2026-04-18T10:59:21.61Z</time></trkpt><trkpt lat="46.0732179" lon="8.2921665"><ele>237.0</ele><time>2026-04-18T10:59:22.612Z</time></trkpt><trkpt lat="46.07333" lon="8.2922522"><ele>237.33333333333331</ele><time>2026-04-18T10:59:23.613Z</time></trkpt><trkpt lat="46.0734706" lon="8.2923168"><ele>237.66666666666666</ele><time>2026-04-18T10:59:24.617Z</time></trkpt><trkpt lat="46.0736488" lon="8.2923882"><ele>238.0</ele><time>2026-04-18T10:59:25.603Z</time></trkpt><trkpt lat="46.0738026" lon="8.2924677"><ele>238.0</ele><time>2026-04-18T10:59:26.618Z</time></trkpt><trkpt lat="46.0739498" lon="8.2925546"><ele>238.0</ele><time>2026-04-18T10:59:27.645Z</time></trkpt><trkpt lat="46.0740978" lon="8.2926446"><ele>238.0</ele><time>2026-04-18T10:59:28.616Z</time></trkpt><trkpt lat="46.0742315" lon="8.29272"><ele>238.25</ele><time>2026-04-18T10:59:29.627Z</time></trkpt><trkpt lat="46.0743593" lon="8.2927783"><ele>238.5</ele><time>2026-04-18T10:59:30.629Z</time></trkpt><trkpt lat="46.0744915" lon="8.2928475"><ele>238.75</ele><time>2026-04-18T10:59:31.63Z</time></trkpt><trkpt lat="46.0746189" lon="8.2929264"><ele>239.0</ele><time>2026-04-18T10:59:32.627Z</time></trkpt><trkpt lat="46.0747439" lon="8.2930025"><ele>239.0</ele><time>2026-04-18T10:59:33.63Z</time></trkpt><trkpt lat="46.0748592" lon="8.2930867"><ele>239.0</ele><time>2026-04-18T10:59:34.638Z</time></trkpt><trkpt lat="46.0749711" lon="8.2931547"><ele>239.0</ele><time>2026-04-18T10:59:35.614Z</time></trkpt><trkpt lat="46.0750753" lon="8.2932146"><ele>239.0</ele><time>2026-04-18T10:59:36.635Z</time></trkpt><trkpt lat="46.0751815" lon="8.2932771"><ele>239.0</ele><time>2026-04-18T10:59:37.634Z</time></trkpt><trkpt lat="46.0752838" lon="8.2933382"><ele>238.99999999999997</ele><time>2026-04-18T10:59:38.636Z</time></trkpt><trkpt lat="46.0753882" lon="8.293393"><ele>238.99999999999997</ele><time>2026-04-18T10:59:39.637Z</time></trkpt><trkpt lat="46.0754863" lon="8.2934535"><ele>239.0</ele><time>2026-04-18T10:59:40.635Z</time></trkpt><trkpt lat="46.0755799" lon="8.2935122"><ele>239.0</ele><time>2026-04-18T10:59:41.628Z</time></trkpt><trkpt lat="46.0756694" lon="8.2935644"><ele>239.0</ele><time>2026-04-18T10:59:42.64Z</time></trkpt><trkpt lat="46.0757566" lon="8.2936112"><ele>238.99999999999997</ele><time>2026-04-18T10:59:43.63Z</time></trkpt><trkpt lat="46.0758442" lon="8.2936595"><ele>238.99999999999997</ele><time>2026-04-18T10:59:44.645Z</time></trkpt><trkpt lat="46.0759403" lon="8.2936991"><ele>239.0</ele><time>2026-04-18T10:59:45.627Z</time></trkpt><trkpt lat="46.0760381" lon="8.2937453"><ele>239.0</ele><time>2026-04-18T10:59:46.627Z</time></trkpt><trkpt lat="46.0761449" lon="8.2937839"><ele>238.75</ele><time>2026-04-18T10:59:47.638Z</time></trkpt><trkpt lat="46.0762573" lon="8.2938335"><ele>238.5</ele><time>2026-04-18T10:59:48.634Z</time></trkpt><trkpt lat="46.0763714" lon="8.2938654"><ele>238.25</ele><time>2026-04-18T10:59:49.636Z</time></trkpt><trkpt lat="46.0764875" lon="8.2938924"><ele>238.0</ele><time>2026-04-18T10:59:50.637Z</time></trkpt><trkpt lat="46.0765972" lon="8.2939222"><ele>239.2</ele><time>2026-04-18T10:59:51.634Z</time></trkpt><trkpt lat="46.0767075" lon="8.2939567"><ele>240.4</ele><time>2026-04-18T10:59:52.635Z</time></trkpt><trkpt lat="46.07682" lon="8.2940029"><ele>241.59999999999997</ele><time>2026-04-18T10:59:53.623Z</time></trkpt><trkpt lat="46.0769274" lon="8.2940379"><ele>242.79999999999998</ele><time>2026-04-18T10:59:54.642Z</time></trkpt><trkpt lat="46.0770313" lon="8.2940636"><ele>244.0</ele><time>2026-04-18T10:59:55.626Z</time></trkpt><trkpt lat="46.077133" lon="8.2940772"><ele>244.0</ele><time>2026-04-18T10:59:56.626Z</time></trkpt><trkpt lat="46.0772306" lon="8.2940889"><ele>243.99999999999997</ele><time>2026-04-18T10:59:57.624Z</time></trkpt><trkpt lat="46.0773224" lon="8.2941286"><ele>243.99999999999997</ele><time>2026-04-18T10:59:58.63Z</time></trkpt><trkpt lat="46.0774134" lon="8.294168"><ele>244.0</ele><time>2026-04-18T10:59:59.627Z</time></trkpt><trkpt lat="46.0775029" lon="8.2942028"><ele>244.0</ele><time>2026-04-18T11:00:00.611Z</time></trkpt><trkpt lat="46.0776152" lon="8.2942026"><ele>244.0</ele><time>2026-04-18T11:00:01.614Z</time></trkpt><trkpt lat="46.0777323" lon="8.2942158"><ele>243.99999999999997</ele><time>2026-04-18T11:00:02.621Z</time></trkpt><trkpt lat="46.0778398" lon="8.2942379"><ele>243.99999999999997</ele><time>2026-04-18T11:00:03.616Z</time></trkpt><trkpt lat="46.0779248" lon="8.2942478"><ele>244.0</ele><time>2026-04-18T11:00:04.619Z</time></trkpt><trkpt lat="46.0780115" lon="8.2942541"><ele>244.0</ele><time>2026-04-18T11:00:05.613Z</time></trkpt><trkpt lat="46.0781182" lon="8.2942671"><ele>244.0</ele><time>2026-04-18T11:00:06.628Z</time></trkpt><trkpt lat="46.078241" lon="8.2942691"><ele>244.0</ele><time>2026-04-18T11:00:07.628Z</time></trkpt><trkpt lat="46.0783722" lon="8.294266"><ele>244.0</ele><time>2026-04-18T11:00:08.627Z</time></trkpt><trkpt lat="46.0785094" lon="8.2942696"><ele>244.0</ele><time>2026-04-18T11:00:09.628Z</time></trkpt><trkpt lat="46.0786465" lon="8.2942781"><ele>244.39999999999998</ele><time>2026-04-18T11:00:10.621Z</time></trkpt><trkpt lat="46.0787657" lon="8.2942984"><ele>244.79999999999998</ele><time>2026-04-18T11:00:11.619Z</time></trkpt><trkpt lat="46.078855" lon="8.2943125"><ele>245.20000000000002</ele><time>2026-04-18T11:00:12.621Z</time></trkpt><trkpt lat="46.0789238" lon="8.2943373"><ele>245.60000000000002</ele><time>2026-04-18T11:00:13.622Z</time></trkpt><trkpt lat="46.0789567" lon="8.2944244"><ele>246.0</ele><time>2026-04-18T11:00:20.626Z</time></trkpt><trkpt lat="46.0789665" lon="8.294596"><ele>246.0</ele><time>2026-04-18T11:00:22.632Z</time></trkpt><trkpt lat="46.0789564" lon="8.2947068"><ele>246.0</ele><time>2026-04-18T11:00:24.619Z</time></trkpt><trkpt lat="46.0789615" lon="8.2948568"><ele>246.0</ele><time>2026-04-18T11:00:36.631Z</time></trkpt><trkpt lat="46.0789896" lon="8.294985"><ele>246.0</ele><time>2026-04-18T11:00:38.628Z</time></trkpt><trkpt lat="46.0789902" lon="8.2950883"><ele>246.0</ele><time>2026-04-18T11:00:43.634Z</time></trkpt><trkpt lat="46.0790186" lon="8.2952133"><ele>246.0</ele><time>2026-04-18T11:00:46.644Z</time></trkpt><trkpt lat="46.0790987" lon="8.2953418"><ele>246.0</ele><time>2026-04-18T11:00:48.619Z</time></trkpt><trkpt lat="46.0791238" lon="8.2954712"><ele>246.00000000000003</ele><time>2026-04-18T11:00:49.634Z</time></trkpt><trkpt lat="46.079124" lon="8.2956328"><ele>246.00000000000003</ele><time>2026-04-18T11:00:50.629Z</time></trkpt><trkpt lat="46.0791259" lon="8.2958066"><ele>246.0</ele><time>2026-04-18T11:00:51.62Z</time></trkpt><trkpt lat="46.0791252" lon="8.2959493"><ele>246.0</ele><time>2026-04-18T11:00:52.618Z</time></trkpt><trkpt lat="46.0791262" lon="8.296055"><ele>246.33333333333334</ele><time>2026-04-18T11:00:53.63Z</time></trkpt><trkpt lat="46.0791287" lon="8.2961491"><ele>246.66666666666669</ele><time>2026-04-18T11:00:54.632Z</time></trkpt><trkpt lat="46.0791318" lon="8.2962592"><ele>247.0</ele><time>2026-04-18T11:00:55.635Z</time></trkpt><trkpt lat="46.0791392" lon="8.2963701"><ele>247.33333333333334</ele><time>2026-04-18T11:00:56.632Z</time></trkpt><trkpt lat="46.0791462" lon="8.2964998"><ele>247.66666666666669</ele><time>2026-04-18T11:00:57.636Z</time></trkpt><trkpt lat="46.0791517" lon="8.2966044"><ele>248.0</ele><time>2026-04-18T11:00:58.629Z</time></trkpt><trkpt lat="46.0791451" lon="8.2967072"><ele>248.2857142857143</ele><time>2026-04-18T11:00:59.648Z</time></trkpt><trkpt lat="46.0791371" lon="8.2968129"><ele>248.5714285714286</ele><time>2026-04-18T11:01:00.651Z</time></trkpt><trkpt lat="46.079117" lon="8.2969201"><ele>248.85714285714286</ele><time>2026-04-18T11:01:01.641Z</time></trkpt><trkpt lat="46.0790967" lon="8.2970148"><ele>249.14285714285717</ele><time>2026-04-18T11:01:02.631Z</time></trkpt><trkpt lat="46.0790815" lon="8.297105"><ele>249.42857142857144</ele><time>2026-04-18T11:01:03.627Z</time></trkpt><trkpt lat="46.0790731" lon="8.2971996"><ele>249.71428571428572</ele><time>2026-04-18T11:01:04.629Z</time></trkpt><trkpt lat="46.0790553" lon="8.2972999"><ele>250.0</ele><time>2026-04-18T11:01:05.611Z</time></trkpt><trkpt lat="46.0790309" lon="8.2974081"><ele>250.66666666666666</ele><time>2026-04-18T11:01:06.619Z</time></trkpt><trkpt lat="46.0789985" lon="8.2975324"><ele>251.33333333333331</ele><time>2026-04-18T11:01:07.621Z</time></trkpt><trkpt lat="46.0789506" lon="8.2976408"><ele>252.0</ele><time>2026-04-18T11:01:08.62Z</time></trkpt><trkpt lat="46.0789046" lon="8.2977293"><ele>252.66666666666669</ele><time>2026-04-18T11:01:09.617Z</time></trkpt><trkpt lat="46.078861" lon="8.2978018"><ele>253.33333333333334</ele><time>2026-04-18T11:01:10.628Z</time></trkpt><trkpt lat="46.0788242" lon="8.2978969"><ele>254.0</ele><time>2026-04-18T11:01:15.636Z</time></trkpt><trkpt lat="46.078887" lon="8.2980018"><ele>254.00000000000003</ele><time>2026-04-18T11:01:17.617Z</time></trkpt><trkpt lat="46.0789363" lon="8.2980689"><ele>254.0</ele><time>2026-04-18T11:01:19.622Z</time></trkpt><trkpt lat="46.0790283" lon="8.2980883"><ele>254.0</ele><time>2026-04-18T11:01:29.65Z</time></trkpt><trkpt lat="46.0790942" lon="8.2980101"><ele>254.0</ele><time>2026-04-18T11:01:31.659Z</time></trkpt><trkpt lat="46.0791366" lon="8.2979361"><ele>254.00000000000003</ele><time>2026-04-18T11:01:32.639Z</time></trkpt><trkpt lat="46.0791859" lon="8.2978672"><ele>254.0</ele><time>2026-04-18T11:01:33.636Z</time></trkpt><trkpt lat="46.0792502" lon="8.2978147"><ele>253.71428571428572</ele><time>2026-04-18T11:01:34.633Z</time></trkpt><trkpt lat="46.0793097" lon="8.2977606"><ele>253.42857142857142</ele><time>2026-04-18T11:01:35.642Z</time></trkpt><trkpt lat="46.0793763" lon="8.297719"><ele>253.14285714285714</ele><time>2026-04-18T11:01:36.639Z</time></trkpt><trkpt lat="46.0794361" lon="8.2976775"><ele>252.85714285714286</ele><time>2026-04-18T11:01:37.62Z</time></trkpt><trkpt lat="46.0794875" lon="8.2976195"><ele>252.57142857142856</ele><time>2026-04-18T11:01:38.626Z</time></trkpt><trkpt lat="46.0795369" lon="8.29756"><ele>252.28571428571428</ele><time>2026-04-18T11:01:39.635Z</time></trkpt><trkpt lat="46.0795954" lon="8.2974952"><ele>252.0</ele><time>2026-04-18T11:01:40.638Z</time></trkpt><trkpt lat="46.0796533" lon="8.2974236"><ele>252.0</ele><time>2026-04-18T11:01:41.629Z</time></trkpt><trkpt lat="46.0797245" lon="8.2973719"><ele>252.0</ele><time>2026-04-18T11:01:42.634Z</time></trkpt><trkpt lat="46.079789" lon="8.2973131"><ele>252.0</ele><time>2026-04-18T11:01:43.631Z</time></trkpt><trkpt lat="46.0798659" lon="8.2972471"><ele>252.0</ele><time>2026-04-18T11:01:44.623Z</time></trkpt><trkpt lat="46.0799531" lon="8.2971718"><ele>252.0</ele><time>2026-04-18T11:01:45.638Z</time></trkpt><trkpt lat="46.0800449" lon="8.2970891"><ele>251.39999999999998</ele><time>2026-04-18T11:01:46.721Z</time></trkpt><trkpt lat="46.0801321" lon="8.297012"><ele>250.79999999999998</ele><time>2026-04-18T11:01:47.723Z</time></trkpt><trkpt lat="46.0802135" lon="8.2969363"><ele>250.2</ele><time>2026-04-18T11:01:48.723Z</time></trkpt><trkpt lat="46.0802898" lon="8.296868"><ele>249.6</ele><time>2026-04-18T11:01:49.721Z</time></trkpt><trkpt lat="46.0803632" lon="8.2968028"><ele>249.0</ele><time>2026-04-18T11:01:50.724Z</time></trkpt><trkpt lat="46.0804398" lon="8.2967343"><ele>249.0</ele><time>2026-04-18T11:01:51.728Z</time></trkpt><trkpt lat="46.0805218" lon="8.2966747"><ele>249.0</ele><time>2026-04-18T11:01:52.721Z</time></trkpt><trkpt lat="46.080605" lon="8.2966259"><ele>249.0</ele><time>2026-04-18T11:01:53.737Z</time></trkpt><trkpt lat="46.0806924" lon="8.2965833"><ele>249.0</ele><time>2026-04-18T11:01:54.738Z</time></trkpt><trkpt lat="46.0807669" lon="8.2965294"><ele>249.0</ele><time>2026-04-18T11:01:55.721Z</time></trkpt><trkpt lat="46.0808162" lon="8.296461"><ele>249.0</ele><time>2026-04-18T11:01:56.715Z</time></trkpt><trkpt lat="46.0808777" lon="8.2963093"><ele>248.6</ele><time>2026-04-18T11:01:58.715Z</time></trkpt><trkpt lat="46.0808804" lon="8.296182"><ele>248.2</ele><time>2026-04-18T11:01:59.735Z</time></trkpt><trkpt lat="46.0808853" lon="8.2960499"><ele>247.79999999999998</ele><time>2026-04-18T11:02:00.733Z</time></trkpt><trkpt lat="46.080897" lon="8.2959068"><ele>247.39999999999998</ele><time>2026-04-18T11:02:01.733Z</time></trkpt><trkpt lat="46.080918" lon="8.295769"><ele>247.0</ele><time>2026-04-18T11:02:02.736Z</time></trkpt><trkpt lat="46.0809471" lon="8.2956361"><ele>247.16666666666666</ele><time>2026-04-18T11:02:03.723Z</time></trkpt><trkpt lat="46.0809876" lon="8.2955102"><ele>247.33333333333331</ele><time>2026-04-18T11:02:04.7Z</time></trkpt><trkpt lat="46.0810272" lon="8.2953826"><ele>247.5</ele><time>2026-04-18T11:02:05.714Z</time></trkpt><trkpt lat="46.0810654" lon="8.2952726"><ele>247.66666666666669</ele><time>2026-04-18T11:02:06.705Z</time></trkpt><trkpt lat="46.0811006" lon="8.2951939"><ele>247.83333333333334</ele><time>2026-04-18T11:02:07.707Z</time></trkpt><trkpt lat="46.0811782" lon="8.2950991"><ele>248.0</ele><time>2026-04-18T11:02:09.713Z</time></trkpt><trkpt lat="46.0812429" lon="8.2950406"><ele>248.0</ele><time>2026-04-18T11:02:11.734Z</time></trkpt><trkpt lat="46.0812415" lon="8.2948947"><ele>248.0</ele><time>2026-04-18T11:02:14.728Z</time></trkpt><trkpt lat="46.0811772" lon="8.2948395"><ele>248.0</ele><time>2026-04-18T11:02:17.63Z</time></trkpt><trkpt lat="46.0810688" lon="8.294847"><ele>248.0</ele><time>2026-04-18T11:02:23.628Z</time></trkpt><trkpt lat="46.080976" lon="8.2948659"><ele>248.0</ele><time>2026-04-18T11:02:24.606Z</time></trkpt><trkpt lat="46.0808816" lon="8.2948733"><ele>248.0</ele><time>2026-04-18T11:02:25.617Z</time></trkpt><trkpt lat="46.0807739" lon="8.294866"><ele>248.0</ele><time>2026-04-18T11:02:26.615Z</time></trkpt><trkpt lat="46.080655" lon="8.2948582"><ele>248.0</ele><time>2026-04-18T11:02:27.622Z</time></trkpt><trkpt lat="46.0805304" lon="8.2948491"><ele>248.0</ele><time>2026-04-18T11:02:28.616Z</time></trkpt><trkpt lat="46.0803914" lon="8.2948491"><ele>247.75</ele><time>2026-04-18T11:02:29.623Z</time></trkpt><trkpt lat="46.0802607" lon="8.2948355"><ele>247.5</ele><time>2026-04-18T11:02:30.617Z</time></trkpt><trkpt lat="46.080127" lon="8.2948259"><ele>247.25</ele><time>2026-04-18T11:02:31.61Z</time></trkpt><trkpt lat="46.0799891" lon="8.2948173"><ele>247.0</ele><time>2026-04-18T11:02:32.625Z</time></trkpt><trkpt lat="46.079855" lon="8.2948247"><ele>246.75</ele><time>2026-04-18T11:02:33.637Z</time></trkpt><trkpt lat="46.0797413" lon="8.2948084"><ele>246.5</ele><time>2026-04-18T11:02:34.622Z</time></trkpt><trkpt lat="46.0796319" lon="8.2947956"><ele>246.25</ele><time>2026-04-18T11:02:35.621Z</time></trkpt><trkpt lat="46.0795135" lon="8.2947892"><ele>246.0</ele><time>2026-04-18T11:02:36.62Z</time></trkpt><trkpt lat="46.0793957" lon="8.2947761"><ele>246.0</ele><time>2026-04-18T11:02:37.608Z</time></trkpt><trkpt lat="46.0792977" lon="8.2947777"><ele>246.0</ele><time>2026-04-18T11:02:38.615Z</time></trkpt><trkpt lat="46.0792135" lon="8.2947688"><ele>246.0</ele><time>2026-04-18T11:02:39.611Z</time></trkpt><trkpt lat="46.079132" lon="8.294769"><ele>246.0</ele><time>2026-04-18T11:02:40.627Z</time></trkpt><trkpt lat="46.0790597" lon="8.2947577"><ele>246.0</ele><time>2026-04-18T11:02:41.61Z</time></trkpt><trkpt lat="46.0789852" lon="8.2947889"><ele>246.0</ele><time>2026-04-18T11:02:43.621Z</time></trkpt><trkpt lat="46.0789547" lon="8.2949186"><ele>246.16666666666666</ele><time>2026-04-18T11:02:45.621Z</time></trkpt><trkpt lat="46.0789882" lon="8.2950594"><ele>246.33333333333331</ele><time>2026-04-18T11:02:47.621Z</time></trkpt><trkpt lat="46.0789383" lon="8.2951323"><ele>246.5</ele><time>2026-04-18T11:02:49.635Z</time></trkpt><trkpt lat="46.07882" lon="8.2950963"><ele>246.66666666666666</ele><time>2026-04-18T11:02:51.627Z</time></trkpt><trkpt lat="46.0787513" lon="8.295075"><ele>246.83333333333331</ele><time>2026-04-18T11:02:52.62Z</time></trkpt><trkpt lat="46.0786863" lon="8.295059"><ele>247.0</ele><time>2026-04-18T11:02:53.625Z</time></trkpt><trkpt lat="46.0786258" lon="8.2950222"><ele>247.0</ele><time>2026-04-18T11:02:54.627Z</time></trkpt><trkpt lat="46.0785349" lon="8.2949364"><ele>247.0</ele><time>2026-04-18T11:02:56.623Z</time></trkpt><trkpt lat="46.0784227" lon="8.2949566"><ele>247.0</ele><time>2026-04-18T11:02:58.62Z</time></trkpt><trkpt lat="46.0783144" lon="8.2950526"><ele>247.0</ele><time>2026-04-18T11:03:00.613Z</time></trkpt><trkpt lat="46.0782524" lon="8.295147"><ele>247.0</ele><time>2026-04-18T11:03:01.608Z</time></trkpt><trkpt lat="46.0781594" lon="8.2952238"><ele>246.6</ele><time>2026-04-18T11:03:02.599Z</time></trkpt><trkpt lat="46.078058" lon="8.2953046"><ele>246.2</ele><time>2026-04-18T11:03:03.616Z</time></trkpt><trkpt lat="46.0779601" lon="8.2953656"><ele>245.8</ele><time>2026-04-18T11:03:04.622Z</time></trkpt><trkpt lat="46.0778733" lon="8.2954354"><ele>245.4</ele><time>2026-04-18T11:03:05.621Z</time></trkpt><trkpt lat="46.0777968" lon="8.2954925"><ele>245.0</ele><time>2026-04-18T11:03:06.619Z</time></trkpt><trkpt lat="46.0777191" lon="8.2955288"><ele>245.4</ele><time>2026-04-18T11:03:07.613Z</time></trkpt><trkpt lat="46.0776419" lon="8.2955879"><ele>245.8</ele><time>2026-04-18T11:03:09.599Z</time></trkpt><trkpt lat="46.077605" lon="8.2956994"><ele>246.2</ele><time>2026-04-18T11:03:13.613Z</time></trkpt><trkpt lat="46.0775773" lon="8.2958561"><ele>246.6</ele><time>2026-04-18T11:03:15.619Z</time></trkpt><trkpt lat="46.0775667" lon="8.2959782"><ele>247.0</ele><time>2026-04-18T11:03:16.614Z</time></trkpt><trkpt lat="46.0775498" lon="8.2961099"><ele>247.0</ele><time>2026-04-18T11:03:17.62Z</time></trkpt><trkpt lat="46.0775086" lon="8.2962386"><ele>247.0</ele><time>2026-04-18T11:03:18.613Z</time></trkpt><trkpt lat="46.0774586" lon="8.2963679"><ele>247.0</ele><time>2026-04-18T11:03:19.621Z</time></trkpt><trkpt lat="46.0774051" lon="8.2964835"><ele>247.0</ele><time>2026-04-18T11:03:20.614Z</time></trkpt><trkpt lat="46.0773659" lon="8.2965694"><ele>247.0</ele><time>2026-04-18T11:03:21.617Z</time></trkpt><trkpt lat="46.0773472" lon="8.2966918"><ele>247.5</ele><time>2026-04-18T11:03:26.62Z</time></trkpt><trkpt lat="46.0774394" lon="8.2968126"><ele>248.0</ele><time>2026-04-18T11:03:28.625Z</time></trkpt><trkpt lat="46.0775313" lon="8.2968793"><ele>248.5</ele><time>2026-04-18T11:03:29.63Z</time></trkpt><trkpt lat="46.0776343" lon="8.2969755"><ele>249.0</ele><time>2026-04-18T11:03:30.629Z</time></trkpt><trkpt lat="46.0777231" lon="8.2970891"><ele>249.0</ele><time>2026-04-18T11:03:31.624Z</time></trkpt><trkpt lat="46.0778094" lon="8.2972039"><ele>249.0</ele><time>2026-04-18T11:03:32.627Z</time></trkpt><trkpt lat="46.0778975" lon="8.2973311"><ele>249.0</ele><time>2026-04-18T11:03:33.632Z</time></trkpt><trkpt lat="46.0779804" lon="8.2974656"><ele>249.0</ele><time>2026-04-18T11:03:34.631Z</time></trkpt><trkpt lat="46.0780523" lon="8.2975865"><ele>250.0</ele><time>2026-04-18T11:03:35.635Z</time></trkpt><trkpt lat="46.0781276" lon="8.2977151"><ele>251.0</ele><time>2026-04-18T11:03:36.634Z</time></trkpt><trkpt lat="46.078201" lon="8.2978384"><ele>252.0</ele><time>2026-04-18T11:03:37.631Z</time></trkpt><trkpt lat="46.0782709" lon="8.2979589"><ele>253.0</ele><time>2026-04-18T11:03:38.623Z</time></trkpt><trkpt lat="46.0783431" lon="8.2980814"><ele>253.4</ele><time>2026-04-18T11:03:39.633Z</time></trkpt><trkpt lat="46.0784222" lon="8.2981885"><ele>253.8</ele><time>2026-04-18T11:03:40.626Z</time></trkpt><trkpt lat="46.0784978" lon="8.2982999"><ele>254.2</ele><time>2026-04-18T11:03:41.632Z</time></trkpt><trkpt lat="46.0785789" lon="8.2984144"><ele>254.6</ele><time>2026-04-18T11:03:42.634Z</time></trkpt><trkpt lat="46.0786593" lon="8.2985208"><ele>255.0</ele><time>2026-04-18T11:03:43.635Z</time></trkpt><trkpt lat="46.0787304" lon="8.2986182"><ele>255.0</ele><time>2026-04-18T11:03:44.635Z</time></trkpt><trkpt lat="46.0787886" lon="8.2987154"><ele>255.0</ele><time>2026-04-18T11:03:45.629Z</time></trkpt><trkpt lat="46.0788422" lon="8.298807"><ele>255.0</ele><time>2026-04-18T11:03:46.637Z</time></trkpt><trkpt lat="46.0788904" lon="8.2988979"><ele>255.0</ele><time>2026-04-18T11:03:47.632Z</time></trkpt><trkpt lat="46.0789406" lon="8.2989874"><ele>255.0</ele><time>2026-04-18T11:03:48.632Z</time></trkpt><trkpt lat="46.0789892" lon="8.2990784"><ele>255.0</ele><time>2026-04-18T11:03:49.632Z</time></trkpt><trkpt lat="46.0790398" lon="8.2991632"><ele>255.0</ele><time>2026-04-18T11:03:50.635Z</time></trkpt><trkpt lat="46.0790898" lon="8.2992423"><ele>255.0</ele><time>2026-04-18T11:03:51.625Z</time></trkpt><trkpt lat="46.079168" lon="8.2993653"><ele>255.0</ele><time>2026-04-18T11:03:53.628Z</time></trkpt><trkpt lat="46.0792271" lon="8.2994291"><ele>255.0</ele><time>2026-04-18T11:03:55.624Z</time></trkpt><trkpt lat="46.0792661" lon="8.2993527"><ele>255.0</ele><time>2026-04-18T11:04:15.65Z</time></trkpt><trkpt lat="46.0792712" lon="8.2992488"><ele>255.0</ele><time>2026-04-18T11:04:33.642Z</time></trkpt><trkpt lat="46.0793379" lon="8.2992116"><ele>255.0</ele><time>2026-04-18T11:04:41.626Z</time></trkpt><trkpt lat="46.0793974" lon="8.2992427"><ele>255.0</ele><time>2026-04-18T11:04:42.601Z</time></trkpt><trkpt lat="46.0794744" lon="8.2993275"><ele>255.0</ele><time>2026-04-18T11:04:43.607Z</time></trkpt><trkpt lat="46.0795678" lon="8.299413"><ele>255.0</ele><time>2026-04-18T11:04:44.618Z</time></trkpt><trkpt lat="46.0796813" lon="8.2995348"><ele>255.0</ele><time>2026-04-18T11:04:45.61Z</time></trkpt><trkpt lat="46.0798043" lon="8.2996221"><ele>255.0</ele><time>2026-04-18T11:04:46.609Z</time></trkpt><trkpt lat="46.079921" lon="8.2997268"><ele>255.0</ele><time>2026-04-18T11:04:47.609Z</time></trkpt><trkpt lat="46.0800414" lon="8.2998379"><ele>255.0</ele><time>2026-04-18T11:04:48.612Z</time></trkpt><trkpt lat="46.080154" lon="8.2999364"><ele>255.0</ele><time>2026-04-18T11:04:49.602Z</time></trkpt><trkpt lat="46.0802661" lon="8.300039"><ele>254.5</ele><time>2026-04-18T11:04:50.603Z</time></trkpt><trkpt lat="46.0803688" lon="8.3001383"><ele>254.0</ele><time>2026-04-18T11:04:51.599Z</time></trkpt><trkpt lat="46.080466" lon="8.3002166"><ele>253.5</ele><time>2026-04-18T11:04:52.602Z</time></trkpt><trkpt lat="46.0805653" lon="8.3002964"><ele>253.0</ele><time>2026-04-18T11:04:53.615Z</time></trkpt><trkpt lat="46.0806638" lon="8.3003988"><ele>252.5</ele><time>2026-04-18T11:04:54.613Z</time></trkpt><trkpt lat="46.0807709" lon="8.3004711"><ele>252.0</ele><time>2026-04-18T11:04:55.61Z</time></trkpt><trkpt lat="46.0808756" lon="8.3005361"><ele>251.5</ele><time>2026-04-18T11:04:56.609Z</time></trkpt><trkpt lat="46.080979" lon="8.3006076"><ele>251.0</ele><time>2026-04-18T11:04:57.616Z</time></trkpt><trkpt lat="46.0810726" lon="8.3006869"><ele>250.60000000000002</ele><time>2026-04-18T11:04:58.617Z</time></trkpt><trkpt lat="46.081171" lon="8.3007579"><ele>250.20000000000002</ele><time>2026-04-18T11:04:59.614Z</time></trkpt><trkpt lat="46.0812678" lon="8.3008315"><ele>249.79999999999998</ele><time>2026-04-18T11:05:00.613Z</time></trkpt><trkpt lat="46.0813583" lon="8.3009042"><ele>249.39999999999998</ele><time>2026-04-18T11:05:01.62Z</time></trkpt><trkpt lat="46.0814452" lon="8.3009739"><ele>249.0</ele><time>2026-04-18T11:05:02.632Z</time></trkpt><trkpt lat="46.0815193" lon="8.3010385"><ele>249.0</ele><time>2026-04-18T11:05:03.696Z</time></trkpt><trkpt lat="46.0815829" lon="8.3010944"><ele>249.0</ele><time>2026-04-18T11:05:04.704Z</time></trkpt><trkpt lat="46.0816639" lon="8.3011618"><ele>249.0</ele><time>2026-04-18T11:05:06.711Z</time></trkpt><trkpt lat="46.0817352" lon="8.3011761"><ele>249.0</ele><time>2026-04-18T11:05:13.718Z</time></trkpt><trkpt lat="46.0818001" lon="8.3012865"><ele>249.0</ele><time>2026-04-18T11:05:15.703Z</time></trkpt><trkpt lat="46.0818849" lon="8.3013416"><ele>249.0</ele><time>2026-04-18T11:05:16.715Z</time></trkpt><trkpt lat="46.081983" lon="8.3014048"><ele>248.75</ele><time>2026-04-18T11:05:17.704Z</time></trkpt><trkpt lat="46.082091" lon="8.3014762"><ele>248.5</ele><time>2026-04-18T11:05:18.717Z</time></trkpt><trkpt lat="46.0822054" lon="8.3015595"><ele>248.25</ele><time>2026-04-18T11:05:19.72Z</time></trkpt><trkpt lat="46.0823262" lon="8.3016487"><ele>248.0</ele><time>2026-04-18T11:05:20.715Z</time></trkpt><trkpt lat="46.0824508" lon="8.3017451"><ele>247.5</ele><time>2026-04-18T11:05:21.708Z</time></trkpt><trkpt lat="46.082574" lon="8.3018495"><ele>247.0</ele><time>2026-04-18T11:05:22.711Z</time></trkpt><trkpt lat="46.0826978" lon="8.3019473"><ele>246.5</ele><time>2026-04-18T11:05:23.714Z</time></trkpt><trkpt lat="46.0828199" lon="8.302044"><ele>246.0</ele><time>2026-04-18T11:05:24.708Z</time></trkpt><trkpt lat="46.0829433" lon="8.3021446"><ele>246.0</ele><time>2026-04-18T11:05:25.707Z</time></trkpt><trkpt lat="46.0830637" lon="8.3022372"><ele>246.0</ele><time>2026-04-18T11:05:26.699Z</time></trkpt><trkpt lat="46.0831874" lon="8.3023303"><ele>246.0</ele><time>2026-04-18T11:05:27.695Z</time></trkpt><trkpt lat="46.0833062" lon="8.3024151"><ele>246.0</ele><time>2026-04-18T11:05:28.691Z</time></trkpt><trkpt lat="46.0834217" lon="8.3025011"><ele>245.75</ele><time>2026-04-18T11:05:29.69Z</time></trkpt><trkpt lat="46.0835408" lon="8.3025928"><ele>245.5</ele><time>2026-04-18T11:05:30.702Z</time></trkpt><trkpt lat="46.0836468" lon="8.3026796"><ele>245.25</ele><time>2026-04-18T11:05:31.704Z</time></trkpt><trkpt lat="46.0837452" lon="8.3027613"><ele>245.0</ele><time>2026-04-18T11:05:32.706Z</time></trkpt><trkpt lat="46.0838382" lon="8.302838"><ele>245.0</ele><time>2026-04-18T11:05:33.703Z</time></trkpt><trkpt lat="46.0839249" lon="8.3029112"><ele>245.0</ele><time>2026-04-18T11:05:34.696Z</time></trkpt><trkpt lat="46.0839929" lon="8.3029701"><ele>245.0</ele><time>2026-04-18T11:05:35.703Z</time></trkpt><trkpt lat="46.0840527" lon="8.303019"><ele>245.0</ele><time>2026-04-18T11:05:36.708Z</time></trkpt><trkpt lat="46.0841602" lon="8.3031111"><ele>245.0</ele><time>2026-04-18T11:05:38.703Z</time></trkpt><trkpt lat="46.0840689" lon="8.30299"><ele>245.0</ele><time>2026-04-18T11:05:53.602Z</time></trkpt><trkpt lat="46.0839828" lon="8.3029346"><ele>245.0</ele><time>2026-04-18T11:05:54.597Z</time></trkpt><trkpt lat="46.083886" lon="8.3028546"><ele>245.0</ele><time>2026-04-18T11:05:55.602Z</time></trkpt><trkpt lat="46.0837787" lon="8.3027803"><ele>245.0</ele><time>2026-04-18T11:05:56.597Z</time></trkpt><trkpt lat="46.0836557" lon="8.302697"><ele>245.0</ele><time>2026-04-18T11:05:57.601Z</time></trkpt><trkpt lat="46.0835302" lon="8.3026071"><ele>245.0</ele><time>2026-04-18T11:05:58.604Z</time></trkpt><trkpt lat="46.0834088" lon="8.3025254"><ele>245.0</ele><time>2026-04-18T11:05:59.595Z</time></trkpt><trkpt lat="46.0833084" lon="8.3024318"><ele>245.0</ele><time>2026-04-18T11:06:00.614Z</time></trkpt><trkpt lat="46.0832459" lon="8.3023717"><ele>245.00000000000003</ele><time>2026-04-18T11:06:01.612Z</time></trkpt><trkpt lat="46.0832868" lon="8.3022856"><ele>245.0</ele><time>2026-04-18T11:06:04.613Z</time></trkpt><trkpt lat="46.0833852" lon="8.3022721"><ele>245.0</ele><time>2026-04-18T11:06:06.614Z</time></trkpt><trkpt lat="46.083505" lon="8.3022312"><ele>245.0</ele><time>2026-04-18T11:06:08.608Z</time></trkpt><trkpt lat="46.0835716" lon="8.3022073"><ele>245.00000000000003</ele><time>2026-04-18T11:06:09.599Z</time></trkpt><trkpt lat="46.0836435" lon="8.3022372"><ele>245.0</ele><time>2026-04-18T11:06:10.628Z</time></trkpt><trkpt lat="46.0837084" lon="8.3022438"><ele>245.0</ele><time>2026-04-18T11:06:11.603Z</time></trkpt><trkpt lat="46.0838247" lon="8.3022946"><ele>245.0</ele><time>2026-04-18T11:06:13.615Z</time></trkpt><trkpt lat="46.0839226" lon="8.3023113"><ele>245.0</ele><time>2026-04-18T11:06:15.612Z</time></trkpt><trkpt lat="46.0839829" lon="8.3022437"><ele>245.0</ele><time>2026-04-18T11:06:17.618Z</time></trkpt><trkpt lat="46.0840442" lon="8.3021245"><ele>245.0</ele><time>2026-04-18T11:06:19.611Z</time></trkpt><trkpt lat="46.0841411" lon="8.3020407"><ele>244.71428571428572</ele><time>2026-04-18T11:06:21.619Z</time></trkpt><trkpt lat="46.0842055" lon="8.3020126"><ele>244.42857142857144</ele><time>2026-04-18T11:06:22.622Z</time></trkpt><trkpt lat="46.0842704" lon="8.3020148"><ele>244.14285714285714</ele><time>2026-04-18T11:06:23.622Z</time></trkpt><trkpt lat="46.0843353" lon="8.3020211"><ele>243.85714285714286</ele><time>2026-04-18T11:06:24.615Z</time></trkpt><trkpt lat="46.0844023" lon="8.3020287"><ele>243.57142857142858</ele><time>2026-04-18T11:06:25.622Z</time></trkpt><trkpt lat="46.0844662" lon="8.3020413"><ele>243.28571428571428</ele><time>2026-04-18T11:06:26.621Z</time></trkpt><trkpt lat="46.0845861" lon="8.3020235"><ele>243.0</ele><time>2026-04-18T11:06:28.615Z</time></trkpt><trkpt lat="46.0846573" lon="8.3020109"><ele>243.0</ele><time>2026-04-18T11:06:29.618Z</time></trkpt><trkpt lat="46.0847809" lon="8.3020021"><ele>243.0</ele><time>2026-04-18T11:06:31.618Z</time></trkpt><trkpt lat="46.0848507" lon="8.3020048"><ele>243.0</ele><time>2026-04-18T11:06:32.618Z</time></trkpt><trkpt lat="46.0849286" lon="8.3020083"><ele>243.0</ele><time>2026-04-18T11:06:33.607Z</time></trkpt><trkpt lat="46.0849968" lon="8.302011"><ele>243.0</ele><time>2026-04-18T11:06:34.605Z</time></trkpt><trkpt lat="46.0850652" lon="8.3020193"><ele>243.0</ele><time>2026-04-18T11:06:35.609Z</time></trkpt><trkpt lat="46.0851382" lon="8.3020169"><ele>243.0</ele><time>2026-04-18T11:06:36.607Z</time></trkpt><trkpt lat="46.0852103" lon="8.3020229"><ele>243.0</ele><time>2026-04-18T11:06:37.614Z</time></trkpt><trkpt lat="46.0852831" lon="8.3020357"><ele>243.0</ele><time>2026-04-18T11:06:38.611Z</time></trkpt><trkpt lat="46.0853579" lon="8.3020546"><ele>243.0</ele><time>2026-04-18T11:06:39.608Z</time></trkpt><trkpt lat="46.085426" lon="8.3020612"><ele>243.0</ele><time>2026-04-18T11:06:40.607Z</time></trkpt><trkpt lat="46.0855044" lon="8.302055"><ele>243.0</ele><time>2026-04-18T11:06:41.623Z</time></trkpt><trkpt lat="46.0855761" lon="8.3020442"><ele>243.0</ele><time>2026-04-18T11:06:42.61Z</time></trkpt><trkpt lat="46.0856517" lon="8.3020549"><ele>243.0</ele><time>2026-04-18T11:06:43.609Z</time></trkpt><trkpt lat="46.0857265" lon="8.3020728"><ele>243.0</ele><time>2026-04-18T11:06:44.61Z</time></trkpt><trkpt lat="46.0858025" lon="8.3021022"><ele>243.0</ele><time>2026-04-18T11:06:45.613Z</time></trkpt><trkpt lat="46.0858827" lon="8.3021373"><ele>243.0</ele><time>2026-04-18T11:06:46.612Z</time></trkpt><trkpt lat="46.0859636" lon="8.3021646"><ele>243.0</ele><time>2026-04-18T11:06:47.612Z</time></trkpt><trkpt lat="46.0860503" lon="8.3021947"><ele>243.0</ele><time>2026-04-18T11:06:48.607Z</time></trkpt><trkpt lat="46.0861467" lon="8.3022263"><ele>242.8</ele><time>2026-04-18T11:06:49.609Z</time></trkpt><trkpt lat="46.0862401" lon="8.3022693"><ele>242.60000000000002</ele><time>2026-04-18T11:06:50.608Z</time></trkpt><trkpt lat="46.086334" lon="8.3023008"><ele>242.39999999999998</ele><time>2026-04-18T11:06:51.608Z</time></trkpt><trkpt lat="46.0864219" lon="8.3023312"><ele>242.2</ele><time>2026-04-18T11:06:52.613Z</time></trkpt><trkpt lat="46.0865098" lon="8.3023638"><ele>242.0</ele><time>2026-04-18T11:06:53.604Z</time></trkpt><trkpt lat="46.0865892" lon="8.3024081"><ele>242.00000000000003</ele><time>2026-04-18T11:06:54.601Z</time></trkpt><trkpt lat="46.0866555" lon="8.3024374"><ele>242.0</ele><time>2026-04-18T11:06:55.606Z</time></trkpt><trkpt lat="46.0867363" lon="8.3024434"><ele>242.0</ele><time>2026-04-18T11:06:57.608Z</time></trkpt><trkpt lat="46.0867442" lon="8.3022948"><ele>242.0</ele><time>2026-04-18T11:06:59.608Z</time></trkpt><trkpt lat="46.0867342" lon="8.30215"><ele>242.00000000000003</ele><time>2026-04-18T11:07:01.6Z</time></trkpt><trkpt lat="46.0867254" lon="8.302033"><ele>242.0</ele><time>2026-04-18T11:07:08.617Z</time></trkpt><trkpt lat="46.0867286" lon="8.3019126"><ele>242.00000000000003</ele><time>2026-04-18T11:07:30.609Z</time></trkpt><trkpt lat="46.086758" lon="8.3018062"><ele>242.0</ele><time>2026-04-18T11:07:32.618Z</time></trkpt><trkpt lat="46.0867897" lon="8.301695"><ele>242.0</ele><time>2026-04-18T11:07:34.614Z</time></trkpt><trkpt lat="46.0868205" lon="8.3016044"><ele>242.0</ele><time>2026-04-18T11:07:36.621Z</time></trkpt><trkpt lat="46.0868587" lon="8.3015192"><ele>242.00000000000003</ele><time>2026-04-18T11:07:38.621Z</time></trkpt><trkpt lat="46.0868853" lon="8.3014337"><ele>242.0</ele><time>2026-04-18T11:07:40.618Z</time></trkpt><trkpt lat="46.0869341" lon="8.3013018"><ele>242.6</ele><time>2026-04-18T11:07:43.643Z</time></trkpt><trkpt lat="46.0869565" lon="8.3011583"><ele>243.2</ele><time>2026-04-18T11:07:45.621Z</time></trkpt><trkpt lat="46.0870129" lon="8.30101"><ele>243.8</ele><time>2026-04-18T11:07:47.62Z</time></trkpt><trkpt lat="46.0870644" lon="8.3008762"><ele>244.4</ele><time>2026-04-18T11:07:49.617Z</time></trkpt><trkpt lat="46.0871045" lon="8.3007424"><ele>245.0</ele><time>2026-04-18T11:07:51.61Z</time></trkpt><trkpt lat="46.0871455" lon="8.3006075"><ele>245.16666666666669</ele><time>2026-04-18T11:07:53.613Z</time></trkpt><trkpt lat="46.0871834" lon="8.3004886"><ele>245.33333333333334</ele><time>2026-04-18T11:07:55.621Z</time></trkpt><trkpt lat="46.0872188" lon="8.3003828"><ele>245.5</ele><time>2026-04-18T11:07:57.622Z</time></trkpt><trkpt lat="46.0872366" lon="8.3002651"><ele>245.66666666666669</ele><time>2026-04-18T11:08:12.622Z</time></trkpt><trkpt lat="46.0872764" lon="8.3001217"><ele>245.83333333333334</ele><time>2026-04-18T11:08:14.612Z</time></trkpt><trkpt lat="46.087296" lon="8.3000322"><ele>246.0</ele><time>2026-04-18T11:08:15.622Z</time></trkpt><trkpt lat="46.0872928" lon="8.2999192"><ele>246.0</ele><time>2026-04-18T11:08:17.612Z</time></trkpt><trkpt lat="46.0872252" lon="8.2998419"><ele>246.00000000000003</ele><time>2026-04-18T11:08:19.622Z</time></trkpt><trkpt lat="46.0871167" lon="8.2997391"><ele>246.00000000000003</ele><time>2026-04-18T11:08:21.615Z</time></trkpt><trkpt lat="46.0870573" lon="8.2996871"><ele>246.0</ele><time>2026-04-18T11:08:22.614Z</time></trkpt><trkpt lat="46.0870017" lon="8.2996323"><ele>246.0</ele><time>2026-04-18T11:08:23.614Z</time></trkpt><trkpt lat="46.0868864" lon="8.2995422"><ele>245.5</ele><time>2026-04-18T11:08:25.619Z</time></trkpt><trkpt lat="46.0868186" lon="8.2994892"><ele>245.0</ele><time>2026-04-18T11:08:26.614Z</time></trkpt><trkpt lat="46.0867459" lon="8.2994311"><ele>244.5</ele><time>2026-04-18T11:08:27.611Z</time></trkpt><trkpt lat="46.0866723" lon="8.2993721"><ele>244.0</ele><time>2026-04-18T11:08:28.61Z</time></trkpt><trkpt lat="46.0865949" lon="8.2993082"><ele>243.5</ele><time>2026-04-18T11:08:29.613Z</time></trkpt><trkpt lat="46.0865164" lon="8.2992356"><ele>243.0</ele><time>2026-04-18T11:08:30.612Z</time></trkpt><trkpt lat="46.0864361" lon="8.2991608"><ele>243.0</ele><time>2026-04-18T11:08:31.612Z</time></trkpt><trkpt lat="46.0863592" lon="8.2990936"><ele>243.0</ele><time>2026-04-18T11:08:32.603Z</time></trkpt><trkpt lat="46.0862831" lon="8.2990225"><ele>243.0</ele><time>2026-04-18T11:08:33.618Z</time></trkpt><trkpt lat="46.0862044" lon="8.2989508"><ele>243.0</ele><time>2026-04-18T11:08:34.616Z</time></trkpt><trkpt lat="46.0861228" lon="8.2988781"><ele>243.0</ele><time>2026-04-18T11:08:35.609Z</time></trkpt><trkpt lat="46.086044" lon="8.2988074"><ele>243.33333333333334</ele><time>2026-04-18T11:08:36.612Z</time></trkpt><trkpt lat="46.0859661" lon="8.2987439"><ele>243.66666666666669</ele><time>2026-04-18T11:08:37.606Z</time></trkpt><trkpt lat="46.0858868" lon="8.2986828"><ele>244.0</ele><time>2026-04-18T11:08:38.607Z</time></trkpt><trkpt lat="46.0858142" lon="8.2986124"><ele>244.33333333333334</ele><time>2026-04-18T11:08:39.607Z</time></trkpt><trkpt lat="46.0857426" lon="8.298556"><ele>244.66666666666669</ele><time>2026-04-18T11:08:40.616Z</time></trkpt><trkpt lat="46.0856609" lon="8.2985026"><ele>245.0</ele><time>2026-04-18T11:08:41.609Z</time></trkpt><trkpt lat="46.0855765" lon="8.2984494"><ele>244.33333333333334</ele><time>2026-04-18T11:08:42.606Z</time></trkpt><trkpt lat="46.0854942" lon="8.2984078"><ele>243.66666666666669</ele><time>2026-04-18T11:08:43.616Z</time></trkpt><trkpt lat="46.0854153" lon="8.2983582"><ele>243.0</ele><time>2026-04-18T11:08:44.623Z</time></trkpt><trkpt lat="46.0853352" lon="8.2983116"><ele>242.33333333333331</ele><time>2026-04-18T11:08:45.604Z</time></trkpt><trkpt lat="46.0852637" lon="8.2982649"><ele>241.66666666666666</ele><time>2026-04-18T11:08:46.623Z</time></trkpt><trkpt lat="46.0851908" lon="8.2982106"><ele>241.0</ele><time>2026-04-18T11:08:47.612Z</time></trkpt><trkpt lat="46.0851135" lon="8.2981379"><ele>240.99999999999997</ele><time>2026-04-18T11:08:48.602Z</time></trkpt><trkpt lat="46.0850399" lon="8.2980758"><ele>241.0</ele><time>2026-04-18T11:08:49.613Z</time></trkpt><trkpt lat="46.0849688" lon="8.2980153"><ele>241.0</ele><time>2026-04-18T11:08:50.608Z</time></trkpt><trkpt lat="46.0848936" lon="8.2979515"><ele>241.0</ele><time>2026-04-18T11:08:51.616Z</time></trkpt><trkpt lat="46.0848222" lon="8.2978935"><ele>240.99999999999997</ele><time>2026-04-18T11:08:52.616Z</time></trkpt><trkpt lat="46.0847434" lon="8.2978345"><ele>241.0</ele><time>2026-04-18T11:08:53.614Z</time></trkpt><trkpt lat="46.0846667" lon="8.2977716"><ele>240.99999999999997</ele><time>2026-04-18T11:08:54.62Z</time></trkpt><trkpt lat="46.0845995" lon="8.2977189"><ele>241.0</ele><time>2026-04-18T11:08:55.617Z</time></trkpt><trkpt lat="46.0845408" lon="8.2976623"><ele>241.0</ele><time>2026-04-18T11:08:56.614Z</time></trkpt><trkpt lat="46.0844875" lon="8.2976129"><ele>241.0</ele><time>2026-04-18T11:08:57.614Z</time></trkpt><trkpt lat="46.0844368" lon="8.2975482"><ele>240.99999999999997</ele><time>2026-04-18T11:08:58.621Z</time></trkpt><trkpt lat="46.0843357" lon="8.297482"><ele>241.0</ele><time>2026-04-18T11:09:00.618Z</time></trkpt><trkpt lat="46.0842646" lon="8.2974936"><ele>240.99999999999997</ele><time>2026-04-18T11:09:01.604Z</time></trkpt><trkpt lat="46.0841805" lon="8.2975138"><ele>241.0</ele><time>2026-04-18T11:09:02.608Z</time></trkpt><trkpt lat="46.0841076" lon="8.2975429"><ele>241.0</ele><time>2026-04-18T11:09:03.597Z</time></trkpt><trkpt lat="46.0840428" lon="8.2975997"><ele>241.0</ele><time>2026-04-18T11:09:04.602Z</time></trkpt><trkpt lat="46.0839848" lon="8.2976584"><ele>240.99999999999997</ele><time>2026-04-18T11:09:05.611Z</time></trkpt><trkpt lat="46.0839076" lon="8.2977688"><ele>241.0</ele><time>2026-04-18T11:09:07.613Z</time></trkpt><trkpt lat="46.0838216" lon="8.2977811"><ele>241.33333333333331</ele><time>2026-04-18T11:09:10.617Z</time></trkpt><trkpt lat="46.0837429" lon="8.2976971"><ele>241.66666666666666</ele><time>2026-04-18T11:09:12.608Z</time></trkpt><trkpt lat="46.0837059" lon="8.2976101"><ele>242.0</ele><time>2026-04-18T11:09:13.612Z</time></trkpt><trkpt lat="46.0836669" lon="8.2975241"><ele>242.33333333333331</ele><time>2026-04-18T11:09:14.601Z</time></trkpt><trkpt lat="46.0836239" lon="8.2974246"><ele>242.66666666666666</ele><time>2026-04-18T11:09:15.628Z</time></trkpt><trkpt lat="46.0835818" lon="8.2973314"><ele>243.0</ele><time>2026-04-18T11:09:16.612Z</time></trkpt><trkpt lat="46.0835413" lon="8.2972493"><ele>243.0</ele><time>2026-04-18T11:09:17.608Z</time></trkpt><trkpt lat="46.0834237" lon="8.297159"><ele>243.0</ele><time>2026-04-18T11:09:19.622Z</time></trkpt><trkpt lat="46.0833474" lon="8.2971563"><ele>243.0</ele><time>2026-04-18T11:09:20.615Z</time></trkpt><trkpt lat="46.08328" lon="8.2972036"><ele>243.0</ele><time>2026-04-18T11:09:21.615Z</time></trkpt><trkpt lat="46.0832197" lon="8.2972811"><ele>243.0</ele><time>2026-04-18T11:09:22.617Z</time></trkpt><trkpt lat="46.083159" lon="8.2973735"><ele>242.8</ele><time>2026-04-18T11:09:23.615Z</time></trkpt><trkpt lat="46.0830929" lon="8.2974593"><ele>242.60000000000002</ele><time>2026-04-18T11:09:24.618Z</time></trkpt><trkpt lat="46.0830193" lon="8.2975301"><ele>242.39999999999998</ele><time>2026-04-18T11:09:25.623Z</time></trkpt><trkpt lat="46.0829332" lon="8.2975985"><ele>242.2</ele><time>2026-04-18T11:09:26.624Z</time></trkpt><trkpt lat="46.0828492" lon="8.2976773"><ele>242.0</ele><time>2026-04-18T11:09:27.614Z</time></trkpt><trkpt lat="46.0827733" lon="8.2977532"><ele>242.00000000000003</ele><time>2026-04-18T11:09:28.619Z</time></trkpt><trkpt lat="46.0827006" lon="8.2978409"><ele>242.0</ele><time>2026-04-18T11:09:29.616Z</time></trkpt><trkpt lat="46.0826535" lon="8.2979347"><ele>242.0</ele><time>2026-04-18T11:09:30.618Z</time></trkpt><trkpt lat="46.0826243" lon="8.2980449"><ele>242.0</ele><time>2026-04-18T11:09:31.618Z</time></trkpt><trkpt lat="46.0826025" lon="8.2981629"><ele>242.00000000000003</ele><time>2026-04-18T11:09:32.618Z</time></trkpt><trkpt lat="46.0825862" lon="8.2982879"><ele>242.0</ele><time>2026-04-18T11:09:33.617Z</time></trkpt><trkpt lat="46.082574" lon="8.2984111"><ele>242.39999999999998</ele><time>2026-04-18T11:09:34.62Z</time></trkpt><trkpt lat="46.0825661" lon="8.2985325"><ele>242.79999999999998</ele><time>2026-04-18T11:09:35.619Z</time></trkpt><trkpt lat="46.0825649" lon="8.2986666"><ele>243.2</ele><time>2026-04-18T11:09:36.618Z</time></trkpt><trkpt lat="46.0825725" lon="8.2988031"><ele>243.6</ele><time>2026-04-18T11:09:37.615Z</time></trkpt><trkpt lat="46.0825829" lon="8.2989397"><ele>244.0</ele><time>2026-04-18T11:09:38.615Z</time></trkpt><trkpt lat="46.0825982" lon="8.2990823"><ele>244.0</ele><time>2026-04-18T11:09:39.621Z</time></trkpt><trkpt lat="46.0826052" lon="8.2992276"><ele>243.99999999999997</ele><time>2026-04-18T11:09:40.623Z</time></trkpt><trkpt lat="46.0826087" lon="8.2993657"><ele>243.99999999999997</ele><time>2026-04-18T11:09:41.615Z</time></trkpt><trkpt lat="46.0826163" lon="8.2995122"><ele>244.0</ele><time>2026-04-18T11:09:42.617Z</time></trkpt><trkpt lat="46.0826222" lon="8.2996537"><ele>244.0</ele><time>2026-04-18T11:09:43.611Z</time></trkpt><trkpt lat="46.0826306" lon="8.2998014"><ele>244.16666666666666</ele><time>2026-04-18T11:09:44.615Z</time></trkpt><trkpt lat="46.0826367" lon="8.2999291"><ele>244.33333333333331</ele><time>2026-04-18T11:09:45.61Z</time></trkpt><trkpt lat="46.0826316" lon="8.3000577"><ele>244.5</ele><time>2026-04-18T11:09:46.623Z</time></trkpt><trkpt lat="46.0826165" lon="8.300175"><ele>244.66666666666669</ele><time>2026-04-18T11:09:47.612Z</time></trkpt><trkpt lat="46.0825859" lon="8.300274"><ele>244.83333333333334</ele><time>2026-04-18T11:09:48.614Z</time></trkpt><trkpt lat="46.0825339" lon="8.3003457"><ele>245.0</ele><time>2026-04-18T11:09:49.607Z</time></trkpt><trkpt lat="46.0824477" lon="8.3004043"><ele>245.2</ele><time>2026-04-18T11:09:50.601Z</time></trkpt><trkpt lat="46.0823512" lon="8.3004659"><ele>245.4</ele><time>2026-04-18T11:09:51.608Z</time></trkpt><trkpt lat="46.0822484" lon="8.3005185"><ele>245.60000000000002</ele><time>2026-04-18T11:09:52.612Z</time></trkpt><trkpt lat="46.0821513" lon="8.3006007"><ele>245.8</ele><time>2026-04-18T11:09:53.61Z</time></trkpt><trkpt lat="46.0820838" lon="8.3007122"><ele>246.0</ele><time>2026-04-18T11:09:54.608Z</time></trkpt><trkpt lat="46.0820352" lon="8.3008268"><ele>246.16666666666666</ele><time>2026-04-18T11:09:55.617Z</time></trkpt><trkpt lat="46.0819937" lon="8.3009378"><ele>246.33333333333331</ele><time>2026-04-18T11:09:56.6Z</time></trkpt><trkpt lat="46.0819623" lon="8.3010251"><ele>246.5</ele><time>2026-04-18T11:09:57.632Z</time></trkpt><trkpt lat="46.0819031" lon="8.3011346"><ele>246.66666666666666</ele><time>2026-04-18T11:09:59.619Z</time></trkpt><trkpt lat="46.0818508" lon="8.3011957"><ele>246.83333333333331</ele><time>2026-04-18T11:10:16.625Z</time></trkpt><trkpt lat="46.0817787" lon="8.3012271"><ele>247.0</ele><time>2026-04-18T11:10:18.632Z</time></trkpt><trkpt lat="46.0817168" lon="8.3011651"><ele>247.0</ele><time>2026-04-18T11:10:19.613Z</time></trkpt><trkpt lat="46.081629" lon="8.301115"><ele>247.0</ele><time>2026-04-18T11:10:20.62Z</time></trkpt><trkpt lat="46.081536" lon="8.3010488"><ele>247.0</ele><time>2026-04-18T11:10:21.709Z</time></trkpt><trkpt lat="46.0814369" lon="8.3009718"><ele>247.0</ele><time>2026-04-18T11:10:22.706Z</time></trkpt><trkpt lat="46.0813366" lon="8.3008933"><ele>247.0</ele><time>2026-04-18T11:10:23.713Z</time></trkpt><trkpt lat="46.0812283" lon="8.3008103"><ele>247.5</ele><time>2026-04-18T11:10:24.707Z</time></trkpt><trkpt lat="46.0811143" lon="8.3007276"><ele>248.0</ele><time>2026-04-18T11:10:25.711Z</time></trkpt><trkpt lat="46.0809736" lon="8.3006408"><ele>248.5</ele><time>2026-04-18T11:10:26.707Z</time></trkpt><trkpt lat="46.0808664" lon="8.3005587"><ele>249.0</ele><time>2026-04-18T11:10:27.717Z</time></trkpt><trkpt lat="46.0807693" lon="8.3004845"><ele>249.79999999999998</ele><time>2026-04-18T11:10:28.724Z</time></trkpt><trkpt lat="46.0806798" lon="8.3004142"><ele>250.59999999999997</ele><time>2026-04-18T11:10:29.711Z</time></trkpt><trkpt lat="46.0805862" lon="8.3003481"><ele>251.4</ele><time>2026-04-18T11:10:30.713Z</time></trkpt><trkpt lat="46.080494" lon="8.3002738"><ele>252.2</ele><time>2026-04-18T11:10:31.715Z</time></trkpt><trkpt lat="46.0803971" lon="8.300239"><ele>253.0</ele><time>2026-04-18T11:10:32.713Z</time></trkpt><trkpt lat="46.0803066" lon="8.3001714"><ele>253.0</ele><time>2026-04-18T11:10:33.717Z</time></trkpt><trkpt lat="46.0802146" lon="8.300101"><ele>253.0</ele><time>2026-04-18T11:10:34.708Z</time></trkpt><trkpt lat="46.0801287" lon="8.3000238"><ele>253.0</ele><time>2026-04-18T11:10:35.708Z</time></trkpt><trkpt lat="46.0800352" lon="8.299952"><ele>253.0</ele><time>2026-04-18T11:10:36.71Z</time></trkpt><trkpt lat="46.0799433" lon="8.2998731"><ele>253.0</ele><time>2026-04-18T11:10:37.718Z</time></trkpt><trkpt lat="46.0798488" lon="8.2997935"><ele>253.4</ele><time>2026-04-18T11:10:38.711Z</time></trkpt><trkpt lat="46.0797485" lon="8.299724"><ele>253.8</ele><time>2026-04-18T11:10:39.712Z</time></trkpt><trkpt lat="46.0796475" lon="8.2996588"><ele>254.2</ele><time>2026-04-18T11:10:40.72Z</time></trkpt><trkpt lat="46.0795525" lon="8.2995855"><ele>254.6</ele><time>2026-04-18T11:10:41.72Z</time></trkpt><trkpt lat="46.0794566" lon="8.2995152"><ele>255.0</ele><time>2026-04-18T11:10:42.704Z</time></trkpt><trkpt lat="46.0793599" lon="8.2994508"><ele>255.0</ele><time>2026-04-18T11:10:43.715Z</time></trkpt><trkpt lat="46.0792665" lon="8.2993853"><ele>255.0</ele><time>2026-04-18T11:10:44.715Z</time></trkpt><trkpt lat="46.0791805" lon="8.2993255"><ele>255.0</ele><time>2026-04-18T11:10:45.725Z</time></trkpt><trkpt lat="46.0790989" lon="8.2992449"><ele>255.0</ele><time>2026-04-18T11:10:46.721Z</time></trkpt><trkpt lat="46.0790281" lon="8.2991492"><ele>255.0</ele><time>2026-04-18T11:10:47.709Z</time></trkpt><trkpt lat="46.0789695" lon="8.2990426"><ele>255.0</ele><time>2026-04-18T11:10:48.704Z</time></trkpt><trkpt lat="46.078917" lon="8.2989375"><ele>255.0</ele><time>2026-04-18T11:10:49.696Z</time></trkpt><trkpt lat="46.0788593" lon="8.2988106"><ele>255.0</ele><time>2026-04-18T11:10:50.699Z</time></trkpt><trkpt lat="46.0787971" lon="8.2986802"><ele>255.0</ele><time>2026-04-18T11:10:51.694Z</time></trkpt><trkpt lat="46.0787277" lon="8.2985508"><ele>255.0</ele><time>2026-04-18T11:10:52.715Z</time></trkpt><trkpt lat="46.0786477" lon="8.2984306"><ele>255.0</ele><time>2026-04-18T11:10:53.716Z</time></trkpt><trkpt lat="46.0785659" lon="8.2983135"><ele>255.0</ele><time>2026-04-18T11:10:54.707Z</time></trkpt><trkpt lat="46.0784807" lon="8.2981917"><ele>255.0</ele><time>2026-04-18T11:10:55.712Z</time></trkpt><trkpt lat="46.0783982" lon="8.2980721"><ele>255.0</ele><time>2026-04-18T11:10:56.709Z</time></trkpt><trkpt lat="46.0783149" lon="8.2979431"><ele>254.5</ele><time>2026-04-18T11:10:57.721Z</time></trkpt><trkpt lat="46.0782317" lon="8.2978169"><ele>254.0</ele><time>2026-04-18T11:10:58.709Z</time></trkpt><trkpt lat="46.0781409" lon="8.2976918"><ele>253.5</ele><time>2026-04-18T11:10:59.712Z</time></trkpt><trkpt lat="46.078055" lon="8.2975536"><ele>253.0</ele><time>2026-04-18T11:11:00.703Z</time></trkpt><trkpt lat="46.0779649" lon="8.2974103"><ele>253.0</ele><time>2026-04-18T11:11:01.71Z</time></trkpt><trkpt lat="46.0778778" lon="8.2972658"><ele>253.0</ele><time>2026-04-18T11:11:02.706Z</time></trkpt><trkpt lat="46.0777927" lon="8.2971188"><ele>253.0</ele><time>2026-04-18T11:11:03.711Z</time></trkpt><trkpt lat="46.077688" lon="8.2969854"><ele>253.0</ele><time>2026-04-18T11:11:04.707Z</time></trkpt><trkpt lat="46.0775778" lon="8.2968621"><ele>252.75</ele><time>2026-04-18T11:11:05.705Z</time></trkpt><trkpt lat="46.0774685" lon="8.2967629"><ele>252.5</ele><time>2026-04-18T11:11:06.708Z</time></trkpt><trkpt lat="46.0773458" lon="8.296659"><ele>252.25</ele><time>2026-04-18T11:11:07.686Z</time></trkpt><trkpt lat="46.0772237" lon="8.2966007"><ele>252.0</ele><time>2026-04-18T11:11:08.689Z</time></trkpt><trkpt lat="46.0770963" lon="8.296535"><ele>252.0</ele><time>2026-04-18T11:11:09.696Z</time></trkpt><trkpt lat="46.0769773" lon="8.2964664"><ele>252.0</ele><time>2026-04-18T11:11:10.693Z</time></trkpt><trkpt lat="46.0768663" lon="8.2963971"><ele>252.0</ele><time>2026-04-18T11:11:11.708Z</time></trkpt><trkpt lat="46.0767574" lon="8.2963101"><ele>252.0</ele><time>2026-04-18T11:11:12.712Z</time></trkpt><trkpt lat="46.0766524" lon="8.2962115"><ele>250.25</ele><time>2026-04-18T11:11:13.694Z</time></trkpt><trkpt lat="46.0765502" lon="8.2961106"><ele>248.5</ele><time>2026-04-18T11:11:14.69Z</time></trkpt><trkpt lat="46.0764466" lon="8.2960007"><ele>246.75</ele><time>2026-04-18T11:11:15.69Z</time></trkpt><trkpt lat="46.0763377" lon="8.2959007"><ele>245.0</ele><time>2026-04-18T11:11:16.701Z</time></trkpt><trkpt lat="46.0762239" lon="8.2957999"><ele>245.0</ele><time>2026-04-18T11:11:17.716Z</time></trkpt><trkpt lat="46.0761147" lon="8.2956932"><ele>245.0</ele><time>2026-04-18T11:11:18.717Z</time></trkpt><trkpt lat="46.0760043" lon="8.2955818"><ele>245.0</ele><time>2026-04-18T11:11:19.732Z</time></trkpt><trkpt lat="46.0758932" lon="8.2954804"><ele>245.0</ele><time>2026-04-18T11:11:20.715Z</time></trkpt><trkpt lat="46.0757784" lon="8.2953671"><ele>243.75</ele><time>2026-04-18T11:11:21.713Z</time></trkpt><trkpt lat="46.0756639" lon="8.2952542"><ele>242.5</ele><time>2026-04-18T11:11:22.715Z</time></trkpt><trkpt lat="46.075554" lon="8.2951403"><ele>241.25</ele><time>2026-04-18T11:11:23.706Z</time></trkpt><trkpt lat="46.0754452" lon="8.2950286"><ele>240.0</ele><time>2026-04-18T11:11:24.713Z</time></trkpt><trkpt lat="46.0753361" lon="8.2949226"><ele>240.0</ele><time>2026-04-18T11:11:25.721Z</time></trkpt><trkpt lat="46.0752295" lon="8.2948148"><ele>240.0</ele><time>2026-04-18T11:11:26.71Z</time></trkpt><trkpt lat="46.0751238" lon="8.294716"><ele>240.0</ele><time>2026-04-18T11:11:27.706Z</time></trkpt><trkpt lat="46.0750088" lon="8.2946177"><ele>240.0</ele><time>2026-04-18T11:11:28.7Z</time></trkpt><trkpt lat="46.0748926" lon="8.2945294"><ele>240.25</ele><time>2026-04-18T11:11:29.702Z</time></trkpt><trkpt lat="46.0747727" lon="8.2944402"><ele>240.5</ele><time>2026-04-18T11:11:30.708Z</time></trkpt><trkpt lat="46.0746516" lon="8.2943632"><ele>240.75</ele><time>2026-04-18T11:11:31.701Z</time></trkpt><trkpt lat="46.0745361" lon="8.2942926"><ele>241.0</ele><time>2026-04-18T11:11:32.701Z</time></trkpt><trkpt lat="46.0744204" lon="8.2942219"><ele>241.0</ele><time>2026-04-18T11:11:33.695Z</time></trkpt><trkpt lat="46.0743098" lon="8.2941667"><ele>241.0</ele><time>2026-04-18T11:11:34.702Z</time></trkpt><trkpt lat="46.0742" lon="8.2941095"><ele>241.0</ele><time>2026-04-18T11:11:35.695Z</time></trkpt><trkpt lat="46.0740895" lon="8.2940416"><ele>241.0</ele><time>2026-04-18T11:11:36.688Z</time></trkpt><trkpt lat="46.0739733" lon="8.2939767"><ele>240.0</ele><time>2026-04-18T11:11:37.682Z</time></trkpt><trkpt lat="46.0738556" lon="8.2939194"><ele>239.0</ele><time>2026-04-18T11:11:38.688Z</time></trkpt><trkpt lat="46.0737474" lon="8.2938498"><ele>238.0</ele><time>2026-04-18T11:11:39.683Z</time></trkpt><trkpt lat="46.0736364" lon="8.2937828"><ele>237.0</ele><time>2026-04-18T11:11:40.705Z</time></trkpt><trkpt lat="46.0735246" lon="8.2937178"><ele>237.0</ele><time>2026-04-18T11:11:41.709Z</time></trkpt><trkpt lat="46.0734124" lon="8.2936518"><ele>237.0</ele><time>2026-04-18T11:11:42.712Z</time></trkpt><trkpt lat="46.0733055" lon="8.293579"><ele>237.0</ele><time>2026-04-18T11:11:43.699Z</time></trkpt><trkpt lat="46.073209" lon="8.2935255"><ele>237.0</ele><time>2026-04-18T11:11:44.713Z</time></trkpt><trkpt lat="46.0731021" lon="8.2934692"><ele>237.0</ele><time>2026-04-18T11:11:45.706Z</time></trkpt><trkpt lat="46.0730194" lon="8.2934145"><ele>237.0</ele><time>2026-04-18T11:11:46.708Z</time></trkpt><trkpt lat="46.0729429" lon="8.2933538"><ele>237.0</ele><time>2026-04-18T11:11:47.699Z</time></trkpt><trkpt lat="46.0728695" lon="8.293279"><ele>237.0</ele><time>2026-04-18T11:11:48.699Z</time></trkpt><trkpt lat="46.0728041" lon="8.2931747"><ele>237.0</ele><time>2026-04-18T11:11:49.693Z</time></trkpt><trkpt lat="46.0727647" lon="8.2930385"><ele>237.0</ele><time>2026-04-18T11:11:50.7Z</time></trkpt><trkpt lat="46.0727457" lon="8.2928785"><ele>237.0</ele><time>2026-04-18T11:11:51.685Z</time></trkpt><trkpt lat="46.0727448" lon="8.2927083"><ele>237.0</ele><time>2026-04-18T11:11:52.686Z</time></trkpt><trkpt lat="46.0727666" lon="8.2925442"><ele>237.0</ele><time>2026-04-18T11:11:53.698Z</time></trkpt><trkpt lat="46.0727967" lon="8.2923947"><ele>237.0</ele><time>2026-04-18T11:11:54.697Z</time></trkpt><trkpt lat="46.0728083" lon="8.2922348"><ele>237.0</ele><time>2026-04-18T11:11:55.702Z</time></trkpt><trkpt lat="46.0728015" lon="8.2921145"><ele>237.0</ele><time>2026-04-18T11:11:56.695Z</time></trkpt><trkpt lat="46.0727433" lon="8.292074"><ele>237.0</ele><time>2026-04-18T11:11:58.701Z</time></trkpt><trkpt lat="46.0727977" lon="8.2917831"><ele>237.0</ele><time>2026-04-18T11:12:00.68Z</time></trkpt><trkpt lat="46.0727086" lon="8.2917203"><ele>237.0</ele><time>2026-04-18T11:12:02.681Z</time></trkpt><trkpt lat="46.0726094" lon="8.2917095"><ele>237.0</ele><time>2026-04-18T11:12:03.687Z</time></trkpt><trkpt lat="46.072481" lon="8.2916963"><ele>237.0</ele><time>2026-04-18T11:12:04.694Z</time></trkpt><trkpt lat="46.072354" lon="8.2916707"><ele>237.25</ele><time>2026-04-18T11:12:05.678Z</time></trkpt><trkpt lat="46.0722171" lon="8.291654"><ele>237.5</ele><time>2026-04-18T11:12:06.676Z</time></trkpt><trkpt lat="46.0720872" lon="8.2916183"><ele>237.75</ele><time>2026-04-18T11:12:07.685Z</time></trkpt><trkpt lat="46.0719356" lon="8.2915841"><ele>238.0</ele><time>2026-04-18T11:12:08.686Z</time></trkpt><trkpt lat="46.0718204" lon="8.2915296"><ele>238.0</ele><time>2026-04-18T11:12:09.692Z</time></trkpt><trkpt lat="46.0716936" lon="8.2914494"><ele>238.0</ele><time>2026-04-18T11:12:10.701Z</time></trkpt><trkpt lat="46.0715752" lon="8.291363"><ele>238.0</ele><time>2026-04-18T11:12:11.701Z</time></trkpt><trkpt lat="46.0714564" lon="8.2912853"><ele>238.0</ele><time>2026-04-18T11:12:12.693Z</time></trkpt><trkpt lat="46.0713375" lon="8.2912214"><ele>237.5</ele><time>2026-04-18T11:12:13.694Z</time></trkpt><trkpt lat="46.0712177" lon="8.291139"><ele>237.0</ele><time>2026-04-18T11:12:14.698Z</time></trkpt><trkpt lat="46.0711" lon="8.2910771"><ele>236.5</ele><time>2026-04-18T11:12:15.695Z</time></trkpt><trkpt lat="46.0709791" lon="8.2909957"><ele>236.0</ele><time>2026-04-18T11:12:16.697Z</time></trkpt><trkpt lat="46.0708599" lon="8.2909245"><ele>235.75</ele><time>2026-04-18T11:12:17.696Z</time></trkpt><trkpt lat="46.0707471" lon="8.2908349"><ele>235.5</ele><time>2026-04-18T11:12:18.692Z</time></trkpt><trkpt lat="46.0706303" lon="8.2907574"><ele>235.25</ele><time>2026-04-18T11:12:19.696Z</time></trkpt><trkpt lat="46.0705176" lon="8.2906834"><ele>235.0</ele><time>2026-04-18T11:12:20.694Z</time></trkpt><trkpt lat="46.0704175" lon="8.2905901"><ele>235.0</ele><time>2026-04-18T11:12:21.709Z</time></trkpt><trkpt lat="46.0703174" lon="8.2905078"><ele>235.0</ele><time>2026-04-18T11:12:22.707Z</time></trkpt><trkpt lat="46.0702172" lon="8.2904259"><ele>235.0</ele><time>2026-04-18T11:12:23.707Z</time></trkpt><trkpt lat="46.0701201" lon="8.2903461"><ele>235.0</ele><time>2026-04-18T11:12:24.703Z</time></trkpt><trkpt lat="46.0700263" lon="8.2902658"><ele>235.8</ele><time>2026-04-18T11:12:25.708Z</time></trkpt><trkpt lat="46.0699375" lon="8.2901839"><ele>236.6</ele><time>2026-04-18T11:12:26.702Z</time></trkpt><trkpt lat="46.0698477" lon="8.2900943"><ele>237.39999999999998</ele><time>2026-04-18T11:12:27.708Z</time></trkpt><trkpt lat="46.0697482" lon="8.2900212"><ele>238.2</ele><time>2026-04-18T11:12:28.699Z</time></trkpt><trkpt lat="46.0696469" lon="8.2899412"><ele>239.0</ele><time>2026-04-18T11:12:29.701Z</time></trkpt><trkpt lat="46.0695439" lon="8.2898625"><ele>239.0</ele><time>2026-04-18T11:12:30.7Z</time></trkpt><trkpt lat="46.0694459" lon="8.2897761"><ele>239.0</ele><time>2026-04-18T11:12:31.702Z</time></trkpt><trkpt lat="46.0693475" lon="8.289697"><ele>239.0</ele><time>2026-04-18T11:12:32.71Z</time></trkpt><trkpt lat="46.0692488" lon="8.2896151"><ele>239.0</ele><time>2026-04-18T11:12:33.686Z</time></trkpt><trkpt lat="46.0691535" lon="8.2895304"><ele>238.75</ele><time>2026-04-18T11:12:34.685Z</time></trkpt><trkpt lat="46.0690569" lon="8.2894457"><ele>238.5</ele><time>2026-04-18T11:12:35.695Z</time></trkpt><trkpt lat="46.0689594" lon="8.2893627"><ele>238.25</ele><time>2026-04-18T11:12:36.686Z</time></trkpt><trkpt lat="46.0688591" lon="8.2892774"><ele>238.0</ele><time>2026-04-18T11:12:37.704Z</time></trkpt><trkpt lat="46.0687579" lon="8.2891917"><ele>238.0</ele><time>2026-04-18T11:12:38.702Z</time></trkpt><trkpt lat="46.0686604" lon="8.2891116"><ele>238.0</ele><time>2026-04-18T11:12:39.715Z</time></trkpt><trkpt lat="46.0685598" lon="8.2890334"><ele>238.0</ele><time>2026-04-18T11:12:40.71Z</time></trkpt><trkpt lat="46.0684585" lon="8.2889702"><ele>238.0</ele><time>2026-04-18T11:12:41.707Z</time></trkpt><trkpt lat="46.0683611" lon="8.2889268"><ele>238.0</ele><time>2026-04-18T11:12:42.706Z</time></trkpt><trkpt lat="46.0682456" lon="8.2889055"><ele>237.5</ele><time>2026-04-18T11:12:43.703Z</time></trkpt><trkpt lat="46.0681345" lon="8.2889011"><ele>237.0</ele><time>2026-04-18T11:12:44.695Z</time></trkpt><trkpt lat="46.0680111" lon="8.2889021"><ele>236.5</ele><time>2026-04-18T11:12:45.687Z</time></trkpt><trkpt lat="46.0678935" lon="8.2889112"><ele>236.0</ele><time>2026-04-18T11:12:46.695Z</time></trkpt><trkpt lat="46.0677737" lon="8.2889135"><ele>236.0</ele><time>2026-04-18T11:12:47.687Z</time></trkpt><trkpt lat="46.0676553" lon="8.2888973"><ele>236.0</ele><time>2026-04-18T11:12:48.697Z</time></trkpt><trkpt lat="46.0675413" lon="8.2888637"><ele>236.0</ele><time>2026-04-18T11:12:49.69Z</time></trkpt><trkpt lat="46.0674345" lon="8.2888174"><ele>236.0</ele><time>2026-04-18T11:12:50.682Z</time></trkpt><trkpt lat="46.0673279" lon="8.2887582"><ele>238.0</ele><time>2026-04-18T11:12:51.689Z</time></trkpt><trkpt lat="46.0672191" lon="8.2886845"><ele>240.0</ele><time>2026-04-18T11:12:52.701Z</time></trkpt><trkpt lat="46.0671172" lon="8.2885923"><ele>242.0</ele><time>2026-04-18T11:12:53.685Z</time></trkpt><trkpt lat="46.0670116" lon="8.288501"><ele>244.0</ele><time>2026-04-18T11:12:54.7Z</time></trkpt><trkpt lat="46.0669154" lon="8.2884041"><ele>244.0</ele><time>2026-04-18T11:12:55.709Z</time></trkpt><trkpt lat="46.0668162" lon="8.2883068"><ele>244.0</ele><time>2026-04-18T11:12:56.703Z</time></trkpt><trkpt lat="46.0667116" lon="8.2882273"><ele>244.0</ele><time>2026-04-18T11:12:57.708Z</time></trkpt><trkpt lat="46.0666085" lon="8.2881595"><ele>244.0</ele><time>2026-04-18T11:12:58.705Z</time></trkpt><trkpt lat="46.0665012" lon="8.2880829"><ele>244.5</ele><time>2026-04-18T11:12:59.686Z</time></trkpt><trkpt lat="46.0663893" lon="8.2879972"><ele>245.0</ele><time>2026-04-18T11:13:00.688Z</time></trkpt><trkpt lat="46.0662757" lon="8.2878985"><ele>245.5</ele><time>2026-04-18T11:13:01.682Z</time></trkpt><trkpt lat="46.0661648" lon="8.2878145"><ele>246.0</ele><time>2026-04-18T11:13:02.685Z</time></trkpt><trkpt lat="46.0660644" lon="8.2877084"><ele>246.0</ele><time>2026-04-18T11:13:03.704Z</time></trkpt><trkpt lat="46.0659592" lon="8.2876"><ele>246.0</ele><time>2026-04-18T11:13:04.689Z</time></trkpt><trkpt lat="46.0658456" lon="8.2875037"><ele>246.0</ele><time>2026-04-18T11:13:05.7Z</time></trkpt><trkpt lat="46.065721" lon="8.2874219"><ele>246.0</ele><time>2026-04-18T11:13:06.69Z</time></trkpt><trkpt lat="46.0655902" lon="8.2873396"><ele>246.33333333333331</ele><time>2026-04-18T11:13:07.665Z</time></trkpt><trkpt lat="46.0654446" lon="8.2872437"><ele>246.66666666666666</ele><time>2026-04-18T11:13:08.677Z</time></trkpt><trkpt lat="46.065306" lon="8.2871525"><ele>247.0</ele><time>2026-04-18T11:13:09.675Z</time></trkpt><trkpt lat="46.0651689" lon="8.2870539"><ele>247.0</ele><time>2026-04-18T11:13:10.683Z</time></trkpt><trkpt lat="46.0650367" lon="8.2869618"><ele>247.0</ele><time>2026-04-18T11:13:11.699Z</time></trkpt><trkpt lat="46.0649108" lon="8.2868711"><ele>247.0</ele><time>2026-04-18T11:13:12.709Z</time></trkpt><trkpt lat="46.0647965" lon="8.2867777"><ele>247.0</ele><time>2026-04-18T11:13:13.7Z</time></trkpt><trkpt lat="46.0646727" lon="8.2866848"><ele>247.0</ele><time>2026-04-18T11:13:14.691Z</time></trkpt><trkpt lat="46.0645597" lon="8.2865652"><ele>247.0</ele><time>2026-04-18T11:13:15.703Z</time></trkpt><trkpt lat="46.0644485" lon="8.28642"><ele>247.0</ele><time>2026-04-18T11:13:16.689Z</time></trkpt><trkpt lat="46.0643471" lon="8.2862441"><ele>247.0</ele><time>2026-04-18T11:13:17.682Z</time></trkpt><trkpt lat="46.0642429" lon="8.2860738"><ele>247.0</ele><time>2026-04-18T11:13:18.676Z</time></trkpt><trkpt lat="46.0641416" lon="8.2858944"><ele>247.0</ele><time>2026-04-18T11:13:19.672Z</time></trkpt><trkpt lat="46.0640449" lon="8.2857437"><ele>247.0</ele><time>2026-04-18T11:13:20.685Z</time></trkpt><trkpt lat="46.0639397" lon="8.2856087"><ele>247.0</ele><time>2026-04-18T11:13:21.683Z</time></trkpt><trkpt lat="46.0638347" lon="8.2854713"><ele>249.75</ele><time>2026-04-18T11:13:22.689Z</time></trkpt><trkpt lat="46.0637177" lon="8.2853634"><ele>252.5</ele><time>2026-04-18T11:13:23.685Z</time></trkpt><trkpt lat="46.0635988" lon="8.2852573"><ele>255.25</ele><time>2026-04-18T11:13:24.677Z</time></trkpt><trkpt lat="46.0634825" lon="8.2851571"><ele>258.0</ele><time>2026-04-18T11:13:25.68Z</time></trkpt><trkpt lat="46.0633734" lon="8.2850513"><ele>258.0</ele><time>2026-04-18T11:13:26.676Z</time></trkpt><trkpt lat="46.0632919" lon="8.284911"><ele>258.0</ele><time>2026-04-18T11:13:27.694Z</time></trkpt><trkpt lat="46.0631958" lon="8.2847777"><ele>258.0</ele><time>2026-04-18T11:13:28.687Z</time></trkpt><trkpt lat="46.0631114" lon="8.2846214"><ele>258.0</ele><time>2026-04-18T11:13:29.681Z</time></trkpt><trkpt lat="46.0630288" lon="8.2844663"><ele>259.0</ele><time>2026-04-18T11:13:30.673Z</time></trkpt><trkpt lat="46.0629446" lon="8.2843162"><ele>260.0</ele><time>2026-04-18T11:13:31.676Z</time></trkpt><trkpt lat="46.0628455" lon="8.2841872"><ele>261.0</ele><time>2026-04-18T11:13:32.68Z</time></trkpt><trkpt lat="46.0627281" lon="8.2840798"><ele>262.0</ele><time>2026-04-18T11:13:33.68Z</time></trkpt><trkpt lat="46.0626196" lon="8.2839667"><ele>257.25</ele><time>2026-04-18T11:13:34.703Z</time></trkpt><trkpt lat="46.0625067" lon="8.2838739"><ele>252.5</ele><time>2026-04-18T11:13:35.686Z</time></trkpt><trkpt lat="46.0623813" lon="8.2838019"><ele>247.75</ele><time>2026-04-18T11:13:36.688Z</time></trkpt><trkpt lat="46.062252" lon="8.2837347"><ele>243.0</ele><time>2026-04-18T11:13:37.693Z</time></trkpt><trkpt lat="46.0621111" lon="8.283686"><ele>243.0</ele><time>2026-04-18T11:13:38.677Z</time></trkpt><trkpt lat="46.0619754" lon="8.2836657"><ele>243.0</ele><time>2026-04-18T11:13:39.678Z</time></trkpt><trkpt lat="46.0618248" lon="8.2835866"><ele>243.0</ele><time>2026-04-18T11:13:40.684Z</time></trkpt><trkpt lat="46.0616912" lon="8.2835683"><ele>243.0</ele><time>2026-04-18T11:13:41.679Z</time></trkpt><trkpt lat="46.0615565" lon="8.283583"><ele>243.0</ele><time>2026-04-18T11:13:42.687Z</time></trkpt><trkpt lat="46.061416" lon="8.2836033"><ele>243.0</ele><time>2026-04-18T11:13:43.68Z</time></trkpt><trkpt lat="46.0612662" lon="8.2835903"><ele>243.0</ele><time>2026-04-18T11:13:44.692Z</time></trkpt><trkpt lat="46.0611232" lon="8.2835682"><ele>243.0</ele><time>2026-04-18T11:13:45.695Z</time></trkpt><trkpt lat="46.0609779" lon="8.2835371"><ele>243.0</ele><time>2026-04-18T11:13:46.688Z</time></trkpt><trkpt lat="46.0608411" lon="8.2834755"><ele>243.0</ele><time>2026-04-18T11:13:47.686Z</time></trkpt><trkpt lat="46.0607047" lon="8.2833955"><ele>243.0</ele><time>2026-04-18T11:13:48.694Z</time></trkpt><trkpt lat="46.0605643" lon="8.2833311"><ele>243.0</ele><time>2026-04-18T11:13:49.679Z</time></trkpt><trkpt lat="46.0604264" lon="8.2832603"><ele>243.75</ele><time>2026-04-18T11:13:50.686Z</time></trkpt><trkpt lat="46.060292" lon="8.283189"><ele>244.5</ele><time>2026-04-18T11:13:51.679Z</time></trkpt><trkpt lat="46.0601568" lon="8.283116"><ele>245.25</ele><time>2026-04-18T11:13:52.682Z</time></trkpt><trkpt lat="46.0600331" lon="8.2830126"><ele>246.0</ele><time>2026-04-18T11:13:53.7Z</time></trkpt><trkpt lat="46.059909" lon="8.2829006"><ele>246.0</ele><time>2026-04-18T11:13:54.712Z</time></trkpt><trkpt lat="46.0597867" lon="8.2827978"><ele>246.0</ele><time>2026-04-18T11:13:55.704Z</time></trkpt><trkpt lat="46.0596601" lon="8.2826992"><ele>246.0</ele><time>2026-04-18T11:13:56.685Z</time></trkpt><trkpt lat="46.0595358" lon="8.2826025"><ele>246.0</ele><time>2026-04-18T11:13:57.685Z</time></trkpt><trkpt lat="46.0594137" lon="8.2825026"><ele>246.0</ele><time>2026-04-18T11:13:58.681Z</time></trkpt><trkpt lat="46.0592964" lon="8.2823988"><ele>246.0</ele><time>2026-04-18T11:13:59.681Z</time></trkpt><trkpt lat="46.0591825" lon="8.2822905"><ele>246.0</ele><time>2026-04-18T11:14:00.691Z</time></trkpt><trkpt lat="46.0590659" lon="8.2821953"><ele>246.0</ele><time>2026-04-18T11:14:01.692Z</time></trkpt><trkpt lat="46.0589479" lon="8.2820975"><ele>244.4</ele><time>2026-04-18T11:14:02.698Z</time></trkpt><trkpt lat="46.0588403" lon="8.2820084"><ele>242.8</ele><time>2026-04-18T11:14:03.693Z</time></trkpt><trkpt lat="46.0587435" lon="8.2819187"><ele>241.20000000000002</ele><time>2026-04-18T11:14:04.686Z</time></trkpt><trkpt lat="46.0586536" lon="8.2818534"><ele>239.60000000000002</ele><time>2026-04-18T11:14:05.699Z</time></trkpt><trkpt lat="46.0585518" lon="8.2818126"><ele>238.0</ele><time>2026-04-18T11:14:06.685Z</time></trkpt><trkpt lat="46.0584317" lon="8.2818233"><ele>238.0</ele><time>2026-04-18T11:14:07.675Z</time></trkpt><trkpt lat="46.0583593" lon="8.2818964"><ele>238.0</ele><time>2026-04-18T11:14:08.577Z</time></trkpt><trkpt lat="46.0582812" lon="8.2819825"><ele>238.0</ele><time>2026-04-18T11:14:09.558Z</time></trkpt><trkpt lat="46.0581618" lon="8.2820427"><ele>238.0</ele><time>2026-04-18T11:14:10.57Z</time></trkpt><trkpt lat="46.0580516" lon="8.2820698"><ele>238.0</ele><time>2026-04-18T11:14:11.583Z</time></trkpt><trkpt lat="46.0579463" lon="8.2821133"><ele>239.5</ele><time>2026-04-18T11:14:12.592Z</time></trkpt><trkpt lat="46.0578294" lon="8.2821127"><ele>241.0</ele><time>2026-04-18T11:14:13.59Z</time></trkpt><trkpt lat="46.0576955" lon="8.2820664"><ele>242.5</ele><time>2026-04-18T11:14:14.584Z</time></trkpt><trkpt lat="46.0575608" lon="8.2820414"><ele>244.0</ele><time>2026-04-18T11:14:15.587Z</time></trkpt><trkpt lat="46.057423" lon="8.2820183"><ele>245.75</ele><time>2026-04-18T11:14:16.582Z</time></trkpt><trkpt lat="46.05729" lon="8.2819817"><ele>247.5</ele><time>2026-04-18T11:14:17.586Z</time></trkpt><trkpt lat="46.0571527" lon="8.2819404"><ele>249.25</ele><time>2026-04-18T11:14:18.584Z</time></trkpt><trkpt lat="46.0570212" lon="8.281876"><ele>251.0</ele><time>2026-04-18T11:14:19.581Z</time></trkpt><trkpt lat="46.0568978" lon="8.2817483"><ele>251.0</ele><time>2026-04-18T11:14:20.58Z</time></trkpt><trkpt lat="46.0567871" lon="8.2815966"><ele>251.0</ele><time>2026-04-18T11:14:21.587Z</time></trkpt><trkpt lat="46.0567015" lon="8.2814755"><ele>251.0</ele><time>2026-04-18T11:14:22.585Z</time></trkpt><trkpt lat="46.0566156" lon="8.2813814"><ele>251.0</ele><time>2026-04-18T11:14:23.593Z</time></trkpt><trkpt lat="46.0565032" lon="8.2813212"><ele>247.25</ele><time>2026-04-18T11:14:24.589Z</time></trkpt><trkpt lat="46.0563886" lon="8.2812757"><ele>243.5</ele><time>2026-04-18T11:14:25.614Z</time></trkpt><trkpt lat="46.0562554" lon="8.2812523"><ele>239.75</ele><time>2026-04-18T11:14:26.578Z</time></trkpt><trkpt lat="46.0561535" lon="8.2812437"><ele>236.0</ele><time>2026-04-18T11:14:27.606Z</time></trkpt><trkpt lat="46.0560283" lon="8.2812586"><ele>236.0</ele><time>2026-04-18T11:14:28.594Z</time></trkpt><trkpt lat="46.0558749" lon="8.2812669"><ele>236.0</ele><time>2026-04-18T11:14:29.589Z</time></trkpt><trkpt lat="46.0557299" lon="8.2812513"><ele>236.0</ele><time>2026-04-18T11:14:30.592Z</time></trkpt><trkpt lat="46.0555832" lon="8.281202"><ele>236.25</ele><time>2026-04-18T11:14:31.592Z</time></trkpt><trkpt lat="46.0554437" lon="8.2811587"><ele>236.5</ele><time>2026-04-18T11:14:32.601Z</time></trkpt><trkpt lat="46.0553045" lon="8.2811349"><ele>236.75</ele><time>2026-04-18T11:14:33.589Z</time></trkpt><trkpt lat="46.0551651" lon="8.2810997"><ele>237.0</ele><time>2026-04-18T11:14:34.598Z</time></trkpt><trkpt lat="46.0550454" lon="8.2810455"><ele>238.0</ele><time>2026-04-18T11:14:35.594Z</time></trkpt><trkpt lat="46.054927" lon="8.2809931"><ele>239.0</ele><time>2026-04-18T11:14:36.596Z</time></trkpt><trkpt lat="46.0548091" lon="8.2809031"><ele>240.0</ele><time>2026-04-18T11:14:37.602Z</time></trkpt><trkpt lat="46.0546881" lon="8.2807978"><ele>241.0</ele><time>2026-04-18T11:14:38.595Z</time></trkpt><trkpt lat="46.0545762" lon="8.2806661"><ele>240.5</ele><time>2026-04-18T11:14:39.602Z</time></trkpt><trkpt lat="46.0544798" lon="8.2805128"><ele>240.0</ele><time>2026-04-18T11:14:40.603Z</time></trkpt><trkpt lat="46.0543823" lon="8.2803612"><ele>239.5</ele><time>2026-04-18T11:14:41.602Z</time></trkpt><trkpt lat="46.054298" lon="8.2802198"><ele>239.0</ele><time>2026-04-18T11:14:42.598Z</time></trkpt><trkpt lat="46.054201" lon="8.2801085"><ele>239.5</ele><time>2026-04-18T11:14:43.6Z</time></trkpt><trkpt lat="46.054103" lon="8.2799901"><ele>240.0</ele><time>2026-04-18T11:14:44.602Z</time></trkpt><trkpt lat="46.0540036" lon="8.2798795"><ele>240.5</ele><time>2026-04-18T11:14:45.602Z</time></trkpt><trkpt lat="46.0538958" lon="8.2797679"><ele>241.0</ele><time>2026-04-18T11:14:46.587Z</time></trkpt><trkpt lat="46.0537968" lon="8.2796535"><ele>239.75</ele><time>2026-04-18T11:14:47.607Z</time></trkpt><trkpt lat="46.0537019" lon="8.2795242"><ele>238.5</ele><time>2026-04-18T11:14:48.605Z</time></trkpt><trkpt lat="46.0536049" lon="8.2793927"><ele>237.25</ele><time>2026-04-18T11:14:49.605Z</time></trkpt><trkpt lat="46.0535027" lon="8.2792529"><ele>236.0</ele><time>2026-04-18T11:14:50.598Z</time></trkpt><trkpt lat="46.0534049" lon="8.2791194"><ele>236.0</ele><time>2026-04-18T11:14:51.6Z</time></trkpt><trkpt lat="46.0533054" lon="8.279018"><ele>236.0</ele><time>2026-04-18T11:14:52.597Z</time></trkpt><trkpt lat="46.053215" lon="8.2788959"><ele>236.0</ele><time>2026-04-18T11:14:53.591Z</time></trkpt><trkpt lat="46.0530906" lon="8.2787904"><ele>236.0</ele><time>2026-04-18T11:14:54.583Z</time></trkpt><trkpt lat="46.0529973" lon="8.2787036"><ele>235.25</ele><time>2026-04-18T11:14:55.599Z</time></trkpt><trkpt lat="46.0528822" lon="8.2786366"><ele>234.5</ele><time>2026-04-18T11:14:56.621Z</time></trkpt><trkpt lat="46.0527561" lon="8.2785967"><ele>233.75</ele><time>2026-04-18T11:14:57.611Z</time></trkpt><trkpt lat="46.0526284" lon="8.2785842"><ele>233.0</ele><time>2026-04-18T11:14:58.605Z</time></trkpt><trkpt lat="46.052494" lon="8.2785992"><ele>233.0</ele><time>2026-04-18T11:14:59.596Z</time></trkpt><trkpt lat="46.0523527" lon="8.2786302"><ele>233.0</ele><time>2026-04-18T11:15:00.594Z</time></trkpt><trkpt lat="46.0522195" lon="8.2786973"><ele>233.0</ele><time>2026-04-18T11:15:01.589Z</time></trkpt><trkpt lat="46.0520919" lon="8.2787607"><ele>233.0</ele><time>2026-04-18T11:15:02.587Z</time></trkpt><trkpt lat="46.0519557" lon="8.2788038"><ele>233.0</ele><time>2026-04-18T11:15:03.588Z</time></trkpt><trkpt lat="46.051817" lon="8.2788416"><ele>233.0</ele><time>2026-04-18T11:15:04.589Z</time></trkpt><trkpt lat="46.0516807" lon="8.2788757"><ele>233.0</ele><time>2026-04-18T11:15:05.59Z</time></trkpt><trkpt lat="46.0515541" lon="8.2788935"><ele>233.0</ele><time>2026-04-18T11:15:06.593Z</time></trkpt><trkpt lat="46.0514228" lon="8.2789416"><ele>233.25</ele><time>2026-04-18T11:15:07.594Z</time></trkpt><trkpt lat="46.051293" lon="8.2789899"><ele>233.5</ele><time>2026-04-18T11:15:08.593Z</time></trkpt><trkpt lat="46.0511594" lon="8.2790526"><ele>233.75</ele><time>2026-04-18T11:15:09.586Z</time></trkpt><trkpt lat="46.0510229" lon="8.2791006"><ele>234.0</ele><time>2026-04-18T11:15:10.594Z</time></trkpt><trkpt lat="46.0508927" lon="8.2791713"><ele>233.25</ele><time>2026-04-18T11:15:11.587Z</time></trkpt><trkpt lat="46.0507665" lon="8.2792079"><ele>232.5</ele><time>2026-04-18T11:15:12.588Z</time></trkpt><trkpt lat="46.050637" lon="8.2792392"><ele>231.75</ele><time>2026-04-18T11:15:13.588Z</time></trkpt><trkpt lat="46.0505322" lon="8.2792851"><ele>231.0</ele><time>2026-04-18T11:15:14.586Z</time></trkpt><trkpt lat="46.0503964" lon="8.2793184"><ele>231.0</ele><time>2026-04-18T11:15:15.602Z</time></trkpt><trkpt lat="46.0502705" lon="8.2793567"><ele>231.0</ele><time>2026-04-18T11:15:16.606Z</time></trkpt><trkpt lat="46.0501218" lon="8.2794168"><ele>231.0</ele><time>2026-04-18T11:15:17.594Z</time></trkpt><trkpt lat="46.0499835" lon="8.2794345"><ele>231.0</ele><time>2026-04-18T11:15:18.591Z</time></trkpt><trkpt lat="46.0498775" lon="8.2794226"><ele>231.0</ele><time>2026-04-18T11:15:19.593Z</time></trkpt><trkpt lat="46.0497482" lon="8.2794251"><ele>231.0</ele><time>2026-04-18T11:15:20.598Z</time></trkpt><trkpt lat="46.0496093" lon="8.2794489"><ele>231.0</ele><time>2026-04-18T11:15:21.59Z</time></trkpt><trkpt lat="46.0494833" lon="8.279432"><ele>231.0</ele><time>2026-04-18T11:15:22.591Z</time></trkpt><trkpt lat="46.0493562" lon="8.2794447"><ele>231.0</ele><time>2026-04-18T11:15:23.596Z</time></trkpt><trkpt lat="46.0492365" lon="8.2794435"><ele>231.0</ele><time>2026-04-18T11:15:24.599Z</time></trkpt><trkpt lat="46.0491104" lon="8.2794542"><ele>231.0</ele><time>2026-04-18T11:15:25.597Z</time></trkpt><trkpt lat="46.0489789" lon="8.2794692"><ele>231.0</ele><time>2026-04-18T11:15:26.596Z</time></trkpt><trkpt lat="46.0488488" lon="8.2794355"><ele>230.75</ele><time>2026-04-18T11:15:27.603Z</time></trkpt><trkpt lat="46.0487206" lon="8.2794114"><ele>230.5</ele><time>2026-04-18T11:15:28.59Z</time></trkpt><trkpt lat="46.0485861" lon="8.2793672"><ele>230.25</ele><time>2026-04-18T11:15:29.588Z</time></trkpt><trkpt lat="46.0484501" lon="8.2793206"><ele>230.0</ele><time>2026-04-18T11:15:30.589Z</time></trkpt><trkpt lat="46.0483222" lon="8.2792602"><ele>230.25</ele><time>2026-04-18T11:15:31.597Z</time></trkpt><trkpt lat="46.0481987" lon="8.279196"><ele>230.5</ele><time>2026-04-18T11:15:32.594Z</time></trkpt><trkpt lat="46.0480757" lon="8.2791427"><ele>230.75</ele><time>2026-04-18T11:15:33.599Z</time></trkpt><trkpt lat="46.0479527" lon="8.2791051"><ele>231.0</ele><time>2026-04-18T11:15:34.597Z</time></trkpt><trkpt lat="46.0478265" lon="8.279067"><ele>231.0</ele><time>2026-04-18T11:15:35.599Z</time></trkpt><trkpt lat="46.0477051" lon="8.2790406"><ele>231.0</ele><time>2026-04-18T11:15:36.601Z</time></trkpt><trkpt lat="46.0475777" lon="8.2790391"><ele>231.0</ele><time>2026-04-18T11:15:37.601Z</time></trkpt><trkpt lat="46.0474454" lon="8.2790512"><ele>231.0</ele><time>2026-04-18T11:15:38.595Z</time></trkpt><trkpt lat="46.0473121" lon="8.2790605"><ele>230.0</ele><time>2026-04-18T11:15:39.598Z</time></trkpt><trkpt lat="46.0471726" lon="8.2790771"><ele>229.0</ele><time>2026-04-18T11:15:40.598Z</time></trkpt><trkpt lat="46.0470435" lon="8.2790965"><ele>228.0</ele><time>2026-04-18T11:15:41.598Z</time></trkpt><trkpt lat="46.0469068" lon="8.2791045"><ele>227.0</ele><time>2026-04-18T11:15:42.588Z</time></trkpt><trkpt lat="46.0467687" lon="8.2791398"><ele>227.0</ele><time>2026-04-18T11:15:43.599Z</time></trkpt><trkpt lat="46.0466406" lon="8.2791755"><ele>227.0</ele><time>2026-04-18T11:15:44.591Z</time></trkpt><trkpt lat="46.0465027" lon="8.2791859"><ele>227.0</ele><time>2026-04-18T11:15:45.589Z</time></trkpt><trkpt lat="46.0463701" lon="8.2792209"><ele>227.0</ele><time>2026-04-18T11:15:46.589Z</time></trkpt><trkpt lat="46.0462182" lon="8.2792457"><ele>227.0</ele><time>2026-04-18T11:15:47.586Z</time></trkpt><trkpt lat="46.0460916" lon="8.2792493"><ele>227.0</ele><time>2026-04-18T11:15:48.575Z</time></trkpt><trkpt lat="46.0459659" lon="8.2792579"><ele>227.0</ele><time>2026-04-18T11:15:49.586Z</time></trkpt><trkpt lat="46.0458275" lon="8.2792934"><ele>227.0</ele><time>2026-04-18T11:15:50.585Z</time></trkpt><trkpt lat="46.0457038" lon="8.279315"><ele>227.5</ele><time>2026-04-18T11:15:51.582Z</time></trkpt><trkpt lat="46.0455728" lon="8.2793418"><ele>228.0</ele><time>2026-04-18T11:15:52.584Z</time></trkpt><trkpt lat="46.0454499" lon="8.2793375"><ele>228.5</ele><time>2026-04-18T11:15:53.588Z</time></trkpt><trkpt lat="46.045323" lon="8.2793285"><ele>229.0</ele><time>2026-04-18T11:15:54.594Z</time></trkpt><trkpt lat="46.0451763" lon="8.2793661"><ele>229.0</ele><time>2026-04-18T11:15:55.594Z</time></trkpt><trkpt lat="46.045036" lon="8.279365"><ele>229.0</ele><time>2026-04-18T11:15:56.593Z</time></trkpt><trkpt lat="46.0449085" lon="8.2793717"><ele>229.0</ele><time>2026-04-18T11:15:57.604Z</time></trkpt><trkpt lat="46.0447721" lon="8.2793628"><ele>229.0</ele><time>2026-04-18T11:15:58.613Z</time></trkpt><trkpt lat="46.0446236" lon="8.2793927"><ele>229.25</ele><time>2026-04-18T11:15:59.601Z</time></trkpt><trkpt lat="46.0444675" lon="8.2794138"><ele>229.5</ele><time>2026-04-18T11:16:00.604Z</time></trkpt><trkpt lat="46.0443275" lon="8.2794014"><ele>229.75</ele><time>2026-04-18T11:16:01.598Z</time></trkpt><trkpt lat="46.0441831" lon="8.2793916"><ele>230.0</ele><time>2026-04-18T11:16:02.604Z</time></trkpt><trkpt lat="46.044042" lon="8.2793637"><ele>230.0</ele><time>2026-04-18T11:16:03.6Z</time></trkpt><trkpt lat="46.0439055" lon="8.2793398"><ele>230.0</ele><time>2026-04-18T11:16:04.601Z</time></trkpt><trkpt lat="46.043764" lon="8.2793217"><ele>230.0</ele><time>2026-04-18T11:16:05.602Z</time></trkpt><trkpt lat="46.043628" lon="8.2792997"><ele>230.0</ele><time>2026-04-18T11:16:06.603Z</time></trkpt><trkpt lat="46.0434991" lon="8.2792796"><ele>230.0</ele><time>2026-04-18T11:16:07.601Z</time></trkpt><trkpt lat="46.0433651" lon="8.2792511"><ele>230.0</ele><time>2026-04-18T11:16:08.6Z</time></trkpt><trkpt lat="46.0432475" lon="8.2792087"><ele>230.0</ele><time>2026-04-18T11:16:09.608Z</time></trkpt><trkpt lat="46.0431129" lon="8.2791784"><ele>230.0</ele><time>2026-04-18T11:16:10.605Z</time></trkpt><trkpt lat="46.0429785" lon="8.2791564"><ele>230.25</ele><time>2026-04-18T11:16:11.597Z</time></trkpt><trkpt lat="46.0428383" lon="8.2791437"><ele>230.5</ele><time>2026-04-18T11:16:12.607Z</time></trkpt><trkpt lat="46.0427031" lon="8.2791327"><ele>230.75</ele><time>2026-04-18T11:16:13.601Z</time></trkpt><trkpt lat="46.0425726" lon="8.2791305"><ele>231.0</ele><time>2026-04-18T11:16:14.601Z</time></trkpt><trkpt lat="46.0424362" lon="8.2791082"><ele>231.75</ele><time>2026-04-18T11:16:15.606Z</time></trkpt><trkpt lat="46.0422964" lon="8.2790852"><ele>232.5</ele><time>2026-04-18T11:16:16.604Z</time></trkpt><trkpt lat="46.0421576" lon="8.2790715"><ele>233.25</ele><time>2026-04-18T11:16:17.607Z</time></trkpt><trkpt lat="46.042019" lon="8.2790791"><ele>234.0</ele><time>2026-04-18T11:16:18.599Z</time></trkpt><trkpt lat="46.0418788" lon="8.2790914"><ele>234.0</ele><time>2026-04-18T11:16:19.6Z</time></trkpt><trkpt lat="46.04174" lon="8.2791046"><ele>234.0</ele><time>2026-04-18T11:16:20.596Z</time></trkpt><trkpt lat="46.0416033" lon="8.2791165"><ele>234.0</ele><time>2026-04-18T11:16:21.596Z</time></trkpt><trkpt lat="46.0414718" lon="8.2791314"><ele>234.0</ele><time>2026-04-18T11:16:22.601Z</time></trkpt><trkpt lat="46.0413367" lon="8.279154"><ele>234.0</ele><time>2026-04-18T11:16:23.598Z</time></trkpt><trkpt lat="46.0412068" lon="8.2791668"><ele>234.0</ele><time>2026-04-18T11:16:24.605Z</time></trkpt><trkpt lat="46.0410662" lon="8.2791887"><ele>234.0</ele><time>2026-04-18T11:16:25.6Z</time></trkpt><trkpt lat="46.0409396" lon="8.2792028"><ele>234.0</ele><time>2026-04-18T11:16:26.6Z</time></trkpt><trkpt lat="46.0408031" lon="8.2792489"><ele>234.25</ele><time>2026-04-18T11:16:27.602Z</time></trkpt><trkpt lat="46.040684" lon="8.279261"><ele>234.5</ele><time>2026-04-18T11:16:28.596Z</time></trkpt><trkpt lat="46.0405644" lon="8.2792784"><ele>234.75</ele><time>2026-04-18T11:16:29.625Z</time></trkpt><trkpt lat="46.0404347" lon="8.2793097"><ele>235.0</ele><time>2026-04-18T11:16:30.602Z</time></trkpt><trkpt lat="46.0403207" lon="8.2793248"><ele>235.0</ele><time>2026-04-18T11:16:31.598Z</time></trkpt><trkpt lat="46.0402011" lon="8.2793532"><ele>235.0</ele><time>2026-04-18T11:16:32.601Z</time></trkpt><trkpt lat="46.040084" lon="8.2793623"><ele>235.0</ele><time>2026-04-18T11:16:33.6Z</time></trkpt><trkpt lat="46.0399662" lon="8.2793753"><ele>235.0</ele><time>2026-04-18T11:16:34.597Z</time></trkpt><trkpt lat="46.0398617" lon="8.2793743"><ele>234.6</ele><time>2026-04-18T11:16:35.591Z</time></trkpt><trkpt lat="46.0397578" lon="8.2793816"><ele>234.2</ele><time>2026-04-18T11:16:36.591Z</time></trkpt><trkpt lat="46.0396574" lon="8.2794015"><ele>233.8</ele><time>2026-04-18T11:16:37.592Z</time></trkpt><trkpt lat="46.0395482" lon="8.2794167"><ele>233.4</ele><time>2026-04-18T11:16:38.591Z</time></trkpt><trkpt lat="46.0394342" lon="8.2794561"><ele>233.0</ele><time>2026-04-18T11:16:39.593Z</time></trkpt><trkpt lat="46.0393154" lon="8.2795044"><ele>233.0</ele><time>2026-04-18T11:16:40.593Z</time></trkpt><trkpt lat="46.0391954" lon="8.2795482"><ele>233.0</ele><time>2026-04-18T11:16:41.59Z</time></trkpt><trkpt lat="46.0390703" lon="8.2796035"><ele>233.0</ele><time>2026-04-18T11:16:42.591Z</time></trkpt><trkpt lat="46.03895" lon="8.2796727"><ele>233.0</ele><time>2026-04-18T11:16:43.59Z</time></trkpt><trkpt lat="46.0388345" lon="8.2797273"><ele>233.25</ele><time>2026-04-18T11:16:44.589Z</time></trkpt><trkpt lat="46.0387145" lon="8.279788"><ele>233.5</ele><time>2026-04-18T11:16:45.582Z</time></trkpt><trkpt lat="46.0385908" lon="8.2798466"><ele>233.75</ele><time>2026-04-18T11:16:46.591Z</time></trkpt><trkpt lat="46.0384623" lon="8.2799128"><ele>234.0</ele><time>2026-04-18T11:16:47.592Z</time></trkpt><trkpt lat="46.0383402" lon="8.2799728"><ele>233.25</ele><time>2026-04-18T11:16:48.586Z</time></trkpt><trkpt lat="46.0382162" lon="8.2800249"><ele>232.5</ele><time>2026-04-18T11:16:49.591Z</time></trkpt><trkpt lat="46.0380914" lon="8.2800788"><ele>231.75</ele><time>2026-04-18T11:16:50.592Z</time></trkpt><trkpt lat="46.0379672" lon="8.2801322"><ele>231.0</ele><time>2026-04-18T11:16:51.595Z</time></trkpt><trkpt lat="46.0378517" lon="8.2801913"><ele>231.0</ele><time>2026-04-18T11:16:52.595Z</time></trkpt><trkpt lat="46.0377316" lon="8.2802518"><ele>231.0</ele><time>2026-04-18T11:16:53.59Z</time></trkpt><trkpt lat="46.0376092" lon="8.2803244"><ele>231.0</ele><time>2026-04-18T11:16:54.591Z</time></trkpt><trkpt lat="46.0374941" lon="8.2803819"><ele>231.0</ele><time>2026-04-18T11:16:55.599Z</time></trkpt><trkpt lat="46.0373846" lon="8.2804324"><ele>230.75</ele><time>2026-04-18T11:16:56.595Z</time></trkpt><trkpt lat="46.0372747" lon="8.2804797"><ele>230.5</ele><time>2026-04-18T11:16:57.592Z</time></trkpt><trkpt lat="46.0371658" lon="8.2805248"><ele>230.25</ele><time>2026-04-18T11:16:58.593Z</time></trkpt><trkpt lat="46.0370561" lon="8.280592"><ele>230.0</ele><time>2026-04-18T11:16:59.601Z</time></trkpt><trkpt lat="46.0369477" lon="8.2806323"><ele>229.8</ele><time>2026-04-18T11:17:00.584Z</time></trkpt><trkpt lat="46.0368452" lon="8.2806602"><ele>229.6</ele><time>2026-04-18T11:17:01.583Z</time></trkpt><trkpt lat="46.0367465" lon="8.2806636"><ele>229.39999999999998</ele><time>2026-04-18T11:17:02.584Z</time></trkpt><trkpt lat="46.0366481" lon="8.2806331"><ele>229.2</ele><time>2026-04-18T11:17:03.591Z</time></trkpt><trkpt lat="46.0365441" lon="8.2805702"><ele>229.0</ele><time>2026-04-18T11:17:04.584Z</time></trkpt><trkpt lat="46.0364475" lon="8.2804949"><ele>229.0</ele><time>2026-04-18T11:17:05.591Z</time></trkpt><trkpt lat="46.0363501" lon="8.2804328"><ele>228.99999999999997</ele><time>2026-04-18T11:17:06.591Z</time></trkpt><trkpt lat="46.0362449" lon="8.2804189"><ele>228.99999999999997</ele><time>2026-04-18T11:17:07.598Z</time></trkpt><trkpt lat="46.0361329" lon="8.2804507"><ele>229.0</ele><time>2026-04-18T11:17:08.599Z</time></trkpt><trkpt lat="46.036019" lon="8.2805126"><ele>229.0</ele><time>2026-04-18T11:17:09.59Z</time></trkpt><trkpt lat="46.0359068" lon="8.2805974"><ele>229.25</ele><time>2026-04-18T11:17:10.587Z</time></trkpt><trkpt lat="46.035798" lon="8.2807036"><ele>229.5</ele><time>2026-04-18T11:17:11.596Z</time></trkpt><trkpt lat="46.0356866" lon="8.28083"><ele>229.75</ele><time>2026-04-18T11:17:12.592Z</time></trkpt><trkpt lat="46.0355799" lon="8.2809761"><ele>230.0</ele><time>2026-04-18T11:17:13.592Z</time></trkpt><trkpt lat="46.035483" lon="8.281087"><ele>230.0</ele><time>2026-04-18T11:17:14.591Z</time></trkpt><trkpt lat="46.0353749" lon="8.281214"><ele>230.0</ele><time>2026-04-18T11:17:15.592Z</time></trkpt><trkpt lat="46.0352708" lon="8.2813426"><ele>230.0</ele><time>2026-04-18T11:17:16.59Z</time></trkpt><trkpt lat="46.0351829" lon="8.2814609"><ele>230.0</ele><time>2026-04-18T11:17:17.59Z</time></trkpt><trkpt lat="46.0350908" lon="8.2815782"><ele>230.0</ele><time>2026-04-18T11:17:18.593Z</time></trkpt><trkpt lat="46.0349987" lon="8.2816955"><ele>230.0</ele><time>2026-04-18T11:17:19.593Z</time></trkpt><trkpt lat="46.0349028" lon="8.2818339"><ele>230.0</ele><time>2026-04-18T11:17:20.593Z</time></trkpt><trkpt lat="46.0348215" lon="8.2819775"><ele>230.0</ele><time>2026-04-18T11:17:21.591Z</time></trkpt><trkpt lat="46.0347511" lon="8.2821216"><ele>230.0</ele><time>2026-04-18T11:17:22.595Z</time></trkpt><trkpt lat="46.0346752" lon="8.2822639"><ele>230.0</ele><time>2026-04-18T11:17:23.598Z</time></trkpt><trkpt lat="46.0346007" lon="8.2824121"><ele>230.0</ele><time>2026-04-18T11:17:24.589Z</time></trkpt><trkpt lat="46.034507" lon="8.2825422"><ele>230.0</ele><time>2026-04-18T11:17:25.598Z</time></trkpt><trkpt lat="46.0344041" lon="8.2826396"><ele>229.6</ele><time>2026-04-18T11:17:26.591Z</time></trkpt><trkpt lat="46.0343041" lon="8.2827183"><ele>229.2</ele><time>2026-04-18T11:17:27.61Z</time></trkpt><trkpt lat="46.034194" lon="8.2827609"><ele>228.8</ele><time>2026-04-18T11:17:28.596Z</time></trkpt><trkpt lat="46.0340888" lon="8.2827755"><ele>228.4</ele><time>2026-04-18T11:17:29.589Z</time></trkpt><trkpt lat="46.0339794" lon="8.2827541"><ele>228.0</ele><time>2026-04-18T11:17:30.611Z</time></trkpt><trkpt lat="46.0338739" lon="8.2827107"><ele>228.0</ele><time>2026-04-18T11:17:31.586Z</time></trkpt><trkpt lat="46.0337687" lon="8.2826615"><ele>228.0</ele><time>2026-04-18T11:17:32.585Z</time></trkpt><trkpt lat="46.0336628" lon="8.282643"><ele>228.0</ele><time>2026-04-18T11:17:33.586Z</time></trkpt><trkpt lat="46.0335674" lon="8.2826562"><ele>228.0</ele><time>2026-04-18T11:17:34.594Z</time></trkpt><trkpt lat="46.0334755" lon="8.2827031"><ele>228.0</ele><time>2026-04-18T11:17:35.587Z</time></trkpt><trkpt lat="46.0333885" lon="8.2827594"><ele>228.0</ele><time>2026-04-18T11:17:36.588Z</time></trkpt><trkpt lat="46.0333092" lon="8.282856"><ele>228.0</ele><time>2026-04-18T11:17:37.59Z</time></trkpt><trkpt lat="46.0332396" lon="8.2829771"><ele>228.0</ele><time>2026-04-18T11:17:38.587Z</time></trkpt><trkpt lat="46.0331723" lon="8.2831199"><ele>228.0</ele><time>2026-04-18T11:17:39.584Z</time></trkpt><trkpt lat="46.0330914" lon="8.2832628"><ele>228.0</ele><time>2026-04-18T11:17:40.594Z</time></trkpt><trkpt lat="46.0329924" lon="8.2834013"><ele>228.0</ele><time>2026-04-18T11:17:41.581Z</time></trkpt><trkpt lat="46.0328896" lon="8.2835203"><ele>228.0</ele><time>2026-04-18T11:17:42.594Z</time></trkpt><trkpt lat="46.0327801" lon="8.2836135"><ele>228.0</ele><time>2026-04-18T11:17:43.587Z</time></trkpt><trkpt lat="46.0326611" lon="8.2836861"><ele>228.0</ele><time>2026-04-18T11:17:44.589Z</time></trkpt><trkpt lat="46.0325369" lon="8.2837468"><ele>228.0</ele><time>2026-04-18T11:17:45.596Z</time></trkpt><trkpt lat="46.0324068" lon="8.283799"><ele>228.0</ele><time>2026-04-18T11:17:46.585Z</time></trkpt><trkpt lat="46.0322729" lon="8.2838337"><ele>228.0</ele><time>2026-04-18T11:17:47.589Z</time></trkpt><trkpt lat="46.0321481" lon="8.2838694"><ele>227.25</ele><time>2026-04-18T11:17:48.597Z</time></trkpt><trkpt lat="46.0320208" lon="8.2839162"><ele>226.5</ele><time>2026-04-18T11:17:49.592Z</time></trkpt><trkpt lat="46.0318965" lon="8.2839528"><ele>225.75</ele><time>2026-04-18T11:17:50.595Z</time></trkpt><trkpt lat="46.0317815" lon="8.2840123"><ele>225.0</ele><time>2026-04-18T11:17:51.582Z</time></trkpt><trkpt lat="46.0316913" lon="8.2840405"><ele>225.75</ele><time>2026-04-18T11:17:52.588Z</time></trkpt><trkpt lat="46.0315882" lon="8.2841254"><ele>226.5</ele><time>2026-04-18T11:17:53.584Z</time></trkpt><trkpt lat="46.0314857" lon="8.2842442"><ele>227.25</ele><time>2026-04-18T11:17:54.585Z</time></trkpt><trkpt lat="46.0313855" lon="8.2843514"><ele>228.0</ele><time>2026-04-18T11:17:55.59Z</time></trkpt><trkpt lat="46.031287" lon="8.2844619"><ele>228.0</ele><time>2026-04-18T11:17:56.59Z</time></trkpt><trkpt lat="46.0311802" lon="8.28454"><ele>228.0</ele><time>2026-04-18T11:17:57.581Z</time></trkpt><trkpt lat="46.0310517" lon="8.2845899"><ele>228.0</ele><time>2026-04-18T11:17:58.581Z</time></trkpt><trkpt lat="46.0309172" lon="8.2846075"><ele>228.0</ele><time>2026-04-18T11:17:59.582Z</time></trkpt><trkpt lat="46.030773" lon="8.2846337"><ele>227.25</ele><time>2026-04-18T11:18:00.585Z</time></trkpt><trkpt lat="46.0306204" lon="8.284675"><ele>226.5</ele><time>2026-04-18T11:18:01.592Z</time></trkpt><trkpt lat="46.0304861" lon="8.2847175"><ele>225.75</ele><time>2026-04-18T11:18:02.592Z</time></trkpt><trkpt lat="46.0303516" lon="8.2847478"><ele>225.0</ele><time>2026-04-18T11:18:03.594Z</time></trkpt><trkpt lat="46.0302116" lon="8.2847639"><ele>227.75</ele><time>2026-04-18T11:18:04.594Z</time></trkpt><trkpt lat="46.0300824" lon="8.2847728"><ele>230.5</ele><time>2026-04-18T11:18:05.585Z</time></trkpt><trkpt lat="46.0299435" lon="8.2847988"><ele>233.25</ele><time>2026-04-18T11:18:06.592Z</time></trkpt><trkpt lat="46.0298137" lon="8.2848046"><ele>236.0</ele><time>2026-04-18T11:18:07.587Z</time></trkpt><trkpt lat="46.0296809" lon="8.2848101"><ele>236.25</ele><time>2026-04-18T11:18:08.589Z</time></trkpt><trkpt lat="46.029554" lon="8.2848038"><ele>236.5</ele><time>2026-04-18T11:18:09.59Z</time></trkpt><trkpt lat="46.0294216" lon="8.2848147"><ele>236.75</ele><time>2026-04-18T11:18:10.594Z</time></trkpt><trkpt lat="46.0292942" lon="8.2848132"><ele>237.0</ele><time>2026-04-18T11:18:11.591Z</time></trkpt><trkpt lat="46.0291659" lon="8.2848217"><ele>236.75</ele><time>2026-04-18T11:18:12.585Z</time></trkpt><trkpt lat="46.0290365" lon="8.2848219"><ele>236.5</ele><time>2026-04-18T11:18:13.596Z</time></trkpt><trkpt lat="46.0289036" lon="8.2848233"><ele>236.25</ele><time>2026-04-18T11:18:14.589Z</time></trkpt><trkpt lat="46.0287711" lon="8.284821"><ele>236.0</ele><time>2026-04-18T11:18:15.588Z</time></trkpt><trkpt lat="46.0286368" lon="8.2848124"><ele>236.0</ele><time>2026-04-18T11:18:16.59Z</time></trkpt><trkpt lat="46.0285055" lon="8.2847854"><ele>236.0</ele><time>2026-04-18T11:18:17.59Z</time></trkpt><trkpt lat="46.0283716" lon="8.2847686"><ele>236.0</ele><time>2026-04-18T11:18:18.584Z</time></trkpt><trkpt lat="46.0282412" lon="8.2847466"><ele>236.0</ele><time>2026-04-18T11:18:19.588Z</time></trkpt><trkpt lat="46.0281116" lon="8.2847282"><ele>233.25</ele><time>2026-04-18T11:18:20.589Z</time></trkpt><trkpt lat="46.0279816" lon="8.2847054"><ele>230.5</ele><time>2026-04-18T11:18:21.585Z</time></trkpt><trkpt lat="46.0278591" lon="8.2846649"><ele>227.75</ele><time>2026-04-18T11:18:22.587Z</time></trkpt><trkpt lat="46.0277187" lon="8.2846426"><ele>225.0</ele><time>2026-04-18T11:18:23.587Z</time></trkpt><trkpt lat="46.0275838" lon="8.2846248"><ele>225.5</ele><time>2026-04-18T11:18:24.588Z</time></trkpt><trkpt lat="46.0274407" lon="8.2845986"><ele>226.0</ele><time>2026-04-18T11:18:25.586Z</time></trkpt><trkpt lat="46.0273156" lon="8.2845475"><ele>226.5</ele><time>2026-04-18T11:18:26.591Z</time></trkpt><trkpt lat="46.0271842" lon="8.2844816"><ele>227.0</ele><time>2026-04-18T11:18:27.589Z</time></trkpt><trkpt lat="46.0270567" lon="8.2844085"><ele>227.0</ele><time>2026-04-18T11:18:28.59Z</time></trkpt><trkpt lat="46.0269245" lon="8.2843636"><ele>227.0</ele><time>2026-04-18T11:18:29.591Z</time></trkpt><trkpt lat="46.0267962" lon="8.2843138"><ele>227.0</ele><time>2026-04-18T11:18:30.593Z</time></trkpt><trkpt lat="46.0266728" lon="8.2842603"><ele>227.0</ele><time>2026-04-18T11:18:31.584Z</time></trkpt><trkpt lat="46.02655" lon="8.2842094"><ele>231.25</ele><time>2026-04-18T11:18:32.603Z</time></trkpt><trkpt lat="46.026425" lon="8.2841662"><ele>235.5</ele><time>2026-04-18T11:18:33.587Z</time></trkpt><trkpt lat="46.0262979" lon="8.2841322"><ele>239.75</ele><time>2026-04-18T11:18:34.593Z</time></trkpt><trkpt lat="46.0261757" lon="8.2840815"><ele>244.0</ele><time>2026-04-18T11:18:35.588Z</time></trkpt><trkpt lat="46.0260655" lon="8.2840382"><ele>244.0</ele><time>2026-04-18T11:18:36.588Z</time></trkpt><trkpt lat="46.0259632" lon="8.2839991"><ele>243.99999999999997</ele><time>2026-04-18T11:18:37.596Z</time></trkpt><trkpt lat="46.0258785" lon="8.2839642"><ele>243.99999999999997</ele><time>2026-04-18T11:18:38.58Z</time></trkpt><trkpt lat="46.0257873" lon="8.2839214"><ele>244.0</ele><time>2026-04-18T11:18:40.581Z</time></trkpt><trkpt lat="46.0258243" lon="8.2840274"><ele>244.0</ele><time>2026-04-18T11:18:47.59Z</time></trkpt><trkpt lat="46.0259155" lon="8.2840444"><ele>244.0</ele><time>2026-04-18T11:18:48.578Z</time></trkpt><trkpt lat="46.0260309" lon="8.2840815"><ele>244.0</ele><time>2026-04-18T11:18:49.588Z</time></trkpt><trkpt lat="46.0261576" lon="8.2841368"><ele>244.0</ele><time>2026-04-18T11:18:50.591Z</time></trkpt><trkpt lat="46.0262868" lon="8.2841862"><ele>244.0</ele><time>2026-04-18T11:18:51.59Z</time></trkpt><trkpt lat="46.0264216" lon="8.2842248"><ele>244.0</ele><time>2026-04-18T11:18:52.591Z</time></trkpt><trkpt lat="46.0265513" lon="8.2842544"><ele>243.99999999999997</ele><time>2026-04-18T11:18:53.587Z</time></trkpt><trkpt lat="46.0266658" lon="8.2842845"><ele>243.99999999999997</ele><time>2026-04-18T11:18:54.584Z</time></trkpt><trkpt lat="46.0267648" lon="8.2843236"><ele>244.0</ele><time>2026-04-18T11:18:55.589Z</time></trkpt><trkpt lat="46.0268331" lon="8.2843556"><ele>244.0</ele><time>2026-04-18T11:18:56.585Z</time></trkpt><trkpt lat="46.0268991" lon="8.2844089"><ele>245.39999999999998</ele><time>2026-04-18T11:18:58.591Z</time></trkpt><trkpt lat="46.0268523" lon="8.2845686"><ele>246.79999999999998</ele><time>2026-04-18T11:19:02.582Z</time></trkpt><trkpt lat="46.0268323" lon="8.2846938"><ele>248.20000000000002</ele><time>2026-04-18T11:19:04.584Z</time></trkpt><trkpt lat="46.0269074" lon="8.2847311"><ele>249.60000000000002</ele><time>2026-04-18T11:19:07.579Z</time></trkpt><trkpt lat="46.0270213" lon="8.284784"><ele>251.0</ele><time>2026-04-18T11:19:09.58Z</time></trkpt><trkpt lat="46.0270835" lon="8.284816"><ele>251.0</ele><time>2026-04-18T11:19:10.59Z</time></trkpt><trkpt lat="46.0272006" lon="8.2848836"><ele>251.00000000000003</ele><time>2026-04-18T11:19:12.585Z</time></trkpt><trkpt lat="46.0272677" lon="8.2849197"><ele>251.00000000000003</ele><time>2026-04-18T11:19:13.587Z</time></trkpt><trkpt lat="46.0273371" lon="8.2849475"><ele>251.0</ele><time>2026-04-18T11:19:14.588Z</time></trkpt><trkpt lat="46.0274091" lon="8.2849723"><ele>251.0</ele><time>2026-04-18T11:19:15.594Z</time></trkpt><trkpt lat="46.0275295" lon="8.2849877"><ele>247.4</ele><time>2026-04-18T11:19:17.586Z</time></trkpt><trkpt lat="46.0276437" lon="8.2849918"><ele>243.8</ele><time>2026-04-18T11:19:19.583Z</time></trkpt><trkpt lat="46.0277675" lon="8.2849939"><ele>240.20000000000002</ele><time>2026-04-18T11:19:21.59Z</time></trkpt><trkpt lat="46.0278393" lon="8.2850064"><ele>236.60000000000002</ele><time>2026-04-18T11:19:22.586Z</time></trkpt><trkpt lat="46.0279042" lon="8.2850003"><ele>233.0</ele><time>2026-04-18T11:19:23.593Z</time></trkpt><trkpt lat="46.0280311" lon="8.2850007"><ele>233.0</ele><time>2026-04-18T11:19:25.588Z</time></trkpt><trkpt lat="46.0281533" lon="8.2849839"><ele>233.0</ele><time>2026-04-18T11:19:27.594Z</time></trkpt><trkpt lat="46.028262" lon="8.2849681"><ele>233.0</ele><time>2026-04-18T11:19:29.596Z</time></trkpt><trkpt lat="46.0283499" lon="8.2849778"><ele>233.0</ele><time>2026-04-18T11:19:31.595Z</time></trkpt><trkpt lat="46.0283579" lon="8.285073"><ele>233.0</ele><time>2026-04-18T11:19:34.601Z</time></trkpt><trkpt lat="46.0282967" lon="8.2850204"><ele>233.00000000000003</ele><time>2026-04-18T11:19:38.595Z</time></trkpt><trkpt lat="46.0282242" lon="8.2850151"><ele>233.0</ele><time>2026-04-18T11:19:40.596Z</time></trkpt><trkpt lat="46.0281589" lon="8.2850285"><ele>233.0</ele><time>2026-04-18T11:19:41.592Z</time></trkpt><trkpt lat="46.0280889" lon="8.2850206"><ele>233.0</ele><time>2026-04-18T11:19:42.593Z</time></trkpt><trkpt lat="46.0280205" lon="8.2850234"><ele>233.00000000000003</ele><time>2026-04-18T11:19:43.592Z</time></trkpt><trkpt lat="46.0279506" lon="8.2850157"><ele>233.0</ele><time>2026-04-18T11:19:44.584Z</time></trkpt><trkpt lat="46.0278283" lon="8.2850135"><ele>233.0</ele><time>2026-04-18T11:19:46.604Z</time></trkpt><trkpt lat="46.0277134" lon="8.285023"><ele>233.0</ele><time>2026-04-18T11:19:48.596Z</time></trkpt><trkpt lat="46.0276011" lon="8.2850161"><ele>233.0</ele><time>2026-04-18T11:19:50.591Z</time></trkpt><trkpt lat="46.027482" lon="8.2850045"><ele>233.0</ele><time>2026-04-18T11:19:52.592Z</time></trkpt><trkpt lat="46.0273606" lon="8.2849897"><ele>231.8</ele><time>2026-04-18T11:19:54.592Z</time></trkpt><trkpt lat="46.027236" lon="8.2849438"><ele>230.60000000000002</ele><time>2026-04-18T11:19:56.596Z</time></trkpt><trkpt lat="46.0271716" lon="8.2849039"><ele>229.39999999999998</ele><time>2026-04-18T11:19:57.596Z</time></trkpt><trkpt lat="46.0271054" lon="8.2848705"><ele>228.2</ele><time>2026-04-18T11:19:58.597Z</time></trkpt><trkpt lat="46.0269968" lon="8.2848048"><ele>227.0</ele><time>2026-04-18T11:20:00.591Z</time></trkpt><trkpt lat="46.0269108" lon="8.2847557"><ele>227.00000000000003</ele><time>2026-04-18T11:20:02.581Z</time></trkpt><trkpt lat="46.0268474" lon="8.2846834"><ele>227.0</ele><time>2026-04-18T11:20:07.579Z</time></trkpt><trkpt lat="46.0268676" lon="8.2845869"><ele>227.0</ele><time>2026-04-18T11:20:09.58Z</time></trkpt><trkpt lat="46.026917" lon="8.284523"><ele>227.0</ele><time>2026-04-18T11:20:10.573Z</time></trkpt><trkpt lat="46.0269308" lon="8.2844179"><ele>227.00000000000003</ele><time>2026-04-18T11:20:14.59Z</time></trkpt><trkpt lat="46.0268738" lon="8.2843104"><ele>227.0</ele><time>2026-04-18T11:20:16.587Z</time></trkpt><trkpt lat="46.0267951" lon="8.2842736"><ele>227.0</ele><time>2026-04-18T11:20:17.589Z</time></trkpt><trkpt lat="46.026694" lon="8.2842441"><ele>227.0</ele><time>2026-04-18T11:20:18.584Z</time></trkpt><trkpt lat="46.0265694" lon="8.2841985"><ele>227.0</ele><time>2026-04-18T11:20:19.578Z</time></trkpt><trkpt lat="46.0264377" lon="8.2841479"><ele>227.0</ele><time>2026-04-18T11:20:20.578Z</time></trkpt><trkpt lat="46.026297" lon="8.2840973"><ele>227.0</ele><time>2026-04-18T11:20:21.588Z</time></trkpt><trkpt lat="46.0261329" lon="8.2840329"><ele>227.0</ele><time>2026-04-18T11:20:22.585Z</time></trkpt><trkpt lat="46.0259601" lon="8.2839971"><ele>227.0</ele><time>2026-04-18T11:20:23.585Z</time></trkpt><trkpt lat="46.0257965" lon="8.2839168"><ele>227.0</ele><time>2026-04-18T11:20:24.591Z</time></trkpt><trkpt lat="46.0256478" lon="8.2838609"><ele>227.0</ele><time>2026-04-18T11:20:25.592Z</time></trkpt><trkpt lat="46.0255009" lon="8.2837946"><ele>227.0</ele><time>2026-04-18T11:20:26.588Z</time></trkpt><trkpt lat="46.0253624" lon="8.2837336"><ele>227.0</ele><time>2026-04-18T11:20:27.59Z</time></trkpt><trkpt lat="46.0252095" lon="8.2836759"><ele>227.0</ele><time>2026-04-18T11:20:28.587Z</time></trkpt><trkpt lat="46.0250613" lon="8.2836207"><ele>227.0</ele><time>2026-04-18T11:20:29.589Z</time></trkpt><trkpt lat="46.0249099" lon="8.2835763"><ele>228.75</ele><time>2026-04-18T11:20:30.58Z</time></trkpt><trkpt lat="46.0247584" lon="8.2835543"><ele>230.5</ele><time>2026-04-18T11:20:31.588Z</time></trkpt><trkpt lat="46.0246112" lon="8.2835365"><ele>232.25</ele><time>2026-04-18T11:20:32.582Z</time></trkpt><trkpt lat="46.0244628" lon="8.2835139"><ele>234.0</ele><time>2026-04-18T11:20:33.582Z</time></trkpt><trkpt lat="46.0243117" lon="8.2834724"><ele>234.0</ele><time>2026-04-18T11:20:34.584Z</time></trkpt><trkpt lat="46.0241659" lon="8.2834538"><ele>234.0</ele><time>2026-04-18T11:20:35.591Z</time></trkpt><trkpt lat="46.0240208" lon="8.2834104"><ele>234.0</ele><time>2026-04-18T11:20:36.596Z</time></trkpt><trkpt lat="46.0238731" lon="8.2833963"><ele>234.0</ele><time>2026-04-18T11:20:37.585Z</time></trkpt><trkpt lat="46.0237419" lon="8.283337"><ele>232.0</ele><time>2026-04-18T11:20:38.587Z</time></trkpt><trkpt lat="46.0236131" lon="8.2832544"><ele>230.0</ele><time>2026-04-18T11:20:39.585Z</time></trkpt><trkpt lat="46.0234762" lon="8.2831572"><ele>228.0</ele><time>2026-04-18T11:20:40.583Z</time></trkpt><trkpt lat="46.0233718" lon="8.283049"><ele>226.0</ele><time>2026-04-18T11:20:41.587Z</time></trkpt><trkpt lat="46.0232659" lon="8.2829617"><ele>226.0</ele><time>2026-04-18T11:20:42.581Z</time></trkpt><trkpt lat="46.0231648" lon="8.2829002"><ele>226.0</ele><time>2026-04-18T11:20:43.58Z</time></trkpt><trkpt lat="46.0230507" lon="8.2828497"><ele>226.0</ele><time>2026-04-18T11:20:44.584Z</time></trkpt><trkpt lat="46.0229371" lon="8.2828452"><ele>226.0</ele><time>2026-04-18T11:20:45.585Z</time></trkpt><trkpt lat="46.0228289" lon="8.2828674"><ele>226.0</ele><time>2026-04-18T11:20:46.584Z</time></trkpt><trkpt lat="46.0227459" lon="8.2829191"><ele>226.00000000000003</ele><time>2026-04-18T11:20:47.585Z</time></trkpt><trkpt lat="46.0226564" lon="8.2829663"><ele>226.00000000000003</ele><time>2026-04-18T11:20:48.575Z</time></trkpt><trkpt lat="46.0225824" lon="8.283019"><ele>226.0</ele><time>2026-04-18T11:20:49.567Z</time></trkpt><trkpt lat="46.0225114" lon="8.2830819"><ele>226.0</ele><time>2026-04-18T11:20:50.567Z</time></trkpt><trkpt lat="46.0224071" lon="8.2831082"><ele>226.8</ele><time>2026-04-18T11:20:51.562Z</time></trkpt><trkpt lat="46.0223035" lon="8.2831266"><ele>227.60000000000002</ele><time>2026-04-18T11:20:52.549Z</time></trkpt><trkpt lat="46.022219" lon="8.2831948"><ele>228.4</ele><time>2026-04-18T11:20:53.559Z</time></trkpt><trkpt lat="46.0221188" lon="8.2832755"><ele>229.2</ele><time>2026-04-18T11:21:02.588Z</time></trkpt><trkpt lat="46.0220252" lon="8.2833471"><ele>230.0</ele><time>2026-04-18T11:21:03.583Z</time></trkpt><trkpt lat="46.0219155" lon="8.2834209"><ele>230.0</ele><time>2026-04-18T11:21:04.582Z</time></trkpt><trkpt lat="46.0217792" lon="8.2834985"><ele>230.0</ele><time>2026-04-18T11:21:05.582Z</time></trkpt><trkpt lat="46.0216443" lon="8.2835698"><ele>230.0</ele><time>2026-04-18T11:21:06.581Z</time></trkpt><trkpt lat="46.0214984" lon="8.2836303"><ele>230.0</ele><time>2026-04-18T11:21:07.596Z</time></trkpt><trkpt lat="46.0213603" lon="8.2836976"><ele>229.0</ele><time>2026-04-18T11:21:08.586Z</time></trkpt><trkpt lat="46.0212253" lon="8.283757"><ele>228.0</ele><time>2026-04-18T11:21:09.589Z</time></trkpt><trkpt lat="46.0210915" lon="8.283803"><ele>227.0</ele><time>2026-04-18T11:21:10.599Z</time></trkpt><trkpt lat="46.0209576" lon="8.2838339"><ele>226.0</ele><time>2026-04-18T11:21:11.592Z</time></trkpt><trkpt lat="46.0208404" lon="8.283901"><ele>226.0</ele><time>2026-04-18T11:21:12.599Z</time></trkpt><trkpt lat="46.0207399" lon="8.2839721"><ele>226.00000000000003</ele><time>2026-04-18T11:21:13.679Z</time></trkpt><trkpt lat="46.0206543" lon="8.2840594"><ele>226.00000000000003</ele><time>2026-04-18T11:21:14.689Z</time></trkpt><trkpt lat="46.0205829" lon="8.2841564"><ele>226.0</ele><time>2026-04-18T11:21:15.677Z</time></trkpt><trkpt lat="46.0205211" lon="8.284255"><ele>226.0</ele><time>2026-04-18T11:21:16.671Z</time></trkpt><trkpt lat="46.0204652" lon="8.2843507"><ele>226.0</ele><time>2026-04-18T11:21:17.666Z</time></trkpt><trkpt lat="46.0204001" lon="8.2844288"><ele>226.00000000000003</ele><time>2026-04-18T11:21:18.673Z</time></trkpt><trkpt lat="46.0203059" lon="8.2844939"><ele>226.00000000000003</ele><time>2026-04-18T11:21:19.666Z</time></trkpt><trkpt lat="46.0201814" lon="8.2845444"><ele>226.0</ele><time>2026-04-18T11:21:20.675Z</time></trkpt><trkpt lat="46.020054" lon="8.2845775"><ele>226.0</ele><time>2026-04-18T11:21:21.676Z</time></trkpt><trkpt lat="46.0199207" lon="8.2846132"><ele>225.5</ele><time>2026-04-18T11:21:22.662Z</time></trkpt><trkpt lat="46.0197801" lon="8.2846445"><ele>225.0</ele><time>2026-04-18T11:21:23.667Z</time></trkpt><trkpt lat="46.0196847" lon="8.2848048"><ele>224.5</ele><time>2026-04-18T11:21:24.658Z</time></trkpt><trkpt lat="46.0195446" lon="8.2848189"><ele>224.0</ele><time>2026-04-18T11:21:25.665Z</time></trkpt><trkpt lat="46.0194093" lon="8.2848255"><ele>225.0</ele><time>2026-04-18T11:21:26.676Z</time></trkpt><trkpt lat="46.0192799" lon="8.2848287"><ele>226.0</ele><time>2026-04-18T11:21:27.672Z</time></trkpt><trkpt lat="46.0191458" lon="8.2848562"><ele>227.0</ele><time>2026-04-18T11:21:28.685Z</time></trkpt><trkpt lat="46.0190173" lon="8.2848617"><ele>228.0</ele><time>2026-04-18T11:21:29.679Z</time></trkpt><trkpt lat="46.018892" lon="8.2848676"><ele>228.0</ele><time>2026-04-18T11:21:30.682Z</time></trkpt><trkpt lat="46.0187647" lon="8.2848672"><ele>228.0</ele><time>2026-04-18T11:21:31.679Z</time></trkpt><trkpt lat="46.0186291" lon="8.2849543"><ele>228.0</ele><time>2026-04-18T11:21:32.68Z</time></trkpt><trkpt lat="46.0185086" lon="8.2850364"><ele>228.0</ele><time>2026-04-18T11:21:33.674Z</time></trkpt><trkpt lat="46.0184069" lon="8.285066"><ele>228.0</ele><time>2026-04-18T11:21:34.683Z</time></trkpt><trkpt lat="46.0182864" lon="8.2851555"><ele>228.0</ele><time>2026-04-18T11:21:35.684Z</time></trkpt><trkpt lat="46.0181778" lon="8.2851753"><ele>228.0</ele><time>2026-04-18T11:21:36.69Z</time></trkpt><trkpt lat="46.0180747" lon="8.2851636"><ele>228.0</ele><time>2026-04-18T11:21:37.683Z</time></trkpt><trkpt lat="46.0179769" lon="8.285151"><ele>228.0</ele><time>2026-04-18T11:21:38.685Z</time></trkpt><trkpt lat="46.0178828" lon="8.2851598"><ele>228.0</ele><time>2026-04-18T11:21:39.676Z</time></trkpt><trkpt lat="46.0177863" lon="8.2851887"><ele>228.0</ele><time>2026-04-18T11:21:40.677Z</time></trkpt><trkpt lat="46.0176654" lon="8.2852658"><ele>228.0</ele><time>2026-04-18T11:21:41.579Z</time></trkpt><trkpt lat="46.017551" lon="8.2852656"><ele>228.0</ele><time>2026-04-18T11:21:42.588Z</time></trkpt><trkpt lat="46.0174207" lon="8.2852588"><ele>228.0</ele><time>2026-04-18T11:21:43.58Z</time></trkpt><trkpt lat="46.017291" lon="8.2852261"><ele>228.0</ele><time>2026-04-18T11:21:44.595Z</time></trkpt><trkpt lat="46.0171563" lon="8.2851772"><ele>228.0</ele><time>2026-04-18T11:21:45.589Z</time></trkpt><trkpt lat="46.0170131" lon="8.2851426"><ele>228.0</ele><time>2026-04-18T11:21:46.589Z</time></trkpt><trkpt lat="46.0168684" lon="8.2851047"><ele>228.0</ele><time>2026-04-18T11:21:47.594Z</time></trkpt><trkpt lat="46.016736" lon="8.2850547"><ele>228.0</ele><time>2026-04-18T11:21:48.591Z</time></trkpt><trkpt lat="46.0166006" lon="8.2850318"><ele>228.0</ele><time>2026-04-18T11:21:49.599Z</time></trkpt><trkpt lat="46.0164693" lon="8.2850036"><ele>228.0</ele><time>2026-04-18T11:21:50.598Z</time></trkpt><trkpt lat="46.0163303" lon="8.2849976"><ele>228.25</ele><time>2026-04-18T11:21:51.6Z</time></trkpt><trkpt lat="46.0161999" lon="8.2849868"><ele>228.5</ele><time>2026-04-18T11:21:52.599Z</time></trkpt><trkpt lat="46.0160693" lon="8.2849833"><ele>228.75</ele><time>2026-04-18T11:21:53.593Z</time></trkpt><trkpt lat="46.0159371" lon="8.2849886"><ele>229.0</ele><time>2026-04-18T11:21:54.597Z</time></trkpt><trkpt lat="46.0158102" lon="8.2850081"><ele>228.25</ele><time>2026-04-18T11:21:55.6Z</time></trkpt><trkpt lat="46.0156807" lon="8.2850456"><ele>227.5</ele><time>2026-04-18T11:21:56.595Z</time></trkpt><trkpt lat="46.0155498" lon="8.285111"><ele>226.75</ele><time>2026-04-18T11:21:57.595Z</time></trkpt><trkpt lat="46.0154242" lon="8.2851845"><ele>226.0</ele><time>2026-04-18T11:21:58.598Z</time></trkpt><trkpt lat="46.0153011" lon="8.2852661"><ele>226.0</ele><time>2026-04-18T11:21:59.594Z</time></trkpt><trkpt lat="46.0151908" lon="8.2853599"><ele>226.0</ele><time>2026-04-18T11:22:00.596Z</time></trkpt><trkpt lat="46.0150736" lon="8.2854669"><ele>226.0</ele><time>2026-04-18T11:22:01.597Z</time></trkpt><trkpt lat="46.0149661" lon="8.28556"><ele>226.0</ele><time>2026-04-18T11:22:02.594Z</time></trkpt><trkpt lat="46.0148537" lon="8.2856475"><ele>225.5</ele><time>2026-04-18T11:22:03.589Z</time></trkpt><trkpt lat="46.0147399" lon="8.2857369"><ele>225.0</ele><time>2026-04-18T11:22:04.592Z</time></trkpt><trkpt lat="46.0146143" lon="8.2858356"><ele>224.5</ele><time>2026-04-18T11:22:05.585Z</time></trkpt><trkpt lat="46.0145021" lon="8.2859257"><ele>224.0</ele><time>2026-04-18T11:22:06.591Z</time></trkpt><trkpt lat="46.0143827" lon="8.2860412"><ele>224.0</ele><time>2026-04-18T11:22:07.587Z</time></trkpt><trkpt lat="46.0142712" lon="8.2861449"><ele>224.0</ele><time>2026-04-18T11:22:08.596Z</time></trkpt><trkpt lat="46.0141664" lon="8.2862393"><ele>224.0</ele><time>2026-04-18T11:22:09.605Z</time></trkpt><trkpt lat="46.0140593" lon="8.2863239"><ele>224.0</ele><time>2026-04-18T11:22:10.597Z</time></trkpt><trkpt lat="46.013947" lon="8.2864081"><ele>223.75</ele><time>2026-04-18T11:22:11.591Z</time></trkpt><trkpt lat="46.0138433" lon="8.2864986"><ele>223.5</ele><time>2026-04-18T11:22:12.596Z</time></trkpt><trkpt lat="46.0137273" lon="8.2865931"><ele>223.25</ele><time>2026-04-18T11:22:13.588Z</time></trkpt><trkpt lat="46.0136044" lon="8.2867217"><ele>223.0</ele><time>2026-04-18T11:22:14.598Z</time></trkpt><trkpt lat="46.0134957" lon="8.2868572"><ele>223.0</ele><time>2026-04-18T11:22:15.589Z</time></trkpt><trkpt lat="46.0134004" lon="8.286972"><ele>223.0</ele><time>2026-04-18T11:22:16.596Z</time></trkpt><trkpt lat="46.0132947" lon="8.2871043"><ele>223.0</ele><time>2026-04-18T11:22:17.602Z</time></trkpt><trkpt lat="46.0131975" lon="8.2872308"><ele>223.0</ele><time>2026-04-18T11:22:18.587Z</time></trkpt><trkpt lat="46.0131049" lon="8.2873122"><ele>222.5</ele><time>2026-04-18T11:22:19.579Z</time></trkpt><trkpt lat="46.0129947" lon="8.2873949"><ele>222.0</ele><time>2026-04-18T11:22:20.591Z</time></trkpt><trkpt lat="46.0128849" lon="8.2875188"><ele>221.5</ele><time>2026-04-18T11:22:21.591Z</time></trkpt><trkpt lat="46.0127844" lon="8.2876445"><ele>221.0</ele><time>2026-04-18T11:22:22.592Z</time></trkpt><trkpt lat="46.012683" lon="8.2877795"><ele>221.0</ele><time>2026-04-18T11:22:23.589Z</time></trkpt><trkpt lat="46.0125825" lon="8.2879017"><ele>221.0</ele><time>2026-04-18T11:22:24.59Z</time></trkpt><trkpt lat="46.0124779" lon="8.2880254"><ele>221.0</ele><time>2026-04-18T11:22:25.592Z</time></trkpt><trkpt lat="46.0123643" lon="8.2881449"><ele>221.0</ele><time>2026-04-18T11:22:26.591Z</time></trkpt><trkpt lat="46.0122468" lon="8.2882671"><ele>220.75</ele><time>2026-04-18T11:22:27.601Z</time></trkpt><trkpt lat="46.0121335" lon="8.2883819"><ele>220.5</ele><time>2026-04-18T11:22:28.597Z</time></trkpt><trkpt lat="46.0120476" lon="8.2885018"><ele>220.25</ele><time>2026-04-18T11:22:29.596Z</time></trkpt><trkpt lat="46.0119621" lon="8.2886106"><ele>220.0</ele><time>2026-04-18T11:22:30.602Z</time></trkpt><trkpt lat="46.0118799" lon="8.2887269"><ele>220.0</ele><time>2026-04-18T11:22:31.598Z</time></trkpt><trkpt lat="46.0117957" lon="8.2888497"><ele>220.0</ele><time>2026-04-18T11:22:32.595Z</time></trkpt><trkpt lat="46.0117068" lon="8.2889506"><ele>220.0</ele><time>2026-04-18T11:22:33.592Z</time></trkpt><trkpt lat="46.0116266" lon="8.2890696"><ele>220.0</ele><time>2026-04-18T11:22:34.591Z</time></trkpt><trkpt lat="46.0115461" lon="8.2891915"><ele>220.25</ele><time>2026-04-18T11:22:35.591Z</time></trkpt><trkpt lat="46.0114632" lon="8.2893067"><ele>220.5</ele><time>2026-04-18T11:22:36.595Z</time></trkpt><trkpt lat="46.0113769" lon="8.2894332"><ele>220.75</ele><time>2026-04-18T11:22:37.59Z</time></trkpt><trkpt lat="46.011291" lon="8.28957"><ele>221.0</ele><time>2026-04-18T11:22:38.594Z</time></trkpt><trkpt lat="46.0112055" lon="8.2897037"><ele>220.75</ele><time>2026-04-18T11:22:39.593Z</time></trkpt><trkpt lat="46.0111245" lon="8.2898455"><ele>220.5</ele><time>2026-04-18T11:22:40.608Z</time></trkpt><trkpt lat="46.0110376" lon="8.2899805"><ele>220.25</ele><time>2026-04-18T11:22:41.595Z</time></trkpt><trkpt lat="46.0109505" lon="8.2901124"><ele>220.0</ele><time>2026-04-18T11:22:42.591Z</time></trkpt><trkpt lat="46.0108579" lon="8.2902456"><ele>220.0</ele><time>2026-04-18T11:22:43.591Z</time></trkpt><trkpt lat="46.0107725" lon="8.2903824"><ele>220.0</ele><time>2026-04-18T11:22:44.587Z</time></trkpt><trkpt lat="46.0106874" lon="8.2905273"><ele>220.0</ele><time>2026-04-18T11:22:45.589Z</time></trkpt><trkpt lat="46.0106018" lon="8.2906652"><ele>220.0</ele><time>2026-04-18T11:22:46.585Z</time></trkpt><trkpt lat="46.0105123" lon="8.2907948"><ele>220.0</ele><time>2026-04-18T11:22:47.587Z</time></trkpt><trkpt lat="46.0104272" lon="8.2909176"><ele>220.0</ele><time>2026-04-18T11:22:48.594Z</time></trkpt><trkpt lat="46.0103394" lon="8.2910344"><ele>220.0</ele><time>2026-04-18T11:22:49.592Z</time></trkpt><trkpt lat="46.0102354" lon="8.2911472"><ele>220.0</ele><time>2026-04-18T11:22:50.596Z</time></trkpt><trkpt lat="46.010122" lon="8.2912431"><ele>220.0</ele><time>2026-04-18T11:22:51.604Z</time></trkpt><trkpt lat="46.010012" lon="8.2913283"><ele>220.0</ele><time>2026-04-18T11:22:52.598Z</time></trkpt><trkpt lat="46.0099014" lon="8.2913982"><ele>220.0</ele><time>2026-04-18T11:22:53.59Z</time></trkpt><trkpt lat="46.009803" lon="8.2914647"><ele>220.0</ele><time>2026-04-18T11:22:54.592Z</time></trkpt><trkpt lat="46.0097072" lon="8.2915181"><ele>220.2</ele><time>2026-04-18T11:22:55.602Z</time></trkpt><trkpt lat="46.0096081" lon="8.2915741"><ele>220.4</ele><time>2026-04-18T11:22:56.604Z</time></trkpt><trkpt lat="46.0095128" lon="8.2916341"><ele>220.60000000000002</ele><time>2026-04-18T11:22:57.605Z</time></trkpt><trkpt lat="46.0094133" lon="8.2916911"><ele>220.8</ele><time>2026-04-18T11:22:58.61Z</time></trkpt><trkpt lat="46.0093227" lon="8.2917506"><ele>221.0</ele><time>2026-04-18T11:22:59.603Z</time></trkpt><trkpt lat="46.0092393" lon="8.2918217"><ele>221.20000000000002</ele><time>2026-04-18T11:23:00.599Z</time></trkpt><trkpt lat="46.0091463" lon="8.291876"><ele>221.40000000000003</ele><time>2026-04-18T11:23:01.605Z</time></trkpt><trkpt lat="46.0090618" lon="8.2919361"><ele>221.6</ele><time>2026-04-18T11:23:02.604Z</time></trkpt><trkpt lat="46.0089662" lon="8.2919874"><ele>221.8</ele><time>2026-04-18T11:23:03.605Z</time></trkpt><trkpt lat="46.0088788" lon="8.2920482"><ele>222.0</ele><time>2026-04-18T11:23:04.6Z</time></trkpt><trkpt lat="46.00879" lon="8.2921117"><ele>222.0</ele><time>2026-04-18T11:23:05.603Z</time></trkpt><trkpt lat="46.008694" lon="8.2921754"><ele>222.0</ele><time>2026-04-18T11:23:06.603Z</time></trkpt><trkpt lat="46.0086051" lon="8.2922422"><ele>222.0</ele><time>2026-04-18T11:23:07.603Z</time></trkpt><trkpt lat="46.0085126" lon="8.2923101"><ele>222.0</ele><time>2026-04-18T11:23:08.605Z</time></trkpt><trkpt lat="46.0084221" lon="8.2923692"><ele>222.0</ele><time>2026-04-18T11:23:09.606Z</time></trkpt><trkpt lat="46.0083337" lon="8.2924296"><ele>222.2</ele><time>2026-04-18T11:23:10.607Z</time></trkpt><trkpt lat="46.0082436" lon="8.2924988"><ele>222.39999999999998</ele><time>2026-04-18T11:23:11.613Z</time></trkpt><trkpt lat="46.0081505" lon="8.2925552"><ele>222.60000000000002</ele><time>2026-04-18T11:23:12.607Z</time></trkpt><trkpt lat="46.0080636" lon="8.2926097"><ele>222.8</ele><time>2026-04-18T11:23:13.609Z</time></trkpt><trkpt lat="46.0079835" lon="8.2926558"><ele>223.0</ele><time>2026-04-18T11:23:14.606Z</time></trkpt><trkpt lat="46.0079031" lon="8.2927136"><ele>222.99999999999997</ele><time>2026-04-18T11:23:15.604Z</time></trkpt><trkpt lat="46.0078262" lon="8.292781"><ele>223.0</ele><time>2026-04-18T11:23:16.601Z</time></trkpt><trkpt lat="46.0077495" lon="8.2928443"><ele>223.0</ele><time>2026-04-18T11:23:17.584Z</time></trkpt><trkpt lat="46.0076792" lon="8.2928935"><ele>223.0</ele><time>2026-04-18T11:23:18.582Z</time></trkpt><trkpt lat="46.0076268" lon="8.292967"><ele>222.99999999999997</ele><time>2026-04-18T11:23:19.59Z</time></trkpt><trkpt lat="46.0075739" lon="8.2930557"><ele>223.0</ele><time>2026-04-18T11:23:20.584Z</time></trkpt><trkpt lat="46.0075296" lon="8.2931401"><ele>222.66666666666666</ele><time>2026-04-18T11:23:21.584Z</time></trkpt><trkpt lat="46.0074904" lon="8.2932274"><ele>222.33333333333331</ele><time>2026-04-18T11:23:22.6Z</time></trkpt><trkpt lat="46.0074474" lon="8.2933038"><ele>222.0</ele><time>2026-04-18T11:23:23.597Z</time></trkpt><trkpt lat="46.0074032" lon="8.2933733"><ele>221.66666666666669</ele><time>2026-04-18T11:23:24.585Z</time></trkpt><trkpt lat="46.0073361" lon="8.2934866"><ele>221.33333333333334</ele><time>2026-04-18T11:23:26.574Z</time></trkpt><trkpt lat="46.0073291" lon="8.2935885"><ele>221.0</ele><time>2026-04-18T11:23:54.599Z</time></trkpt><trkpt lat="46.0073844" lon="8.2935138"><ele>221.00000000000003</ele><time>2026-04-18T11:23:57.599Z</time></trkpt><trkpt lat="46.007441" lon="8.2934472"><ele>221.0</ele><time>2026-04-18T11:24:00.605Z</time></trkpt><trkpt lat="46.0075033" lon="8.2934792"><ele>221.0</ele><time>2026-04-18T11:24:03.607Z</time></trkpt><trkpt lat="46.0075562" lon="8.2935434"><ele>221.0</ele><time>2026-04-18T11:24:53.606Z</time></trkpt><trkpt lat="46.0074828" lon="8.2936071"><ele>221.0</ele><time>2026-04-18T11:25:02.596Z</time></trkpt><trkpt lat="46.0074356" lon="8.2936751"><ele>221.00000000000003</ele><time>2026-04-18T11:25:04.598Z</time></trkpt><trkpt lat="46.0073904" lon="8.2937679"><ele>221.0</ele><time>2026-04-18T11:25:06.596Z</time></trkpt><trkpt lat="46.0073199" lon="8.2937398"><ele>221.0</ele><time>2026-04-18T11:25:14.604Z</time></trkpt><trkpt lat="46.0072532" lon="8.2937483"><ele>221.00000000000003</ele><time>2026-04-18T11:25:27.595Z</time></trkpt><trkpt lat="46.0071702" lon="8.2938487"><ele>221.00000000000003</ele><time>2026-04-18T11:25:29.591Z</time></trkpt><trkpt lat="46.0071174" lon="8.2939513"><ele>221.0</ele><time>2026-04-18T11:25:30.592Z</time></trkpt><trkpt lat="46.0070572" lon="8.2940732"><ele>221.0</ele><time>2026-04-18T11:25:31.593Z</time></trkpt><trkpt lat="46.0069911" lon="8.2941909"><ele>221.0</ele><time>2026-04-18T11:25:32.591Z</time></trkpt><trkpt lat="46.0069233" lon="8.2943143"><ele>221.00000000000003</ele><time>2026-04-18T11:25:33.596Z</time></trkpt><trkpt lat="46.0068584" lon="8.2944374"><ele>221.00000000000003</ele><time>2026-04-18T11:25:34.595Z</time></trkpt><trkpt lat="46.0067823" lon="8.2945625"><ele>221.0</ele><time>2026-04-18T11:25:35.596Z</time></trkpt><trkpt lat="46.0067116" lon="8.2946924"><ele>221.0</ele><time>2026-04-18T11:25:36.597Z</time></trkpt><trkpt lat="46.0066501" lon="8.2948221"><ele>221.00000000000003</ele><time>2026-04-18T11:25:37.597Z</time></trkpt><trkpt lat="46.0065938" lon="8.2949364"><ele>221.0</ele><time>2026-04-18T11:25:38.598Z</time></trkpt><trkpt lat="46.0065467" lon="8.295045"><ele>221.0</ele><time>2026-04-18T11:25:39.6Z</time></trkpt><trkpt lat="46.0064973" lon="8.2951394"><ele>221.0</ele><time>2026-04-18T11:25:40.603Z</time></trkpt><trkpt lat="46.0064497" lon="8.2952269"><ele>221.00000000000003</ele><time>2026-04-18T11:25:41.6Z</time></trkpt><trkpt lat="46.0064074" lon="8.2953213"><ele>221.0</ele><time>2026-04-18T11:25:42.594Z</time></trkpt><trkpt lat="46.0063639" lon="8.2954064"><ele>221.0</ele><time>2026-04-18T11:25:43.595Z</time></trkpt><trkpt lat="46.0063146" lon="8.2954872"><ele>221.0</ele><time>2026-04-18T11:25:44.593Z</time></trkpt><trkpt lat="46.0062606" lon="8.2955739"><ele>221.0</ele><time>2026-04-18T11:25:45.598Z</time></trkpt><trkpt lat="46.0062157" lon="8.295671"><ele>222.0</ele><time>2026-04-18T11:25:46.609Z</time></trkpt><trkpt lat="46.0061735" lon="8.2957728"><ele>222.0</ele><time>2026-04-18T11:25:47.601Z</time></trkpt></trkseg></trk></gpx>